# Wetter Temperatur Luftdruck Luftfeuchtigkeit Sichtweite Windgeschwindigkeit Windrichtung Zeit
1 Clouds 21 1011 94 10000 1.5 80 23:56 04.08.2020
2 Clouds 21 1011 94 10000 2.6 70 23:33 04.08.2020
3 Clouds 21 1011 94 10000 1.5 90 22:52 04.08.2020
4 Clouds 21 1010 94 10000 1.5 170 22:27 04.08.2020
5 Clouds 22 1010 94 10000 1.5 190 21:32 04.08.2020
6 Clouds 23 1011 94 10000 2.1 230 19:42 04.08.2020
7 Clouds 23 1011 88 10000 1.5 240 18:58 04.08.2020
8 Clouds 23 1011 83 10000 2.1 230 17:40 04.08.2020
9 Clouds 23 1011 83 10000 2.6 240 16:57 04.08.2020
10 Clouds 24 1011 88 10000 2.6 250 15:57 04.08.2020
11 Clear 24 1011 83 10000 1.5 300 15:29 04.08.2020
12 Clouds 24 1010 69 10000 1.5 360 14:18 04.08.2020
13 Clouds 25 1009 65 10000 3.1 10 12:34 04.08.2020
14 Clouds 26 1009 57 10000 4.1 10 11:32 04.08.2020
15 Clouds 27 1009 51 10000 4.6 360 10:53 04.08.2020
16 Clouds 28 1008 48 10000 5.7 360 10:34 04.08.2020
17 Clouds 29 1008 45 10000 5.1 360 09:18 04.08.2020
18 Clouds 29 1010 51 10000 5.7 340 06:57 04.08.2020
19 Clouds 20 1011 83 10000 1.5 120 23:40 03.08.2020
20 Clouds 21 1011 83 10000 2.6 120 22:34 03.08.2020
21 Clouds 21 1011 83 10000 2.1 140 21:53 03.08.2020
22 Clouds 21 1011 88 10000 2.1 150 21:26 03.08.2020
23 Clouds 21 1011 88 10000 2.1 160 20:51 03.08.2020
24 Clouds 21 1011 83 10000 1.5 190 19:45 03.08.2020
25 Clouds 22 1011 83 10000 0.5 160 18:44 03.08.2020
26 Clouds 21 1011 83 10000 0.5 160 18:26 03.08.2020
27 Clouds 22 1012 78 10000 1.5 80 17:45 03.08.2020
28 Clouds 22 1012 78 10000 2.47 337 16:25 03.08.2020
29 Clouds 23 1012 73 10000 1 170 14:57 03.08.2020
30 Clouds 24 1011 69 10000 1 200 14:27 03.08.2020
31 Clouds 23 1010 73 10000 1.5 360 13:23 03.08.2020
32 Clouds 24 1010 65 10000 3.1 20 11:59 03.08.2020
33 Clouds 26 1009 54 10000 4.1 20 10:46 03.08.2020
34 Clouds 28 1009 51 10000 5.1 360 09:29 03.08.2020
35 Clouds 28 1009 54 10000 5.7 350 08:26 03.08.2020
36 Clouds 25 1014 61 10000 2.6 160 02:26 03.08.2020
37 Clouds 25 1014 53 10000 2.1 150 01:53 03.08.2020
38 Clouds 21 1013 68 10000 2.6 150 00:53 03.08.2020
39 Clouds 18 1012 93 10000 5.1 90 22:54 02.08.2020
40 Clear 20 1012 88 10000 3.1 180 21:23 02.08.2020
41 Clear 20 1012 88 10000 2.6 190 20:59 02.08.2020
42 Clear 20 1012 88 10000 2.1 190 20:35 02.08.2020
43 Clouds 18 1012 88 10000 1 350 19:50 02.08.2020
44 Clouds 19 1012 77 10000 1.95 122 19:22 02.08.2020
45 Clouds 18 1012 88 10000 1.95 122 18:41 02.08.2020
46 Clouds 18 1013 82 10000 0.28 265 17:24 02.08.2020
47 Clouds 18 1013 77 10000 0.96 22 15:48 02.08.2020
48 Clear 19 1012 72 10000 2.07 49 14:54 02.08.2020
49 Clear 22 1012 64 10000 1 350 14:33 02.08.2020
50 Clouds 23 1012 64 10000 0.5 350 13:50 02.08.2020
51 Clouds 23 1011 60 10000 3.1 20 12:52 02.08.2020
52 Clouds 23 1011 57 10000 3.6 20 12:26 02.08.2020
53 Clouds 25 1010 47 10000 4.6 360 10:57 02.08.2020
54 Clouds 26 1010 44 10000 4.6 10 10:36 02.08.2020
55 Clouds 28 1010 42 10000 5.7 10 09:44 02.08.2020
56 Clouds 28 1010 44 10000 6.2 360 08:47 02.08.2020
57 Clouds 29 1010 39 10000 6.7 350 08:20 02.08.2020
58 Clear 28 1013 28 10000 4.6 90 04:56 02.08.2020
59 Clear 25 1015 50 10000 6.2 90 02:48 02.08.2020
60 Clear 19 1014 93 10000 2.1 140 00:30 02.08.2020
61 Clouds 17 1013 93 10000 1 120 23:29 01.08.2020
62 Clear 17 1013 93 10000 1 100 22:20 01.08.2020
63 Clear 18 1014 93 10000 1.5 100 20:26 01.08.2020
64 Clear 18 1014 88 10000 1 170 19:34 01.08.2020
65 Clear 19 1014 88 10000 0.5 200 18:45 01.08.2020
66 Clear 19 1014 88 10000 2.17 108 17:59 01.08.2020
67 Clear 19 1014 88 10000 1.99 132 17:22 01.08.2020
68 Clear 21 1014 83 10000 1 200 16:21 01.08.2020
69 Clear 21 1014 73 10000 1.5 190 15:23 01.08.2020
70 Clear 22 1014 73 10000 3.1 190 14:55 01.08.2020
71 Clear 23 1013 64 10000 2.65 51 13:26 01.08.2020
72 Clear 25 1012 50 10000 3.6 30 11:50 01.08.2020
73 Clouds 27 1011 39 10000 4.1 20 10:59 01.08.2020
74 Clear 31 1011 16 10000 2.6 100 07:43 01.08.2020
75 Clear 30 1013 20 10000 6.7 80 05:51 01.08.2020
76 Clouds 23 1015 69 10000 4.6 90 01:55 01.08.2020
77 Clouds 22 1015 78 10000 7.7 90 01:35 01.08.2020
78 Clouds 20 1014 93 10000 7.7 90 00:37 01.08.2020
79 Clouds 18 1013 82 10000 1.5 140 22:53 31.07.2020
80 Clouds 19 1013 77 10000 1.5 150 20:58 31.07.2020
81 Clouds 19 1013 72 10000 1.5 140 20:31 31.07.2020
82 Clouds 19 1013 77 10000 1.5 130 19:58 31.07.2020
83 Clouds 19 1013 72 10000 1.5 110 18:42 31.07.2020
84 Clouds 20 1013 77 10000 1.5 150 17:33 31.07.2020
85 Clouds 23 1013 64 10000 2.1 170 16:42 31.07.2020
86 Clouds 22 1013 68 10000 1.5 170 15:31 31.07.2020
87 Clouds 23 1012 57 10000 3.1 50 13:42 31.07.2020
88 Clouds 24 1012 57 10000 3.1 50 13:22 31.07.2020
89 Clouds 24 1012 57 10000 3.1 50 13:22 31.07.2020
90 Clouds 24 1012 53 10000 4.6 50 12:19 31.07.2020
91 Clouds 25 1011 47 10000 5.7 30 11:38 31.07.2020
92 Clear 26 1011 39 10000 6.7 30 10:49 31.07.2020
93 Clear 27 1010 34 10000 6.7 20 10:18 31.07.2020
94 Clear 29 1010 22 9000 6.2 40 09:30 31.07.2020
95 Clear 31 1010 11 10000 5.7 70 08:49 31.07.2020
96 Clear 31 1011 11 10000 5.7 60 07:25 31.07.2020
97 Clear 27 1014 31 10000 7.7 100 03:34 31.07.2020
98 Clear 23 1015 31 10000 9.3 100 01:52 31.07.2020
99 Clear 18 1014 39 10000 4.6 100 00:36 31.07.2020
100 Clear 15 1014 39 10000 4.1 110 23:47 30.07.2020
101 Clear 17 1013 58 10000 4.6 100 22:46 30.07.2020
102 Clear 18 1013 54 10000 4.1 100 22:21 30.07.2020
103 Clear 19 1013 22 10000 4.1 110 21:18 30.07.2020
104 Clear 19 1013 24 10000 4.1 120 20:54 30.07.2020
105 Clear 19 1013 43 10000 3.6 130 19:41 30.07.2020
106 Clear 20 1013 28 10000 3.6 150 18:54 30.07.2020
107 Clear 16 1014 63 10000 2.1 180 17:38 30.07.2020
108 Clear 17 1014 52 10000 2.1 170 16:55 30.07.2020
109 Clear 17 1014 63 10000 1 80 16:34 30.07.2020
110 Clear 16 1014 72 10000 0.5 60 15:55 30.07.2020
111 Clear 16 1014 77 10000 2.6 153 15:36 30.07.2020
112 Clear 18 1014 72 10000 2.53 178 14:56 30.07.2020
113 Clear 19 1014 68 10000 0.5 360 14:37 30.07.2020
114 Clear 19 1014 68 10000 0.5 360 14:19 30.07.2020
115 Clouds 20 1013 64 10000 0.5 360 13:20 30.07.2020
116 Clouds 21 1013 60 10000 1 340 12:59 30.07.2020
117 Clouds 23 1012 53 10000 1.5 340 12:30 30.07.2020
118 Clouds 23 1012 53 10000 1.5 340 12:30 30.07.2020
119 Clear 26 1011 34 10000 4.1 350 10:49 30.07.2020
120 Clear 27 1011 30 10000 4.6 340 10:24 30.07.2020
121 Clear 30 1010 7 10000 3.6 90 09:22 30.07.2020
122 Clear 31 1010 6 10000 4.1 330 08:57 30.07.2020
123 Clear 31 1011 7 10000 4.1 100 08:27 30.07.2020
124 Clear 28 1014 8 10000 8.7 130 05:19 30.07.2020
125 Clear 21 1016 22 10000 3.6 130 01:50 30.07.2020
126 Clear 14 1014 39 10000 2.6 90 23:59 29.07.2020
127 Clear 16 1014 29 10000 4.6 110 22:55 29.07.2020
128 Clear 19 1013 42 10000 5.1 100 22:21 29.07.2020
129 Clear 20 1013 42 10000 4.6 100 21:40 29.07.2020
130 Clear 20 1013 42 10000 4.1 110 20:51 29.07.2020
131 Clear 19 1013 34 10000 3.1 120 20:31 29.07.2020
132 Clear 18 1013 52 10000 3.6 130 19:49 29.07.2020
133 Clear 20 1013 52 10000 2.6 150 19:26 29.07.2020
134 Clear 18 1013 72 10000 3.1 150 18:55 29.07.2020
135 Clear 20 1013 82 10000 2.6 170 18:31 29.07.2020
136 Clear 20 1013 82 10000 2.6 180 17:54 29.07.2020
137 Clear 21 1013 77 10000 2.1 190 16:51 29.07.2020
138 Clear 21 1013 77 10000 2.6 200 16:22 29.07.2020
139 Clear 19 1013 72 10000 1.5 200 15:42 29.07.2020
140 Clear 19 1013 72 10000 1.5 200 15:19 29.07.2020
141 Clouds 20 1013 72 10000 0.5 20 14:22 29.07.2020
142 Clouds 21 1013 68 10000 0.5 350 13:45 29.07.2020
143 Clouds 22 1012 68 10000 1.5 350 13:18 29.07.2020
144 Clouds 24 1012 57 10000 3.1 340 12:24 29.07.2020
145 Clouds 24 1011 53 10000 2.1 310 11:51 29.07.2020
146 Clouds 25 1011 41 10000 2.6 340 11:32 29.07.2020
147 Clouds 28 1011 26 10000 3.1 320 10:39 29.07.2020
148 Clouds 31 1010 8 10000 4.6 320 09:44 29.07.2020
149 Clouds 31 1010 5 10000 2.6 100 08:42 29.07.2020
150 Clouds 31 1010 6 10000 5.1 90 08:18 29.07.2020
151 Clouds 29 1011 9 10000 3.6 110 06:38 29.07.2020
152 Clear 24 1014 17 10000 6.7 130 02:47 29.07.2020
153 Clouds 18 1013 33 10000 3.6 150 00:38 29.07.2020
154 Clouds 18 1012 27 10000 3.6 140 23:20 28.07.2020
155 Clouds 19 1012 25 10000 3.6 120 22:24 28.07.2020
156 Clouds 19 1012 25 10000 3.6 120 21:53 28.07.2020
157 Clouds 17 1012 25 10000 3.6 120 21:24 28.07.2020
158 Clouds 17 1012 29 10000 3.6 120 20:49 28.07.2020
159 Clouds 17 1012 37 10000 3.1 120 20:21 28.07.2020
160 Clouds 17 1012 52 10000 2.6 130 19:50 28.07.2020
161 Clouds 17 1012 72 10000 2.6 150 19:22 28.07.2020
162 Clouds 16 1013 88 10000 2.6 150 18:51 28.07.2020
163 Clouds 17 1013 88 10000 2.1 140 18:25 28.07.2020
164 Clouds 18 1013 82 10000 4.45 105 17:25 28.07.2020
165 Clouds 18 1013 77 10000 1.5 230 16:47 28.07.2020
166 Clouds 19 1013 72 10000 1.5 220 15:44 28.07.2020
167 Clouds 19 1013 72 10000 1.5 220 15:21 28.07.2020
168 Clouds 19 1013 68 10000 0.5 310 14:42 28.07.2020
169 Clouds 20 1013 64 10000 1 310 13:56 28.07.2020
170 Clouds 21 1012 64 10000 0.5 340 13:23 28.07.2020
171 Clouds 23 1011 50 10000 1.5 310 12:26 28.07.2020
172 Clouds 23 1011 50 10000 1.5 340 11:58 28.07.2020
173 Clouds 24 1011 47 10000 3.1 10 11:38 28.07.2020
174 Clouds 26 1010 41 10000 3.6 360 10:45 28.07.2020
175 Clouds 27 1010 39 10000 3.1 350 10:23 28.07.2020
176 Clouds 28 1010 34 10000 3.6 350 09:45 28.07.2020
177 Clouds 29 1010 30 10000 4.6 340 09:27 28.07.2020
178 Clouds 31 1009 11 10000 4.1 340 08:48 28.07.2020
179 Clouds 31 1010 11 10000 4.1 340 08:28 28.07.2020
180 Clouds 31 1010 11 10000 4.1 340 07:49 28.07.2020
181 Clouds 29 1012 14 10000 5.1 110 05:43 28.07.2020
182 Clouds 24 1014 22 10000 4.6 120 02:20 28.07.2020
183 Clouds 23 1014 25 10000 4.6 130 01:48 28.07.2020
184 Clouds 20 1013 32 10000 5.1 140 00:29 28.07.2020
185 Clouds 19 1012 34 10000 5.7 150 23:27 27.07.2020
186 Clouds 19 1012 37 10000 5.1 150 22:57 27.07.2020
187 Clouds 20 1012 34 10000 5.1 140 22:23 27.07.2020
188 Clouds 19 1011 37 10000 3.6 140 21:50 27.07.2020
189 Clouds 19 1011 52 10000 3.6 150 21:30 27.07.2020
190 Clear 19 1011 52 10000 2.6 170 20:45 27.07.2020
191 Clouds 19 1011 52 10000 2.6 170 20:21 27.07.2020
192 Clouds 20 1011 52 10000 2.6 170 19:50 27.07.2020
193 Clouds 20 1011 52 10000 2.6 170 19:29 27.07.2020
194 Clouds 19 1012 68 10000 2.1 170 18:37 27.07.2020
195 Clouds 19 1012 68 10000 2.1 170 18:37 27.07.2020
196 Clouds 19 1012 73 10000 2.6 200 17:47 27.07.2020
197 Clouds 19 1012 82 10000 1 240 17:27 27.07.2020
198 Clouds 20 1013 77 10000 1 240 16:36 27.07.2020
199 Clouds 20 1013 77 10000 1 240 16:18 27.07.2020
200 Clouds 20 1013 73 10000 2.1 250 15:40 27.07.2020
201 Clouds 21 1013 73 10000 2.1 250 15:21 27.07.2020
202 Clouds 22 1012 60 10000 2.6 250 14:43 27.07.2020
203 Clouds 23 1012 60 10000 2.6 250 14:20 27.07.2020
204 Clouds 23 1012 60 10000 3.1 240 13:31 27.07.2020
205 Clouds 23 1011 64 10000 2.6 280 12:54 27.07.2020
206 Clouds 24 1011 61 10000 2.6 280 12:35 27.07.2020
207 Clouds 25 1011 57 10000 2.6 300 11:51 27.07.2020
208 Clouds 26 1010 47 10000 1.5 290 11:21 27.07.2020
209 Clouds 28 1010 37 10000 3.6 330 10:36 27.07.2020
210 Clouds 32 1010 15 10000 4.1 150 09:43 27.07.2020
211 Clouds 32 1010 15 10000 4.1 150 09:20 27.07.2020
212 Clouds 31 1010 18 10000 2.1 140 08:59 27.07.2020
213 Clouds 31 1010 16 10000 5.1 150 08:40 27.07.2020
214 Clouds 31 1010 16 10000 4.1 30 07:49 27.07.2020
215 Clouds 31 1012 16 10000 4.1 30 06:46 27.07.2020
216 Clouds 31 1012 16 10000 4.1 30 06:24 27.07.2020
217 Clouds 24 1015 31 10000 4.6 130 02:19 27.07.2020
218 Clouds 20 1014 39 10000 4.1 140 00:41 27.07.2020
219 Clouds 19 1014 42 10000 3.6 140 23:34 26.07.2020
220 Clouds 19 1013 45 10000 3.6 140 22:59 26.07.2020
221 Clouds 19 1013 48 10000 3.6 130 22:38 26.07.2020
222 Clear 20 1013 45 10000 3.6 140 21:58 26.07.2020
223 Clear 20 1013 43 10000 4.1 150 21:40 26.07.2020
224 Clouds 21 1013 43 10000 4.1 150 21:20 26.07.2020
225 Clouds 21 1013 46 10000 4.1 140 20:49 26.07.2020
226 Clear 21 1013 53 10000 3.6 150 20:23 26.07.2020
227 Clear 19 1013 88 10000 2.1 160 19:44 26.07.2020
228 Clear 19 1013 88 10000 2.1 160 19:22 26.07.2020
229 Clear 19 1013 82 10000 0.5 200 18:46 26.07.2020
230 Clear 20 1013 82 10000 0.5 200 18:27 26.07.2020
231 Clear 20 1013 77 10000 1.5 210 17:49 26.07.2020
232 Clear 21 1014 73 10000 2.1 210 17:25 26.07.2020
233 Clear 22 1013 69 10000 1.5 230 16:53 26.07.2020
234 Clear 22 1014 69 10000 1 210 16:27 26.07.2020
235 Clear 22 1014 69 10000 2.1 210 15:43 26.07.2020
236 Clear 22 1014 69 10000 2.1 210 15:25 26.07.2020
237 Clear 22 1014 69 10000 2.1 250 14:57 26.07.2020
238 Clear 23 1014 64 10000 1.5 240 14:34 26.07.2020
239 Clouds 24 1013 61 10000 2.6 240 13:53 26.07.2020
240 Clouds 24 1013 61 10000 2.6 250 13:18 26.07.2020
241 Clouds 25 1012 57 10000 3.1 260 12:44 26.07.2020
242 Clouds 25 1012 57 10000 3.1 260 12:44 26.07.2020
243 Clouds 25 1012 57 10000 3.1 260 12:23 26.07.2020
244 Clouds 25 1011 47 10000 2.6 330 11:42 26.07.2020
245 Clouds 26 1011 47 10000 2.6 330 11:23 26.07.2020
246 Clouds 27 1011 42 10000 5.1 350 10:44 26.07.2020
247 Clouds 29 1010 42 10000 4.6 350 09:59 26.07.2020
248 Clouds 29 1010 39 10000 5.7 350 09:38 26.07.2020
249 Clear 30 1010 37 10000 5.7 350 08:56 26.07.2020
250 Clear 32 1010 21 10000 3.1 310 08:18 26.07.2020
251 Clear 31 1012 20 10000 4.1 100 06:30 26.07.2020
252 Clear 29 1014 23 10000 9.3 110 03:52 26.07.2020
253 Clear 24 1015 38 10000 4.6 120 01:23 26.07.2020
254 Clear 21 1014 49 10000 4.6 120 00:19 26.07.2020
255 Clear 20 1014 60 10000 4.6 130 23:32 25.07.2020
256 Clear 20 1014 68 10000 4.1 140 22:46 25.07.2020
257 Clear 20 1013 68 10000 4.1 150 22:18 25.07.2020
258 Clear 20 1013 88 9000 2.6 150 21:27 25.07.2020
259 Clear 20 1013 94 10000 1.5 70 20:45 25.07.2020
260 Clear 20 1013 94 10000 1.5 70 20:23 25.07.2020
261 Clear 20 1013 88 10000 1 180 19:44 25.07.2020
262 Clear 21 1013 83 10000 2.1 200 19:21 25.07.2020
263 Clear 22 1013 83 10000 1.5 180 18:40 25.07.2020
264 Clear 22 1013 88 10000 1 220 18:18 25.07.2020
265 Clear 22 1014 88 10000 1.5 220 17:42 25.07.2020
266 Clear 22 1014 88 10000 1.5 220 17:22 25.07.2020
267 Clear 23 1014 88 10000 2.1 230 16:57 25.07.2020
268 Clear 23 1014 83 10000 2.6 220 16:35 25.07.2020
269 Clear 23 1014 78 10000 3.1 220 15:52 25.07.2020
270 Clear 24 1014 78 10000 3.6 220 15:32 25.07.2020
271 Clear 24 1013 78 10000 3.1 230 14:57 25.07.2020
272 Clear 24 1013 78 10000 2.6 230 14:35 25.07.2020
273 Clear 24 1012 61 10000 1.5 260 13:44 25.07.2020
274 Clear 25 1012 61 10000 1.5 260 13:22 25.07.2020
275 Clear 24 1012 57 10000 1 360 12:57 25.07.2020
276 Clear 25 1012 57 10000 1.5 360 12:22 25.07.2020
277 Clear 26 1011 54 10000 2.1 350 11:59 25.07.2020
278 Clear 26 1011 57 10000 2.6 340 11:39 25.07.2020
279 Clear 28 1011 48 10000 4.6 340 10:48 25.07.2020
280 Clear 29 1011 48 10000 4.6 340 10:30 25.07.2020
281 Clear 29 1010 45 10000 3.6 340 09:59 25.07.2020
282 Clear 30 1010 42 10000 4.6 330 09:37 25.07.2020
283 Clear 31 1010 35 10000 4.6 320 09:18 25.07.2020
284 Clear 32 1010 22 10000 2.6 210 08:44 25.07.2020
285 Clouds 32 1010 24 10000 4.1 340 08:21 25.07.2020
286 Clouds 32 1011 25 10000 4.1 150 07:42 25.07.2020
287 Clouds 31 1012 25 10000 5.1 90 06:56 25.07.2020
288 Clouds 29 1014 48 10000 5.7 80 03:44 25.07.2020
289 Clear 27 1014 54 10000 4.1 90 02:36 25.07.2020
290 Clouds 25 1014 65 10000 3.1 80 01:47 25.07.2020
291 Clouds 25 1014 61 10000 2.1 110 01:20 25.07.2020
292 Clouds 21 1013 83 10000 2.1 150 00:46 25.07.2020
293 Clouds 20 1013 88 10000 2.52 113 00:25 25.07.2020
294 Clouds 20 1013 88 10000 2.52 113 23:57 24.07.2020
295 Clouds 20 1013 88 10000 0.5 130 23:37 24.07.2020
296 Clouds 20 1013 88 10000 0.5 130 23:19 24.07.2020
297 Clouds 20 1013 94 10000 0.5 130 22:42 24.07.2020
298 Clouds 20 1013 94 10000 0.5 130 22:22 24.07.2020
299 Clear 20 1012 94 10000 1.5 150 21:49 24.07.2020
300 Clear 20 1012 88 10000 0.5 120 21:27 24.07.2020
301 Clear 20 1012 94 10000 2.1 180 20:48 24.07.2020
302 Clear 21 1012 88 10000 2.1 180 20:29 24.07.2020
303 Clear 22 1012 83 10000 2.1 190 19:47 24.07.2020
304 Clear 21 1012 83 10000 2.1 190 19:27 24.07.2020
305 Clear 21 1013 83 10000 2.6 180 18:46 24.07.2020
306 Clear 22 1013 83 10000 2.6 180 18:25 24.07.2020
307 Clear 21 1013 83 10000 2.1 190 17:47 24.07.2020
308 Clear 21 1013 88 10000 1.5 150 17:18 24.07.2020
309 Clear 21 1013 83 10000 1 210 16:43 24.07.2020
310 Clear 21 1013 83 10000 1 210 16:24 24.07.2020
311 Clear 23 1013 78 10000 1.5 200 15:44 24.07.2020
312 Clear 24 1013 78 10000 1.5 200 15:23 24.07.2020
313 Clear 23 1013 73 10000 0.5 10 14:42 24.07.2020
314 Clouds 23 1013 73 10000 0.5 10 14:23 24.07.2020
315 Clouds 23 1012 69 10000 2.1 20 13:42 24.07.2020
316 Clouds 23 1012 69 10000 2.1 20 13:20 24.07.2020
317 Clouds 25 1011 61 10000 2.6 10 12:44 24.07.2020
318 Clouds 25 1011 61 10000 2.6 10 12:19 24.07.2020
319 Clouds 26 1011 54 10000 3.6 360 11:38 24.07.2020
320 Clouds 26 1011 54 10000 3.6 360 11:18 24.07.2020
321 Clouds 29 1010 42 10000 4.6 350 10:44 24.07.2020
322 Clouds 29 1010 42 10000 4.6 350 10:19 24.07.2020
323 Clouds 29 1010 42 10000 4.6 350 10:19 24.07.2020
324 Clouds 30 1010 40 10000 4.1 350 09:44 24.07.2020
325 Clouds 30 1010 37 10000 4.6 320 09:26 24.07.2020
326 Clouds 30 1010 33 10000 5.1 10 08:57 24.07.2020
327 Clouds 31 1010 29 10000 4.6 320 08:37 24.07.2020
328 Clear 31 1010 33 10000 4.6 320 07:58 24.07.2020
329 Clear 31 1010 35 10000 3.1 50 07:37 24.07.2020
330 Clear 31 1011 25 10000 3.1 70 07:18 24.07.2020
331 Clear 31 1012 27 10000 2.6 80 05:57 24.07.2020
332 Clear 30 1012 28 10000 4.6 70 05:32 24.07.2020
333 Clear 30 1013 32 10000 4.6 100 04:41 24.07.2020
334 Clear 25 1014 69 10000 1.5 70 01:59 24.07.2020
335 Clear 20 1013 82 10000 1 70 00:53 24.07.2020
336 Clear 18 1013 93 10000 1.5 70 00:26 24.07.2020
337 Clear 17 1013 93 10000 1.5 70 23:45 23.07.2020
338 Clear 17 1012 93 10000 1 70 23:26 23.07.2020
339 Clear 17 1012 88 10000 1 70 22:45 23.07.2020
340 Clear 17 1012 88 10000 1 70 22:23 23.07.2020
341 Clear 17 1012 93 10000 2.67 106 21:56 23.07.2020
342 Clear 18 1012 88 10000 2.67 106 21:37 23.07.2020
343 Clear 18 1012 88 10000 2.06 80 21:19 23.07.2020
344 Clear 18 1012 93 10000 1 230 20:54 23.07.2020
345 Clear 18 1012 88 10000 1.5 250 20:36 23.07.2020
346 Clouds 18 1012 88 10000 1.5 250 20:18 23.07.2020
347 Clouds 19 1012 82 10000 1 260 19:39 23.07.2020
348 Clouds 19 1012 82 10000 1 260 19:21 23.07.2020
349 Clouds 21 1012 68 10000 2.6 240 18:43 23.07.2020
350 Clouds 21 1012 68 10000 2.6 240 18:24 23.07.2020
351 Clouds 20 1012 73 10000 2.6 260 17:58 23.07.2020
352 Clouds 19 1012 77 10000 2.6 270 17:39 23.07.2020
353 Clouds 20 1012 77 10000 2.6 270 17:18 23.07.2020
354 Clouds 21 1012 64 10000 2.1 250 16:41 23.07.2020
355 Clouds 21 1012 64 10000 2.1 250 16:21 23.07.2020
356 Clouds 21 1012 64 10000 2.6 240 15:42 23.07.2020
357 Clouds 21 1012 64 10000 2.6 240 15:22 23.07.2020
358 Clouds 21 1012 68 10000 1.5 280 14:40 23.07.2020
359 Clouds 21 1012 68 10000 1.5 280 14:20 23.07.2020
360 Clouds 22 1012 68 10000 1.5 290 13:58 23.07.2020
361 Clouds 23 1012 60 10000 2.1 290 13:40 23.07.2020
362 Clouds 23 1012 60 10000 2.1 290 13:22 23.07.2020
363 Clouds 24 1011 57 10000 1.5 320 12:44 23.07.2020
364 Clouds 24 1011 57 10000 1.5 320 12:23 23.07.2020
365 Clouds 24 1011 50 10000 1.5 340 11:50 23.07.2020
366 Clouds 26 1010 47 10000 2.6 340 11:26 23.07.2020
367 Clouds 27 1010 37 10000 3.6 360 10:58 23.07.2020
368 Clouds 28 1010 30 10000 3.6 350 10:39 23.07.2020
369 Clouds 28 1010 30 10000 3.6 350 10:19 23.07.2020
370 Clouds 28 1010 30 10000 3.6 350 10:19 23.07.2020
371 Clouds 29 1010 30 10000 3.6 330 09:48 23.07.2020
372 Clear 31 1010 16 10000 3.6 310 09:28 23.07.2020
373 Clear 31 1010 16 10000 2.1 100 08:52 23.07.2020
374 Clear 31 1010 18 10000 3.6 120 08:32 23.07.2020
375 Clear 31 1010 19 10000 2.1 120 07:54 23.07.2020
376 Clouds 30 1011 19 10000 4.1 120 07:29 23.07.2020
377 Clouds 30 1012 19 10000 5.7 90 06:38 23.07.2020
378 Clouds 30 1012 17 10000 4.6 120 06:19 23.07.2020
379 Clouds 29 1012 18 10000 6.7 110 05:43 23.07.2020
380 Clear 29 1013 20 10000 4.6 120 04:38 23.07.2020
381 Clear 27 1014 24 10000 3.6 140 03:44 23.07.2020
382 Clear 24 1014 25 10000 4.6 130 02:29 23.07.2020
383 Clear 19 1013 29 10000 5.1 150 00:29 23.07.2020
384 Clear 19 1013 29 10000 3.6 140 23:56 22.07.2020
385 Clear 19 1013 32 10000 3.6 140 23:37 22.07.2020
386 Clear 19 1013 32 10000 3.6 140 23:18 22.07.2020
387 Clear 19 1012 32 10000 5.1 150 22:39 22.07.2020
388 Clear 19 1012 32 10000 5.1 150 22:20 22.07.2020
389 Clear 20 1012 30 10000 5.1 140 21:44 22.07.2020
390 Clear 19 1012 30 10000 5.1 140 21:20 22.07.2020
391 Clear 20 1012 32 10000 4.6 150 20:59 22.07.2020
392 Clear 20 1012 40 10000 3.1 160 20:38 22.07.2020
393 Clouds 20 1012 40 10000 3.1 160 20:20 22.07.2020
394 Clouds 20 1012 40 10000 3.1 160 20:20 22.07.2020
395 Clouds 20 1012 37 10000 3.6 160 19:59 22.07.2020
396 Clouds 20 1012 60 10000 2.6 150 19:40 22.07.2020
397 Clouds 19 1012 82 10000 2.1 180 19:20 22.07.2020
398 Clouds 18 1013 82 10000 1.5 180 18:45 22.07.2020
399 Clouds 18 1013 82 10000 2.97 127 18:26 22.07.2020
400 Clouds 18 1013 82 10000 2.97 127 17:44 22.07.2020
401 Clouds 18 1013 82 10000 1.92 140 17:25 22.07.2020
402 Clouds 19 1013 77 10000 0.5 210 16:56 22.07.2020
403 Clouds 20 1013 73 10000 1.5 210 16:38 22.07.2020
404 Clouds 20 1013 73 10000 1.5 210 16:20 22.07.2020
405 Clouds 21 1013 68 10000 1.5 190 15:57 22.07.2020
406 Clouds 21 1013 64 10000 2.1 240 15:38 22.07.2020
407 Clouds 21 1013 64 10000 2.1 240 15:20 22.07.2020
408 Clouds 22 1013 64 10000 2.1 250 14:40 22.07.2020
409 Clouds 22 1013 64 10000 2.1 250 14:19 22.07.2020
410 Clouds 22 1012 64 10000 2.6 270 13:45 22.07.2020
411 Clouds 22 1012 64 10000 2.6 270 13:26 22.07.2020
412 Clouds 22 1012 69 10000 0.5 340 12:59 22.07.2020
413 Clouds 24 1012 61 10000 1.5 340 12:40 22.07.2020
414 Clouds 24 1011 57 10000 2.1 350 12:20 22.07.2020
415 Clouds 24 1011 57 10000 2.1 350 11:55 22.07.2020
416 Clouds 25 1011 54 10000 3.6 340 11:36 22.07.2020
417 Clouds 25 1011 54 10000 3.6 340 11:18 22.07.2020
418 Clouds 28 1010 39 10000 4.6 330 10:40 22.07.2020
419 Clouds 29 1010 39 10000 4.6 330 10:22 22.07.2020
420 Clouds 32 1010 11 10000 3.1 120 09:45 22.07.2020
421 Clouds 32 1010 11 10000 3.1 120 09:22 22.07.2020
422 Clouds 32 1010 10 10000 5.7 110 08:47 22.07.2020
423 Clouds 32 1010 10 10000 4.1 130 08:25 22.07.2020
424 Clouds 32 1011 10 10000 3.6 90 07:53 22.07.2020
425 Clouds 32 1011 11 10000 5.1 100 07:19 22.07.2020
426 Clouds 30 1012 12 10000 6.2 130 06:24 22.07.2020
427 Clouds 30 1013 12 10000 5.7 110 05:56 22.07.2020
428 Clouds 30 1013 13 10000 6.2 120 05:35 22.07.2020
429 Clouds 29 1014 17 10000 7.2 120 04:26 22.07.2020
430 Clouds 26 1015 16 10000 7.7 120 02:57 22.07.2020
431 Clouds 22 1014 25 10000 4.6 120 01:53 22.07.2020
432 Clouds 19 1014 34 10000 4.1 140 00:50 22.07.2020
433 Clouds 19 1013 34 10000 4.1 130 23:58 21.07.2020
434 Clouds 19 1013 37 10000 4.1 140 23:39 21.07.2020
435 Clouds 19 1013 37 10000 4.1 140 23:20 21.07.2020
436 Clouds 19 1013 39 10000 3.6 140 22:57 21.07.2020
437 Clouds 19 1013 39 10000 3.6 140 22:57 21.07.2020
438 Clouds 19 1013 45 10000 3.6 150 22:38 21.07.2020
439 Clouds 19 1013 45 10000 3.6 150 22:19 21.07.2020
440 Clouds 19 1012 49 10000 4.1 140 21:56 21.07.2020
441 Clouds 19 1012 64 10000 2.6 130 21:38 21.07.2020
442 Clear 19 1012 64 10000 2.6 130 21:20 21.07.2020
443 Clear 20 1012 82 10000 3.1 150 20:44 21.07.2020
444 Clouds 20 1012 82 10000 3.1 150 20:26 21.07.2020
445 Clouds 20 1013 94 10000 2.6 160 19:47 21.07.2020
446 Clouds 20 1013 94 10000 1.5 170 19:23 21.07.2020
447 Clouds 20 1013 94 10000 2.1 190 18:56 21.07.2020
448 Clouds 20 1013 94 10000 2.1 190 18:38 21.07.2020
449 Clouds 19 1014 93 10000 2.67 131 18:19 21.07.2020
450 Clouds 19 1014 94 10000 0.5 240 17:40 21.07.2020
451 Clouds 19 1014 94 10000 0.5 240 17:21 21.07.2020
452 Clouds 21 1014 83 10000 1 250 16:44 21.07.2020
453 Clouds 20 1014 83 10000 1 250 16:23 21.07.2020
454 Clouds 20 1014 88 10000 1.5 250 15:56 21.07.2020
455 Clouds 23 1014 83 10000 2.1 250 15:38 21.07.2020
456 Clouds 23 1014 83 10000 2.1 250 15:19 21.07.2020
457 Clouds 24 1013 73 10000 2.6 230 14:40 21.07.2020
458 Clouds 24 1013 73 10000 2.6 230 14:19 21.07.2020
459 Clouds 24 1013 73 10000 2.1 240 13:58 21.07.2020
460 Clouds 24 1013 65 10000 2.1 250 13:37 21.07.2020
461 Clouds 24 1013 61 10000 2.1 270 13:18 21.07.2020
462 Clouds 24 1012 65 10000 2.6 280 12:42 21.07.2020
463 Clouds 25 1012 57 10000 2.6 270 12:21 21.07.2020
464 Clouds 25 1012 57 10000 2.6 270 11:57 21.07.2020
465 Clouds 25 1012 47 10000 2.1 310 11:38 21.07.2020
466 Clouds 25 1012 47 10000 2.1 310 11:38 21.07.2020
467 Clouds 26 1012 47 10000 2.1 310 11:19 21.07.2020
468 Clouds 28 1011 39 10000 3.6 350 10:44 21.07.2020
469 Clouds 28 1011 39 10000 3.6 350 10:22 21.07.2020
470 Clouds 28 1011 35 10000 3.6 340 09:47 21.07.2020
471 Clouds 30 1011 35 10000 4.1 330 09:25 21.07.2020
472 Clouds 30 1011 33 10000 4.1 320 08:56 21.07.2020
473 Clouds 30 1011 33 10000 5.1 310 08:38 21.07.2020
474 Clouds 31 1011 35 10000 5.7 310 08:19 21.07.2020
475 Clouds 31 1011 22 10000 2.6 120 07:42 21.07.2020
476 Clouds 31 1011 22 10000 2.6 120 07:24 21.07.2020
477 Clouds 31 1011 22 10000 2.6 120 07:24 21.07.2020
478 Clouds 31 1011 22 10000 2.6 120 07:24 21.07.2020
479 Clouds 31 1012 25 10000 4.1 110 06:51 21.07.2020
480 Clouds 29 1014 35 10000 2.6 110 04:33 21.07.2020
481 Clouds 29 1014 37 10000 4.6 90 03:45 21.07.2020
482 Clouds 26 1014 50 10000 3.6 80 02:27 21.07.2020
483 Clouds 23 1014 73 10000 2.1 130 01:24 21.07.2020
484 Clouds 20 1014 88 10000 2.1 140 00:42 21.07.2020
485 Clouds 20 1014 88 10000 2.1 140 00:24 21.07.2020
486 Clouds 20 1013 88 10000 1.5 120 23:54 20.07.2020
487 Clouds 19 1013 88 10000 1 120 23:36 20.07.2020
488 Clouds 19 1013 88 10000 1.5 160 23:18 20.07.2020
489 Clouds 19 1013 82 10000 2.1 170 22:39 20.07.2020
490 Clouds 19 1013 82 10000 2.1 170 22:18 20.07.2020
491 Clouds 19 1012 82 10000 1.5 150 21:46 20.07.2020
492 Clear 20 1012 82 10000 2.6 160 21:27 20.07.2020
493 Clear 19 1012 82 10000 2.6 160 20:59 20.07.2020
494 Clear 19 1012 88 10000 1 170 20:41 20.07.2020
495 Clouds 19 1012 88 10000 1 170 20:20 20.07.2020
496 Clouds 20 1012 82 10000 1.5 170 19:39 20.07.2020
497 Clouds 20 1013 77 10000 2.1 180 19:19 20.07.2020
498 Clouds 20 1013 77 10000 2.1 180 18:58 20.07.2020
499 Clouds 20 1013 77 10000 2.6 160 18:40 20.07.2020
500 Clouds 21 1013 83 10000 2.1 160 18:19 20.07.2020
501 Clouds 21 1013 77 10000 2.6 170 17:44 20.07.2020
502 Clouds 20 1013 77 10000 2.6 170 17:24 20.07.2020
503 Clouds 21 1013 77 10000 2.1 170 16:50 20.07.2020
504 Clear 20 1013 73 10000 1.5 180 16:21 20.07.2020
505 Clear 20 1013 64 10000 1.5 150 15:47 20.07.2020
506 Clear 21 1013 60 10000 2.1 160 15:21 20.07.2020
507 Clear 21 1013 56 10000 1.5 160 14:58 20.07.2020
508 Clear 21 1013 60 10000 1.5 180 14:39 20.07.2020
509 Clear 21 1013 60 10000 1.5 180 14:19 20.07.2020
510 Clear 22 1012 53 10000 0.5 90 13:57 20.07.2020
511 Clear 22 1011 56 10000 1.5 50 13:39 20.07.2020
512 Clear 23 1011 50 10000 2.6 40 13:19 20.07.2020
513 Clear 23 1011 50 10000 2.6 40 12:54 20.07.2020
514 Clear 24 1011 47 10000 2.6 30 12:36 20.07.2020
515 Clear 25 1010 47 10000 3.1 20 12:18 20.07.2020
516 Clear 26 1010 44 10000 3.6 10 11:42 20.07.2020
517 Clear 26 1010 44 10000 3.6 10 11:23 20.07.2020
518 Clear 26 1010 44 10000 3.6 10 11:23 20.07.2020
519 Clear 27 1010 39 10000 4.6 10 10:58 20.07.2020
520 Clear 28 1010 42 10000 4.6 360 10:40 20.07.2020
521 Clear 28 1010 42 10000 4.6 360 10:20 20.07.2020
522 Clear 28 1010 42 10000 4.6 360 10:20 20.07.2020
523 Clear 29 1010 45 10000 5.1 360 09:41 20.07.2020
524 Clouds 29 1010 45 10000 5.1 360 09:22 20.07.2020
525 Clouds 30 1010 42 10000 5.7 360 08:49 20.07.2020
526 Clouds 30 1010 39 10000 4.6 350 08:26 20.07.2020
527 Clouds 31 1010 14 10000 5.1 350 07:44 20.07.2020
528 Clouds 32 1011 20 10000 5.1 350 07:23 20.07.2020
529 Clouds 31 1011 20 10000 5.1 350 06:52 20.07.2020
530 Clouds 31 1011 16 10000 5.1 350 06:34 20.07.2020
531 Clouds 28 1014 54 10000 5.1 60 03:42 20.07.2020
532 Clouds 24 1014 73 10000 1.5 60 01:33 20.07.2020
533 Clouds 21 1013 88 10000 1.5 80 00:39 20.07.2020
534 Clouds 21 1013 88 10000 1.5 80 23:50 19.07.2020
535 Clouds 21 1013 88 10000 1.5 90 23:29 19.07.2020
536 Clouds 21 1012 88 10000 2.1 90 22:59 19.07.2020
537 Clouds 21 1012 88 10000 2.1 90 22:40 19.07.2020
538 Clouds 21 1012 88 10000 2.1 90 22:20 19.07.2020
539 Clouds 21 1012 88 10000 1.5 120 21:55 19.07.2020
540 Clear 20 1012 88 10000 1.5 110 21:37 19.07.2020
541 Clear 20 1012 88 10000 1.5 110 21:18 19.07.2020
542 Clear 20 1012 88 10000 1 110 20:43 19.07.2020
543 Clear 20 1012 88 10000 1 110 20:25 19.07.2020
544 Clear 20 1012 88 10000 1.5 110 19:59 19.07.2020
545 Clouds 21 1013 88 10000 2.1 140 19:38 19.07.2020
546 Clouds 21 1013 88 10000 1 110 19:19 19.07.2020
547 Clouds 20 1013 88 10000 1.5 110 18:43 19.07.2020
548 Clouds 21 1013 88 10000 1.5 110 18:24 19.07.2020
549 Clear 21 1013 88 10000 1.5 140 17:57 19.07.2020
550 Clear 22 1013 83 10000 1.5 140 17:39 19.07.2020
551 Clear 22 1013 83 10000 1.5 140 17:20 19.07.2020
552 Clear 22 1013 83 10000 0.5 130 16:41 19.07.2020
553 Clear 21 1013 83 10000 0.5 130 16:21 19.07.2020
554 Clear 21 1013 83 10000 1 110 15:58 19.07.2020
555 Clear 23 1013 78 10000 1.5 180 15:37 19.07.2020
556 Clear 23 1013 78 10000 1.5 180 15:18 19.07.2020
557 Clear 23 1013 69 10000 1.5 20 14:42 19.07.2020
558 Clear 23 1013 69 10000 1.5 20 14:24 19.07.2020
559 Clear 23 1012 69 10000 1 30 13:44 19.07.2020
560 Clear 23 1011 65 10000 0.5 30 13:23 19.07.2020
561 Clear 24 1011 65 10000 0.5 30 12:57 19.07.2020
562 Clear 25 1011 61 10000 1.5 10 12:37 19.07.2020
563 Clear 25 1011 61 10000 2.6 10 12:19 19.07.2020
564 Clear 26 1011 54 10000 4.1 20 11:40 19.07.2020
565 Clouds 26 1011 54 10000 4.1 20 11:22 19.07.2020
566 Clouds 27 1010 51 10000 5.7 20 10:42 19.07.2020
567 Clouds 28 1010 51 10000 5.7 20 10:22 19.07.2020
568 Clouds 28 1010 54 10000 4.6 10 09:47 19.07.2020
569 Clouds 29 1010 51 10000 5.1 360 09:23 19.07.2020
570 Clouds 30 1010 48 10000 5.1 360 08:59 19.07.2020
571 Clouds 30 1010 45 10000 4.6 360 08:40 19.07.2020
572 Clouds 30 1010 45 10000 4.6 360 08:21 19.07.2020
573 Clouds 31 1010 48 10000 5.7 330 07:29 19.07.2020
574 Clouds 31 1010 51 10000 4.6 330 06:55 19.07.2020
575 Clouds 31 1011 40 10000 4.6 330 06:23 19.07.2020
576 Clouds 31 1011 40 10000 4.6 330 05:52 19.07.2020
577 Clouds 30 1012 37 10000 4.1 70 05:21 19.07.2020
578 Clouds 26 1013 69 10000 4.1 80 02:48 19.07.2020
579 Clear 25 1013 78 10000 5.1 70 02:29 19.07.2020
580 Clear 24 1013 78 10000 3.1 70 01:56 19.07.2020
581 Clear 23 1013 78 10000 2.1 100 01:25 19.07.2020
582 Clouds 21 1012 83 10000 2.6 100 00:40 19.07.2020
583 Clouds 21 1012 83 10000 2.6 100 00:21 19.07.2020
584 Clouds 20 1012 88 10000 2.1 110 23:43 18.07.2020
585 Clouds 20 1012 88 10000 2.1 110 23:23 18.07.2020
586 Clear 19 1012 93 10000 2.1 110 22:45 18.07.2020
587 Clear 19 1012 93 10000 2.1 110 22:21 18.07.2020
588 Clear 19 1012 93 10000 1.5 90 21:55 18.07.2020
589 Clear 19 1011 93 10000 1 90 21:36 18.07.2020
590 Clear 19 1011 93 10000 1 90 21:18 18.07.2020
591 Clear 20 1011 94 10000 1 350 20:42 18.07.2020
592 Clear 20 1011 94 10000 1 350 20:21 18.07.2020
593 Clear 20 1012 88 10000 0.8 95 19:50 18.07.2020
594 Clear 20 1012 88 10000 0.8 95 19:31 18.07.2020
595 Clear 21 1012 88 10000 0.32 355 18:58 18.07.2020
596 Clear 21 1012 88 10000 0.32 355 18:39 18.07.2020
597 Clear 22 1012 83 10000 1.5 350 18:18 18.07.2020
598 Clear 22 1012 83 10000 2.6 350 17:41 18.07.2020
599 Clear 22 1012 83 10000 2.6 350 17:20 18.07.2020
600 Clouds 22 1012 83 10000 1.5 10 16:43 18.07.2020
601 Clouds 21 1012 83 10000 1.5 10 16:23 18.07.2020
602 Clear 21 1012 77 10000 0.5 10 15:59 18.07.2020
603 Clear 21 1012 77 10000 1.5 10 15:40 18.07.2020
604 Clear 21 1012 77 10000 1.5 10 15:21 18.07.2020
605 Clear 21 1011 68 10000 1 10 14:42 18.07.2020
606 Clear 21 1011 68 10000 1 10 14:22 18.07.2020
607 Clear 22 1011 64 10000 1.5 20 13:56 18.07.2020
608 Clear 23 1011 60 10000 1.5 10 13:38 18.07.2020
609 Clear 23 1011 60 10000 1.5 10 13:20 18.07.2020
610 Clear 24 1011 57 10000 2.1 10 12:54 18.07.2020
611 Clear 25 1010 54 10000 2.1 10 12:36 18.07.2020
612 Clear 25 1010 54 10000 2.6 10 12:18 18.07.2020
613 Clear 26 1010 47 10000 4.1 10 11:41 18.07.2020
614 Clear 26 1010 47 10000 4.1 10 11:19 18.07.2020
615 Clear 27 1010 45 10000 4.1 10 10:48 18.07.2020
616 Clear 28 1010 45 10000 4.6 360 10:29 18.07.2020
617 Clear 28 1010 45 10000 5.1 360 09:59 18.07.2020
618 Clear 29 1009 45 10000 5.1 340 09:40 18.07.2020
619 Clear 29 1009 45 10000 5.1 340 09:20 18.07.2020
620 Clear 30 1009 42 10000 4.6 350 08:49 18.07.2020
621 Clear 30 1010 48 10000 5.1 330 08:30 18.07.2020
622 Clear 29 1010 51 10000 5.1 330 07:48 18.07.2020
623 Clear 29 1010 51 10000 5.1 330 07:25 18.07.2020
624 Clear 29 1010 51 10000 5.7 330 06:56 18.07.2020
625 Clear 30 1011 45 10000 5.7 350 06:37 18.07.2020
626 Clear 29 1013 42 10000 4.1 20 04:29 18.07.2020
627 Clear 29 1013 37 10000 2.1 70 03:32 18.07.2020
628 Clear 22 1013 68 10000 1.5 120 01:28 18.07.2020
629 Clear 20 1013 82 10000 1.5 140 00:55 18.07.2020
630 Fog 18 1012 93 10000 2.1 140 00:34 18.07.2020
631 Fog 18 1012 93 10000 2.1 140 23:55 17.07.2020
632 Fog 19 1012 93 10000 2.1 150 23:36 17.07.2020
633 Clear 19 1012 93 10000 3.6 160 23:18 17.07.2020
634 Clear 19 1011 93 10000 2.1 170 22:40 17.07.2020
635 Clear 19 1012 93 10000 1.5 150 22:19 17.07.2020
636 Clear 19 1012 93 10000 1.5 150 21:57 17.07.2020
637 Clear 20 1011 94 10000 3.6 180 21:39 17.07.2020
638 Clear 20 1011 94 10000 3.6 180 21:19 17.07.2020
639 Clear 20 1012 88 10000 3.6 190 20:43 17.07.2020
640 Clear 20 1012 88 10000 3.6 190 20:25 17.07.2020
641 Clear 21 1012 83 10000 3.6 190 19:55 17.07.2020
642 Clear 20 1012 83 10000 2.6 180 19:37 17.07.2020
643 Clear 20 1012 83 10000 2.6 180 19:18 17.07.2020
644 Clear 20 1012 82 10000 1.5 170 18:43 17.07.2020
645 Clear 20 1012 82 10000 1.5 170 18:24 17.07.2020
646 Clear 20 1012 77 10000 1.5 170 17:44 17.07.2020
647 Clear 20 1012 77 10000 1.5 170 17:25 17.07.2020
648 Clear 19 1012 82 10000 1 170 16:45 17.07.2020
649 Clear 20 1012 68 10000 1.5 170 16:23 17.07.2020
650 Clear 21 1012 73 10000 1.5 170 15:56 17.07.2020
651 Clear 22 1012 64 10000 1.5 170 15:37 17.07.2020
652 Clear 22 1012 64 10000 1.5 170 15:18 17.07.2020
653 Clear 22 1012 60 10000 1 30 14:40 17.07.2020
654 Clear 21 1012 60 10000 1 30 14:21 17.07.2020
655 Clear 22 1012 56 10000 0.5 30 13:55 17.07.2020
656 Clear 23 1012 53 10000 1 10 13:36 17.07.2020
657 Clear 24 1011 50 10000 2.1 20 13:18 17.07.2020
658 Clear 24 1011 50 10000 3.1 20 12:39 17.07.2020
659 Clear 25 1011 47 10000 2.6 20 12:20 17.07.2020
660 Clear 26 1011 47 10000 2.6 20 11:54 17.07.2020
661 Clear 26 1011 44 10000 3.1 10 11:36 17.07.2020
662 Clear 27 1011 44 10000 3.1 10 11:18 17.07.2020
663 Clear 28 1011 37 10000 4.6 10 10:41 17.07.2020
664 Clear 28 1011 37 10000 4.6 10 10:23 17.07.2020
665 Clear 29 1010 35 10000 4.6 10 09:58 17.07.2020
666 Clear 30 1010 33 10000 4.1 350 09:40 17.07.2020
667 Clear 30 1010 33 10000 4.1 350 09:20 17.07.2020
668 Clear 30 1011 30 10000 4.6 340 08:48 17.07.2020
669 Clear 30 1011 33 10000 4.1 290 08:29 17.07.2020
670 Clear 31 1011 35 10000 5.1 290 07:56 17.07.2020
671 Clear 31 1011 39 10000 5.7 290 07:36 17.07.2020
672 Clear 31 1011 42 10000 3.6 330 07:18 17.07.2020
673 Clear 32 1012 24 10000 3.6 90 06:38 17.07.2020
674 Clear 30 1012 32 10000 3.6 110 05:40 17.07.2020
675 Clear 28 1013 42 10000 3.6 100 03:41 17.07.2020
676 Clear 25 1013 61 10000 2.6 80 02:22 17.07.2020
677 Clear 22 1013 83 10000 1.5 140 00:57 17.07.2020
678 Clear 20 1012 88 10000 1 140 00:37 17.07.2020
679 Clear 20 1012 88 10000 1 140 00:19 17.07.2020
680 Clear 19 1012 93 10000 1.5 160 23:42 16.07.2020
681 Clear 19 1012 93 10000 1.5 160 23:19 16.07.2020
682 Clear 19 1011 93 10000 1.5 140 22:46 16.07.2020
683 Clear 19 1011 93 10000 1.5 140 22:25 16.07.2020
684 Clear 19 1011 93 10000 3.64 131 21:57 16.07.2020
685 Clear 19 1011 93 10000 3.64 131 21:38 16.07.2020
686 Clear 19 1011 93 10000 3.19 130 21:20 16.07.2020
687 Clear 19 1011 88 10000 0.5 140 20:58 16.07.2020
688 Clear 20 1011 94 10000 1.5 140 20:40 16.07.2020
689 Clear 20 1011 94 10000 1.5 140 20:21 16.07.2020
690 Clear 20 1011 88 10000 1.5 160 19:48 16.07.2020
691 Clear 20 1011 88 10000 1.5 160 19:48 16.07.2020
692 Clear 20 1011 88 10000 1 160 19:30 16.07.2020
693 Clear 21 1011 94 10000 2.1 160 18:58 16.07.2020
694 Clear 21 1011 94 10000 1 180 18:39 16.07.2020
695 Clear 21 1011 88 10000 3.1 190 18:20 16.07.2020
696 Clear 22 1011 83 10000 3.1 190 17:40 16.07.2020
697 Clear 22 1011 83 10000 3.1 190 17:20 16.07.2020
698 Clear 22 1011 83 10000 3.1 190 16:58 16.07.2020
699 Clear 22 1012 83 10000 2.1 180 16:40 16.07.2020
700 Clear 22 1012 83 10000 2.1 180 16:40 16.07.2020
701 Clear 21 1012 83 10000 2.1 180 16:22 16.07.2020
702 Clear 21 1012 83 10000 2.6 190 15:55 16.07.2020
703 Clear 22 1012 78 10000 2.1 180 15:37 16.07.2020
704 Clear 22 1012 78 10000 2.1 180 15:18 16.07.2020
705 Clear 23 1012 73 10000 1 60 14:38 16.07.2020
706 Clouds 23 1012 73 10000 1 60 14:20 16.07.2020
707 Clouds 23 1011 73 10000 1.5 50 13:59 16.07.2020
708 Clouds 23 1011 73 10000 2.1 50 13:38 16.07.2020
709 Clouds 23 1011 73 10000 2.1 50 13:20 16.07.2020
710 Clouds 25 1011 65 10000 2.6 20 12:42 16.07.2020
711 Clouds 25 1011 65 10000 2.6 20 12:22 16.07.2020
712 Clouds 25 1010 57 10000 2.6 10 11:59 16.07.2020
713 Clouds 26 1010 51 10000 3.1 10 11:36 16.07.2020
714 Clouds 26 1010 51 10000 3.1 10 11:18 16.07.2020
715 Clouds 27 1010 51 10000 3.6 340 10:55 16.07.2020
716 Clouds 28 1009 45 10000 4.6 350 10:37 16.07.2020
717 Clouds 28 1009 45 10000 4.6 350 10:18 16.07.2020
718 Clouds 31 1009 42 10000 4.1 320 09:41 16.07.2020
719 Clouds 30 1009 42 10000 4.1 320 09:23 16.07.2020
720 Clouds 32 1009 24 10000 3.1 290 08:43 16.07.2020
721 Clear 32 1009 24 10000 3.1 290 08:25 16.07.2020
722 Clear 32 1009 24 10000 3.1 290 08:25 16.07.2020
723 Clear 32 1009 27 10000 4.1 150 07:48 16.07.2020
724 Clear 32 1010 29 10000 2.1 120 07:27 16.07.2020
725 Clear 32 1010 27 10000 2.6 110 06:59 16.07.2020
726 Clear 31 1011 29 10000 4.6 70 06:40 16.07.2020
727 Clear 31 1011 27 10000 5.1 130 06:19 16.07.2020
728 Clear 31 1012 30 10000 6.2 100 05:38 16.07.2020
729 Clear 29 1013 35 10000 5.1 90 04:42 16.07.2020
730 Clear 29 1013 39 10000 6.7 80 03:52 16.07.2020
731 Clear 28 1013 45 10000 6.2 90 03:23 16.07.2020
732 Clear 26 1014 65 10000 4.1 70 02:34 16.07.2020
733 Clear 25 1014 69 10000 2.6 60 01:52 16.07.2020
734 Clear 24 1013 60 10000 2.6 70 01:24 16.07.2020
735 Clear 21 1013 68 10000 3.6 100 00:40 16.07.2020
736 Clouds 21 1013 68 10000 3.6 100 00:20 16.07.2020
737 Clouds 21 1013 64 10000 3.6 100 23:55 15.07.2020
738 Clouds 21 1012 64 10000 2.6 100 23:36 15.07.2020
739 Clouds 20 1012 64 10000 2.6 100 23:18 15.07.2020
740 Clouds 18 1012 88 10000 1.5 90 22:39 15.07.2020
741 Clear 18 1012 88 10000 1.5 90 22:19 15.07.2020
742 Clear 19 1012 82 10000 1.5 70 21:56 15.07.2020
743 Clear 19 1012 82 10000 1 70 21:38 15.07.2020
744 Clear 19 1012 82 10000 1 70 21:20 15.07.2020
745 Clear 20 1012 77 10000 5.65 105 20:57 15.07.2020
746 Clear 20 1012 82 10000 1 70 20:38 15.07.2020
747 Clouds 20 1012 82 10000 1 70 20:19 15.07.2020
748 Clouds 20 1012 82 10000 1 70 20:19 15.07.2020
749 Clouds 20 1012 82 10000 1.5 70 19:56 15.07.2020
750 Clouds 21 1012 73 10000 1.5 100 19:38 15.07.2020
751 Clouds 21 1012 64 10000 2.1 110 19:20 15.07.2020
752 Clouds 22 1012 64 10000 3.1 180 18:45 15.07.2020
753 Clouds 22 1012 64 10000 3.1 180 18:45 15.07.2020
754 Clouds 22 1012 64 10000 3.1 180 18:26 15.07.2020
755 Clouds 23 1012 69 10000 3.1 190 17:59 15.07.2020
756 Clouds 23 1013 73 10000 2.6 200 17:40 15.07.2020
757 Clouds 23 1013 73 10000 2.6 200 17:21 15.07.2020
758 Clouds 23 1013 73 10000 2.6 190 16:58 15.07.2020
759 Clouds 24 1013 73 10000 2.6 190 16:40 15.07.2020
760 Clouds 24 1013 73 10000 2.6 190 16:21 15.07.2020
761 Clouds 24 1013 78 10000 3.6 210 15:45 15.07.2020
762 Clouds 24 1013 78 10000 3.6 210 15:24 15.07.2020
763 Clouds 24 1013 78 10000 3.1 210 14:58 15.07.2020
764 Clouds 24 1013 73 10000 2.1 230 14:40 15.07.2020
765 Clouds 24 1013 73 10000 2.1 230 14:20 15.07.2020
766 Clouds 24 1012 73 10000 2.6 230 13:59 15.07.2020
767 Clouds 24 1012 65 10000 1.5 240 13:39 15.07.2020
768 Clouds 25 1012 65 10000 1.5 240 13:21 15.07.2020
769 Clouds 25 1011 65 10000 2.91 239 13:21 15.07.2020
770 Clouds 25 1011 65 10000 2.91 239 13:21 15.07.2020
771 Clouds 25 1011 65 10000 2.1 20 12:40 15.07.2020
772 Clouds 25 1011 65 10000 2.1 20 12:21 15.07.2020
773 Clouds 25 1011 65 10000 2.1 20 12:21 15.07.2020
774 Clouds 26 1011 57 10000 3.1 20 11:57 15.07.2020
775 Clouds 26 1010 57 10000 3.6 10 11:39 15.07.2020
776 Clouds 27 1010 57 10000 3.6 10 11:20 15.07.2020
777 Clouds 27 1010 51 10000 4.1 10 10:54 15.07.2020
778 Clouds 28 1010 48 10000 5.1 10 10:36 15.07.2020
779 Clouds 28 1010 48 10000 5.1 10 10:18 15.07.2020
780 Clouds 31 1009 40 10000 4.1 60 09:42 15.07.2020
781 Clouds 31 1009 40 10000 4.1 60 09:24 15.07.2020
782 Clouds 31 1009 38 10000 6.2 50 08:46 15.07.2020
783 Clouds 31 1009 40 10000 5.7 30 08:28 15.07.2020
784 Clouds 31 1010 35 10000 1.5 140 07:49 15.07.2020
785 Clouds 31 1010 35 10000 4.1 40 07:27 15.07.2020
786 Clouds 31 1011 33 10000 5.7 90 06:45 15.07.2020
787 Clouds 31 1011 35 10000 5.7 90 06:20 15.07.2020
788 Clouds 30 1012 33 10000 4.1 90 05:41 15.07.2020
789 Clouds 28 1013 34 10000 4.6 80 04:29 15.07.2020
790 Clouds 27 1014 34 10000 5.7 90 03:41 15.07.2020
791 Clouds 24 1014 31 10000 7.2 90 01:55 15.07.2020
792 Clouds 23 1013 33 10000 5.1 100 01:35 15.07.2020
793 Clouds 21 1013 37 10000 4.1 120 00:57 15.07.2020
794 Clouds 20 1013 42 10000 3.6 130 00:30 15.07.2020
795 Clear 19 1013 42 10000 3.6 140 23:52 14.07.2020
796 Clear 19 1013 42 10000 3.1 140 23:30 14.07.2020
797 Clear 19 1012 42 10000 3.1 150 22:56 14.07.2020
798 Clear 19 1012 42 10000 3.6 140 22:38 14.07.2020
799 Clear 20 1012 42 10000 3.6 140 22:19 14.07.2020
800 Clear 20 1012 40 10000 3.6 140 21:55 14.07.2020
801 Clear 20 1012 45 10000 3.1 150 21:37 14.07.2020
802 Clear 20 1012 45 10000 3.1 150 21:19 14.07.2020
803 Clear 20 1012 56 10000 3.6 160 20:42 14.07.2020
804 Clear 21 1012 56 10000 3.6 160 20:21 14.07.2020
805 Clear 20 1012 82 10000 3.1 170 19:56 14.07.2020
806 Clear 20 1013 82 10000 3.1 160 19:38 14.07.2020
807 Clear 19 1013 88 10000 2.1 160 19:20 14.07.2020
808 Clear 20 1013 82 10000 2.6 190 18:44 14.07.2020
809 Clear 20 1013 82 10000 1.5 200 18:20 14.07.2020
810 Clear 20 1013 82 10000 1.5 200 17:58 14.07.2020
811 Clear 20 1013 77 10000 1 220 17:40 14.07.2020
812 Clear 20 1013 77 10000 1 220 17:21 14.07.2020
813 Clear 20 1014 77 10000 1.5 200 16:55 14.07.2020
814 Clear 20 1014 73 10000 0.5 170 16:37 14.07.2020
815 Clear 20 1014 73 10000 0.5 170 16:18 14.07.2020
816 Clear 21 1014 68 10000 1.5 180 15:42 14.07.2020
817 Clear 21 1014 68 10000 1.5 180 15:22 14.07.2020
818 Clear 21 1014 68 10000 1.5 180 15:22 14.07.2020
819 Clear 21 1014 73 10000 1 310 14:57 14.07.2020
820 Clear 20 1014 73 10000 1.5 310 14:39 14.07.2020
821 Clear 21 1014 73 10000 1.5 310 14:18 14.07.2020
822 Clear 22 1014 64 10000 1.5 310 13:41 14.07.2020
823 Clear 22 1014 64 10000 1.5 310 13:23 14.07.2020
824 Clear 23 1014 60 10000 2.1 260 12:56 14.07.2020
825 Clear 23 1013 60 10000 1.5 340 12:36 14.07.2020
826 Clear 23 1013 53 10000 2.1 350 12:18 14.07.2020
827 Clear 24 1012 50 10000 2.6 350 11:42 14.07.2020
828 Clear 25 1012 50 10000 2.6 350 11:19 14.07.2020
829 Clear 26 1012 47 10000 4.1 350 10:54 14.07.2020
830 Clear 27 1012 42 10000 6.2 360 10:36 14.07.2020
831 Clear 27 1012 42 10000 6.2 360 10:18 14.07.2020
832 Clear 30 1011 23 10000 4.1 310 09:38 14.07.2020
833 Clear 30 1011 23 10000 4.1 310 09:19 14.07.2020
834 Clear 31 1011 16 10000 2.1 60 08:43 14.07.2020
835 Clear 31 1011 16 10000 2.1 60 08:23 14.07.2020
836 Clear 31 1011 15 10000 3.1 40 07:57 14.07.2020
837 Clear 30 1012 13 10000 4.6 50 07:37 14.07.2020
838 Clear 30 1012 12 10000 4.6 50 07:18 14.07.2020
839 Clear 30 1013 13 10000 4.6 50 06:41 14.07.2020
840 Clear 30 1013 13 10000 4.1 120 06:21 14.07.2020
841 Clear 28 1014 14 10000 4.6 130 05:26 14.07.2020
842 Clear 27 1015 12 10000 6.2 120 04:36 14.07.2020
843 Clear 25 1016 10 10000 7.7 120 03:36 14.07.2020
844 Clear 23 1016 15 10000 6.2 130 02:45 14.07.2020
845 Clear 23 1016 15 10000 6.2 130 02:24 14.07.2020
846 Clear 21 1015 19 10000 6.7 130 01:36 14.07.2020
847 Clear 19 1015 20 10000 5.7 140 00:52 14.07.2020
848 Clear 18 1015 23 10000 5.1 140 00:33 14.07.2020
849 Clear 18 1015 25 10000 4.6 140 23:59 13.07.2020
850 Clear 19 1014 25 10000 4.6 140 23:37 13.07.2020
851 Clear 19 1014 25 10000 4.6 140 23:18 13.07.2020
852 Clear 19 1014 25 10000 4.6 140 22:41 13.07.2020
853 Clear 19 1014 25 10000 4.6 140 22:21 13.07.2020
854 Clear 19 1014 44 10000 4.6 150 21:57 13.07.2020
855 Clear 20 1013 24 10000 3.6 150 21:39 13.07.2020
856 Clear 20 1013 24 10000 3.6 150 21:20 13.07.2020
857 Clear 20 1013 24 10000 4.1 140 20:58 13.07.2020
858 Clear 20 1013 24 10000 4.1 140 20:39 13.07.2020
859 Clear 21 1013 24 10000 4.1 140 20:21 13.07.2020
860 Clear 21 1013 22 10000 4.6 130 19:45 13.07.2020
861 Clear 21 1013 22 10000 4.6 130 19:26 13.07.2020
862 Clear 21 1014 22 10000 5.1 130 18:59 13.07.2020
863 Clear 21 1014 22 10000 4.1 140 18:40 13.07.2020
864 Clear 21 1014 22 10000 4.1 140 18:22 13.07.2020
865 Clear 21 1014 36 10000 4.1 140 17:57 13.07.2020
866 Clear 22 1014 26 10000 4.1 150 17:39 13.07.2020
867 Clear 22 1014 26 10000 4.1 150 17:20 13.07.2020
868 Clear 22 1014 34 10000 3.6 150 16:55 13.07.2020
869 Clear 22 1014 34 10000 3.6 160 16:37 13.07.2020
870 Clear 23 1014 32 10000 3.6 160 16:19 13.07.2020
871 Clear 22 1014 32 10000 3.1 150 15:56 13.07.2020
872 Clear 24 1014 22 10000 2.6 160 15:37 13.07.2020
873 Clear 23 1014 22 10000 2.6 160 15:18 13.07.2020
874 Clear 23 1014 33 10000 3.1 150 14:56 13.07.2020
875 Clear 24 1014 23 10000 2.6 140 14:37 13.07.2020
876 Clear 24 1014 20 10000 2.6 130 14:19 13.07.2020
877 Clear 25 1014 19 10000 3.6 130 13:42 13.07.2020
878 Clear 25 1014 19 10000 3.6 130 13:21 13.07.2020
879 Clear 25 1013 44 10000 3.6 130 12:55 13.07.2020
880 Clear 26 1013 18 10000 2.6 130 12:36 13.07.2020
881 Clear 26 1013 21 10000 2.6 140 12:18 13.07.2020
882 Clear 27 1012 17 10000 2.6 140 11:41 13.07.2020
883 Clear 27 1012 17 10000 2.6 140 11:22 13.07.2020
884 Clear 30 1012 11 10000 4.6 140 10:44 13.07.2020
885 Clear 30 1012 11 10000 4.6 140 10:21 13.07.2020
886 Clear 31 1011 10 10000 5.7 120 09:57 13.07.2020
887 Clear 31 1011 10 10000 5.7 120 09:38 13.07.2020
888 Clouds 31 1011 10 10000 5.7 120 09:20 13.07.2020
889 Clouds 32 1011 9 10000 6.2 140 08:47 13.07.2020
890 Clouds 32 1011 9 10000 4.6 120 08:28 13.07.2020
891 Clouds 32 1012 10 10000 5.7 120 07:25 13.07.2020
892 Clouds 31 1012 11 10000 5.1 140 06:54 13.07.2020
893 Clouds 31 1013 10 10000 6.7 130 06:36 13.07.2020
894 Clouds 29 1014 13 10000 6.7 130 05:44 13.07.2020
895 Clear 28 1015 15 10000 6.7 120 04:25 13.07.2020
896 Clear 23 1016 35 10000 9.3 120 01:46 13.07.2020
897 Clear 23 1016 35 10000 9.3 120 01:25 13.07.2020
898 Clear 22 1015 35 10000 9.3 120 00:46 13.07.2020
899 Clear 22 1015 37 10000 9.3 120 00:24 13.07.2020
900 Clear 21 1014 40 10000 4.6 130 23:46 12.07.2020
901 Clear 21 1014 40 10000 4.6 130 23:23 12.07.2020
902 Clear 21 1014 40 10000 3.1 120 22:59 12.07.2020
903 Clear 22 1014 43 10000 2.6 110 22:37 12.07.2020
904 Clouds 22 1014 43 10000 2.6 110 22:19 12.07.2020
905 Clouds 22 1013 46 10000 3.1 120 21:57 12.07.2020
906 Clouds 22 1013 49 10000 3.6 120 21:39 12.07.2020
907 Clouds 22 1013 49 10000 3.6 120 21:19 12.07.2020
908 Clouds 23 1013 53 10000 3.6 130 20:58 12.07.2020
909 Clouds 23 1013 56 10000 3.6 120 20:38 12.07.2020
910 Clouds 23 1013 56 10000 3.6 120 20:19 12.07.2020
911 Clouds 23 1013 69 10000 3.1 140 19:40 12.07.2020
912 Clouds 24 1013 73 10000 3.1 150 19:22 12.07.2020
913 Clouds 23 1013 73 10000 3.1 150 18:59 12.07.2020
914 Clouds 23 1012 88 10000 2.6 160 18:40 12.07.2020
915 Clouds 23 1012 88 10000 2.1 170 18:19 12.07.2020
916 Clouds 23 1012 88 10000 2.6 180 17:40 12.07.2020
917 Clouds 24 1012 88 10000 2.6 180 17:21 12.07.2020
918 Clouds 24 1012 83 10000 2.6 190 16:58 12.07.2020
919 Clouds 24 1012 83 10000 2.6 190 16:40 12.07.2020
920 Clouds 24 1012 83 10000 2.6 190 16:18 12.07.2020
921 Clouds 24 1012 78 10000 1.5 190 15:43 12.07.2020
922 Clouds 25 1012 78 10000 1.5 190 15:23 12.07.2020
923 Clouds 26 1012 74 10000 2.1 210 14:43 12.07.2020
924 Clouds 26 1012 74 10000 2.1 210 14:23 12.07.2020
925 Clouds 25 1012 74 10000 1.5 250 13:41 12.07.2020
926 Clouds 26 1012 74 10000 1.5 250 13:22 12.07.2020
927 Clouds 26 1012 74 10000 1.5 250 13:22 12.07.2020
928 Clouds 26 1011 74 10000 1.5 290 12:59 12.07.2020
929 Clouds 26 1011 65 10000 2.1 260 12:41 12.07.2020
930 Clouds 27 1011 65 10000 2.1 260 12:20 12.07.2020
931 Clouds 27 1011 58 10000 2.1 330 11:58 12.07.2020
932 Clouds 27 1010 54 10000 3.6 360 11:40 12.07.2020
933 Clouds 27 1010 54 10000 3.6 360 11:18 12.07.2020
934 Clouds 29 1010 48 10000 4.6 360 10:41 12.07.2020
935 Clouds 29 1010 48 10000 4.6 360 10:20 12.07.2020
936 Clouds 30 1010 48 10000 5.1 350 09:43 12.07.2020
937 Clear 31 1010 48 10000 5.1 350 09:22 12.07.2020
938 Clear 31 1010 48 10000 5.1 350 09:22 12.07.2020
939 Clear 31 1010 45 10000 4.6 320 08:58 12.07.2020
940 Clear 32 1010 46 10000 4.6 310 08:40 12.07.2020
941 Clouds 32 1010 46 10000 4.6 310 08:21 12.07.2020
942 Clouds 32 1010 31 10000 3.6 290 07:50 12.07.2020
943 Clouds 33 1010 31 10000 3.6 290 07:31 12.07.2020
944 Clouds 33 1011 31 10000 5.1 60 06:57 12.07.2020
945 Clouds 33 1011 31 10000 4.1 330 06:38 12.07.2020
946 Clouds 32 1012 33 10000 6.7 80 06:19 12.07.2020
947 Clouds 32 1013 33 10000 6.2 90 04:59 12.07.2020
948 Clouds 31 1013 40 10000 6.7 130 04:29 12.07.2020
949 Clouds 30 1014 48 10000 3.1 140 03:48 12.07.2020
950 Clouds 29 1014 54 10000 3.6 130 03:28 12.07.2020
951 Clouds 28 1014 65 10000 2.6 100 02:27 12.07.2020
952 Clouds 26 1013 69 10000 2.6 100 01:31 12.07.2020
953 Clouds 23 1013 83 10000 1.5 90 00:40 12.07.2020
954 Clouds 23 1013 83 10000 1.5 90 00:22 12.07.2020
955 Clouds 23 1012 73 10000 1.5 170 23:55 11.07.2020
956 Clouds 23 1012 83 10000 4.07 131 23:36 11.07.2020
957 Clouds 23 1012 83 10000 3.21 144 23:18 11.07.2020
958 Clouds 23 1012 78 10000 2.6 160 22:43 11.07.2020
959 Clouds 23 1012 78 10000 2.6 160 22:24 11.07.2020
960 Clouds 23 1012 83 10000 1.5 170 21:57 11.07.2020
961 Clouds 23 1012 78 10000 1.84 128 21:38 11.07.2020
962 Clear 23 1012 78 10000 1.68 55 21:19 11.07.2020
963 Clouds 23 1011 78 10000 1.68 55 20:55 11.07.2020
964 Clouds 23 1011 83 10000 1.68 55 20:37 11.07.2020
965 Clouds 23 1011 83 10000 2.19 28 20:18 11.07.2020
966 Clouds 24 1012 83 10000 2.19 28 19:48 11.07.2020
967 Clouds 24 1012 83 10000 1.62 62 19:30 11.07.2020
968 Clouds 24 1012 83 10000 1.62 62 18:58 11.07.2020
969 Clouds 24 1012 83 10000 1.62 62 18:39 11.07.2020
970 Clouds 24 1012 83 10000 1.31 117 18:21 11.07.2020
971 Clouds 24 1012 83 10000 0.5 190 17:57 11.07.2020
972 Clouds 24 1012 78 10000 1.31 117 17:38 11.07.2020
973 Clouds 24 1012 78 10000 0.92 178 17:19 11.07.2020
974 Clouds 24 1012 78 10000 0.92 178 16:56 11.07.2020
975 Clouds 25 1012 78 10000 1.5 190 16:36 11.07.2020
976 Clouds 25 1012 78 10000 1.5 190 16:18 11.07.2020
977 Clouds 26 1012 74 10000 2.1 200 15:41 11.07.2020
978 Clouds 26 1012 74 10000 2.1 200 15:21 11.07.2020
979 Clouds 25 1012 74 10000 1.5 230 14:58 11.07.2020
980 Clouds 26 1012 65 10000 2.6 230 14:39 11.07.2020
981 Clouds 26 1012 65 10000 2.6 230 14:20 11.07.2020
982 Clear 26 1011 69 10000 1.5 290 13:43 11.07.2020
983 Clear 26 1011 69 10000 1.5 290 13:22 11.07.2020
984 Clear 26 1011 58 10000 1.5 280 12:59 11.07.2020
985 Clear 26 1010 58 10000 1.5 250 12:40 11.07.2020
986 Clear 27 1010 58 10000 2.6 30 12:21 11.07.2020
987 Clear 27 1010 58 10000 2.6 30 11:56 11.07.2020
988 Clear 28 1009 51 10000 3.6 20 11:38 11.07.2020
989 Clouds 29 1009 51 10000 3.6 20 11:19 11.07.2020
990 Clouds 30 1009 48 10000 4.6 10 10:43 11.07.2020
991 Clear 30 1009 48 10000 4.6 10 10:25 11.07.2020
992 Clear 30 1009 55 10000 5.7 350 09:45 11.07.2020
993 Clear 31 1009 55 10000 5.7 350 09:21 11.07.2020
994 Clear 31 1009 48 10000 5.1 330 08:59 11.07.2020
995 Clear 32 1009 48 10000 5.1 320 08:37 11.07.2020
996 Clouds 32 1009 48 10000 5.7 310 08:18 11.07.2020
997 Clouds 33 1009 32 10000 6.2 310 07:41 11.07.2020
998 Clouds 33 1010 31 10000 5.7 110 07:20 11.07.2020
999 Clouds 33 1010 31 10000 4.1 60 06:55 11.07.2020
1000 Clouds 33 1010 31 10000 4.1 60 06:22 11.07.2020
1001 Clouds 32 1011 35 10000 6.7 110 05:22 11.07.2020
1002 Clouds 31 1012 35 10000 7.7 90 04:55 11.07.2020
1003 Clouds 31 1012 35 10000 5.7 90 04:32 11.07.2020
1004 Clouds 29 1013 42 10000 5.1 90 03:24 11.07.2020
1005 Clouds 27 1014 51 10000 2.6 130 02:38 11.07.2020
1006 Clouds 26 1013 57 10000 2.1 130 01:37 11.07.2020
1007 Clouds 26 1013 57 10000 2.1 130 01:18 11.07.2020
1008 Clouds 24 1013 69 10000 2.1 150 00:41 11.07.2020
1009 Clouds 24 1013 69 10000 2.1 150 00:22 11.07.2020
1010 Clouds 24 1013 69 10000 2.6 130 23:57 10.07.2020
1011 Clouds 24 1012 73 10000 2.1 140 23:39 10.07.2020
1012 Clouds 24 1012 73 10000 2.1 140 23:19 10.07.2020
1013 Clouds 24 1012 73 10000 2.1 140 22:45 10.07.2020
1014 Clouds 24 1012 73 10000 2.6 130 22:21 10.07.2020
1015 Clouds 23 1012 78 10000 2.6 150 21:56 10.07.2020
1016 Clouds 23 1012 78 10000 1.5 170 21:36 10.07.2020
1017 Clouds 23 1012 78 10000 1.5 170 21:18 10.07.2020
1018 Clouds 23 1012 73 10000 3.6 190 20:43 10.07.2020
1019 Clouds 23 1012 73 10000 3.6 190 20:23 10.07.2020
1020 Clouds 23 1012 73 10000 1.5 170 19:58 10.07.2020
1021 Clouds 23 1012 73 10000 2.1 180 19:40 10.07.2020
1022 Clouds 23 1013 73 10000 2.1 170 19:21 10.07.2020
1023 Clouds 24 1013 78 10000 3.1 180 18:42 10.07.2020
1024 Clouds 24 1013 78 10000 3.1 180 18:22 10.07.2020
1025 Clouds 24 1013 73 10000 2.6 180 17:59 10.07.2020
1026 Clouds 25 1013 78 10000 2.6 180 17:40 10.07.2020
1027 Clouds 25 1013 78 10000 2.6 180 17:22 10.07.2020
1028 Clouds 25 1013 78 10000 2.6 200 16:44 10.07.2020
1029 Clouds 25 1013 78 10000 2.6 200 16:21 10.07.2020
1030 Clouds 25 1013 83 10000 1.5 190 15:57 10.07.2020
1031 Clouds 25 1013 78 10000 2.6 210 15:39 10.07.2020
1032 Clouds 25 1013 78 10000 2.6 210 15:18 10.07.2020
1033 Clouds 25 1013 74 10000 2.1 240 14:41 10.07.2020
1034 Clouds 25 1013 74 10000 2.1 240 14:22 10.07.2020
1035 Clouds 25 1012 74 10000 1.5 250 13:58 10.07.2020
1036 Clouds 26 1012 74 10000 2.1 250 13:39 10.07.2020
1037 Clouds 25 1012 74 10000 2.6 260 13:21 10.07.2020
1038 Clouds 25 1012 74 10000 2.6 260 12:58 10.07.2020
1039 Clouds 25 1011 78 10000 2.1 270 12:40 10.07.2020
1040 Clouds 26 1011 78 10000 2.1 270 12:21 10.07.2020
1041 Clouds 26 1011 65 10000 2.6 310 11:42 10.07.2020
1042 Clouds 27 1011 61 10000 2.6 330 11:22 10.07.2020
1043 Clouds 27 1011 61 10000 2.6 330 10:58 10.07.2020
1044 Clouds 28 1010 62 10000 3.6 330 10:40 10.07.2020
1045 Clouds 28 1010 62 10000 3.6 330 10:21 10.07.2020
1046 Clouds 29 1010 55 10000 3.6 330 09:42 10.07.2020
1047 Clouds 30 1010 55 10000 3.6 330 09:23 10.07.2020
1048 Clouds 31 1010 55 10000 5.1 310 08:59 10.07.2020
1049 Clouds 32 1010 48 10000 4.6 310 08:41 10.07.2020
1050 Clouds 33 1010 38 10000 4.6 330 08:23 10.07.2020
1051 Clouds 33 1010 38 10000 4.6 330 07:58 10.07.2020
1052 Clouds 32 1011 40 10000 5.1 90 07:39 10.07.2020
1053 Clouds 33 1011 36 10000 4.1 350 07:19 10.07.2020
1054 Clouds 33 1011 38 10000 6.2 100 06:43 10.07.2020
1055 Clear 32 1012 38 10000 4.1 350 05:50 10.07.2020
1056 Clear 30 1013 40 10000 4.6 110 04:29 10.07.2020
1057 Clear 28 1014 48 10000 5.1 110 03:22 10.07.2020
1058 Clear 27 1014 61 10000 3.1 150 02:41 10.07.2020
1059 Clear 25 1013 64 10000 2.1 140 01:33 10.07.2020
1060 Clear 20 1013 82 10000 1.5 130 00:40 10.07.2020
1061 Clear 20 1012 82 10000 4.23 118 00:18 10.07.2020
1062 Clear 20 1012 82 10000 4.23 118 23:39 09.07.2020
1063 Clear 20 1012 82 10000 3.9 116 23:19 09.07.2020
1064 Clear 21 1012 73 10000 2.6 160 22:57 09.07.2020
1065 Clear 20 1012 88 10000 1.5 110 22:39 09.07.2020
1066 Clear 20 1012 88 10000 1.5 110 22:20 09.07.2020
1067 Clear 20 1012 88 10000 0.5 100 21:55 09.07.2020
1068 Clear 20 1012 88 10000 1.5 120 21:37 09.07.2020
1069 Clear 20 1012 88 10000 1.5 120 21:18 09.07.2020
1070 Clear 21 1012 78 10000 2.1 180 20:42 09.07.2020
1071 Clouds 21 1012 78 10000 2.1 180 20:24 09.07.2020
1072 Clouds 21 1012 88 10000 1.5 180 19:56 09.07.2020
1073 Clouds 21 1012 88 10000 0.5 60 19:38 09.07.2020
1074 Clouds 21 1013 88 10000 2.6 40 19:19 09.07.2020
1075 Clouds 22 1012 83 10000 2.1 190 18:41 09.07.2020
1076 Clouds 22 1012 83 10000 2.6 200 18:20 09.07.2020
1077 Clouds 22 1012 83 10000 2.6 200 17:55 09.07.2020
1078 Clouds 23 1012 83 10000 2.6 210 17:37 09.07.2020
1079 Clouds 23 1012 83 10000 2.6 210 17:18 09.07.2020
1080 Clouds 23 1012 88 10000 2.6 200 16:54 09.07.2020
1081 Clouds 23 1012 83 10000 2.1 200 16:36 09.07.2020
1082 Clouds 22 1012 83 10000 2.1 200 16:18 09.07.2020
1083 Clouds 23 1012 78 10000 2.1 200 15:45 09.07.2020
1084 Clouds 23 1012 78 10000 2.1 200 15:45 09.07.2020
1085 Clouds 23 1012 78 10000 2.1 200 15:27 09.07.2020
1086 Clouds 23 1012 69 10000 2.1 190 14:59 09.07.2020
1087 Clouds 23 1012 73 10000 1 50 14:40 09.07.2020
1088 Clouds 23 1012 73 10000 1 50 14:22 09.07.2020
1089 Clouds 23 1011 73 10000 1.5 50 13:58 09.07.2020
1090 Clouds 23 1011 73 10000 2.1 40 13:39 09.07.2020
1091 Clouds 23 1011 73 10000 2.1 40 13:20 09.07.2020
1092 Clouds 25 1011 69 10000 1.5 10 12:43 09.07.2020
1093 Clouds 25 1011 69 10000 1.5 10 12:24 09.07.2020
1094 Clouds 25 1010 61 10000 1.5 10 11:59 09.07.2020
1095 Clouds 26 1010 57 10000 3.1 10 11:41 09.07.2020
1096 Clouds 26 1010 57 10000 3.1 10 11:23 09.07.2020
1097 Clouds 27 1010 54 10000 4.1 360 10:58 09.07.2020
1098 Clouds 28 1009 45 10000 4.1 350 10:40 09.07.2020
1099 Clouds 29 1009 45 10000 4.1 350 10:21 09.07.2020
1100 Clouds 32 1009 29 10000 2.6 250 09:44 09.07.2020
1101 Clouds 32 1009 29 10000 2.6 250 09:24 09.07.2020
1102 Clouds 32 1009 27 10000 2.6 100 08:56 09.07.2020
1103 Clouds 32 1009 27 10000 3.6 50 08:37 09.07.2020
1104 Clouds 32 1009 27 10000 3.6 50 08:18 09.07.2020
1105 Clouds 32 1010 25 10000 4.1 130 07:45 09.07.2020
1106 Clouds 32 1010 25 10000 4.1 130 07:21 09.07.2020
1107 Clouds 31 1011 28 10000 5.1 90 06:40 09.07.2020
1108 Clouds 30 1012 28 10000 6.7 120 06:19 09.07.2020
1109 Clouds 29 1013 32 10000 7.2 100 04:29 09.07.2020
1110 Clouds 27 1014 42 10000 5.1 90 03:25 09.07.2020
1111 Clouds 25 1014 53 10000 6.2 90 02:18 09.07.2020
1112 Clouds 23 1014 53 10000 5.7 90 01:32 09.07.2020
1113 Clouds 21 1013 60 10000 4.1 90 00:46 09.07.2020
1114 Clouds 21 1013 60 10000 4.1 90 00:23 09.07.2020
1115 Clouds 21 1013 53 10000 4.6 100 23:46 08.07.2020
1116 Clear 21 1013 53 10000 4.6 100 23:27 08.07.2020
1117 Clear 21 1012 53 10000 3.6 90 22:58 08.07.2020
1118 Clear 21 1012 53 10000 4.1 100 22:39 08.07.2020
1119 Clouds 21 1012 53 10000 4.1 100 22:21 08.07.2020
1120 Clouds 21 1012 56 10000 3.1 130 21:58 08.07.2020
1121 Clouds 21 1012 56 10000 3.1 130 21:58 08.07.2020
1122 Clouds 21 1012 60 10000 3.1 150 21:38 08.07.2020
1123 Clear 20 1012 60 10000 3.1 150 21:20 08.07.2020
1124 Clear 21 1012 64 10000 3.1 160 20:54 08.07.2020
1125 Clear 21 1012 73 10000 2.6 160 20:36 08.07.2020
1126 Clear 20 1012 73 10000 2.6 160 20:18 08.07.2020
1127 Clear 21 1012 78 10000 2.1 170 19:42 08.07.2020
1128 Clear 21 1012 78 10000 2.1 170 19:22 08.07.2020
1129 Clear 22 1012 78 10000 3.1 180 18:57 08.07.2020
1130 Clear 22 1012 78 10000 2.6 180 18:38 08.07.2020
1131 Clear 22 1012 78 10000 2.6 180 18:19 08.07.2020
1132 Clear 22 1012 78 10000 2.6 180 18:19 08.07.2020
1133 Clear 22 1012 78 10000 3.6 190 17:55 08.07.2020
1134 Clear 22 1012 78 10000 3.6 180 17:37 08.07.2020
1135 Clear 22 1012 78 10000 3.6 180 17:18 08.07.2020
1136 Clear 22 1012 78 10000 3.1 190 16:39 08.07.2020
1137 Clear 23 1012 78 10000 3.1 190 16:20 08.07.2020
1138 Clear 23 1012 78 10000 2.6 180 15:58 08.07.2020
1139 Clear 23 1012 64 10000 2.6 180 15:40 08.07.2020
1140 Clear 23 1012 64 10000 2.6 180 15:19 08.07.2020
1141 Clear 23 1012 60 10000 1 70 14:48 08.07.2020
1142 Clouds 23 1012 60 10000 1 70 14:29 08.07.2020
1143 Clouds 23 1012 64 10000 1 50 13:59 08.07.2020
1144 Clouds 23 1012 64 10000 2.1 50 13:41 08.07.2020
1145 Clouds 24 1012 64 10000 2.1 50 13:22 08.07.2020
1146 Clouds 25 1011 54 10000 2.1 50 12:45 08.07.2020
1147 Clouds 26 1011 44 10000 2.6 30 12:21 08.07.2020
1148 Clouds 26 1011 44 10000 2.6 30 11:57 08.07.2020
1149 Clouds 27 1011 42 10000 3.1 50 11:38 08.07.2020
1150 Clouds 28 1011 42 10000 3.1 50 11:20 08.07.2020
1151 Clouds 29 1010 37 10000 3.6 60 10:45 08.07.2020
1152 Clouds 30 1010 35 10000 4.1 80 10:26 08.07.2020
1153 Clouds 31 1010 29 10000 4.1 80 09:59 08.07.2020
1154 Clouds 31 1010 27 10000 4.6 70 09:40 08.07.2020
1155 Clouds 32 1010 27 10000 4.6 70 09:20 08.07.2020
1156 Clouds 31 1010 29 10000 4.6 80 08:42 08.07.2020
1157 Clouds 31 1010 29 10000 4.6 80 08:24 08.07.2020
1158 Clouds 31 1010 27 10000 4.6 90 07:47 08.07.2020
1159 Clouds 31 1011 27 10000 5.7 110 07:23 08.07.2020
1160 Clouds 31 1011 27 10000 6.7 100 06:55 08.07.2020
1161 Clouds 31 1011 27 10000 5.7 90 06:35 08.07.2020
1162 Clouds 30 1012 27 10000 6.2 110 05:55 08.07.2020
1163 Clouds 29 1012 26 10000 6.2 110 05:20 08.07.2020
1164 Clouds 28 1013 30 10000 7.2 140 04:32 08.07.2020
1165 Clouds 24 1014 44 10000 4.6 120 02:22 08.07.2020
1166 Clouds 23 1014 49 10000 3.6 130 01:45 08.07.2020
1167 Clouds 22 1014 52 10000 3.6 120 01:19 08.07.2020
1168 Clouds 21 1014 49 10000 3.6 100 00:26 08.07.2020
1169 Clouds 21 1013 49 10000 3.6 110 23:56 07.07.2020
1170 Clouds 20 1013 60 10000 3.6 130 23:37 07.07.2020
1171 Clouds 20 1013 60 10000 3.6 130 23:19 07.07.2020
1172 Clouds 19 1013 72 10000 2.6 150 22:43 07.07.2020
1173 Clouds 20 1013 72 10000 2.6 150 22:23 07.07.2020
1174 Clouds 20 1013 77 10000 2.6 160 21:59 07.07.2020
1175 Clouds 19 1013 82 7000 2.6 160 21:40 07.07.2020
1176 Clouds 19 1013 82 7000 2.6 160 21:21 07.07.2020
1177 Clouds 19 1013 82 6000 2.6 160 20:57 07.07.2020
1178 Clouds 20 1013 82 9000 2.6 170 20:39 07.07.2020
1179 Clouds 19 1013 82 9000 2.6 170 20:20 07.07.2020
1180 Clouds 19 1013 93 3100 5.31 101 19:41 07.07.2020
1181 Clouds 19 1014 88 1500 5.04 105 19:21 07.07.2020
1182 Clouds 19 1014 88 1500 5.04 105 18:58 07.07.2020
1183 Clouds 19 1014 88 6000 5.04 105 18:40 07.07.2020
1184 Clouds 19 1014 88 6000 4.23 123 18:21 07.07.2020
1185 Clouds 19 1014 82 6000 4.23 123 17:58 07.07.2020
1186 Clouds 20 1014 82 10000 4.23 123 17:38 07.07.2020
1187 Clouds 20 1014 82 10000 2.96 147 17:20 07.07.2020
1188 Clouds 20 1014 77 10000 2.96 147 16:58 07.07.2020
1189 Clouds 21 1014 73 10000 2.96 147 16:38 07.07.2020
1190 Clouds 21 1014 73 10000 2.48 155 16:20 07.07.2020
1191 Clouds 22 1014 64 10000 2.48 155 15:42 07.07.2020
1192 Clouds 22 1014 64 10000 1.99 157 15:21 07.07.2020
1193 Clouds 22 1014 64 10000 0.5 30 14:47 07.07.2020
1194 Clear 22 1014 69 10000 1 30 14:27 07.07.2020
1195 Clear 22 1013 64 10000 1.5 30 13:59 07.07.2020
1196 Clear 22 1013 64 10000 1.5 30 13:38 07.07.2020
1197 Clear 22 1013 60 10000 1 30 13:18 07.07.2020
1198 Clear 23 1013 60 10000 2.6 30 12:41 07.07.2020
1199 Clear 24 1013 53 10000 2.6 30 12:22 07.07.2020
1200 Clear 24 1013 53 10000 2.6 30 11:56 07.07.2020
1201 Clear 25 1012 50 10000 3.6 10 11:38 07.07.2020
1202 Clear 25 1012 50 10000 3.6 10 11:20 07.07.2020
1203 Clear 26 1012 50 10000 4.1 10 10:55 07.07.2020
1204 Clear 26 1012 44 10000 4.1 360 10:37 07.07.2020
1205 Clear 27 1012 44 10000 4.1 360 10:18 07.07.2020
1206 Clear 29 1011 37 10000 3.6 330 09:40 07.07.2020
1207 Clear 28 1011 37 10000 3.6 330 09:20 07.07.2020
1208 Clear 30 1012 22 10000 5.1 280 08:42 07.07.2020
1209 Clear 31 1012 22 10000 5.1 280 08:23 07.07.2020
1210 Clear 31 1012 22 10000 2.6 130 07:47 07.07.2020
1211 Clear 30 1012 22 10000 2.6 130 07:24 07.07.2020
1212 Clear 30 1013 20 10000 4.6 110 06:49 07.07.2020
1213 Clear 30 1013 20 10000 4.6 110 06:31 07.07.2020
1214 Clear 29 1014 23 10000 4.6 110 05:54 07.07.2020
1215 Clear 28 1014 24 10000 6.2 130 05:23 07.07.2020
1216 Clear 27 1015 26 10000 7.7 100 04:42 07.07.2020
1217 Clear 26 1016 27 10000 9.3 110 03:41 07.07.2020
1218 Clear 24 1016 36 10000 6.7 110 02:28 07.07.2020
1219 Clear 21 1016 40 10000 4.6 120 01:25 07.07.2020
1220 Clear 21 1016 48 10000 4.1 130 00:54 07.07.2020
1221 Clear 20 1016 48 10000 4.1 130 00:36 07.07.2020
1222 Clear 20 1015 45 10000 3.6 140 00:18 07.07.2020
1223 Clear 20 1015 40 10000 4.6 130 23:41 06.07.2020
1224 Clear 20 1015 40 10000 4.6 130 23:22 06.07.2020
1225 Clear 21 1015 40 10000 4.6 120 22:55 06.07.2020
1226 Clear 21 1015 40 10000 5.1 120 22:37 06.07.2020
1227 Clear 21 1014 35 10000 5.7 120 22:18 06.07.2020
1228 Clear 21 1014 35 10000 5.7 120 21:54 06.07.2020
1229 Clear 22 1014 35 10000 6.7 110 21:36 06.07.2020
1230 Clear 22 1018 41 0 6.95 107 21:18 06.07.2020
1231 Clear 22 1014 31 10000 5.7 120 20:39 06.07.2020
1232 Clouds 22 1014 31 10000 5.7 120 20:20 06.07.2020
1233 Clouds 22 1014 31 10000 5.7 120 19:57 06.07.2020
1234 Clouds 23 1014 31 10000 6.2 120 19:39 06.07.2020
1235 Clouds 23 1014 31 10000 6.2 120 19:20 06.07.2020
1236 Clouds 23 1014 31 10000 5.1 130 18:56 06.07.2020
1237 Clouds 23 1014 31 10000 4.1 120 18:38 06.07.2020
1238 Clear 23 1014 31 10000 3.6 120 18:19 06.07.2020
1239 Clear 23 1014 33 10000 4.1 130 17:42 06.07.2020
1240 Clear 23 1014 33 10000 4.1 130 17:24 06.07.2020
1241 Clear 24 1014 36 10000 4.1 130 16:58 06.07.2020
1242 Clear 24 1014 38 10000 3.1 130 16:40 06.07.2020
1243 Clear 24 1014 38 10000 3.1 130 16:21 06.07.2020
1244 Clear 23 1015 60 10000 2.1 110 15:42 06.07.2020
1245 Clear 23 1015 60 10000 2.1 110 15:42 06.07.2020
1246 Clear 23 1015 60 10000 2.1 110 15:24 06.07.2020
1247 Clear 23 1015 60 10000 2.1 110 15:24 06.07.2020
1248 Clear 24 1015 57 10000 1.5 100 14:57 06.07.2020
1249 Clouds 24 1015 61 10000 1 70 14:38 06.07.2020
1250 Clouds 25 1015 61 10000 1 70 14:19 06.07.2020
1251 Clouds 26 1014 57 10000 1 60 13:55 06.07.2020
1252 Clouds 26 1014 57 10000 1.5 40 13:36 06.07.2020
1253 Clouds 26 1014 57 10000 1.5 40 13:36 06.07.2020
1254 Clouds 26 1014 57 10000 1.5 40 13:18 06.07.2020
1255 Clouds 26 1014 54 10000 1.5 350 12:42 06.07.2020
1256 Clouds 26 1013 54 10000 2.1 360 12:19 06.07.2020
1257 Clouds 27 1013 54 10000 2.1 360 11:57 06.07.2020
1258 Clouds 27 1013 51 10000 2.1 340 11:38 06.07.2020
1259 Clouds 27 1017 59 0 2.06 348 11:19 06.07.2020
1260 Clouds 27 1012 48 10000 4.6 350 10:43 06.07.2020
1261 Clouds 28 1012 48 10000 4.6 350 10:22 06.07.2020
1262 Clouds 28 1012 42 10000 4.6 350 09:59 06.07.2020
1263 Clouds 29 1012 37 10000 4.6 340 09:41 06.07.2020
1264 Clouds 29 1012 37 10000 4.6 340 09:21 06.07.2020
1265 Clouds 31 1012 23 10000 3.1 360 08:55 06.07.2020
1266 Clouds 31 1012 23 10000 2.6 90 08:36 06.07.2020
1267 Clear 31 1012 23 10000 2.6 90 08:18 06.07.2020
1268 Clear 31 1012 23 10000 5.1 120 07:43 06.07.2020
1269 Clear 31 1012 23 10000 5.1 120 07:23 06.07.2020
1270 Clear 30 1013 27 10000 5.7 110 06:39 06.07.2020
1271 Clear 30 1013 27 10000 6.2 120 06:21 06.07.2020
1272 Clear 29 1014 28 10000 6.7 110 05:38 06.07.2020
1273 Clear 29 1014 26 10000 5.7 140 04:52 06.07.2020
1274 Clear 26 1015 36 10000 7.7 130 03:40 06.07.2020
1275 Clear 24 1016 38 10000 7.7 120 02:22 06.07.2020
1276 Clear 22 1016 46 10000 6.7 130 01:34 06.07.2020
1277 Clear 21 1015 49 10000 5.1 140 00:38 06.07.2020
1278 Clear 21 1015 45 10000 4.6 140 00:19 06.07.2020
1279 Clear 20 1014 42 10000 3.6 140 23:42 05.07.2020
1280 Clear 20 1014 42 10000 3.6 140 23:23 05.07.2020
1281 Clear 21 1014 40 10000 4.1 130 22:59 05.07.2020
1282 Clear 20 1014 40 10000 5.1 120 22:40 05.07.2020
1283 Clear 21 1014 40 10000 5.1 120 22:20 05.07.2020
1284 Clear 21 1014 37 10000 4.6 120 21:57 05.07.2020
1285 Clear 21 1014 35 10000 3.6 120 21:38 05.07.2020
1286 Clear 21 1014 35 10000 3.6 120 21:18 05.07.2020
1287 Clear 21 1014 35 10000 3.6 120 21:18 05.07.2020
1288 Clear 21 1014 30 10000 3.6 130 20:57 05.07.2020
1289 Clear 21 1015 28 10000 4.1 130 20:39 05.07.2020
1290 Clear 21 1015 28 10000 4.6 130 20:20 05.07.2020
1291 Clear 21 1015 26 10000 4.6 130 19:43 05.07.2020
1292 Clear 21 1015 26 10000 4.6 130 19:21 05.07.2020
1293 Clear 21 1015 26 10000 4.6 140 18:56 05.07.2020
1294 Clear 22 1015 26 10000 6.2 140 18:38 05.07.2020
1295 Clear 22 1015 26 10000 6.2 140 18:20 05.07.2020
1296 Clear 22 1015 30 10000 4.1 140 17:43 05.07.2020
1297 Clear 22 1015 30 10000 4.1 140 17:20 05.07.2020
1298 Clear 22 1015 35 10000 4.1 140 16:59 05.07.2020
1299 Clear 22 1015 31 10000 3.6 140 16:41 05.07.2020
1300 Clouds 22 1015 31 10000 3.6 140 16:22 05.07.2020
1301 Clouds 23 1015 31 10000 4.1 150 15:41 05.07.2020
1302 Clouds 23 1015 31 10000 4.1 150 15:41 05.07.2020
1303 Clouds 24 1015 31 10000 4.1 150 15:20 05.07.2020
1304 Clouds 24 1015 31 10000 4.1 150 15:20 05.07.2020
1305 Clouds 24 1014 29 10000 5.1 150 14:59 05.07.2020
1306 Clouds 25 1014 29 10000 3.6 160 14:40 05.07.2020
1307 Clouds 25 1014 29 10000 3.6 160 14:20 05.07.2020
1308 Clouds 25 1014 26 10000 4.6 150 13:41 05.07.2020
1309 Clear 25 1014 26 10000 4.6 150 13:23 05.07.2020
1310 Clear 26 1013 31 10000 2.6 140 12:46 05.07.2020
1311 Clear 25 1013 31 10000 2.6 140 12:25 05.07.2020
1312 Clear 26 1013 34 10000 2.1 130 11:58 05.07.2020
1313 Clear 26 1013 28 10000 2.1 120 11:39 05.07.2020
1314 Clear 27 1013 28 10000 2.1 120 11:21 05.07.2020
1315 Clear 28 1012 26 10000 4.1 130 10:57 05.07.2020
1316 Clouds 29 1012 26 10000 3.1 130 10:38 05.07.2020
1317 Clouds 29 1012 26 10000 3.1 130 10:19 05.07.2020
1318 Clear 29 1011 30 10000 6.7 100 09:42 05.07.2020
1319 Clear 29 1011 30 10000 6.7 100 09:21 05.07.2020
1320 Clear 30 1011 27 10000 4.1 130 08:58 05.07.2020
1321 Clear 29 1012 28 10000 5.7 110 08:38 05.07.2020
1322 Clouds 29 1012 28 10000 5.7 110 08:20 05.07.2020
1323 Clouds 29 1012 28 10000 5.7 70 07:44 05.07.2020
1324 Clouds 30 1013 28 10000 6.2 120 07:26 05.07.2020
1325 Clouds 29 1013 32 10000 6.7 100 06:50 05.07.2020
1326 Clouds 28 1014 30 10000 6.7 130 05:18 05.07.2020
1327 Clouds 25 1016 33 10000 7.7 140 03:20 05.07.2020
1328 Clouds 24 1016 38 10000 9.3 100 02:41 05.07.2020
1329 Clouds 23 1016 43 10000 9.3 100 01:59 05.07.2020
1330 Clouds 22 1016 49 10000 9.3 100 01:32 05.07.2020
1331 Clouds 21 1015 52 10000 9.3 100 00:57 05.07.2020
1332 Clouds 21 1015 56 10000 3.1 130 00:38 05.07.2020
1333 Clouds 20 1015 49 10000 3.6 130 00:19 05.07.2020
1334 Clouds 20 1015 52 10000 3.6 120 23:41 04.07.2020
1335 Clouds 21 1015 52 10000 3.6 120 23:23 04.07.2020
1336 Clouds 21 1014 46 10000 4.6 120 22:54 04.07.2020
1337 Clouds 21 1014 49 10000 4.6 120 22:36 04.07.2020
1338 Clouds 22 1014 49 10000 4.6 120 22:18 04.07.2020
1339 Clouds 23 1013 43 10000 7.2 90 21:40 04.07.2020
1340 Clouds 22 1013 43 10000 7.2 90 21:22 04.07.2020
1341 Clouds 22 1014 46 10000 7.7 90 20:55 04.07.2020
1342 Clouds 23 1014 43 10000 7.7 90 20:36 04.07.2020
1343 Clouds 23 1014 43 10000 7.2 100 20:18 04.07.2020
1344 Clouds 23 1014 41 10000 6.7 100 19:42 04.07.2020
1345 Clouds 23 1015 38 10000 7.2 100 19:22 04.07.2020
1346 Clouds 24 1015 33 10000 6.7 100 18:55 04.07.2020
1347 Clouds 24 1015 33 10000 6.7 100 18:55 04.07.2020
1348 Clouds 24 1015 33 10000 6.7 100 18:37 04.07.2020
1349 Clouds 24 1015 31 10000 5.7 110 18:18 04.07.2020
1350 Clouds 25 1015 31 10000 5.7 120 17:42 04.07.2020
1351 Clouds 25 1015 31 10000 5.7 120 17:22 04.07.2020
1352 Clouds 25 1015 31 10000 4.6 120 16:57 04.07.2020
1353 Clouds 24 1015 36 10000 3.6 130 16:37 04.07.2020
1354 Clouds 25 1015 36 10000 3.6 130 16:19 04.07.2020
1355 Clouds 25 1015 31 10000 4.1 130 15:46 04.07.2020
1356 Clouds 25 1015 33 10000 3.6 130 15:27 04.07.2020
1357 Clouds 25 1015 31 10000 4.6 130 14:59 04.07.2020
1358 Clouds 25 1015 31 10000 4.6 130 14:59 04.07.2020
1359 Clouds 25 1015 31 10000 4.1 130 14:37 04.07.2020
1360 Clouds 25 1015 31 10000 4.1 130 14:19 04.07.2020
1361 Clouds 26 1015 34 10000 4.1 140 13:57 04.07.2020
1362 Clouds 26 1014 32 10000 3.1 140 13:39 04.07.2020
1363 Clouds 26 1014 30 10000 3.1 130 13:18 04.07.2020
1364 Clouds 27 1013 30 10000 3.6 120 12:42 04.07.2020
1365 Clear 27 1013 30 10000 3.6 120 12:20 04.07.2020
1366 Clear 28 1013 28 10000 3.1 120 11:46 04.07.2020
1367 Clouds 29 1013 28 10000 4.1 130 11:25 04.07.2020
1368 Clouds 30 1012 25 10000 4.6 120 11:00 04.07.2020
1369 Clouds 31 1012 25 10000 5.1 100 10:41 04.07.2020
1370 Clouds 31 1012 25 10000 5.1 100 10:21 04.07.2020
1371 Clouds 31 1012 24 10000 5.1 140 09:57 04.07.2020
1372 Clouds 31 1012 24 10000 5.1 140 09:57 04.07.2020
1373 Clear 31 1012 24 10000 6.7 110 09:37 04.07.2020
1374 Clear 32 1012 24 10000 6.7 110 09:18 04.07.2020
1375 Clear 32 1012 24 10000 7.7 100 08:46 04.07.2020
1376 Clouds 32 1013 25 10000 6.7 120 08:27 04.07.2020
1377 Clouds 32 1013 27 10000 8.7 90 07:46 04.07.2020
1378 Clouds 31 1013 27 10000 8.7 90 07:26 04.07.2020
1379 Clouds 31 1013 29 10000 7.2 120 06:53 04.07.2020
1380 Clouds 31 1014 29 10000 9.3 100 06:22 04.07.2020
1381 Clouds 30 1015 33 10000 9.3 110 05:34 04.07.2020
1382 Clouds 29 1016 37 10000 10.8 90 04:42 04.07.2020
1383 Clouds 28 1016 42 10000 9.3 110 02:51 04.07.2020
1384 Clear 27 1016 47 10000 7.7 110 02:19 04.07.2020
1385 Clear 26 1016 50 10000 5.1 100 01:26 04.07.2020
1386 Clear 24 1015 60 10000 4.6 100 00:41 04.07.2020
1387 Clear 24 1015 60 10000 4.6 100 00:22 04.07.2020
1388 Clear 23 1015 60 10000 4.1 100 23:40 03.07.2020
1389 Clear 23 1015 60 10000 4.1 100 23:19 03.07.2020
1390 Clear 23 1015 69 10000 3.6 100 22:58 03.07.2020
1391 Clear 23 1015 73 10000 3.6 120 22:39 03.07.2020
1392 Clear 23 1015 73 10000 3.6 120 22:20 03.07.2020
1393 Clear 23 1014 83 10000 2.6 110 21:41 03.07.2020
1394 Clear 23 1014 83 10000 2.6 110 21:20 03.07.2020
1395 Clear 23 1014 83 10000 2.6 140 20:56 03.07.2020
1396 Clear 23 1015 78 10000 2.6 140 20:38 03.07.2020
1397 Clouds 24 1015 78 10000 2.6 140 20:20 03.07.2020
1398 Clouds 24 1015 78 10000 1.5 150 19:41 03.07.2020
1399 Clouds 24 1015 78 10000 1.5 150 19:20 03.07.2020
1400 Clouds 24 1015 78 10000 1.5 150 18:57 03.07.2020
1401 Clouds 24 1015 73 10000 2.1 150 18:39 03.07.2020
1402 Clouds 24 1015 73 10000 1.5 140 18:20 03.07.2020
1403 Clouds 24 1015 78 10000 2.1 170 17:43 03.07.2020
1404 Clouds 24 1015 78 10000 2.1 170 17:22 03.07.2020
1405 Clouds 24 1016 78 10000 2.1 170 16:46 03.07.2020
1406 Clouds 24 1015 78 10000 1.5 160 16:28 03.07.2020
1407 Clouds 25 1015 74 10000 1.5 180 15:49 03.07.2020
1408 Clear 26 1015 69 10000 1.5 170 15:26 03.07.2020
1409 Clear 26 1015 69 10000 2.6 180 15:00 03.07.2020
1410 Clear 26 1015 74 10000 1.5 50 14:41 03.07.2020
1411 Clouds 25 1015 74 10000 1.5 50 14:22 03.07.2020
1412 Clouds 26 1014 74 10000 3.6 40 13:59 03.07.2020
1413 Clouds 26 1014 74 10000 2.6 30 13:40 03.07.2020
1414 Clouds 26 1014 74 10000 2.6 30 13:21 03.07.2020
1415 Clouds 27 1013 65 10000 3.1 30 12:40 03.07.2020
1416 Clear 27 1013 65 10000 3.1 30 12:21 03.07.2020
1417 Clear 28 1013 54 10000 2.6 30 11:44 03.07.2020
1418 Clear 28 1013 54 10000 2.6 30 11:25 03.07.2020
1419 Clouds 29 1013 54 10000 4.6 30 10:59 03.07.2020
1420 Clouds 29 1012 54 10000 4.6 30 10:41 03.07.2020
1421 Clouds 29 1012 54 10000 4.6 30 10:21 03.07.2020
1422 Clouds 30 1012 51 10000 5.1 20 09:58 03.07.2020
1423 Clouds 31 1012 43 10000 5.7 20 09:38 03.07.2020
1424 Clouds 32 1012 43 10000 5.7 20 09:19 03.07.2020
1425 Clear 32 1012 43 10000 6.7 10 08:55 03.07.2020
1426 Clear 33 1012 36 10000 5.1 70 08:37 03.07.2020
1427 Clear 33 1012 36 10000 5.1 70 08:18 03.07.2020
1428 Clear 33 1013 33 10000 5.1 60 07:43 03.07.2020
1429 Clear 33 1013 33 10000 5.1 60 07:21 03.07.2020
1430 Clear 32 1013 33 10000 5.7 90 06:30 03.07.2020
1431 Clear 31 1014 40 10000 6.2 90 05:42 03.07.2020
1432 Clear 29 1015 42 10000 5.7 80 03:59 03.07.2020
1433 Clear 27 1016 51 10000 6.7 110 02:55 03.07.2020
1434 Clouds 27 1016 54 10000 4.6 120 02:31 03.07.2020
1435 Clouds 24 1015 83 10000 3.1 130 01:41 03.07.2020
1436 Clear 23 1015 83 10000 3.1 130 01:20 03.07.2020
1437 Fog 21 1014 94 10000 1.5 130 00:41 03.07.2020
1438 Fog 20 1014 94 10000 1.5 130 23:56 02.07.2020
1439 Fog 20 1014 94 10000 1.5 130 23:37 02.07.2020
1440 Fog 21 1014 94 10000 1.5 130 23:18 02.07.2020
1441 Clear 21 1014 88 10000 2.1 130 22:54 02.07.2020
1442 Clear 21 1014 88 10000 2.6 130 22:36 02.07.2020
1443 Clear 21 1014 88 10000 2.6 130 22:18 02.07.2020
1444 Clear 21 1013 88 10000 2.1 150 21:42 02.07.2020
1445 Clear 21 1013 88 10000 2.1 150 21:20 02.07.2020
1446 Clear 22 1013 83 10000 2.6 140 20:58 02.07.2020
1447 Clear 22 1014 83 10000 2.1 140 20:40 02.07.2020
1448 Clear 22 1014 83 10000 2.1 140 20:20 02.07.2020
1449 Clear 22 1014 88 10000 1.5 120 19:43 02.07.2020
1450 Clear 22 1014 88 10000 1.5 120 19:24 02.07.2020
1451 Clear 21 1014 88 10000 1 120 18:59 02.07.2020
1452 Clear 22 1014 83 10000 1 90 18:41 02.07.2020
1453 Clear 22 1014 83 10000 1 90 18:22 02.07.2020
1454 Clear 22 1014 83 10000 1.5 80 17:58 02.07.2020
1455 Clouds 23 1014 78 10000 1.5 80 17:39 02.07.2020
1456 Clouds 23 1014 78 10000 1.5 80 17:18 02.07.2020
1457 Clouds 23 1014 78 10000 2.6 60 16:44 02.07.2020
1458 Clouds 24 1014 78 10000 2.6 60 16:22 02.07.2020
1459 Clear 23 1014 83 10000 2.1 80 15:59 02.07.2020
1460 Clear 23 1014 83 10000 1 180 15:38 02.07.2020
1461 Clear 23 1014 83 10000 1 180 15:20 02.07.2020
1462 Clear 23 1013 83 10000 1 180 14:46 02.07.2020
1463 Clear 23 1013 78 10000 1 190 14:25 02.07.2020
1464 Clear 24 1013 73 10000 1 240 13:57 02.07.2020
1465 Clear 24 1012 73 10000 1.5 250 13:39 02.07.2020
1466 Clear 24 1012 73 10000 1.5 250 13:20 02.07.2020
1467 Clear 25 1012 73 10000 0.5 270 12:58 02.07.2020
1468 Clear 25 1012 69 10000 1 290 12:38 02.07.2020
1469 Clear 25 1011 69 10000 2.1 360 12:20 02.07.2020
1470 Clear 25 1012 69 10000 1 290 12:20 02.07.2020
1471 Clear 26 1011 65 10000 3.6 10 11:43 02.07.2020
1472 Clear 26 1011 65 10000 3.6 10 11:25 02.07.2020
1473 Clear 27 1010 58 10000 4.6 360 10:48 02.07.2020
1474 Clear 28 1010 58 10000 4.1 360 10:27 02.07.2020
1475 Clear 28 1010 51 10000 4.1 350 09:59 02.07.2020
1476 Clear 29 1010 51 10000 4.6 350 09:40 02.07.2020
1477 Clear 29 1010 51 10000 4.6 350 09:20 02.07.2020
1478 Clear 30 1009 48 10000 4.6 350 08:55 02.07.2020
1479 Clear 30 1010 48 10000 4.6 340 08:37 02.07.2020
1480 Clear 30 1010 54 10000 4.6 310 08:18 02.07.2020
1481 Clear 30 1010 55 10000 4.6 310 07:40 02.07.2020
1482 Clear 30 1010 55 10000 4.6 310 07:19 02.07.2020
1483 Clear 31 1011 33 10000 4.6 120 06:40 02.07.2020
1484 Clear 31 1012 35 10000 5.1 300 06:20 02.07.2020
1485 Clouds 30 1012 45 10000 4.6 70 05:44 02.07.2020
1486 Clouds 28 1013 58 10000 4.1 70 03:57 02.07.2020
1487 Clouds 27 1014 61 10000 3.6 80 03:31 02.07.2020
1488 Clear 22 1013 78 10000 2.1 150 00:54 02.07.2020
1489 Clouds 21 1013 83 10000 3.1 120 00:25 02.07.2020
1490 Fog 20 1013 88 10000 1.5 140 23:48 01.07.2020
1491 Fog 20 1013 93 10000 1 120 23:30 01.07.2020
1492 Clouds 19 1012 88 10000 0.5 120 22:57 01.07.2020
1493 Clouds 20 1012 94 10000 1.5 140 22:38 01.07.2020
1494 Clouds 20 1012 94 10000 1.5 140 22:19 01.07.2020
1495 Clouds 21 1012 88 10000 1.5 150 21:58 01.07.2020
1496 Clouds 20 1012 88 10000 1.5 140 21:40 01.07.2020
1497 Clear 20 1012 88 10000 1.5 140 21:22 01.07.2020
1498 Clear 20 1012 94 10000 1 120 20:57 01.07.2020
1499 Clear 20 1012 88 10000 1 120 20:39 01.07.2020
1500 Clouds 20 1012 88 10000 1 120 20:20 01.07.2020
1501 Clouds 20 1013 88 10000 1.5 230 19:54 01.07.2020
1502 Clouds 20 1013 94 10000 1.5 230 19:36 01.07.2020
1503 Clouds 20 1013 88 10000 1.18 82 19:18 01.07.2020
1504 Clouds 20 1013 94 10000 1.18 82 18:42 01.07.2020
1505 Clouds 20 1013 94 10000 1.37 111 18:21 01.07.2020
1506 Clouds 20 1013 83 10000 1.37 111 17:57 01.07.2020
1507 Clouds 20 1013 83 10000 1.37 111 17:38 01.07.2020
1508 Clouds 21 1013 83 10000 1.64 128 17:19 01.07.2020
1509 Clouds 21 1013 83 10000 1.64 128 16:46 01.07.2020
1510 Clouds 20 1013 83 10000 1.6 108 16:26 01.07.2020
1511 Clouds 21 1013 83 10000 1.6 108 15:55 01.07.2020
1512 Clouds 21 1013 78 10000 1.5 230 15:37 01.07.2020
1513 Clouds 22 1013 78 10000 1.5 230 15:18 01.07.2020
1514 Clouds 22 1013 73 10000 1.5 250 14:42 01.07.2020
1515 Clouds 22 1013 73 10000 1.5 250 14:21 01.07.2020
1516 Clouds 22 1013 73 10000 1 250 13:57 01.07.2020
1517 Clouds 23 1012 73 10000 0.5 360 13:38 01.07.2020
1518 Clouds 23 1012 69 10000 1 360 13:20 01.07.2020
1519 Clouds 23 1012 69 10000 1 360 12:57 01.07.2020
1520 Clouds 24 1012 65 10000 1 330 12:38 01.07.2020
1521 Clouds 25 1011 57 10000 1.5 330 12:20 01.07.2020
1522 Clouds 25 1011 57 10000 2.1 330 11:40 01.07.2020
1523 Clear 25 1011 57 10000 2.1 330 11:22 01.07.2020
1524 Clear 26 1011 54 10000 3.1 350 10:58 01.07.2020
1525 Clear 27 1010 51 10000 4.1 350 10:39 01.07.2020
1526 Clear 27 1010 51 10000 4.1 350 10:21 01.07.2020
1527 Clear 29 1010 48 10000 4.1 350 09:40 01.07.2020
1528 Clear 29 1010 48 10000 4.1 350 09:20 01.07.2020
1529 Clear 29 1010 45 10000 4.1 350 08:59 01.07.2020
1530 Clear 29 1010 45 10000 4.6 350 08:40 01.07.2020
1531 Clouds 29 1010 45 10000 4.6 350 08:20 01.07.2020
1532 Clouds 29 1011 45 10000 4.6 320 07:43 01.07.2020
1533 Clouds 30 1011 45 10000 4.6 320 07:25 01.07.2020
1534 Clouds 29 1011 42 10000 3.6 320 06:59 01.07.2020
1535 Clouds 30 1011 42 10000 3.6 300 06:40 01.07.2020
1536 Clouds 30 1012 33 10000 3.6 260 06:20 01.07.2020
1537 Clear 29 1013 42 10000 2.6 50 04:30 01.07.2020
1538 Clear 28 1014 47 10000 4.1 70 03:44 01.07.2020
1539 Clear 27 1014 47 10000 4.1 70 03:22 01.07.2020
1540 Rain 26 1014 61 10000 4.1 90 02:19 01.07.2020
1541 Clear 23 1014 88 10000 1.5 130 01:23 01.07.2020
1542 Clouds 21 1013 88 10000 2.6 130 00:38 01.07.2020
1543 Clouds 21 1013 88 10000 2.6 130 00:19 01.07.2020
1544 Clouds 21 1013 88 10000 2.6 140 23:40 30.06.2020
1545 Clouds 21 1013 88 10000 2.6 140 23:20 30.06.2020
1546 Clear 20 1012 88 10000 1.5 150 22:42 30.06.2020
1547 Clear 19 1012 88 10000 1.5 150 22:19 30.06.2020
1548 Clear 19 1012 88 10000 0.5 130 21:55 30.06.2020
1549 Clear 19 1012 88 10000 1.5 150 21:37 30.06.2020
1550 Clear 19 1012 88 10000 1.5 150 21:18 30.06.2020
1551 Clear 19 1012 93 10000 1 130 20:42 30.06.2020
1552 Clear 19 1012 93 10000 1 130 20:21 30.06.2020
1553 Clear 19 1011 94 10000 1 140 19:44 30.06.2020
1554 Clear 20 1012 94 10000 1 40 19:21 30.06.2020
1555 Clear 20 1012 94 10000 1 40 18:58 30.06.2020
1556 Clear 20 1012 88 10000 2.01 150 18:40 30.06.2020
1557 Clear 20 1012 88 10000 1.77 131 18:20 30.06.2020
1558 Clear 20 1012 88 10000 1 40 17:40 30.06.2020
1559 Clear 20 1012 88 10000 1 40 17:21 30.06.2020
1560 Clear 21 1012 88 10000 1 40 16:58 30.06.2020
1561 Clear 21 1012 88 10000 1 40 16:58 30.06.2020
1562 Clear 21 1012 88 10000 0.5 200 16:40 30.06.2020
1563 Clear 21 1012 88 10000 0.5 200 16:21 30.06.2020
1564 Clear 22 1012 78 10000 2.1 210 15:56 30.06.2020
1565 Clear 22 1013 83 10000 2.1 210 15:38 30.06.2020
1566 Clear 22 1013 83 10000 2.1 210 15:19 30.06.2020
1567 Clear 23 1012 69 10000 2.1 210 14:43 30.06.2020
1568 Clear 23 1012 69 10000 2.1 210 14:22 30.06.2020
1569 Clear 23 1012 64 10000 0.5 240 13:58 30.06.2020
1570 Clear 23 1012 64 10000 0.5 10 13:37 30.06.2020
1571 Clear 23 1012 69 10000 1.5 360 13:19 30.06.2020
1572 Clear 23 1012 69 10000 1.5 360 13:19 30.06.2020
1573 Clear 23 1012 69 10000 1.5 360 12:56 30.06.2020
1574 Clear 24 1011 61 10000 2.1 360 12:38 30.06.2020
1575 Clear 24 1011 57 10000 2.1 360 12:19 30.06.2020
1576 Clear 24 1011 57 10000 2.1 360 12:19 30.06.2020
1577 Clear 25 1011 57 10000 2.1 360 11:56 30.06.2020
1578 Clear 25 1011 57 10000 3.6 350 11:38 30.06.2020
1579 Clouds 26 1011 57 10000 3.6 350 11:18 30.06.2020
1580 Clouds 27 1010 51 10000 3.6 360 10:54 30.06.2020
1581 Clouds 23 1013 83 10000 2.6 180 16:38 28.06.2020
1582 Clouds 23 1013 83 10000 2.6 180 16:18 28.06.2020
1583 Clouds 24 1013 73 10000 2.1 180 15:54 28.06.2020
1584 Clouds 23 1013 78 10000 1.5 170 15:36 28.06.2020
1585 Clouds 24 1013 69 10000 2.1 180 15:18 28.06.2020
1586 Clouds 23 1013 78 10000 1.47 151 14:41 28.06.2020
1587 Clouds 23 1013 78 10000 2.26 215 14:23 28.06.2020
1588 Clouds 24 1013 69 10000 1 20 13:40 28.06.2020
1589 Clouds 24 1012 65 10000 1.5 30 13:21 28.06.2020
1590 Clouds 25 1012 65 10000 1.5 30 12:58 28.06.2020
1591 Clouds 25 1012 65 10000 2.1 40 12:38 28.06.2020
1592 Clouds 25 1012 65 10000 2.1 40 12:38 28.06.2020
1593 Clouds 25 1012 65 10000 2.1 40 12:38 28.06.2020
1594 Clouds 26 1012 65 10000 2.1 40 12:19 28.06.2020
1595 Clouds 26 1011 61 10000 3.1 30 11:59 28.06.2020
1596 Clouds 26 1011 61 10000 3.1 30 11:59 28.06.2020
1597 Clouds 27 1011 54 10000 4.1 20 11:40 28.06.2020
1598 Clouds 27 1011 54 10000 4.1 20 11:20 28.06.2020
1599 Clouds 28 1011 51 10000 5.1 350 10:58 28.06.2020
1600 Clouds 28 1011 51 10000 3.6 350 10:40 28.06.2020
1601 Clouds 29 1011 51 10000 3.6 350 10:21 28.06.2020
1602 Clouds 30 1010 45 10000 5.1 350 09:42 28.06.2020
1603 Clouds 30 1010 45 10000 5.1 350 09:23 28.06.2020
1604 Clouds 31 1010 43 10000 3.6 360 08:57 28.06.2020
1605 Clouds 32 1011 25 10000 5.1 320 08:38 28.06.2020
1606 Clouds 32 1011 25 10000 5.1 320 08:20 28.06.2020
1607 Clouds 32 1011 27 10000 3.6 90 07:33 28.06.2020
1608 Clouds 32 1012 29 10000 4.1 60 06:56 28.06.2020
1609 Clouds 32 1012 29 10000 4.1 60 06:32 28.06.2020
1610 Clouds 31 1013 31 10000 5.1 330 05:50 28.06.2020
1611 Clouds 30 1014 40 10000 5.7 90 04:27 28.06.2020
1612 Clouds 28 1015 51 10000 3.6 90 02:58 28.06.2020
1613 Clouds 26 1015 65 10000 3.6 100 02:21 28.06.2020
1614 Clouds 24 1014 73 10000 2.6 120 01:45 28.06.2020
1615 Clouds 22 1014 83 10000 1.5 150 00:57 28.06.2020
1616 Clouds 21 1013 94 10000 1.5 110 00:30 28.06.2020
1617 Clouds 20 1013 94 10000 1 100 23:58 27.06.2020
1618 Clouds 20 1013 94 10000 1 130 23:39 27.06.2020
1619 Clouds 20 1013 94 10000 1 130 23:21 27.06.2020
1620 Clouds 20 1013 94 10000 1.5 140 22:42 27.06.2020
1621 Clouds 20 1013 94 10000 1.5 140 22:23 27.06.2020
1622 Clouds 20 1013 94 10000 1.5 140 22:23 27.06.2020
1623 Clouds 20 1013 88 10000 1.5 140 21:59 27.06.2020
1624 Clouds 20 1012 94 10000 1.5 110 21:41 27.06.2020
1625 Clouds 21 1012 94 10000 1.5 110 21:20 27.06.2020
1626 Clouds 21 1012 94 10000 1.5 80 20:55 27.06.2020
1627 Clouds 21 1012 94 10000 1.5 80 20:37 27.06.2020
1628 Clouds 21 1012 94 10000 1.5 80 20:18 27.06.2020
1629 Clouds 21 1012 100 10000 1 50 19:38 27.06.2020
1630 Clouds 21 1013 94 10000 1 50 19:19 27.06.2020
1631 Clouds 22 1013 94 10000 1 50 18:57 27.06.2020
1632 Clouds 22 1013 88 10000 1.5 70 18:38 27.06.2020
1633 Clouds 22 1013 88 10000 1.5 70 18:38 27.06.2020
1634 Clouds 23 1013 83 10000 2.6 190 18:19 27.06.2020
1635 Clouds 24 1013 83 10000 2.6 190 17:41 27.06.2020
1636 Clouds 24 1013 83 10000 2.6 190 17:41 27.06.2020
1637 Clouds 24 1013 83 10000 2.6 190 17:21 27.06.2020
1638 Clouds 24 1013 83 10000 2.6 200 16:57 27.06.2020
1639 Clouds 24 1013 88 10000 2.6 200 16:39 27.06.2020
1640 Clouds 24 1013 88 10000 2.6 200 16:20 27.06.2020
1641 Clouds 24 1013 83 10000 2.6 190 15:45 27.06.2020
1642 Clouds 25 1013 83 10000 2.6 210 15:24 27.06.2020
1643 Clouds 25 1013 83 10000 2.1 210 14:58 27.06.2020
1644 Clouds 25 1013 83 10000 2.6 210 14:39 27.06.2020
1645 Clouds 25 1013 83 10000 2.1 220 14:20 27.06.2020
1646 Clouds 25 1013 83 10000 2.1 220 13:54 27.06.2020
1647 Clouds 26 1012 74 10000 0.5 360 13:36 27.06.2020
1648 Clouds 26 1012 69 10000 1.5 360 13:18 27.06.2020
1649 Clouds 25 1011 69 10000 1.5 360 12:40 27.06.2020
1650 Clouds 26 1011 61 10000 2.1 350 12:22 27.06.2020
1651 Clouds 27 1011 61 10000 2.1 350 11:59 27.06.2020
1652 Clouds 27 1011 58 10000 2.6 340 11:40 27.06.2020
1653 Clouds 28 1011 58 10000 2.6 340 11:21 27.06.2020
1654 Clouds 29 1010 55 10000 3.6 340 10:41 27.06.2020
1655 Clouds 30 1010 55 10000 3.6 340 10:19 27.06.2020
1656 Clouds 30 1010 55 10000 4.6 340 09:58 27.06.2020
1657 Clouds 30 1010 55 10000 4.6 340 09:39 27.06.2020
1658 Clouds 31 1010 55 10000 4.6 340 09:20 27.06.2020
1659 Clouds 31 1010 45 10000 5.7 340 08:44 27.06.2020
1660 Clouds 31 1010 45 10000 5.7 340 08:23 27.06.2020
1661 Clouds 32 1010 35 10000 5.7 100 07:48 27.06.2020
1662 Clouds 32 1011 33 10000 5.1 130 07:26 27.06.2020
1663 Clouds 32 1011 35 10000 5.1 330 06:52 27.06.2020
1664 Clouds 32 1011 35 10000 5.1 330 06:33 27.06.2020
1665 Clouds 31 1013 37 10000 6.7 90 04:55 27.06.2020
1666 Clouds 29 1013 39 10000 6.2 100 04:18 27.06.2020
1667 Clouds 29 1013 37 10000 5.7 80 03:50 27.06.2020
1668 Clouds 26 1014 36 10000 4.1 130 02:43 27.06.2020
1669 Clouds 26 1014 36 10000 4.1 130 02:24 27.06.2020
1670 Clouds 23 1014 46 10000 3.6 130 01:34 27.06.2020
1671 Clouds 23 1013 49 10000 3.6 130 00:49 27.06.2020
1672 Clouds 21 1013 56 10000 3.1 150 23:56 26.06.2020
1673 Clouds 22 1012 53 10000 3.6 120 23:37 26.06.2020
1674 Clouds 22 1012 53 10000 3.6 120 23:19 26.06.2020
1675 Clouds 22 1012 60 10000 3.6 140 22:42 26.06.2020
1676 Clear 22 1012 60 10000 3.6 140 22:24 26.06.2020
1677 Clear 22 1012 60 10000 3.1 160 21:58 26.06.2020
1678 Clear 22 1012 60 10000 3.1 160 21:40 26.06.2020
1679 Clear 22 1012 60 10000 3.1 160 21:40 26.06.2020
1680 Clear 22 1012 60 10000 3.1 160 21:21 26.06.2020
1681 Clear 22 1012 68 10000 2.6 170 20:58 26.06.2020
1682 Clear 22 1012 60 10000 3.1 180 20:39 26.06.2020
1683 Clouds 22 1012 64 10000 3.1 190 20:18 26.06.2020
1684 Clouds 22 1013 69 10000 2.6 200 19:40 26.06.2020
1685 Clouds 22 1013 69 10000 3.1 200 19:20 26.06.2020
1686 Clouds 23 1013 64 10000 2.1 200 18:43 26.06.2020
1687 Clouds 23 1013 64 10000 2.1 200 18:25 26.06.2020
1688 Clouds 23 1013 69 10000 2.6 190 17:55 26.06.2020
1689 Clouds 24 1013 69 10000 2.1 200 17:37 26.06.2020
1690 Clouds 24 1013 69 10000 2.1 200 17:19 26.06.2020
1691 Clouds 24 1013 69 10000 2.6 200 16:42 26.06.2020
1692 Clouds 24 1013 69 10000 2.6 200 16:23 26.06.2020
1693 Clouds 24 1013 69 10000 2.6 200 15:41 26.06.2020
1694 Clouds 24 1013 69 10000 2.6 200 15:22 26.06.2020
1695 -273 0 0 0 0 0 14:59 26.06.2020
1696 Clouds 24 1012 69 10000 2.1 210 14:40 26.06.2020
1697 Clear 24 1012 69 10000 2.1 210 14:22 26.06.2020
1698 Clear 25 1012 73 10000 1 10 13:47 26.06.2020
1699 Clear 25 1012 69 10000 1.5 10 13:25 26.06.2020
1700 Clear 26 1011 61 10000 2.6 10 12:59 26.06.2020
1701 Clear 26 1011 61 10000 2.6 10 12:41 26.06.2020
1702 Clear 26 1011 61 10000 2.6 10 12:22 26.06.2020
1703 Clear 26 1011 61 10000 3.1 10 11:57 26.06.2020
1704 Clear 27 1010 54 10000 3.6 360 11:39 26.06.2020
1705 Clear 27 1010 54 10000 3.6 360 11:20 26.06.2020
1706 Clouds 28 1010 51 10000 4.6 10 10:57 26.06.2020
1707 Clear 29 1010 45 10000 5.1 10 10:38 26.06.2020
1708 Clear 30 1010 45 10000 5.1 10 10:18 26.06.2020
1709 Clear 31 1010 40 10000 6.2 50 09:43 26.06.2020
1710 Clouds 32 1010 40 10000 6.2 50 09:23 26.06.2020
1711 Clouds 32 1010 38 10000 5.7 40 08:55 26.06.2020
1712 Clouds 31 1010 38 10000 4.1 330 08:28 26.06.2020
1713 Clouds 32 1010 33 10000 4.6 80 07:53 26.06.2020
1714 Clouds 32 1010 35 10000 5.1 70 07:24 26.06.2020
1715 Clouds 32 1010 33 10000 4.1 330 06:58 26.06.2020
1716 Clouds 31 1011 33 10000 4.1 330 06:36 26.06.2020
1717 Clouds 30 1011 33 10000 4.6 90 05:59 26.06.2020
1718 Clouds 30 1012 30 10000 5.7 90 05:33 26.06.2020
1719 Clear 26 1014 34 10000 5.1 100 02:42 26.06.2020
1720 Clouds 25 1014 34 10000 5.1 100 02:22 26.06.2020
1721 Clouds 23 1013 43 10000 4.1 100 01:19 26.06.2020
1722 Clouds 21 1012 43 10000 4.6 100 00:39 26.06.2020
1723 Clouds 21 1012 40 10000 4.6 110 00:18 26.06.2020
1724 Clouds 21 1012 40 10000 4.6 100 23:39 25.06.2020
1725 Clouds 21 1012 40 10000 4.6 100 23:18 25.06.2020
1726 Clouds 21 1012 37 10000 4.1 100 22:54 25.06.2020
1727 Clouds 21 1012 37 10000 4.1 100 22:54 25.06.2020
1728 Clouds 20 1012 40 10000 3.6 120 22:36 25.06.2020
1729 Clouds 19 1012 40 10000 3.6 120 22:18 25.06.2020
1730 Clouds 18 1012 45 10000 3.1 130 21:54 25.06.2020
1731 Clouds 19 1012 45 10000 2.6 120 21:36 25.06.2020
1732 Clouds 19 1012 43 10000 2.6 120 21:18 25.06.2020
1733 Clouds 18 1012 56 10000 1.5 90 20:43 25.06.2020
1734 Clouds 20 1012 56 10000 1.5 90 20:23 25.06.2020
1735 Clouds 21 1012 60 10000 2.6 60 19:57 25.06.2020
1736 Clouds 20 1012 60 10000 2.6 60 19:38 25.06.2020
1737 Clouds 20 1012 53 6000 2.1 110 19:18 25.06.2020
1738 Clouds 19 1012 94 5000 1.5 170 18:55 25.06.2020
1739 Clouds 19 1012 94 5000 1.5 170 18:36 25.06.2020
1740 Clouds 19 1012 94 5000 1.5 170 18:36 25.06.2020
1741 Clouds 20 1012 94 7000 1 190 18:18 25.06.2020
1742 Clouds 20 1012 88 10000 1.5 200 17:39 25.06.2020
1743 Clouds 20 1012 88 10000 1.5 200 17:19 25.06.2020
1744 Clouds 20 1013 83 10000 2.83 136 16:41 25.06.2020
1745 Clouds 20 1013 83 10000 2.11 150 16:21 25.06.2020
1746 Clouds 20 1012 83 10000 2.11 150 15:46 25.06.2020
1747 Clouds 21 1013 78 10000 1.81 170 15:27 25.06.2020
1748 Clouds 22 1013 78 10000 1.81 170 14:58 25.06.2020
1749 Clouds 22 1013 78 10000 1.81 170 14:40 25.06.2020
1750 Clouds 22 1013 78 10000 1.65 204 14:22 25.06.2020
1751 Smoke 22 1013 73 10000 1.65 206 13:56 25.06.2020
1752 Smoke 22 1013 73 10000 1.65 206 13:37 25.06.2020
1753 Smoke 22 1013 73 10000 0.97 262 13:19 25.06.2020
1754 Smoke 22 1013 73 10000 0.97 262 13:19 25.06.2020
1755 Smoke 23 1012 69 10000 1 340 12:44 25.06.2020
1756 Smoke 24 1011 61 10000 4.1 160 12:20 25.06.2020
1757 Smoke 25 1011 57 10000 4.1 160 11:44 25.06.2020
1758 Smoke 25 1011 57 10000 4.1 160 11:25 25.06.2020
1759 Smoke 27 1011 54 10000 4.1 160 10:59 25.06.2020
1760 Clouds 27 1011 51 10000 4.1 350 10:40 25.06.2020
1761 Clouds 28 1011 51 10000 4.1 350 10:22 25.06.2020
1762 Smoke 29 1011 39 10000 4.1 330 09:41 25.06.2020
1763 Smoke 29 1011 39 10000 4.1 330 09:23 25.06.2020
1764 Clouds 31 1011 27 10000 2.1 110 08:47 25.06.2020
1765 Clear 32 1011 27 10000 2.1 110 08:20 25.06.2020
1766 Clear 31 1011 25 10000 2.6 330 07:56 25.06.2020
1767 Clear 30 1011 27 10000 4.6 140 07:38 25.06.2020
1768 Clear 31 1011 27 10000 3.6 120 07:19 25.06.2020
1769 Clear 30 1012 26 10000 5.7 120 06:28 25.06.2020
1770 Clear 29 1012 26 10000 5.7 120 05:53 25.06.2020
1771 Clear 28 1013 32 10000 5.1 110 04:56 25.06.2020
1772 Clear 27 1014 36 10000 4.6 120 03:35 25.06.2020
1773 Clear 25 1014 38 10000 4.6 130 02:44 25.06.2020
1774 Clear 24 1014 44 10000 5.1 130 02:18 25.06.2020
1775 Clouds 23 1014 46 10000 4.6 130 01:34 25.06.2020
1776 Clouds 21 1013 60 10000 3.6 150 00:47 25.06.2020
1777 Clouds 21 1013 60 10000 2.6 130 00:22 25.06.2020
1778 Clouds 21 1013 60 10000 2.6 130 23:58 24.06.2020
1779 Clouds 22 1013 56 10000 3.1 130 23:37 24.06.2020
1780 Clouds 21 1013 56 10000 3.1 130 23:18 24.06.2020
1781 Clouds 20 1013 83 10000 2.1 170 22:41 24.06.2020
1782 Clouds 20 1013 83 10000 2.1 170 22:20 24.06.2020
1783 Clouds 21 1012 78 10000 2.1 180 21:57 24.06.2020
1784 Clouds 21 1012 78 10000 2.1 130 21:37 24.06.2020
1785 Clear 21 1012 78 10000 2.1 130 21:19 24.06.2020
1786 Clear 21 1012 83 10000 2.1 150 20:58 24.06.2020
1787 Clear 21 1012 83 10000 2.1 150 20:39 24.06.2020
1788 Clear 21 1012 83 10000 2.1 150 20:20 24.06.2020
1789 Clear 21 1012 88 10000 1.5 150 19:57 24.06.2020
1790 Clear 21 1012 88 9000 1.5 140 19:38 24.06.2020
1791 Clear 21 1012 88 10000 1 110 19:19 24.06.2020
1792 Clear 22 1012 88 10000 1 110 18:58 24.06.2020
1793 Clear 22 1012 88 9000 1.5 120 18:39 24.06.2020
1794 Clear 22 1013 94 10000 1 90 18:20 24.06.2020
1795 Clear 22 1013 94 10000 1 90 17:54 24.06.2020
1796 Clear 22 1013 88 10000 1 90 17:36 24.06.2020
1797 Clear 22 1013 88 10000 1 90 17:18 24.06.2020
1798 Clear 23 1012 83 10000 3.1 190 16:54 24.06.2020
1799 Clear 23 1012 83 10000 2.1 180 16:36 24.06.2020
1800 Clear 23 1013 83 10000 1 190 16:18 24.06.2020
1801 Clear 24 1013 78 10000 1 180 15:39 24.06.2020
1802 Clear 23 1013 73 10000 1.5 180 15:20 24.06.2020
1803 Clear 23 1013 73 10000 1.5 180 14:59 24.06.2020
1804 Clear 23 1012 69 10000 2.1 190 14:40 24.06.2020
1805 Clear 24 1012 69 10000 2.1 190 14:21 24.06.2020
1806 Clear 24 1012 69 10000 0.5 40 13:42 24.06.2020
1807 Clear 24 1012 73 10000 2.6 30 13:21 24.06.2020
1808 Clear 25 1012 69 10000 2.1 10 12:44 24.06.2020
1809 Clear 25 1011 65 10000 2.6 10 12:21 24.06.2020
1810 Clear 26 1011 65 10000 2.6 10 11:58 24.06.2020
1811 Clear 26 1011 61 10000 2.6 10 11:40 24.06.2020
1812 Clear 26 1011 61 10000 2.6 10 11:22 24.06.2020
1813 Clear 28 1010 48 10000 2.6 340 10:48 24.06.2020
1814 Clear 29 1010 48 10000 2.6 340 10:20 24.06.2020
1815 Clear 29 1010 48 10000 3.1 330 09:57 24.06.2020
1816 Clear 30 1010 45 10000 3.6 340 09:39 24.06.2020
1817 Clear 30 1010 45 10000 3.6 340 09:20 24.06.2020
1818 Clear 31 1011 43 10000 4.6 310 08:40 24.06.2020
1819 Clear 32 1011 33 10000 2.1 310 08:19 24.06.2020
1820 Clear 31 1011 33 10000 3.1 110 07:50 24.06.2020
1821 Clear 31 1011 33 10000 3.1 330 07:26 24.06.2020
1822 Clear 31 1012 35 10000 4.1 120 06:46 24.06.2020
1823 Clear 30 1013 35 10000 3.6 90 06:24 24.06.2020
1824 Clear 30 1013 37 10000 5.7 110 05:46 24.06.2020
1825 Clear 29 1014 42 10000 6.2 80 04:40 24.06.2020
1826 Clear 27 1014 44 10000 7.2 90 03:40 24.06.2020
1827 Clear 27 1014 44 10000 7.2 90 03:19 24.06.2020
1828 Clear 25 1015 53 10000 6.2 90 02:41 24.06.2020
1829 Clear 22 1014 64 10000 3.6 90 00:58 24.06.2020
1830 Clear 22 1014 64 10000 3.6 90 00:39 24.06.2020
1831 Clouds 21 1014 64 10000 3.6 90 00:21 24.06.2020
1832 Clouds 22 1014 60 10000 4.6 90 23:40 23.06.2020
1833 Clear 22 1013 56 10000 4.1 100 23:18 23.06.2020
1834 Clear 23 1013 56 10000 4.6 100 22:41 23.06.2020
1835 Clouds 23 1013 53 10000 5.1 110 22:19 23.06.2020
1836 Clouds 23 1013 53 10000 5.1 110 21:59 23.06.2020
1837 Clouds 22 1013 49 10000 4.6 110 21:38 23.06.2020
1838 Clouds 22 1013 49 10000 4.6 110 21:19 23.06.2020
1839 Clouds 22 1013 46 10000 3.6 130 20:55 23.06.2020
1840 Clouds 22 1013 46 10000 3.6 140 20:37 23.06.2020
1841 Clouds 22 1013 46 10000 3.6 140 20:18 23.06.2020
1842 Clouds 23 1013 47 10000 3.1 160 19:44 23.06.2020
1843 Clouds 22 1013 50 10000 2.6 170 19:24 23.06.2020
1844 Clouds 23 1013 60 10000 2.6 170 18:40 23.06.2020
1845 Clear 22 1013 69 10000 2.1 170 18:19 23.06.2020
1846 Clear 22 1013 69 10000 2.1 170 17:56 23.06.2020
1847 Clear 22 1013 69 10000 2.1 170 17:56 23.06.2020
1848 Clouds 22 1013 78 10000 1.5 190 17:38 23.06.2020
1849 Clear 22 1013 83 10000 1.5 210 17:18 23.06.2020
1850 Clear 22 1013 83 10000 1.5 210 16:54 23.06.2020
1851 Clear 22 1013 83 10000 1.5 230 16:36 23.06.2020
1852 Clear 22 1013 78 10000 2.1 220 16:18 23.06.2020
1853 Clear 23 1013 78 10000 1.5 230 15:43 23.06.2020
1854 Clear 24 1013 78 10000 1.5 230 15:24 23.06.2020
1855 Clear 24 1013 78 10000 2.6 220 14:55 23.06.2020
1856 Clear 23 1013 78 10000 1 250 14:37 23.06.2020
1857 Clear 23 1013 73 10000 0.5 290 14:18 23.06.2020
1858 Clear 24 1013 73 10000 1 310 13:45 23.06.2020
1859 Clear 24 1012 69 10000 1 310 13:25 23.06.2020
1860 Clear 23 1012 69 10000 1 310 12:59 23.06.2020
1861 Clear 24 1012 65 10000 1.5 330 12:39 23.06.2020
1862 Clear 25 1011 57 10000 1.5 320 12:19 23.06.2020
1863 Clear 25 1011 54 10000 1.5 340 11:43 23.06.2020
1864 Clear 26 1011 54 10000 1.5 340 11:23 23.06.2020
1865 Clear 28 1011 45 10000 2.6 340 10:58 23.06.2020
1866 Clear 28 1010 45 10000 3.1 310 10:40 23.06.2020
1867 Clear 29 1010 45 10000 3.1 310 10:22 23.06.2020
1868 Clear 31 1010 31 10000 3.1 310 09:57 23.06.2020
1869 Clear 31 1010 31 10000 2.1 110 09:38 23.06.2020
1870 Clear 31 1010 31 10000 2.1 110 09:19 23.06.2020
1871 Clear 31 1010 31 10000 4.1 30 08:46 23.06.2020
1872 Clear 31 1010 31 10000 4.1 30 08:26 23.06.2020
1873 Clear 31 1011 27 10000 4.1 110 07:47 23.06.2020
1874 Clear 30 1011 28 10000 4.1 30 07:24 23.06.2020
1875 Clear 30 1012 28 10000 4.6 130 06:53 23.06.2020
1876 Clear 30 1012 28 10000 4.6 130 06:32 23.06.2020
1877 Clear 29 1012 28 10000 5.1 130 05:56 23.06.2020
1878 Clear 29 1013 30 10000 5.1 110 05:26 23.06.2020
1879 Clear 26 1014 29 10000 7.2 110 03:22 23.06.2020
1880 Clear 24 1015 36 10000 6.2 130 02:49 23.06.2020
1881 Clear 24 1015 36 10000 6.2 130 02:29 23.06.2020
1882 Clear 23 1015 46 10000 4.1 140 01:46 23.06.2020
1883 Clear 22 1014 49 10000 3.6 150 01:24 23.06.2020
1884 Clear 21 1014 49 10000 2.6 120 00:41 23.06.2020
1885 Clear 21 1014 52 10000 2.6 120 00:20 23.06.2020
1886 Clear 21 1014 52 10000 2.6 120 23:54 22.06.2020
1887 Clear 21 1014 52 10000 2.6 120 23:54 22.06.2020
1888 Clear 21 1013 49 10000 1.5 110 23:36 22.06.2020
1889 Clear 22 1013 43 10000 2.1 90 23:18 22.06.2020
1890 Clear 22 1013 43 10000 2.1 90 22:54 22.06.2020
1891 Clear 22 1013 43 10000 2.6 100 22:36 22.06.2020
1892 Clouds 23 1013 46 10000 3.1 90 22:18 22.06.2020
1893 Clouds 22 1013 46 10000 4.1 100 21:41 22.06.2020
1894 Clouds 22 1013 46 10000 4.1 100 21:22 22.06.2020
1895 Clouds 22 1012 56 10000 3.6 110 20:59 22.06.2020
1896 Clouds 22 1012 56 10000 3.6 110 20:59 22.06.2020
1897 Clouds 22 1012 68 10000 2.6 150 20:40 22.06.2020
1898 Clouds 21 1012 68 10000 2.6 150 20:21 22.06.2020
1899 Clouds 22 1013 83 10000 3.6 170 19:44 22.06.2020
1900 Clouds 22 1013 83 10000 3.6 170 19:19 22.06.2020
1901 Clouds 22 1013 78 9000 2.1 180 18:57 22.06.2020
1902 Clouds 22 1013 78 9000 2.1 180 18:38 22.06.2020
1903 Clouds 22 1013 78 8000 2.6 170 18:19 22.06.2020
1904 Clouds 22 1013 78 8000 2.6 170 17:55 22.06.2020
1905 Clouds 22 1013 78 6000 2.1 160 17:37 22.06.2020
1906 Clouds 22 1013 78 10000 2.1 180 17:18 22.06.2020
1907 Clouds 22 1013 78 10000 1.5 170 16:43 22.06.2020
1908 Clouds 23 1013 64 10000 1.5 170 16:19 22.06.2020
1909 Clouds 22 1013 64 10000 1.5 170 15:58 22.06.2020
1910 Smoke 22 1013 64 10000 1.5 180 15:39 22.06.2020
1911 Smoke 22 1013 64 10000 1.5 180 15:21 22.06.2020
1912 Clouds 22 1013 68 10000 0.5 50 14:40 22.06.2020
1913 Clear 22 1013 68 10000 0.5 50 14:21 22.06.2020
1914 Clear 22 1013 68 10000 1 50 13:58 22.06.2020
1915 Clear 23 1012 64 10000 1 50 13:39 22.06.2020
1916 Clear 23 1012 64 10000 1 50 13:20 22.06.2020
1917 Smoke 24 1012 57 10000 1.5 20 12:44 22.06.2020
1918 Smoke 24 1012 57 10000 1.5 20 12:24 22.06.2020
1919 Smoke 25 1012 50 10000 2.6 30 11:59 22.06.2020
1920 Clear 26 1011 47 10000 3.6 30 11:37 22.06.2020
1921 Smoke 27 1011 45 10000 5.1 20 11:19 22.06.2020
1922 Smoke 28 1011 45 10000 5.1 20 10:55 22.06.2020
1923 Clear 28 1011 42 10000 4.6 10 10:36 22.06.2020
1924 Clear 30 1010 25 10000 2.6 40 10:18 22.06.2020
1925 Clear 30 1010 25 10000 2.6 40 09:56 22.06.2020
1926 Clear 31 1010 22 10000 4.1 30 09:37 22.06.2020
1927 Clear 31 1010 22 10000 4.1 30 09:18 22.06.2020
1928 Clear 31 1010 22 10000 4.1 100 08:40 22.06.2020
1929 Clear 31 1010 22 10000 4.1 100 08:21 22.06.2020
1930 Clear 31 1010 23 10000 4.1 30 07:54 22.06.2020
1931 Clear 30 1010 23 10000 4.1 30 07:34 22.06.2020
1932 Clear 31 1011 23 10000 5.7 110 06:56 22.06.2020
1933 Clear 30 1011 23 10000 5.7 110 06:37 22.06.2020
1934 Clear 30 1012 27 10000 7.2 80 06:19 22.06.2020
1935 Clear 29 1012 28 10000 7.2 110 05:41 22.06.2020
1936 Clear 25 1014 38 10000 7.2 120 02:59 22.06.2020
1937 Clear 23 1013 53 10000 4.1 130 01:38 22.06.2020
1938 Clear 21 1013 60 10000 2.1 130 00:43 22.06.2020
1939 Clear 21 1013 60 10000 2.1 130 00:22 22.06.2020
1940 Clear 21 1013 60 10000 2.6 140 23:55 21.06.2020
1941 Clear 21 1013 60 10000 2.6 140 23:55 21.06.2020
1942 Clear 21 1012 49 10000 3.6 100 23:36 21.06.2020
1943 Clear 21 1012 53 10000 4.1 100 23:18 21.06.2020
1944 Clear 21 1012 53 10000 4.1 100 22:55 21.06.2020
1945 Clear 22 1011 49 10000 3.6 100 22:36 21.06.2020
1946 Clear 22 1011 49 10000 3.6 100 22:18 21.06.2020
1947 Clear 22 1011 49 10000 3.6 100 22:18 21.06.2020
1948 Clear 22 1011 49 10000 3.6 100 21:55 21.06.2020
1949 Clear 22 1011 49 10000 4.1 110 21:37 21.06.2020
1950 Clear 22 1011 53 10000 3.6 100 21:18 21.06.2020
1951 Clear 22 1011 56 10000 3.1 90 20:40 21.06.2020
1952 Clear 21 1011 56 10000 3.1 100 20:20 21.06.2020
1953 -273 0 0 0 0 0 19:59 21.06.2020
1954 Clear 22 1012 53 10000 2.6 90 19:40 21.06.2020
1955 Clouds 23 1012 53 10000 2.6 90 19:20 21.06.2020
1956 Clouds 24 1012 50 10000 2.6 100 18:56 21.06.2020
1957 Clouds 23 1012 53 10000 3.1 140 18:38 21.06.2020
1958 Clouds 23 1012 53 10000 3.1 140 18:19 21.06.2020
1959 Clouds 24 1012 57 10000 2.1 180 17:41 21.06.2020
1960 Clouds 24 1012 57 10000 2.1 180 17:21 21.06.2020
1961 Clouds 23 1012 73 10000 1.5 180 16:57 21.06.2020
1962 Clouds 23 1012 83 10000 2.6 200 16:39 21.06.2020
1963 Clouds 23 1012 83 10000 2.6 200 16:21 21.06.2020
1964 Clouds 23 1012 78 10000 1.5 40 15:40 21.06.2020
1965 Clouds 23 1012 78 10000 1.5 40 15:40 21.06.2020
1966 Clear 23 1011 73 10000 1.5 40 15:22 21.06.2020
1967 Clear 24 1011 73 10000 1.5 40 14:58 21.06.2020
1968 Clear 23 1011 69 10000 3.02 185 14:37 21.06.2020
1969 Clear 23 1011 73 10000 2.54 192 14:19 21.06.2020
1970 Clear 23 1011 73 10000 2.54 192 13:55 21.06.2020
1971 Clear 23 1011 73 10000 1.5 40 13:36 21.06.2020
1972 Clear 24 1011 69 10000 1.5 50 13:18 21.06.2020
1973 Clear 25 1010 65 10000 2.1 30 12:42 21.06.2020
1974 Clear 25 1010 65 10000 2.1 30 12:23 21.06.2020
1975 Clear 26 1010 61 10000 3.1 20 11:43 21.06.2020
1976 Clear 27 1010 61 10000 3.1 20 11:25 21.06.2020
1977 Clear 27 1009 58 10000 3.1 10 10:59 21.06.2020
1978 Clear 28 1009 51 10000 3.6 350 10:41 21.06.2020
1979 Clear 28 1009 51 10000 3.6 350 10:22 21.06.2020
1980 Clouds 30 1009 48 10000 3.6 10 09:58 21.06.2020
1981 Clear 31 1009 25 10000 5.1 110 09:36 21.06.2020
1982 Clear 31 1009 27 10000 3.1 80 09:18 21.06.2020
1983 Clear 32 1009 27 10000 3.1 80 08:54 21.06.2020
1984 Clear 32 1009 29 10000 5.1 100 08:36 21.06.2020
1985 Clear 31 1009 31 10000 5.1 100 08:18 21.06.2020
1986 Clear 31 1010 29 10000 5.7 120 07:40 21.06.2020
1987 Clear 31 1010 29 10000 5.7 120 07:21 21.06.2020
1988 Clear 32 1010 29 10000 7.2 130 06:48 21.06.2020
1989 Clear 31 1011 31 10000 7.2 90 05:59 21.06.2020
1990 Clouds 31 1012 37 10000 6.2 100 04:50 21.06.2020
1991 Clear 29 1013 48 10000 5.1 70 03:20 21.06.2020
1992 Clear 28 1013 48 10000 4.1 80 02:53 21.06.2020
1993 Clear 26 1013 78 10000 2.1 90 01:48 21.06.2020
1994 Clear 25 1013 78 10000 2.1 90 01:21 21.06.2020
1995 Clear 24 1013 88 10000 1.5 110 00:55 21.06.2020
1996 Rain 23 1013 100 10000 1 90 00:36 21.06.2020
1997 Fog 22 1012 94 10000 1 100 00:18 21.06.2020
1998 Rain 22 1012 94 10000 0.5 100 23:41 20.06.2020
1999 Fog 22 1012 94 10000 0.5 100 23:21 20.06.2020
2000 Clear 23 1012 94 10000 4.28 117 22:55 20.06.2020
2001 Clear 23 1012 94 10000 0.5 100 22:37 20.06.2020
2002 Clouds 23 1012 94 10000 2.1 100 22:18 20.06.2020
2003 Clouds 23 1012 94 10000 2.1 100 22:18 20.06.2020
2004 Clouds 23 1012 94 10000 2.1 100 21:55 20.06.2020
2005 Clouds 23 1012 94 10000 4.15 109 21:37 20.06.2020
2006 Clouds 23 1012 94 10000 1 120 21:19 20.06.2020
2007 Clouds 23 1012 94 10000 1 120 20:55 20.06.2020
2008 Rain 23 1012 88 10000 1 150 20:37 20.06.2020
2009 Rain 24 1012 88 10000 2.1 140 20:19 20.06.2020
2010 Rain 24 1012 88 6000 1.5 180 19:42 20.06.2020
2011 Rain 24 1012 88 6000 1.5 180 19:22 20.06.2020
2012 Clouds 24 1013 88 10000 2.1 160 18:43 20.06.2020
2013 Rain 24 1013 83 10000 2.6 180 18:21 20.06.2020
2014 Rain 24 1013 83 10000 2.6 180 17:59 20.06.2020
2015 Rain 24 1013 83 10000 1.5 180 17:41 20.06.2020
2016 Clouds 25 1013 83 10000 1.5 180 17:21 20.06.2020
2017 Clouds 24 1013 88 10000 1.5 190 16:58 20.06.2020
2018 Clouds 24 1012 83 10000 1.5 50 16:38 20.06.2020
2019 Clouds 24 1013 83 10000 2.05 111 16:18 20.06.2020
2020 Clouds 24 1013 83 10000 1.5 10 15:42 20.06.2020
2021 Clear 25 1012 83 10000 1 20 15:18 20.06.2020
2022 Clear 25 1012 83 10000 1 20 14:56 20.06.2020
2023 Clear 24 1012 83 10000 2.1 30 14:38 20.06.2020
2024 Clear 25 1012 83 10000 1.5 30 14:18 20.06.2020
2025 Clear 25 1012 74 10000 1.5 20 13:41 20.06.2020
2026 Clear 25 1012 74 10000 2.1 20 13:19 20.06.2020
2027 Clear 26 1012 74 10000 2.1 20 12:55 20.06.2020
2028 Clear 26 1011 69 10000 2.6 30 12:36 20.06.2020
2029 Clear 27 1011 61 10000 2.6 30 12:18 20.06.2020
2030 Clear 27 1011 58 10000 3.6 30 11:38 20.06.2020
2031 Clear 28 1011 58 10000 3.6 30 11:20 20.06.2020
2032 Clear 29 1011 58 10000 3.6 30 10:57 20.06.2020
2033 Clouds 29 1011 58 10000 6.2 30 10:38 20.06.2020
2034 Clouds 29 1010 55 10000 5.7 20 10:18 20.06.2020
2035 Clouds 30 1011 55 10000 5.7 10 09:40 20.06.2020
2036 Clouds 30 1011 55 10000 5.7 10 09:22 20.06.2020
2037 Clouds 31 1011 48 10000 5.7 20 08:56 20.06.2020
2038 Clouds 32 1011 35 10000 4.6 30 08:38 20.06.2020
2039 Clouds 32 1011 35 10000 4.6 30 08:20 20.06.2020
2040 Clouds 33 1011 36 10000 5.7 70 07:44 20.06.2020
2041 Clouds 33 1011 36 10000 5.7 70 07:25 20.06.2020
2042 Clouds 31 1012 40 10000 6.7 100 06:24 20.06.2020
2043 Clouds 31 1013 38 10000 6.7 80 05:59 20.06.2020
2044 Clouds 32 1013 38 10000 7.2 80 05:40 20.06.2020
2045 Clouds 28 1015 51 10000 6.2 90 03:22 20.06.2020
2046 Clouds 26 1015 61 10000 5.1 90 01:53 20.06.2020
2047 Clouds 25 1014 73 10000 2.6 120 01:35 20.06.2020
2048 Clouds 22 1014 83 10000 2.1 110 00:40 20.06.2020
2049 Clouds 22 1014 83 10000 2.6 100 00:19 20.06.2020
2050 Clouds 21 1013 88 10000 2.1 110 23:40 19.06.2020
2051 Clouds 22 1013 94 10000 1 170 23:19 19.06.2020
2052 Clouds 22 1013 94 10000 1 170 22:54 19.06.2020
2053 Clouds 21 1013 94 10000 1.5 170 22:36 19.06.2020
2054 Clouds 22 1013 94 10000 5.52 97 22:18 19.06.2020
2055 Clouds 22 1013 94 10000 5.52 97 21:40 19.06.2020
2056 Clouds 22 1013 88 10000 5.41 107 21:19 19.06.2020
2057 Clouds 22 1013 88 10000 5.41 107 20:59 19.06.2020
2058 Clouds 22 1013 94 10000 1.5 170 20:40 19.06.2020
2059 Clouds 23 1013 94 10000 1.5 170 20:22 19.06.2020
2060 Clouds 23 1013 94 10000 2.6 160 19:59 19.06.2020
2061 Clouds 23 1014 94 10000 2.6 160 19:41 19.06.2020
2062 Clouds 23 1014 94 10000 2.6 160 19:23 19.06.2020
2063 Clouds 23 1014 88 10000 3.1 180 18:58 19.06.2020
2064 Clouds 23 1014 88 10000 2.6 180 18:38 19.06.2020
2065 Clouds 23 1014 88 10000 2.6 180 18:20 19.06.2020
2066 Clouds 24 1014 88 10000 3.6 190 17:42 19.06.2020
2067 Clouds 24 1014 88 10000 3.6 190 17:23 19.06.2020
2068 Clouds 24 1014 88 10000 1.5 40 16:57 19.06.2020
2069 Clouds 24 1014 83 10000 1 30 16:39 19.06.2020
2070 Clouds 24 1014 83 10000 1 30 16:20 19.06.2020
2071 Clouds 24 1014 83 10000 1.67 155 15:44 19.06.2020
2072 Clouds 25 1014 83 10000 1.6 139 15:25 19.06.2020
2073 Clouds 24 1014 83 10000 0.5 30 14:57 19.06.2020
2074 Clouds 25 1014 83 10000 1 40 14:39 19.06.2020
2075 Clouds 25 1014 83 10000 1 40 14:21 19.06.2020
2076 Clouds 25 1014 78 10000 1.5 30 13:58 19.06.2020
2077 Clouds 25 1014 74 10000 1.5 30 13:39 19.06.2020
2078 Clouds 25 1014 74 10000 1.5 30 13:21 19.06.2020
2079 Clouds 26 1013 69 10000 3.1 30 12:44 19.06.2020
2080 Clouds 27 1013 69 10000 3.1 30 12:20 19.06.2020
2081 Clouds 28 1013 58 10000 3.1 30 11:41 19.06.2020
2082 Clouds 28 1012 55 10000 3.6 30 11:19 19.06.2020
2083 Clouds 29 1012 55 10000 3.6 30 10:59 19.06.2020
2084 Clouds 29 1012 55 10000 3.6 20 10:41 19.06.2020
2085 Clouds 29 1012 55 10000 3.6 20 10:21 19.06.2020
2086 Clouds 31 1012 52 10000 4.6 30 09:54 19.06.2020
2087 Clouds 30 1012 48 10000 4.6 20 09:36 19.06.2020
2088 Clouds 31 1012 43 10000 4.6 20 09:18 19.06.2020
2089 Clouds 32 1012 38 10000 4.1 60 08:39 19.06.2020
2090 Clouds 32 1012 33 10000 4.1 60 08:20 19.06.2020
2091 Clouds 32 1012 35 10000 4.1 60 07:41 19.06.2020
2092 Clear 32 1013 35 10000 4.1 60 07:22 19.06.2020
2093 Clear 32 1013 35 10000 4.1 60 06:50 19.06.2020
2094 Clear 31 1013 35 10000 4.1 60 06:22 19.06.2020
2095 Clouds 31 1014 35 10000 6.2 90 05:29 19.06.2020
2096 Clouds 29 1016 39 10000 7.7 110 03:45 19.06.2020
2097 Clouds 27 1016 54 10000 7.2 110 02:20 19.06.2020
2098 Clouds 24 1015 64 10000 4.1 110 00:45 19.06.2020
2099 Clouds 24 1015 64 10000 4.1 110 00:45 19.06.2020
2100 Clouds 23 1015 64 10000 4.1 110 00:22 19.06.2020
2101 Clouds 23 1015 64 10000 4.1 110 00:22 19.06.2020
2102 Clouds 22 1018 74 0 5.46 115 23:58 18.06.2020
2103 Clouds 22 1014 64 10000 3.6 130 23:39 18.06.2020
2104 Clouds 22 1014 64 10000 3.1 120 23:21 18.06.2020
2105 Clouds 22 1014 64 10000 3.6 120 22:41 18.06.2020
2106 Clouds 22 1014 69 10000 2.6 100 22:21 18.06.2020
2107 Clouds 22 1014 69 10000 2.6 100 21:57 18.06.2020
2108 Clouds 22 1013 78 10000 2.1 90 21:38 18.06.2020
2109 Clear 22 1014 78 10000 2.6 100 21:19 18.06.2020
2110 Clear 21 1014 94 10000 0.5 180 20:43 18.06.2020
2111 Clear 21 1014 94 10000 0.5 180 20:22 18.06.2020
2112 Clear 22 1014 94 10000 5.62 103 19:58 18.06.2020
2113 Clear 22 1014 88 10000 1 180 19:40 18.06.2020
2114 Clear 22 1014 88 10000 1.5 180 19:20 18.06.2020
2115 Clear 22 1014 88 10000 0.5 180 18:42 18.06.2020
2116 Clear 22 1014 88 10000 0.5 180 18:23 18.06.2020
2117 Clear 22 1014 88 10000 3.92 122 17:57 18.06.2020
2118 Clear 22 1014 88 10000 0.5 180 17:39 18.06.2020
2119 Clear 23 1014 83 10000 1 170 17:21 18.06.2020
2120 Clear 24 1014 78 10000 2.1 170 16:44 18.06.2020
2121 Clear 23 1014 78 10000 2.1 170 16:25 18.06.2020
2122 Clear 24 1014 78 10000 1.5 50 15:59 18.06.2020
2123 Clear 24 1014 78 10000 1 50 15:40 18.06.2020
2124 Clear 24 1014 78 10000 1 50 15:20 18.06.2020
2125 Clear 24 1014 78 10000 3.14 119 14:57 18.06.2020
2126 Clear 25 1014 78 10000 3.14 119 14:39 18.06.2020
2127 Clear 24 1014 78 10000 2.59 79 14:20 18.06.2020
2128 Clear 25 1014 74 10000 2.6 40 13:48 18.06.2020
2129 Clear 25 1014 74 10000 2.6 40 13:29 18.06.2020
2130 Clear 26 1014 74 10000 3.1 40 12:58 18.06.2020
2131 Clear 26 1013 74 10000 3.1 40 12:40 18.06.2020
2132 Clear 26 1013 74 10000 3.1 40 12:20 18.06.2020
2133 Clear 26 1013 65 10000 3.1 30 11:59 18.06.2020
2134 Clear 27 1013 61 10000 4.1 30 11:40 18.06.2020
2135 Clear 28 1012 54 10000 4.6 30 11:19 18.06.2020
2136 Clear 28 1012 54 10000 4.6 30 11:19 18.06.2020
2137 Clear 29 1012 54 10000 4.6 30 10:41 18.06.2020
2138 Clear 29 1012 54 10000 4.6 30 10:41 18.06.2020
2139 Clear 29 1012 51 10000 5.1 20 10:19 18.06.2020
2140 Clear 30 1012 51 10000 5.1 20 09:54 18.06.2020
2141 Clear 32 1012 33 10000 5.1 30 09:36 18.06.2020
2142 Clear 32 1012 35 10000 6.7 110 09:18 18.06.2020
2143 Clear 32 1012 33 10000 4.6 90 08:39 18.06.2020
2144 Clear 32 1012 35 10000 7.7 70 08:20 18.06.2020
2145 Clear 32 1012 33 10000 6.2 80 07:46 18.06.2020
2146 Clear 32 1012 33 10000 6.2 80 07:26 18.06.2020
2147 Clear 32 1012 35 10000 6.2 70 06:54 18.06.2020
2148 Clear 31 1014 42 0 7.6 80 05:40 18.06.2020
2149 Clouds 29 1016 48 10000 9.8 100 04:21 18.06.2020
2150 Clouds 27 1016 54 10000 7.2 110 02:51 18.06.2020
2151 Clear 25 1016 61 10000 5.1 110 01:28 18.06.2020
2152 Clear 24 1016 60 10000 5.7 110 00:55 18.06.2020
2153 Clear 23 1015 64 10000 4.1 110 00:33 18.06.2020
2154 Clear 22 1015 60 10000 4.6 100 23:58 17.06.2020
2155 Clear 22 1014 60 10000 3.6 100 23:39 17.06.2020
2156 Clear 22 1014 60 10000 3.6 100 23:20 17.06.2020
2157 Clear 22 1014 56 10000 3.1 90 22:57 17.06.2020
2158 Clear 22 1014 56 10000 3.1 110 22:38 17.06.2020
2159 Clear 22 1014 56 10000 3.1 110 22:20 17.06.2020
2160 Clear 22 1014 56 10000 2.6 90 22:20 17.06.2020
2161 Clear 23 1014 56 10000 2.6 90 21:55 17.06.2020
2162 Clear 23 1014 60 10000 2.6 90 21:36 17.06.2020
2163 Clear 22 1014 68 10000 2.6 110 21:18 17.06.2020
2164 Clear 22 1014 73 10000 2.6 140 20:38 17.06.2020
2165 Clear 22 1014 73 10000 3.1 150 20:19 17.06.2020
2166 Clear 22 1014 73 10000 3.1 150 20:19 17.06.2020
2167 Clear 22 1014 88 10000 2.6 170 19:46 17.06.2020
2168 Clear 22 1014 88 10000 2.6 170 19:23 17.06.2020
2169 Clear 23 1014 83 10000 2.1 170 18:59 17.06.2020
2170 Clear 23 1014 78 10000 1.5 160 18:41 17.06.2020
2171 Clear 23 1014 78 10000 1.5 160 18:23 17.06.2020
2172 Clear 23 1015 83 10000 2.6 180 17:44 17.06.2020
2173 Clear 23 1015 83 10000 2.6 180 17:44 17.06.2020
2174 Clear 23 1015 83 10000 1.5 200 17:22 17.06.2020
2175 Clear 23 1015 83 10000 1.5 200 16:57 17.06.2020
2176 Clear 23 1015 83 10000 1.5 200 16:57 17.06.2020
2177 Clear 23 1015 83 10000 1.5 200 16:57 17.06.2020
2178 Clear 23 1015 88 10000 2.1 190 16:39 17.06.2020
2179 Clear 23 1015 88 10000 2.1 190 16:39 17.06.2020
2180 Clear 24 1015 88 10000 2.1 190 16:20 17.06.2020
2181 Rain 24 1015 83 10000 3.1 190 15:56 17.06.2020
2182 Clear 24 1015 73 10000 2.1 120 15:38 17.06.2020
2183 Clear 24 1015 78 10000 1.5 60 15:19 17.06.2020
2184 Clear 24 1015 78 10000 1.5 60 14:57 17.06.2020
2185 Clear 24 1015 78 10000 1.5 60 14:38 17.06.2020
2186 Clear 24 1015 73 10000 1.5 50 14:19 17.06.2020
2187 Clear 24 1015 73 10000 1.5 50 14:19 17.06.2020
2188 Clear 25 1015 73 10000 1.5 50 13:55 17.06.2020
2189 Clear 25 1014 73 10000 2.1 50 13:36 17.06.2020
2190 Clear 25 1014 74 10000 2.6 40 13:18 17.06.2020
2191 Clear 26 1014 69 10000 2.6 50 12:41 17.06.2020
2192 Clear 26 1014 69 10000 2.6 50 12:21 17.06.2020
2193 Clear 27 1013 54 10000 3.6 30 11:45 17.06.2020
2194 Clear 28 1013 54 10000 3.6 30 11:26 17.06.2020
2195 Clear 29 1013 35 10000 3.6 70 10:59 17.06.2020
2196 Clear 30 1012 33 10000 5.1 80 10:38 17.06.2020
2197 Clear 31 1012 33 10000 5.7 60 10:19 17.06.2020
2198 Clear 31 1012 33 10000 5.7 60 10:19 17.06.2020
2199 Clear 31 1012 33 10000 5.7 60 09:55 17.06.2020
2200 Clear 32 1012 33 10000 4.1 110 09:37 17.06.2020
2201 Clear 32 1012 33 10000 5.1 70 09:18 17.06.2020
2202 Clear 32 1012 33 10000 5.1 70 08:44 17.06.2020
2203 Clear 32 1012 33 10000 5.7 90 08:19 17.06.2020
2204 Clear 32 1013 35 10000 5.7 90 07:44 17.06.2020
2205 Clear 32 1013 35 10000 6.7 70 07:23 17.06.2020
2206 Clear 32 1013 35 10000 6.7 70 06:59 17.06.2020
2207 Clear 33 1013 35 10000 7.2 70 06:41 17.06.2020
2208 Clear 32 1013 35 10000 7.2 70 06:22 17.06.2020
2209 Clear 31 1014 37 10000 8.7 90 05:49 17.06.2020
2210 Clear 29 1015 35 10000 8.7 110 04:38 17.06.2020
2211 Clear 26 1016 39 10000 5.7 130 02:21 17.06.2020
2212 Clear 22 1015 43 10000 5.1 140 00:53 17.06.2020
2213 Clear 22 1015 43 10000 5.7 150 00:30 17.06.2020
2214 Clear 22 1015 46 10000 4.6 150 23:59 16.06.2020
2215 Clear 22 1014 49 10000 5.1 150 23:41 16.06.2020
2216 Clear 22 1014 49 10000 5.1 150 23:22 16.06.2020
2217 Clear 22 1014 49 10000 4.6 140 22:57 16.06.2020
2218 Clear 22 1014 49 10000 4.6 150 22:38 16.06.2020
2219 Clear 22 1014 46 10000 4.6 150 22:19 16.06.2020
2220 Clear 22 1014 46 10000 4.6 150 22:19 16.06.2020
2221 Clear 23 1014 46 10000 4.6 150 21:57 16.06.2020
2222 Clear 23 1013 44 10000 5.1 150 21:39 16.06.2020
2223 Clear 24 1013 44 10000 5.1 150 21:20 16.06.2020
2224 Clear 24 1013 41 10000 3.6 100 20:43 16.06.2020
2225 Clouds 25 1013 41 10000 3.6 100 20:22 16.06.2020
2226 Clouds 25 1013 41 10000 4.1 100 19:58 16.06.2020
2227 Clouds 26 1013 39 10000 4.6 80 19:40 16.06.2020
2228 Clouds 25 1013 39 10000 4.6 80 19:22 16.06.2020
2229 Clouds 26 1013 36 10000 6.7 110 18:59 16.06.2020
2230 Clouds 26 1013 34 10000 6.2 100 18:40 16.06.2020
2231 Clouds 27 1013 34 10000 5.1 100 18:21 16.06.2020
2232 Clouds 27 1013 34 10000 5.1 100 17:57 16.06.2020
2233 Clouds 26 1013 34 10000 4.1 100 17:37 16.06.2020
2234 Clouds 25 1014 44 10000 2.6 120 17:19 16.06.2020
2235 Clouds 24 1014 44 10000 2.6 120 16:56 16.06.2020
2236 Clouds 22 1014 64 10000 1 120 16:38 16.06.2020
2237 Clouds 23 1014 64 10000 2.69 141 16:19 16.06.2020
2238 Clouds 23 1014 64 10000 2.69 141 15:56 16.06.2020
2239 Clouds 24 1014 64 10000 0.5 160 15:38 16.06.2020
2240 Clouds 24 1014 61 10000 0.5 260 15:20 16.06.2020
2241 Clouds 25 1014 61 10000 0.5 260 14:43 16.06.2020
2242 Clouds 25 1014 61 10000 0.5 260 14:25 16.06.2020
2243 Clouds 25 1014 54 10000 0.5 200 13:57 16.06.2020
2244 Clouds 26 1013 45 10000 2.1 170 13:39 16.06.2020
2245 Clouds 27 1013 42 10000 3.6 160 13:20 16.06.2020
2246 Clouds 27 1013 42 10000 2.1 160 12:41 16.06.2020
2247 Clouds 28 1013 42 10000 2.1 160 12:21 16.06.2020
2248 Clouds 29 1012 45 10000 1.5 140 11:56 16.06.2020
2249 Clouds 29 1012 45 10000 2.6 110 11:38 16.06.2020
2250 Clouds 30 1011 40 10000 4.1 110 11:19 16.06.2020
2251 Clouds 31 1011 38 10000 4.6 110 10:43 16.06.2020
2252 Clouds 31 1011 38 10000 4.6 110 10:22 16.06.2020
2253 Clouds 32 1011 38 10000 5.1 120 09:59 16.06.2020
2254 Clouds 32 1011 35 10000 5.1 130 09:41 16.06.2020
2255 Clouds 33 1011 35 10000 6.7 130 09:21 16.06.2020
2256 Clouds 33 1011 38 10000 5.7 100 08:48 16.06.2020
2257 Clouds 32 1011 38 10000 5.7 100 08:30 16.06.2020
2258 Clouds 32 1011 35 10000 5.1 100 07:51 16.06.2020
2259 Clouds 33 1011 38 10000 5.7 100 07:28 16.06.2020
2260 Clouds 32 1011 40 10000 5.1 110 06:54 16.06.2020
2261 Clouds 32 1012 38 10000 6.7 70 06:27 16.06.2020
2262 Clouds 32 1013 40 10000 7.2 70 05:46 16.06.2020
2263 Clouds 30 1014 40 10000 9.3 100 04:42 16.06.2020
2264 Clouds 30 1014 42 10000 7.2 110 03:48 16.06.2020
2265 Clouds 27 1014 57 10000 7.84 115 02:19 16.06.2020
2266 Clouds 26 1014 54 10000 7.84 115 01:31 16.06.2020
2267 Clouds 25 1014 53 10000 8.13 115 00:52 16.06.2020
2268 Clouds 24 1013 57 10000 7.29 119 00:22 16.06.2020
2269 Clouds 23 1013 57 10000 7.29 119 23:43 15.06.2020
2270 Clear 23 1013 57 10000 7.05 117 23:24 15.06.2020
2271 Clear 23 1012 57 10000 0.5 140 22:58 15.06.2020
2272 Clear 23 1012 60 10000 7.05 117 22:39 15.06.2020
2273 Clear 23 1012 60 10000 6.57 117 22:21 15.06.2020
2274 Clear 24 1012 60 10000 6.57 117 21:56 15.06.2020
2275 Clear 24 1012 73 10000 2.1 120 21:38 15.06.2020
2276 Clear 24 1012 73 10000 2.1 120 21:19 15.06.2020
2277 Clear 23 1012 73 10000 2.1 120 20:57 15.06.2020
2278 Clear 24 1012 73 10000 2.1 120 20:38 15.06.2020
2279 Clouds 24 1012 73 10000 2.1 130 20:19 15.06.2020
2280 Clouds 24 1012 73 10000 2.1 130 19:56 15.06.2020
2281 Clouds 23 1012 83 10000 1 150 19:38 15.06.2020
2282 Clouds 23 1012 83 10000 2.1 130 19:20 15.06.2020
2283 Clouds 24 1012 83 10000 2.1 130 18:56 15.06.2020
2284 Clouds 24 1013 83 10000 2.6 160 18:37 15.06.2020
2285 Clouds 25 1013 83 10000 3.1 170 18:19 15.06.2020
2286 Clouds 25 1013 78 10000 4.6 190 17:42 15.06.2020
2287 Clouds 26 1013 78 10000 4.6 190 17:22 15.06.2020
2288 Clouds 26 1013 78 10000 3.6 190 16:59 15.06.2020
2289 Clouds 26 1013 78 10000 3.6 190 16:59 15.06.2020
2290 Clouds 26 1013 78 10000 3.6 190 16:41 15.06.2020
2291 Clouds 26 1013 83 10000 4.1 190 16:19 15.06.2020
2292 Clouds 26 1013 83 10000 4.1 190 15:56 15.06.2020
2293 Clouds 26 1013 83 10000 3.6 200 15:38 15.06.2020
2294 Clouds 26 1013 83 10000 3.6 210 15:18 15.06.2020
2295 Clouds 26 1013 83 10000 3.1 210 14:42 15.06.2020
2296 Clouds 26 1013 78 10000 3.6 210 14:21 15.06.2020
2297 Clouds 27 1013 78 10000 3.6 210 13:59 15.06.2020
2298 Clouds 27 1013 74 10000 3.1 220 13:41 15.06.2020
2299 Clouds 27 1013 74 10000 3.1 220 13:41 15.06.2020
2300 Clouds 27 1013 74 10000 3.1 220 13:22 15.06.2020
2301 Clouds 27 1012 61 10000 3.1 230 12:57 15.06.2020
2302 Clouds 28 1012 54 10000 2.1 180 12:39 15.06.2020
2303 Clouds 28 1012 54 10000 2.1 180 12:21 15.06.2020
2304 Clouds 28 1012 54 10000 2.1 180 12:21 15.06.2020
2305 Clouds 29 1011 48 10000 3.6 30 11:44 15.06.2020
2306 Clouds 29 1011 48 10000 3.6 30 11:25 15.06.2020
2307 Clouds 31 1010 43 10000 5.7 30 10:45 15.06.2020
2308 Clouds 31 1010 43 10000 5.7 30 10:23 15.06.2020
2309 Clouds 32 1010 43 10000 4.1 10 09:57 15.06.2020
2310 Clouds 33 1010 43 10000 4.1 360 09:39 15.06.2020
2311 Clouds 33 1010 43 10000 4.1 360 09:20 15.06.2020
2312 Clouds 34 1010 32 10000 3.1 70 08:41 15.06.2020
2313 Clouds 34 1010 32 10000 3.1 70 08:23 15.06.2020
2314 Clouds 34 1010 34 10000 4.1 340 07:47 15.06.2020
2315 Clouds 34 1010 34 10000 4.1 340 07:28 15.06.2020
2316 Clouds 34 1011 34 10000 7.7 80 06:49 15.06.2020
2317 Clouds 34 1011 34 10000 7.7 80 06:26 15.06.2020
2318 Clouds 33 1012 40 10000 4.1 340 05:47 15.06.2020
2319 Clear 33 1012 40 10000 4.1 340 05:26 15.06.2020
2320 Clear 32 1014 45 10000 6.7 100 04:20 15.06.2020
2321 Clear 31 1014 48 10000 6.7 80 03:42 15.06.2020
2322 Clear 29 1015 54 10000 6.2 100 02:54 15.06.2020
2323 Clear 27 1014 69 10000 2.6 120 01:58 15.06.2020
2324 Clear 26 1014 74 10000 3.1 120 01:37 15.06.2020
2325 Clear 25 1014 88 10000 3.1 140 01:18 15.06.2020
2326 Clear 23 1014 94 10000 2.6 150 00:39 15.06.2020
2327 Fog 23 1013 88 10000 1.5 150 00:20 15.06.2020
2328 Clear 23 1013 94 10000 1.5 150 23:47 14.06.2020
2329 Clear 23 1013 94 10000 1.5 150 23:25 14.06.2020
2330 Clear 23 1013 94 10000 1 150 22:58 14.06.2020
2331 Clear 23 1013 94 10000 1.5 130 22:39 14.06.2020
2332 Clear 23 1013 88 10000 2.6 150 22:20 14.06.2020
2333 Clear 23 1013 88 10000 2.6 150 21:58 14.06.2020
2334 Clear 23 1013 94 10000 1.5 140 21:40 14.06.2020
2335 Clear 23 1012 88 10000 1 160 21:19 14.06.2020
2336 Clear 24 1012 88 10000 1 160 20:59 14.06.2020
2337 Clear 24 1012 94 10000 2.6 180 20:39 14.06.2020
2338 Clear 24 1012 94 10000 2.6 180 20:20 14.06.2020
2339 Clear 24 1012 94 10000 3.1 180 19:59 14.06.2020
2340 Clear 24 1013 88 10000 2.1 190 19:38 14.06.2020
2341 Clear 24 1013 94 10000 1.5 180 19:19 14.06.2020
2342 Clear 24 1013 94 10000 1.5 180 18:57 14.06.2020
2343 Clear 24 1013 88 10000 3.1 190 18:39 14.06.2020
2344 Clear 24 1013 88 10000 3.1 190 18:21 14.06.2020
2345 Clear 24 1013 88 10000 3.1 190 17:58 14.06.2020
2346 Clouds 24 1013 88 10000 2.6 180 17:39 14.06.2020
2347 Clear 24 1013 88 10000 1.5 180 17:20 14.06.2020
2348 Clear 24 1013 88 10000 1.5 180 16:55 14.06.2020
2349 Clear 24 1013 88 10000 2.08 163 16:37 14.06.2020
2350 Clear 24 1014 88 10000 1.74 184 16:18 14.06.2020
2351 Clear 25 1014 83 10000 1.5 220 15:41 14.06.2020
2352 Clear 26 1013 83 10000 2.1 230 15:20 14.06.2020
2353 Clear 26 1013 83 10000 2.1 230 14:59 14.06.2020
2354 Clear 25 1013 83 10000 1.5 220 14:41 14.06.2020
2355 Clear 25 1013 83 10000 1.5 220 14:22 14.06.2020
2356 Clear 26 1013 78 10000 2.1 240 13:58 14.06.2020
2357 Clear 26 1013 69 10000 0.89 210 13:39 14.06.2020
2358 Clear 26 1012 74 10000 1 20 13:21 14.06.2020
2359 Clear 26 1013 69 10000 1.36 259 13:21 14.06.2020
2360 Clear 26 1012 74 10000 1 20 12:57 14.06.2020
2361 Clear 26 1012 74 10000 2.6 30 12:38 14.06.2020
2362 Clear 27 1011 69 10000 2.6 10 12:20 14.06.2020
2363 Clear 27 1011 69 10000 2.6 10 12:20 14.06.2020
2364 Clear 27 1011 69 10000 2.6 10 11:56 14.06.2020
2365 Clear 27 1011 69 10000 3.6 360 11:38 14.06.2020
2366 Clear 28 1011 66 10000 4.1 360 11:19 14.06.2020
2367 Clear 28 1011 66 10000 4.1 350 10:42 14.06.2020
2368 Clear 29 1010 58 10000 3.6 350 10:20 14.06.2020
2369 Clear 30 1010 58 10000 3.6 340 09:51 14.06.2020
2370 Clear 30 1010 58 10000 3.6 340 09:26 14.06.2020
2371 Clear 30 1010 55 10000 4.6 340 08:58 14.06.2020
2372 Clear 30 1010 55 10000 4.6 340 08:58 14.06.2020
2373 Clear 31 1011 52 10000 4.6 330 08:40 14.06.2020
2374 Clear 31 1011 52 10000 4.1 310 08:18 14.06.2020
2375 Clear 32 1011 34 10000 4.1 330 07:51 14.06.2020
2376 Clouds 33 1011 34 10000 4.1 330 07:32 14.06.2020
2377 Clouds 33 1012 33 10000 4.1 100 06:35 14.06.2020
2378 Clouds 32 1013 38 10000 5.7 110 05:44 14.06.2020
2379 Clouds 32 1014 38 10000 4.6 90 04:58 14.06.2020
2380 Clouds 31 1014 45 10000 3.6 80 04:31 14.06.2020
2381 Clouds 30 1015 55 10000 2.6 70 03:23 14.06.2020
2382 Clear 28 1015 58 10000 1 170 02:30 14.06.2020
2383 Clear 27 1015 74 10000 1.5 160 01:42 14.06.2020
2384 Clear 26 1014 78 10000 1.5 170 01:18 14.06.2020
2385 Clear 23 1014 94 10000 1.5 140 00:38 14.06.2020
2386 Clear 22 1014 88 10000 2.1 170 00:18 14.06.2020
2387 Clear 22 1013 94 10000 0.5 110 23:42 13.06.2020
2388 Clear 22 1013 94 10000 0.5 110 23:23 13.06.2020
2389 Clear 22 1013 94 10000 1 140 22:56 13.06.2020
2390 Clear 22 1013 100 10000 1.5 150 22:37 13.06.2020
2391 Clouds 22 1013 94 10000 0.5 180 22:18 13.06.2020
2392 Clouds 22 1013 94 10000 0.5 180 21:55 13.06.2020
2393 Clouds 22 1013 88 10000 1 180 21:37 13.06.2020
2394 Clear 22 1013 88 10000 1.5 160 21:18 13.06.2020
2395 Clear 22 1013 88 10000 0.5 170 20:42 13.06.2020
2396 Clear 22 1013 88 10000 1.5 130 20:19 13.06.2020
2397 Clear 22 1013 88 10000 1.5 130 19:54 13.06.2020
2398 Clear 23 1013 94 10000 0.5 60 19:36 13.06.2020
2399 Clear 23 1013 94 10000 2.1 150 19:18 13.06.2020
2400 Clear 24 1013 88 10000 3.1 190 18:41 13.06.2020
2401 Clear 24 1013 88 10000 2.6 190 18:21 13.06.2020
2402 Clear 24 1013 88 10000 2.6 190 18:00 13.06.2020
2403 Clear 24 1013 83 10000 2.1 190 17:41 13.06.2020
2404 Clear 24 1013 83 10000 2.1 190 17:23 13.06.2020
2405 Clear 24 1013 83 10000 2.1 200 16:56 13.06.2020
2406 Clear 24 1013 88 10000 2.1 210 16:38 13.06.2020
2407 Clear 24 1013 83 10000 1 190 16:19 13.06.2020
2408 Clear 25 1013 83 10000 1.5 190 15:45 13.06.2020
2409 Clear 25 1013 83 10000 1.5 190 15:27 13.06.2020
2410 Clear 25 1013 83 10000 1.5 210 14:59 13.06.2020
2411 Clear 25 1013 78 10000 1.5 240 14:39 13.06.2020
2412 Clear 25 1012 78 10000 1 230 14:20 13.06.2020
2413 Clear 25 1012 69 10000 0.5 280 13:44 13.06.2020
2414 Clear 25 1012 69 10000 0.5 280 13:26 13.06.2020
2415 Clear 25 1011 65 10000 1 330 12:55 13.06.2020
2416 Clear 26 1011 69 10000 2.1 10 12:37 13.06.2020
2417 Clear 26 1011 65 10000 2.1 350 12:19 13.06.2020
2418 Clear 27 1010 61 10000 3.6 360 11:40 13.06.2020
2419 Clear 27 1010 61 10000 3.6 360 11:19 13.06.2020
2420 Clear 28 1010 61 10000 3.6 360 10:58 13.06.2020
2421 Clear 29 1010 58 10000 3.6 10 10:39 13.06.2020
2422 Clear 29 1010 55 10000 3.6 360 10:20 13.06.2020
2423 Clear 29 1010 58 10000 4.1 350 09:45 13.06.2020
2424 Clear 29 1010 58 10000 4.1 350 09:27 13.06.2020
2425 Clouds 30 1010 55 10000 4.6 350 08:56 13.06.2020
2426 Clouds 30 1010 51 10000 5.1 350 08:37 13.06.2020
2427 Clouds 30 1010 51 10000 4.1 320 08:19 13.06.2020
2428 Clouds 31 1010 52 10000 4.6 310 07:42 13.06.2020
2429 Clouds 31 1010 52 10000 4.6 310 07:24 13.06.2020
2430 Clouds 31 1011 40 10000 3.1 290 06:44 13.06.2020
2431 Clouds 32 1011 40 10000 3.1 290 06:25 13.06.2020
2432 Clouds 31 1012 43 10000 2.6 70 05:28 13.06.2020
2433 Clouds 31 1013 48 10000 2.6 60 04:35 13.06.2020
2434 Clouds 29 1013 54 10000 3.6 70 03:33 13.06.2020
2435 Clouds 28 1014 57 10000 2.6 110 02:39 13.06.2020
2436 Clouds 26 1013 73 10000 1.5 140 01:48 13.06.2020
2437 Clouds 25 1013 73 10000 1.5 140 01:22 13.06.2020
2438 Clouds 23 1013 83 10000 1.5 160 00:53 13.06.2020
2439 Clouds 22 1013 88 10000 1.5 160 00:27 13.06.2020
2440 Clouds 21 1012 88 10000 2.1 170 23:58 12.06.2020
2441 Clouds 22 1012 88 10000 1.5 150 23:38 12.06.2020
2442 Clear 21 1012 94 10000 1 150 23:18 12.06.2020
2443 Clear 21 1012 94 10000 1 160 22:42 12.06.2020
2444 Clear 21 1011 94 10000 1.5 160 22:19 12.06.2020
2445 Clear 21 1011 94 10000 1.5 160 21:56 12.06.2020
2446 Clear 21 1011 88 10000 1.5 150 21:37 12.06.2020
2447 Clouds 22 1011 88 10000 2.1 160 21:19 12.06.2020
2448 Clouds 22 1011 88 10000 2.1 160 20:56 12.06.2020
2449 Clouds 22 1011 88 10000 2.1 140 20:37 12.06.2020
2450 Clouds 22 1011 88 10000 2.6 170 20:19 12.06.2020
2451 Clouds 23 1011 88 10000 3.1 160 19:39 12.06.2020
2452 Clouds 23 1011 88 10000 3.1 160 19:21 12.06.2020
2453 Clouds 23 1011 88 10000 2.1 160 18:56 12.06.2020
2454 Clouds 23 1011 83 10000 2.6 180 18:36 12.06.2020
2455 Clouds 23 1011 88 10000 2.6 190 18:18 12.06.2020
2456 Clouds 23 1011 88 10000 2.1 190 17:40 12.06.2020
2457 Clouds 23 1011 88 10000 2.1 190 17:21 12.06.2020
2458 Clouds 23 1011 73 10000 2.1 180 16:45 12.06.2020
2459 Clouds 23 1011 73 10000 2.1 180 16:21 12.06.2020
2460 Clouds 24 1011 69 10000 0.96 109 15:49 12.06.2020
2461 Clouds 24 1011 69 10000 1.35 138 15:27 12.06.2020
2462 Clouds 23 1011 73 10000 1.35 138 14:58 12.06.2020
2463 Clouds 23 1011 73 10000 1.35 138 14:39 12.06.2020
2464 Clouds 23 1011 73 10000 0.86 122 14:21 12.06.2020
2465 Clouds 24 1010 69 10000 2.1 30 13:43 12.06.2020
2466 Clouds 25 1010 69 10000 2.1 30 13:22 12.06.2020
2467 Clouds 25 1010 65 10000 2.6 30 12:55 12.06.2020
2468 Clouds 25 1010 65 10000 2.6 30 12:37 12.06.2020
2469 Clouds 26 1009 65 10000 3.1 30 12:18 12.06.2020
2470 Clouds 26 1009 57 10000 3.6 10 11:42 12.06.2020
2471 Clouds 27 1009 57 10000 3.6 10 11:23 12.06.2020
2472 Clouds 28 1009 54 10000 4.1 10 10:49 12.06.2020
2473 Clouds 29 1009 54 10000 4.1 10 10:26 12.06.2020
2474 Clouds 29 1009 51 10000 5.1 360 09:58 12.06.2020
2475 Clouds 30 1009 48 10000 5.1 350 09:38 12.06.2020
2476 Clouds 30 1009 48 10000 4.6 340 09:18 12.06.2020
2477 Clouds 30 1009 48 10000 4.6 330 08:41 12.06.2020
2478 Clouds 31 1009 45 10000 4.1 340 08:22 12.06.2020
2479 Clouds 31 1009 43 10000 4.1 320 07:40 12.06.2020
2480 Clouds 31 1009 31 10000 4.1 330 07:22 12.06.2020
2481 Clouds 32 1010 33 10000 4.1 110 06:40 12.06.2020
2482 Clouds 32 1011 35 10000 2.6 60 06:19 12.06.2020
2483 Clouds 31 1011 38 10000 3.1 70 05:49 12.06.2020
2484 Clouds 31 1011 38 10000 3.1 70 05:23 12.06.2020
2485 Clouds 30 1012 51 10000 5.1 110 03:47 12.06.2020
2486 Clouds 27 1013 74 10000 3.1 100 02:24 12.06.2020
2487 Clouds 26 1012 78 10000 2.6 150 01:34 12.06.2020
2488 Clouds 24 1012 83 10000 2.1 160 00:58 12.06.2020
2489 Clouds 23 1012 88 10000 1.5 150 00:38 12.06.2020
2490 Clouds 22 1011 88 10000 1 100 00:20 12.06.2020
2491 Clouds 22 1011 88 10000 1 100 23:56 11.06.2020
2492 Fog 22 1011 88 10000 1 90 23:37 11.06.2020
2493 Clouds 22 1011 88 10000 1 150 23:19 11.06.2020
2494 Clouds 23 1011 88 10000 2.1 160 22:41 11.06.2020
2495 Clouds 23 1011 88 10000 2.1 160 22:21 11.06.2020
2496 Clouds 23 1011 88 10000 2.1 160 21:57 11.06.2020
2497 Clouds 23 1011 88 10000 1.5 140 21:38 11.06.2020
2498 Clouds 23 1011 88 10000 1.62 129 21:20 11.06.2020
2499 Clouds 23 1011 88 10000 1.62 129 20:56 11.06.2020
2500 Clouds 23 1011 88 10000 1.5 130 20:38 11.06.2020
2501 Clouds 23 1011 88 10000 1.5 100 20:20 11.06.2020
2502 Clouds 24 1011 83 10000 2.1 150 19:42 11.06.2020
2503 Clouds 23 1011 83 10000 2.1 150 19:22 11.06.2020
2504 Clouds 24 1012 88 10000 2.1 150 18:44 11.06.2020
2505 Clouds 24 1012 83 10000 1.5 160 18:26 11.06.2020
2506 Clouds 24 1012 83 10000 1.5 160 17:59 11.06.2020
2507 Clouds 24 1011 83 10000 1.5 150 17:39 11.06.2020
2508 Clouds 24 1011 83 10000 1.5 150 17:20 11.06.2020
2509 Clouds 24 1011 73 10000 1 170 16:59 11.06.2020
2510 Clouds 24 1011 73 10000 1.5 150 16:41 11.06.2020
2511 Clouds 25 1011 73 10000 1.5 150 16:23 11.06.2020
2512 Clouds 24 1012 73 10000 1 40 15:57 11.06.2020
2513 Clouds 24 1012 73 10000 1 40 15:38 11.06.2020
2514 Clouds 25 1012 73 10000 1 40 15:19 11.06.2020
2515 Clouds 25 1011 73 10000 1.91 55 14:43 11.06.2020
2516 Clouds 24 1011 73 10000 1.32 58 14:21 11.06.2020
2517 Clouds 25 1011 74 10000 1.5 40 13:56 11.06.2020
2518 Clouds 25 1011 69 10000 1.5 30 13:38 11.06.2020
2519 Clouds 26 1011 69 10000 2.1 30 13:20 11.06.2020
2520 Clouds 26 1011 69 10000 2.1 30 12:56 11.06.2020
2521 Clouds 26 1011 69 10000 2.1 30 12:38 11.06.2020
2522 Clouds 26 1011 65 10000 3.1 20 12:19 11.06.2020
2523 Clouds 27 1011 65 10000 3.1 20 11:57 11.06.2020
2524 Clouds 27 1010 61 10000 4.1 20 11:38 11.06.2020
2525 Clouds 27 1010 61 10000 4.1 20 11:20 11.06.2020
2526 Clouds 28 1010 61 10000 3.6 10 10:54 11.06.2020
2527 Clouds 28 1010 58 10000 4.1 360 10:36 11.06.2020
2528 Clouds 29 1009 55 10000 4.6 10 10:18 11.06.2020
2529 Clouds 30 1009 52 10000 4.1 20 09:40 11.06.2020
2530 Clouds 32 1009 52 10000 4.1 20 09:22 11.06.2020
2531 Clouds 32 1009 38 10000 5.1 330 08:43 11.06.2020
2532 Clouds 32 1009 38 10000 5.1 330 08:19 11.06.2020
2533 Clouds 32 1009 38 10000 5.1 330 07:42 11.06.2020
2534 Clouds 32 1010 40 10000 5.1 330 07:24 11.06.2020
2535 Clouds 32 1010 43 10000 5.1 330 06:40 11.06.2020
2536 Clouds 32 1011 43 10000 5.1 330 06:21 11.06.2020
2537 Clouds 31 1011 43 10000 5.7 90 05:28 11.06.2020
2538 Clouds 29 1013 51 10000 6.2 100 03:28 11.06.2020
2539 Clouds 28 1013 65 10000 5.1 110 02:50 11.06.2020
2540 Clouds 27 1013 65 10000 5.1 110 02:31 11.06.2020
2541 Clouds 25 1013 78 10000 4.6 100 01:43 11.06.2020
2542 Clouds 25 1013 78 10000 3.1 100 01:22 11.06.2020
2543 Clouds 24 1012 83 10000 3.6 90 00:45 11.06.2020
2544 Clouds 24 1012 83 10000 3.6 80 00:26 11.06.2020
2545 Clouds 24 1012 88 10000 2.6 70 23:43 10.06.2020
2546 Clouds 24 1012 88 10000 2.6 70 23:24 10.06.2020
2547 Clouds 24 1012 88 10000 2.1 70 22:56 10.06.2020
2548 Clouds 24 1012 88 10000 2.1 60 22:37 10.06.2020
2549 Clouds 23 1012 94 10000 2.1 60 22:19 10.06.2020
2550 Clouds 23 1012 94 10000 2.1 60 21:55 10.06.2020
2551 Clouds 24 1012 88 10000 2.1 50 21:37 10.06.2020
2552 Clouds 24 1012 88 10000 2.1 60 21:18 10.06.2020
2553 Clouds 24 1012 88 10000 2.1 50 20:56 10.06.2020
2554 Clouds 24 1012 88 10000 2.1 50 20:38 10.06.2020
2555 Clouds 24 1012 83 10000 1 60 20:19 10.06.2020
2556 Clouds 23 1012 94 10000 1 60 19:40 10.06.2020
2557 Clouds 23 1012 88 10000 1 60 19:19 10.06.2020
2558 Clouds 23 1013 88 10000 1 60 18:58 10.06.2020
2559 Clouds 23 1013 88 10000 1 60 18:40 10.06.2020
2560 Clouds 24 1013 88 10000 2.1 60 18:19 10.06.2020
2561 Clouds 24 1013 88 10000 3.1 50 17:55 10.06.2020
2562 Clouds 24 1013 88 10000 3.1 50 17:37 10.06.2020
2563 Clouds 24 1012 83 10000 1.5 200 17:18 10.06.2020
2564 Clouds 24 1012 83 10000 1.5 200 16:56 10.06.2020
2565 Clouds 24 1012 83 10000 2.6 220 16:38 10.06.2020
2566 Clouds 24 1013 83 10000 1.5 240 16:18 10.06.2020
2567 Clouds 25 1013 83 10000 2.1 240 15:40 10.06.2020
2568 Clouds 25 1013 83 10000 2.1 240 15:21 10.06.2020
2569 Clouds 25 1013 83 10000 2.1 230 14:56 10.06.2020
2570 Clouds 25 1013 78 10000 2.1 230 14:38 10.06.2020
2571 Clouds 25 1012 74 10000 2.1 250 14:19 10.06.2020
2572 Clouds 25 1012 69 10000 1.85 220 13:40 10.06.2020
2573 Clouds 25 1012 69 10000 1.85 220 13:40 10.06.2020
2574 Clouds 25 1012 69 10000 1 360 13:21 10.06.2020
2575 Clouds 26 1012 69 10000 2.1 360 12:44 10.06.2020
2576 Clouds 26 1011 65 10000 2.6 360 12:20 10.06.2020
2577 Clouds 26 1011 65 10000 2.6 360 11:58 10.06.2020
2578 Clouds 27 1011 61 10000 3.1 360 11:40 10.06.2020
2579 Clouds 27 1011 61 10000 3.1 350 11:19 10.06.2020
2580 Clouds 28 1010 58 10000 3.6 340 10:57 10.06.2020
2581 Clouds 28 1010 58 10000 3.6 340 10:39 10.06.2020
2582 Clouds 29 1010 58 10000 3.6 340 10:20 10.06.2020
2583 Clouds 30 1010 55 10000 4.6 330 09:41 10.06.2020
2584 Clouds 30 1010 55 10000 4.6 330 09:41 10.06.2020
2585 Clouds 30 1010 55 10000 4.6 330 09:23 10.06.2020
2586 Clear 31 1010 48 10000 5.1 320 08:44 10.06.2020
2587 Clouds 31 1011 40 10000 4.1 340 08:24 10.06.2020
2588 Clouds 32 1011 40 10000 4.1 340 07:58 10.06.2020
2589 Clouds 32 1011 40 10000 4.1 340 07:38 10.06.2020
2590 Clouds 32 1011 40 10000 4.6 110 07:20 10.06.2020
2591 Clouds 32 1012 40 10000 4.1 120 06:44 10.06.2020
2592 Clouds 32 1012 38 10000 5.1 120 06:22 10.06.2020
2593 Clouds 32 1012 38 10000 5.1 120 05:55 10.06.2020
2594 Clouds 31 1013 43 10000 5.1 80 05:25 10.06.2020
2595 Clouds 30 1014 45 10000 6.7 100 04:34 10.06.2020
2596 Clouds 27 1015 51 10000 5.7 100 02:56 10.06.2020
2597 Clouds 26 1015 50 10000 3.6 130 02:20 10.06.2020
2598 Clouds 25 1015 53 10000 3.6 130 01:36 10.06.2020
2599 Clouds 23 1014 60 10000 2.6 140 00:39 10.06.2020
2600 Clouds 22 1014 64 10000 3.1 130 00:21 10.06.2020
2601 Clouds 21 1014 64 10000 3.1 130 23:56 09.06.2020
2602 Clouds 22 1014 56 10000 3.6 140 23:37 09.06.2020
2603 Clouds 22 1014 56 10000 3.6 140 23:19 09.06.2020
2604 Clouds 22 1013 60 10000 2.6 140 22:55 09.06.2020
2605 Clouds 22 1013 60 10000 2.6 150 22:37 09.06.2020
2606 Clouds 22 1013 64 10000 2.6 150 22:18 09.06.2020
2607 Clouds 22 1013 64 10000 2.6 150 21:55 09.06.2020
2608 Clouds 22 1013 68 10000 2.6 170 21:37 09.06.2020
2609 Clouds 22 1013 68 10000 2.6 170 21:19 09.06.2020
2610 Clouds 22 1013 73 10000 2.6 160 20:56 09.06.2020
2611 Clouds 22 1013 78 10000 2.1 160 20:38 09.06.2020
2612 Clouds 22 1013 83 10000 2.1 160 20:18 09.06.2020
2613 Clouds 22 1013 88 10000 1 110 19:55 09.06.2020
2614 Clouds 22 1013 88 10000 1 110 19:36 09.06.2020
2615 Clouds 22 1014 88 10000 1.5 70 19:18 09.06.2020
2616 Clouds 22 1014 88 10000 1.5 150 18:44 09.06.2020
2617 Clouds 22 1014 88 10000 1.5 150 18:25 09.06.2020
2618 Clouds 23 1014 83 10000 2.1 160 17:57 09.06.2020
2619 Clouds 23 1014 83 10000 2.6 160 17:39 09.06.2020
2620 Clouds 23 1014 83 10000 2.6 160 17:21 09.06.2020
2621 Clouds 23 1014 78 10000 1.5 180 16:55 09.06.2020
2622 Clouds 23 1014 78 10000 1 30 16:36 09.06.2020
2623 Clouds 23 1014 78 10000 0.5 30 16:18 09.06.2020
2624 Clouds 23 1014 78 10000 2.01 141 15:40 09.06.2020
2625 Clouds 23 1014 78 10000 1.77 116 15:21 09.06.2020
2626 Clouds 24 1015 73 10000 1.77 116 14:57 09.06.2020
2627 Clouds 24 1015 73 10000 1.77 116 14:37 09.06.2020
2628 Clouds 24 1014 69 10000 0.65 53 14:18 09.06.2020
2629 Clouds 25 1014 69 10000 0.65 53 13:46 09.06.2020
2630 Clouds 25 1014 65 10000 1.5 30 13:22 09.06.2020
2631 Clouds 25 1014 65 10000 1.5 30 12:59 09.06.2020
2632 Clouds 25 1013 65 10000 2.6 30 12:41 09.06.2020
2633 Clouds 26 1013 61 10000 2.6 10 12:19 09.06.2020
2634 Clouds 26 1013 61 10000 2.6 10 11:56 09.06.2020
2635 Clouds 27 1013 61 10000 2.6 360 11:37 09.06.2020
2636 Clouds 27 1012 58 10000 4.1 360 11:19 09.06.2020
2637 Clouds 27 1012 58 10000 4.1 360 11:19 09.06.2020
2638 Clouds 27 1012 61 10000 4.6 350 10:45 09.06.2020
2639 Clear 28 1012 61 10000 4.6 350 10:27 09.06.2020
2640 Clear 29 1012 29 10000 4.6 320 09:59 09.06.2020
2641 Clear 31 1012 27 10000 3.1 110 09:39 09.06.2020
2642 Clouds 32 1012 27 10000 3.1 110 09:19 09.06.2020
2643 Clouds 31 1012 31 10000 3.6 90 08:40 09.06.2020
2644 Clouds 32 1012 27 10000 5.1 140 08:21 09.06.2020
2645 Clouds 32 1012 27 10000 5.1 140 08:21 09.06.2020
2646 Clouds 32 1012 31 10000 3.6 100 07:43 09.06.2020
2647 Clouds 32 1013 31 10000 5.1 90 07:23 09.06.2020
2648 Clouds 31 1013 30 10000 5.7 120 06:55 09.06.2020
2649 Clouds 31 1013 30 10000 5.7 120 06:36 09.06.2020
2650 Clouds 30 1014 30 10000 6.7 120 05:48 09.06.2020
2651 Clouds 29 1015 39 10000 7.7 120 03:55 09.06.2020
2652 Clear 26 1016 44 10000 6.7 110 02:47 09.06.2020
2653 Clear 25 1015 44 10000 4.1 120 01:38 09.06.2020
2654 Clear 25 1015 44 10000 4.1 120 01:18 09.06.2020
2655 Clear 24 1014 49 10000 2.6 130 00:44 09.06.2020
2656 Clear 23 1014 49 10000 3.6 130 00:19 09.06.2020
2657 Clear 23 1013 49 10000 3.6 130 23:42 08.06.2020
2658 Clear 23 1013 49 10000 3.6 130 23:22 08.06.2020
2659 Clear 23 1013 53 10000 3.1 130 22:59 08.06.2020
2660 Clear 23 1013 50 10000 2.6 110 22:39 08.06.2020
2661 Clear 23 1013 50 10000 3.6 120 22:20 08.06.2020
2662 Clear 23 1013 50 10000 3.6 120 21:56 08.06.2020
2663 Clear 24 1013 47 10000 3.6 110 21:38 08.06.2020
2664 Clouds 24 1013 44 10000 5.1 100 21:19 08.06.2020
2665 Clouds 25 1013 44 10000 5.1 100 20:55 08.06.2020
2666 Clouds 25 1013 44 10000 4.1 100 20:37 08.06.2020
2667 Clouds 25 1013 41 10000 4.6 100 20:18 08.06.2020
2668 Clouds 25 1013 41 10000 4.6 100 20:18 08.06.2020
2669 Clouds 26 1013 44 10000 5.1 110 19:43 08.06.2020
2670 Clouds 26 1013 47 10000 4.1 130 19:21 08.06.2020
2671 Clouds 26 1013 54 10000 3.1 140 18:44 08.06.2020
2672 Clouds 26 1013 54 10000 2.6 160 18:22 08.06.2020
2673 Clouds 26 1013 54 10000 2.6 160 17:58 08.06.2020
2674 Clouds 26 1014 51 10000 2.6 160 17:40 08.06.2020
2675 Clouds 26 1014 51 10000 2.6 160 17:22 08.06.2020
2676 Clouds 26 1013 57 10000 3.1 190 16:59 08.06.2020
2677 Clouds 25 1013 74 10000 2.6 190 16:41 08.06.2020
2678 Clouds 25 1013 74 10000 2.6 190 16:22 08.06.2020
2679 Clouds 25 1013 61 10000 1.5 200 15:44 08.06.2020
2680 Clouds 25 1013 61 10000 1.5 200 15:22 08.06.2020
2681 Clouds 25 1013 65 10000 1 140 14:59 08.06.2020
2682 Clouds 25 1013 69 10000 1.5 90 14:40 08.06.2020
2683 Clouds 25 1013 65 10000 0.5 90 14:20 08.06.2020
2684 Clouds 25 1013 65 10000 1 70 13:44 08.06.2020
2685 Clouds 26 1012 65 10000 0.5 70 13:25 08.06.2020
2686 Clouds 26 1012 65 10000 2.1 60 12:44 08.06.2020
2687 Clouds 26 1012 65 10000 2.1 60 12:44 08.06.2020
2688 Clouds 26 1012 65 10000 2.1 60 12:44 08.06.2020
2689 Clouds 27 1011 61 10000 3.1 40 12:22 08.06.2020
2690 Clouds 27 1011 61 10000 3.1 40 11:59 08.06.2020
2691 Clouds 28 1011 61 10000 3.6 30 11:41 08.06.2020
2692 Clouds 28 1011 61 10000 3.6 30 11:22 08.06.2020
2693 Clouds 29 1010 54 10000 4.6 30 10:58 08.06.2020
2694 Clouds 30 1010 45 10000 4.6 30 10:39 08.06.2020
2695 Clouds 30 1010 45 10000 4.6 30 10:20 08.06.2020
2696 Clouds 32 1010 35 10000 4.6 110 09:58 08.06.2020
2697 Clouds 32 1010 33 10000 4.6 80 09:40 08.06.2020
2698 Clouds 33 1010 33 10000 4.6 80 09:21 08.06.2020
2699 Clouds 32 1010 33 10000 4.1 100 08:47 08.06.2020
2700 Clouds 32 1010 33 10000 4.1 100 08:22 08.06.2020
2701 Smoke 33 1010 33 10000 5.1 90 07:46 08.06.2020
2702 Clouds 33 1011 35 10000 5.1 120 07:24 08.06.2020
2703 Clouds 32 1011 35 10000 4.6 80 06:50 08.06.2020
2704 Clouds 33 1011 35 10000 4.6 80 06:30 08.06.2020
2705 Clouds 32 1012 38 10000 6.7 90 05:51 08.06.2020
2706 Clouds 31 1013 40 10000 6.2 80 04:29 08.06.2020
2707 Clouds 28 1013 54 10000 4.6 120 02:32 08.06.2020
2708 Clouds 27 1013 65 10000 4.1 120 01:55 08.06.2020
2709 Clouds 25 1013 73 10000 2.6 130 01:30 08.06.2020
2710 Clouds 24 1012 78 10000 1.5 150 00:33 08.06.2020
2711 Clouds 23 1012 78 10000 1.5 170 23:57 07.06.2020
2712 Clouds 23 1012 78 10000 1.5 170 23:36 07.06.2020
2713 Clouds 23 1012 83 10000 5.15 114 23:18 07.06.2020
2714 Clouds 23 1011 83 10000 5.15 114 22:39 07.06.2020
2715 Clouds 23 1011 78 10000 2.6 140 22:20 07.06.2020
2716 Clouds 23 1011 78 10000 2.6 140 21:59 07.06.2020
2717 Clouds 23 1011 83 10000 2.6 160 21:39 07.06.2020
2718 Clouds 23 1011 83 10000 1.5 170 21:20 07.06.2020
2719 Clouds 23 1011 83 10000 1.5 170 21:20 07.06.2020
2720 Clouds 23 1011 83 10000 2.6 160 21:20 07.06.2020
2721 Clouds 24 1011 83 10000 1.5 170 20:57 07.06.2020
2722 Clouds 23 1011 88 10000 1.5 160 20:38 07.06.2020
2723 Clouds 23 1011 88 10000 1.5 160 20:19 07.06.2020
2724 Clouds 23 1011 88 10000 1.5 160 19:56 07.06.2020
2725 Clouds 23 1011 88 10000 2.1 160 19:38 07.06.2020
2726 Rain 23 1011 83 10000 2.6 180 19:19 07.06.2020
2727 Rain 23 1011 83 10000 3.1 180 18:55 07.06.2020
2728 Rain 23 1011 83 10000 3.1 180 18:36 07.06.2020
2729 Clouds 23 1011 88 10000 2.6 180 18:18 07.06.2020
2730 Rain 24 1012 88 10000 2.6 180 17:41 07.06.2020
2731 Rain 24 1012 88 10000 2.6 180 17:23 07.06.2020
2732 Rain 25 1012 78 10000 2.1 180 16:59 07.06.2020
2733 Rain 25 1012 78 10000 1.5 180 16:41 07.06.2020
2734 Clouds 25 1012 78 10000 1.5 180 16:20 07.06.2020
2735 Clouds 25 1012 78 10000 1.5 180 16:20 07.06.2020
2736 Clouds 25 1012 69 10000 0.5 40 15:37 07.06.2020
2737 Clouds 25 1012 74 10000 2.1 30 15:18 07.06.2020
2738 Clouds 25 1012 69 10000 1.5 30 14:39 07.06.2020
2739 Clouds 25 1012 69 10000 1.5 30 14:39 07.06.2020
2740 Clouds 25 1012 69 10000 1.5 30 14:21 07.06.2020
2741 Clouds 26 1011 65 10000 3.1 30 13:47 07.06.2020
2742 Clouds 26 1011 65 10000 3.6 30 13:21 07.06.2020
2743 Clouds 26 1011 65 10000 3.1 20 12:55 07.06.2020
2744 Clouds 26 1011 65 10000 3.1 20 12:36 07.06.2020
2745 Clouds 27 1010 61 10000 3.1 30 12:18 07.06.2020
2746 Clouds 27 1010 61 10000 3.1 30 11:54 07.06.2020
2747 Clouds 27 1010 61 10000 3.6 30 11:36 07.06.2020
2748 Clouds 28 1009 54 10000 5.1 30 11:18 07.06.2020
2749 Clouds 29 1009 51 10000 5.1 30 10:42 07.06.2020
2750 Clouds 30 1009 51 10000 5.1 30 10:20 07.06.2020
2751 Clouds 31 1009 48 10000 4.6 20 09:57 07.06.2020
2752 Clouds 31 1009 48 10000 5.1 30 09:38 07.06.2020
2753 Clouds 31 1009 48 10000 5.1 30 09:20 07.06.2020
2754 Clouds 32 1009 38 10000 4.1 70 08:48 07.06.2020
2755 Clouds 32 1009 38 10000 4.1 70 08:24 07.06.2020
2756 Clouds 32 1009 38 10000 4.1 70 08:24 07.06.2020
2757 Clouds 33 1009 40 10000 4.6 80 07:50 07.06.2020
2758 Clouds 32 1009 40 10000 4.6 80 07:30 07.06.2020
2759 Clouds 32 1010 38 10000 4.6 80 06:50 07.06.2020
2760 Clouds 32 1011 40 10000 5.7 90 05:50 07.06.2020
2761 Clouds 31 1012 42 10000 6.7 80 04:20 07.06.2020
2762 Clear 27 1013 44 10000 4.6 100 02:36 07.06.2020
2763 Clear 26 1013 47 10000 5.1 100 01:55 07.06.2020
2764 Clear 25 1012 50 10000 4.6 100 01:25 07.06.2020
2765 Clear 23 1012 56 10000 3.6 100 00:46 07.06.2020
2766 Clear 23 1011 60 10000 4.1 100 00:19 07.06.2020
2767 Clear 22 1011 60 10000 4.1 100 23:57 06.06.2020
2768 Clear 21 1011 64 10000 2.1 100 23:37 06.06.2020
2769 Clear 21 1011 64 10000 2.1 100 23:19 06.06.2020
2770 Clear 21 1011 68 10000 2.1 120 22:56 06.06.2020
2771 Clear 21 1011 64 10000 2.6 130 22:37 06.06.2020
2772 Clouds 21 1011 64 10000 2.6 140 22:18 06.06.2020
2773 Clouds 21 1011 73 10000 2.1 130 21:45 06.06.2020
2774 Clear 21 1011 73 10000 2.1 130 21:22 06.06.2020
2775 Clouds 22 1011 68 10000 2.6 150 20:57 06.06.2020
2776 Clouds 22 1011 68 10000 2.1 170 20:38 06.06.2020
2777 Clouds 22 1011 73 10000 3.6 180 20:18 06.06.2020
2778 Clouds 22 1011 73 10000 3.6 180 20:18 06.06.2020
2779 Clouds 22 1012 69 10000 4.1 180 19:57 06.06.2020
2780 Clouds 22 1012 69 10000 4.1 180 19:38 06.06.2020
2781 Clouds 23 1012 69 10000 4.1 200 19:19 06.06.2020
2782 Clouds 23 1012 69 10000 3.6 200 18:43 06.06.2020
2783 Clouds 23 1012 73 10000 2.1 200 18:24 06.06.2020
2784 Clouds 23 1012 73 10000 2.1 200 17:58 06.06.2020
2785 Clouds 23 1012 60 10000 2.6 200 17:39 06.06.2020
2786 Clouds 24 1012 60 10000 3.6 200 17:19 06.06.2020
2787 Clouds 24 1013 60 10000 3.6 200 16:44 06.06.2020
2788 Clouds 24 1013 60 10000 3.6 200 16:22 06.06.2020
2789 Clouds 24 1013 64 10000 3.1 220 15:58 06.06.2020
2790 Clouds 24 1013 64 10000 3.1 210 15:40 06.06.2020
2791 Clouds 24 1013 64 10000 3.1 210 15:20 06.06.2020
2792 Clouds 24 1012 69 10000 1.5 220 14:44 06.06.2020
2793 Clouds 24 1012 69 10000 1.5 220 14:25 06.06.2020
2794 Clouds 24 1012 65 10000 2.1 240 13:59 06.06.2020
2795 Clouds 25 1012 65 10000 2.6 240 13:41 06.06.2020
2796 Clouds 25 1012 65 10000 2.6 260 13:18 06.06.2020
2797 Clouds 25 1012 65 10000 2.6 280 12:43 06.06.2020
2798 Clouds 25 1012 65 10000 2.6 280 12:24 06.06.2020
2799 Clouds 26 1011 57 10000 1.5 290 11:59 06.06.2020
2800 Clouds 26 1011 54 10000 2.1 310 11:39 06.06.2020
2801 Clouds 26 1011 48 10000 2.1 340 11:20 06.06.2020
2802 Clouds 27 1011 48 10000 2.1 340 10:59 06.06.2020
2803 Clouds 28 1010 42 10000 2.6 310 10:39 06.06.2020
2804 Clouds 28 1010 42 10000 2.6 310 10:21 06.06.2020
2805 Clouds 29 1010 42 10000 3.1 340 09:58 06.06.2020
2806 Clouds 29 1010 42 10000 3.1 340 09:58 06.06.2020
2807 Clouds 29 1010 42 10000 4.6 360 09:40 06.06.2020
2808 Clouds 29 1010 42 10000 4.6 360 09:21 06.06.2020
2809 Clouds 31 1010 29 10000 4.1 300 08:43 06.06.2020
2810 Clouds 32 1010 29 10000 4.1 300 08:23 06.06.2020
2811 Clouds 31 1010 33 10000 3.6 310 07:46 06.06.2020
2812 Clear 31 1011 33 10000 3.6 300 07:23 06.06.2020
2813 Clear 31 1011 33 10000 1.5 90 06:52 06.06.2020
2814 Clear 31 1011 33 10000 1.5 90 06:34 06.06.2020
2815 Clear 31 1012 33 10000 1.5 310 05:59 06.06.2020
2816 Clear 31 1012 30 10000 4.1 180 05:31 06.06.2020
2817 Clear 30 1013 32 10000 2.6 160 04:47 06.06.2020
2818 Clear 27 1013 32 10000 5.1 120 03:21 06.06.2020
2819 Clear 23 1014 43 10000 4.1 150 01:58 06.06.2020
2820 Clear 21 1013 55 10000 2.6 140 01:20 06.06.2020
2821 Clear 19 1013 52 10000 2.6 140 00:47 06.06.2020
2822 Clear 19 1013 52 10000 2.6 140 00:27 06.06.2020
2823 Clear 19 1013 52 10000 3.1 140 23:59 05.06.2020
2824 Clear 19 1013 55 10000 3.1 130 23:39 05.06.2020
2825 Clear 19 1013 55 10000 3.1 130 23:19 05.06.2020
2826 Clear 19 1013 59 10000 3.6 130 22:55 05.06.2020
2827 Clear 19 1012 56 10000 3.6 150 22:37 05.06.2020
2828 Clear 19 1012 56 10000 3.1 150 22:18 05.06.2020
2829 Clear 20 1012 60 10000 2.6 160 21:42 05.06.2020
2830 Clear 20 1012 60 10000 2.6 160 21:22 05.06.2020
2831 Clear 19 1012 72 10000 2.1 160 20:58 05.06.2020
2832 Clear 18 1013 82 10000 1 150 20:39 05.06.2020
2833 Clear 18 1013 88 10000 1.5 140 20:21 05.06.2020
2834 Clear 18 1013 82 10000 1 140 19:42 05.06.2020
2835 Clear 18 1013 82 10000 1 140 19:23 05.06.2020
2836 Clear 19 1013 82 10000 1 140 18:57 05.06.2020
2837 Clear 20 1014 73 10000 2.1 150 18:38 05.06.2020
2838 Clear 20 1014 77 10000 3.6 180 18:19 05.06.2020
2839 Clear 21 1014 77 10000 3.6 180 17:57 05.06.2020
2840 Clear 21 1014 73 10000 3.1 190 17:39 05.06.2020
2841 Clear 21 1014 73 10000 3.1 190 17:18 05.06.2020
2842 Clear 21 1014 83 10000 1.5 170 16:39 05.06.2020
2843 Clear 21 1014 83 10000 1.5 170 16:39 05.06.2020
2844 Clear 21 1014 64 10000 2.6 170 16:20 05.06.2020
2845 Clear 21 1014 77 10000 1.5 140 15:47 05.06.2020
2846 Clear 21 1014 77 10000 1.5 140 15:24 05.06.2020
2847 Clear 22 1014 73 10000 1 50 14:59 05.06.2020
2848 Clear 22 1014 73 10000 1 50 14:40 05.06.2020
2849 Clear 22 1014 73 10000 1 50 14:22 05.06.2020
2850 Clear 22 1014 69 10000 0.5 50 13:58 05.06.2020
2851 Clear 22 1014 69 10000 1.5 50 13:39 05.06.2020
2852 Clear 22 1013 69 10000 1.5 40 13:20 05.06.2020
2853 Clear 23 1013 64 10000 2.1 30 12:42 05.06.2020
2854 Clear 24 1013 57 10000 1.5 30 12:20 05.06.2020
2855 Clear 24 1013 57 10000 1.5 30 11:56 05.06.2020
2856 Clear 25 1013 54 10000 2.6 20 11:37 05.06.2020
2857 Clear 25 1013 54 10000 2.6 20 11:19 05.06.2020
2858 Clear 27 1012 30 10000 1 40 10:42 05.06.2020
2859 Clear 28 1012 30 10000 1 40 10:21 05.06.2020
2860 Clear 28 1012 30 10000 1 40 10:21 05.06.2020
2861 Clear 28 1012 30 10000 4.1 70 09:58 05.06.2020
2862 Clear 30 1012 25 10000 3.1 50 09:40 05.06.2020
2863 Clear 30 1012 25 10000 3.1 50 09:21 05.06.2020
2864 Clear 30 1012 27 10000 3.1 80 08:59 05.06.2020
2865 Clear 30 1012 27 10000 3.6 60 08:41 05.06.2020
2866 Clear 30 1012 28 10000 3.1 120 08:19 05.06.2020
2867 Clear 30 1012 28 10000 3.6 90 07:55 05.06.2020
2868 Clear 30 1012 28 10000 3.6 90 07:36 05.06.2020
2869 Clear 29 1013 26 10000 4.6 100 06:54 05.06.2020
2870 Clear 28 1014 28 10000 5.7 120 05:24 05.06.2020
2871 Clear 28 1015 26 10000 7.7 120 04:44 05.06.2020
2872 Clear 27 1015 27 10000 7.7 110 03:50 05.06.2020
2873 Clear 24 1016 33 10000 6.2 110 02:44 05.06.2020
2874 Clear 22 1015 37 10000 3.6 130 02:18 05.06.2020
2875 Clear 22 1015 42 10000 4.1 130 01:49 05.06.2020
2876 Clear 19 1015 48 10000 3.6 130 00:58 05.06.2020
2877 Clear 17 1015 48 10000 3.6 130 00:39 05.06.2020
2878 Clear 18 1015 51 10000 2.6 140 00:19 05.06.2020
2879 Clear 17 1015 45 10000 3.1 140 23:46 04.06.2020
2880 Clear 18 1015 45 10000 3.1 140 23:25 04.06.2020
2881 Clear 19 1014 39 10000 3.6 100 22:45 04.06.2020
2882 Clear 19 1014 39 10000 3.6 100 22:23 04.06.2020
2883 Clear 19 1014 37 10000 3.6 110 21:59 04.06.2020
2884 Clear 19 1014 34 10000 4.1 110 21:40 04.06.2020
2885 Clear 19 1014 34 10000 4.1 110 21:22 04.06.2020
2886 Clear 19 1014 34 10000 4.1 110 21:22 04.06.2020
2887 Clear 19 1014 34 10000 4.1 100 20:58 04.06.2020
2888 Clear 20 1014 32 10000 3.6 100 20:39 04.06.2020
2889 Clear 20 1014 32 10000 3.6 100 20:20 04.06.2020
2890 Clear 21 1015 32 10000 4.1 130 19:57 04.06.2020
2891 Clear 21 1015 32 10000 4.1 130 19:38 04.06.2020
2892 Clear 21 1015 32 10000 3.6 120 19:19 04.06.2020
2893 Clear 21 1015 35 10000 4.1 140 18:40 04.06.2020
2894 Clear 21 1015 35 10000 3.6 130 18:21 04.06.2020
2895 Clouds 21 1015 37 10000 3.6 140 17:59 04.06.2020
2896 Clouds 21 1015 37 10000 3.6 140 17:41 04.06.2020
2897 Clouds 21 1015 37 10000 3.6 140 17:41 04.06.2020
2898 Clouds 21 1015 37 10000 3.6 140 17:20 04.06.2020
2899 Clear 21 1015 43 10000 2.6 130 16:41 04.06.2020
2900 Clear 20 1015 43 10000 2.6 150 16:21 04.06.2020
2901 Clear 20 1015 43 10000 2.6 150 16:21 04.06.2020
2902 Clear 21 1015 43 10000 2.6 150 15:56 04.06.2020
2903 Clear 20 1015 43 10000 2.1 160 15:37 04.06.2020
2904 Clear 21 1015 40 10000 1.5 150 15:19 04.06.2020
2905 Clear 22 1015 49 10000 0.5 100 14:38 04.06.2020
2906 Clear 23 1015 50 10000 1.5 130 14:19 04.06.2020
2907 Clear 23 1015 50 10000 1.5 130 13:54 04.06.2020
2908 Clear 24 1015 60 10000 1.72 138 13:36 04.06.2020
2909 Clear 23 1014 73 10000 0.76 52 13:18 04.06.2020
2910 Clear 23 1014 69 10000 1 350 12:41 04.06.2020
2911 Clear 24 1013 61 10000 1.5 330 12:23 04.06.2020
2912 Clear 25 1013 61 10000 1.5 330 11:59 04.06.2020
2913 Clear 25 1013 61 10000 2.1 340 11:38 04.06.2020
2914 Clear 26 1013 51 10000 3.1 350 11:20 04.06.2020
2915 Clear 27 1013 51 10000 3.1 350 10:57 04.06.2020
2916 Clear 28 1013 33 10000 2.6 30 10:38 04.06.2020
2917 Clear 30 1012 33 10000 2.6 110 10:19 04.06.2020
2918 Clear 30 1012 33 10000 2.6 110 10:19 04.06.2020
2919 Clear 30 1012 30 10000 3.1 140 09:43 04.06.2020
2920 Clear 30 1012 30 10000 3.1 140 09:24 04.06.2020
2921 Clear 30 1013 30 10000 5.1 140 08:46 04.06.2020
2922 Clear 30 1013 30 10000 5.1 140 08:26 04.06.2020
2923 Clear 30 1013 30 10000 3.6 110 07:48 04.06.2020
2924 Clear 30 1013 28 10000 3.6 110 07:28 04.06.2020
2925 Clear 29 1014 32 10000 4.6 120 06:44 04.06.2020
2926 Clear 29 1015 30 10000 5.1 90 06:25 04.06.2020
2927 Clear 28 1015 30 10000 6.2 110 05:39 04.06.2020
2928 Clear 28 1015 30 10000 6.2 110 05:20 04.06.2020
2929 Clear 26 1017 36 10000 7.2 100 03:25 04.06.2020
2930 Clouds 23 1017 40 10000 5.7 130 01:57 04.06.2020
2931 Clouds 21 1016 45 10000 4.1 140 01:20 04.06.2020
2932 Clouds 21 1016 45 10000 4.6 120 00:49 04.06.2020
2933 Clouds 20 1016 43 10000 4.1 120 23:48 03.06.2020
2934 Clouds 20 1016 43 10000 4.1 120 23:21 03.06.2020
2935 Clouds 20 1015 43 10000 4.6 120 22:59 03.06.2020
2936 Clouds 21 1015 37 10000 4.6 110 22:39 03.06.2020
2937 Clouds 21 1015 37 10000 5.7 110 22:19 03.06.2020
2938 Clouds 21 1015 37 10000 5.7 110 21:57 03.06.2020
2939 Clouds 21 1015 35 10000 4.6 110 21:39 03.06.2020
2940 Clouds 21 1015 35 10000 4.6 110 21:21 03.06.2020
2941 Clouds 20 1015 34 10000 3.6 130 20:56 03.06.2020
2942 Clouds 20 1015 34 10000 4.1 130 20:37 03.06.2020
2943 Clouds 21 1016 30 10000 4.1 130 20:19 03.06.2020
2944 Clouds 20 1016 34 10000 4.1 130 19:56 03.06.2020
2945 Clouds 20 1016 34 10000 4.1 130 19:36 03.06.2020
2946 Clouds 21 1016 32 10000 4.1 140 19:18 03.06.2020
2947 Clouds 21 1016 32 10000 3.6 140 18:43 03.06.2020
2948 Clouds 21 1016 33 10000 3.1 150 18:22 03.06.2020
2949 Clouds 22 1016 33 10000 3.1 150 17:57 03.06.2020
2950 Clouds 22 1016 33 10000 3.1 160 17:37 03.06.2020
2951 Clouds 22 1016 33 10000 3.1 160 17:19 03.06.2020
2952 Clouds 21 1016 37 10000 2.6 150 16:42 03.06.2020
2953 Clouds 22 1016 37 10000 2.6 150 16:21 03.06.2020
2954 Clouds 22 1016 37 10000 2.6 150 15:59 03.06.2020
2955 Clouds 22 1016 29 10000 3.1 150 15:41 03.06.2020
2956 Clouds 23 1016 29 10000 3.1 150 15:20 03.06.2020
2957 Clouds 23 1016 29 10000 2.6 120 14:47 03.06.2020
2958 Clear 24 1016 29 10000 2.6 120 14:25 03.06.2020
2959 Clear 22 1016 36 10000 2.6 120 13:56 03.06.2020
2960 Clear 23 1015 38 10000 2.1 110 13:38 03.06.2020
2961 Clear 23 1015 41 10000 1.5 120 13:18 03.06.2020
2962 Clear 24 1014 29 10000 2.1 130 12:42 03.06.2020
2963 Clear 25 1014 29 10000 2.6 100 12:21 03.06.2020
2964 Clear 26 1013 24 10000 2.6 100 11:46 03.06.2020
2965 Clear 27 1013 24 10000 2.6 100 11:27 03.06.2020
2966 Clear 28 1013 21 10000 3.1 90 10:57 03.06.2020
2967 Clear 29 1013 17 10000 4.6 110 10:39 03.06.2020
2968 Clear 30 1013 17 10000 4.6 110 10:20 03.06.2020
2969 Clear 30 1012 17 10000 4.1 130 09:44 03.06.2020
2970 Clear 30 1012 17 10000 4.1 130 09:20 03.06.2020
2971 Clear 31 1012 16 10000 5.1 130 08:48 03.06.2020
2972 Clouds 31 1012 16 10000 5.1 130 08:28 03.06.2020
2973 Clouds 30 1013 17 10000 4.6 90 07:59 03.06.2020
2974 Clouds 30 1014 20 10000 6.2 110 07:41 03.06.2020
2975 Clouds 31 1014 20 10000 6.2 110 07:19 03.06.2020
2976 Clouds 30 1014 21 10000 6.7 140 06:49 03.06.2020
2977 Clouds 30 1014 21 10000 6.7 140 06:30 03.06.2020
2978 Clouds 30 1015 20 10000 6.7 110 05:46 03.06.2020
2979 Clouds 28 1016 24 10000 7.2 120 04:44 03.06.2020
2980 Clouds 27 1017 28 10000 6.7 110 03:50 03.06.2020
2981 Clouds 25 1017 36 10000 8.7 120 02:46 03.06.2020
2982 Clear 23 1017 43 10000 5.7 130 01:51 03.06.2020
2983 Clear 21 1017 49 10000 4.6 140 00:43 03.06.2020
2984 Clear 20 1017 49 10000 4.6 140 00:24 03.06.2020
2985 Clear 20 1016 52 10000 3.6 130 23:51 02.06.2020
2986 Clear 20 1016 52 10000 3.6 130 23:28 02.06.2020
2987 Clear 20 1016 49 10000 3.6 110 22:56 02.06.2020
2988 Clear 21 1016 49 10000 4.6 100 22:38 02.06.2020
2989 Clear 20 1015 49 10000 4.1 100 22:18 02.06.2020
2990 Clear 20 1015 49 10000 4.1 100 21:56 02.06.2020
2991 Clear 20 1015 49 10000 4.1 100 21:37 02.06.2020
2992 Clear 21 1015 49 10000 4.1 100 21:19 02.06.2020
2993 Clear 22 1015 46 10000 4.1 100 20:55 02.06.2020
2994 Clear 22 1015 43 10000 4.6 100 20:36 02.06.2020
2995 Clear 23 1015 43 10000 4.6 80 20:18 02.06.2020
2996 Clear 23 1015 33 10000 6.2 100 19:42 02.06.2020
2997 Clear 24 1016 33 10000 5.7 100 19:24 02.06.2020
2998 Clear 24 1016 33 10000 5.7 100 18:57 02.06.2020
2999 Clear 24 1016 33 10000 5.7 110 18:39 02.06.2020
3000 Clear 25 1016 31 10000 5.1 110 18:20 02.06.2020
3001 Clear 25 1016 31 10000 5.1 110 17:55 02.06.2020
3002 Clear 25 1016 34 10000 5.7 120 17:37 02.06.2020
3003 Clear 25 1016 36 10000 4.6 130 17:18 02.06.2020
3004 Clear 25 1016 39 10000 3.6 130 16:40 02.06.2020
3005 Clear 25 1016 39 10000 3.6 130 16:21 02.06.2020
3006 Clear 25 1016 39 10000 3.6 130 16:21 02.06.2020
3007 Clear 26 1016 39 10000 4.1 130 15:57 02.06.2020
3008 Clear 26 1016 39 10000 4.6 120 15:37 02.06.2020
3009 Clear 26 1016 39 10000 4.6 120 15:19 02.06.2020
3010 Clear 26 1015 44 10000 1.5 120 14:45 02.06.2020
3011 Clear 25 1015 44 10000 1.5 120 14:26 02.06.2020
3012 Clear 25 1015 53 10000 2.1 90 13:54 02.06.2020
3013 Clear 25 1015 53 10000 2.1 70 13:36 02.06.2020
3014 Clear 25 1014 47 10000 1.5 80 13:18 02.06.2020
3015 Clear 27 1014 42 10000 1.5 70 12:40 02.06.2020
3016 Clear 28 1014 42 10000 1.5 70 12:22 02.06.2020
3017 Clear 28 1013 35 10000 2.1 50 11:59 02.06.2020
3018 Clear 28 1013 30 10000 3.1 90 11:40 02.06.2020
3019 Clear 29 1013 30 10000 3.1 90 11:20 02.06.2020
3020 Clear 30 1012 29 10000 4.1 90 10:50 02.06.2020
3021 Clear 31 1012 25 10000 5.7 90 10:29 02.06.2020
3022 Clear 31 1012 27 10000 5.1 90 09:59 02.06.2020
3023 Clear 32 1011 26 10000 5.7 90 09:40 02.06.2020
3024 Clear 33 1011 26 10000 5.7 90 09:20 02.06.2020
3025 Clear 33 1011 27 10000 4.6 110 08:53 02.06.2020
3026 Clear 33 1012 24 10000 5.7 100 08:27 02.06.2020
3027 Clear 33 1012 27 10000 7.2 80 07:55 02.06.2020
3028 Clear 33 1012 27 10000 7.2 80 07:31 02.06.2020
3029 Clear 33 1013 31 10000 8.7 80 06:51 02.06.2020
3030 Clear 32 1013 31 10000 8.7 80 06:31 02.06.2020
3031 Clear 32 1014 33 10000 5.7 90 05:28 02.06.2020
3032 Clear 31 1015 45 10000 6.7 90 03:54 02.06.2020
3033 Rain 27 1016 74 10000 4.1 80 02:31 02.06.2020
3034 Clear 26 1015 83 10000 2.6 130 01:43 02.06.2020
3035 Clouds 23 1015 88 10000 2.6 130 00:27 02.06.2020
3036 Clear 22 1014 88 10000 2.6 140 23:59 01.06.2020
3037 Clear 22 1014 88 10000 2.6 140 23:38 01.06.2020
3038 Clear 22 1014 88 10000 2.6 140 23:19 01.06.2020
3039 Clear 22 1014 88 10000 1.5 130 22:56 01.06.2020
3040 Clear 22 1014 88 10000 1.5 110 22:37 01.06.2020
3041 Clear 22 1014 88 10000 1.5 110 22:18 01.06.2020
3042 Clear 22 1013 88 10000 2.1 100 21:41 01.06.2020
3043 Clear 22 1013 88 10000 2.1 100 21:20 01.06.2020
3044 Clear 22 1013 94 10000 1.5 90 20:58 01.06.2020
3045 Clear 23 1013 88 10000 1.5 130 20:40 01.06.2020
3046 Clear 23 1013 88 10000 1.5 130 20:20 01.06.2020
3047 Clear 23 1013 88 10000 1.5 130 20:20 01.06.2020
3048 Clear 23 1013 88 10000 1.5 130 19:58 01.06.2020
3049 Clear 23 1013 94 10000 1.5 150 19:39 01.06.2020
3050 Clear 23 1014 88 10000 1.5 140 19:20 01.06.2020
3051 Clear 23 1014 94 10000 1.5 130 18:57 01.06.2020
3052 Clear 23 1014 94 10000 1.5 130 18:38 01.06.2020
3053 Clear 23 1014 88 10000 1 110 18:18 01.06.2020
3054 Clear 23 1014 94 10000 1.5 130 17:41 01.06.2020
3055 Clouds 24 1014 94 10000 2.1 130 17:20 01.06.2020
3056 Clouds 24 1014 94 10000 2.1 130 16:56 01.06.2020
3057 Clear 25 1015 88 10000 2.1 160 16:38 01.06.2020
3058 Clear 24 1015 88 10000 2.1 180 16:18 01.06.2020
3059 Clear 25 1014 83 10000 1.5 190 15:44 01.06.2020
3060 Clear 25 1014 83 10000 1.5 190 15:21 01.06.2020
3061 Clear 25 1014 78 10000 2.1 210 14:59 01.06.2020
3062 Clear 25 1014 78 10000 1.5 230 14:41 01.06.2020
3063 Clear 25 1014 78 10000 2.1 260 14:21 01.06.2020
3064 Clear 25 1014 78 10000 2.1 260 13:56 01.06.2020
3065 Clear 25 1014 78 10000 2.1 260 13:38 01.06.2020
3066 Clear 25 1014 78 10000 2.1 260 13:19 01.06.2020
3067 Clear 25 1013 78 10000 1.5 270 12:57 01.06.2020
3068 Clear 26 1013 74 10000 1.5 280 12:39 01.06.2020
3069 Clear 26 1013 74 10000 1.5 280 12:20 01.06.2020
3070 Clouds 27 1012 65 10000 2.6 340 11:41 01.06.2020
3071 Clouds 27 1012 65 10000 2.6 340 11:23 01.06.2020
3072 Clear 27 1012 61 10000 3.1 350 10:59 01.06.2020
3073 Clear 28 1012 58 10000 4.1 360 10:39 01.06.2020
3074 Clear 29 1012 58 10000 4.1 360 10:20 01.06.2020
3075 Clouds 30 1012 55 10000 4.6 350 09:55 01.06.2020
3076 Clouds 30 1012 58 10000 4.1 350 09:37 01.06.2020
3077 Clouds 30 1012 58 10000 4.1 340 09:19 01.06.2020
3078 Clouds 30 1012 62 10000 4.6 340 08:45 01.06.2020
3079 Clouds 30 1012 62 10000 4.6 340 08:25 01.06.2020
3080 Clouds 31 1012 62 10000 4.6 330 07:45 01.06.2020
3081 Clouds 31 1012 62 10000 4.6 330 07:27 01.06.2020
3082 Clouds 30 1013 62 10000 5.1 310 06:54 01.06.2020
3083 Clouds 32 1013 58 10000 4.6 310 06:20 01.06.2020
3084 Clear 32 1014 45 10000 5.7 280 05:50 01.06.2020
3085 Clouds 31 1015 52 10000 2.6 70 04:23 01.06.2020
3086 Clouds 31 1016 58 10000 3.6 50 03:46 01.06.2020
3087 Clouds 29 1016 58 10000 3.1 50 03:18 01.06.2020
3088 Clear 28 1016 74 10000 1 140 01:47 01.06.2020
3089 Clear 25 1016 74 10000 1 140 01:29 01.06.2020
3090 Clear 25 1015 78 10000 1 150 00:57 01.06.2020
3091 Clear 23 1015 88 10000 1.5 130 00:39 01.06.2020
3092 Clear 22 1015 88 10000 1.5 130 00:21 01.06.2020
3093 Clear 22 1015 94 10000 1 130 23:55 31.05.2020
3094 Clear 22 1014 88 10000 2.1 140 23:37 31.05.2020
3095 Clear 22 1014 88 10000 2.1 140 23:19 31.05.2020
3096 Clear 22 1014 94 10000 1.5 140 22:43 31.05.2020
3097 Clear 22 1014 94 10000 1.5 140 22:43 31.05.2020
3098 Clear 22 1014 94 10000 1.5 140 22:43 31.05.2020
3099 Clear 22 1014 94 10000 1.5 140 22:25 31.05.2020
3100 Clear 22 1013 94 10000 1 140 21:58 31.05.2020
3101 Clear 22 1013 94 10000 1 150 21:39 31.05.2020
3102 Clear 22 1013 94 10000 1.5 160 21:21 31.05.2020
3103 Clear 22 1013 94 10000 1 150 21:21 31.05.2020
3104 Clear 22 1013 94 10000 1.5 160 20:57 31.05.2020
3105 Clear 22 1013 94 10000 2.1 160 20:38 31.05.2020
3106 Clear 23 1013 94 10000 2.1 160 20:19 31.05.2020
3107 Clear 23 1014 94 10000 1.5 150 19:54 31.05.2020
3108 Clear 23 1014 88 10000 1.5 170 19:36 31.05.2020
3109 Clear 23 1014 88 10000 1 180 19:18 31.05.2020
3110 Clear 23 1014 94 10000 2.1 170 18:43 31.05.2020
3111 Clear 24 1014 94 10000 2.1 170 18:24 31.05.2020
3112 Clear 24 1014 88 10000 1.5 190 17:44 31.05.2020
3113 Clear 24 1014 88 10000 1.5 190 17:24 31.05.2020
3114 Clear 24 1014 88 10000 1.5 180 16:58 31.05.2020
3115 Clear 24 1014 88 10000 2.1 190 16:38 31.05.2020
3116 Clear 24 1015 88 10000 2.1 200 16:18 31.05.2020
3117 Clear 24 1015 83 10000 2.1 220 15:39 31.05.2020
3118 Clear 25 1015 83 10000 2.1 220 15:21 31.05.2020
3119 Clear 25 1015 78 10000 2.1 230 14:47 31.05.2020
3120 Clear 25 1015 78 10000 2.1 230 14:21 31.05.2020
3121 Clear 25 1015 78 10000 2.1 240 13:56 31.05.2020
3122 Clear 25 1015 78 10000 2.1 240 13:38 31.05.2020
3123 Clear 25 1015 78 10000 2.1 240 13:20 31.05.2020
3124 Clear 26 1014 69 10000 0.5 360 12:57 31.05.2020
3125 Clear 26 1014 69 10000 1.5 360 12:37 31.05.2020
3126 Clear 26 1013 69 10000 2.1 340 12:19 31.05.2020
3127 Clear 27 1013 65 10000 2.1 340 11:47 31.05.2020
3128 Clear 27 1013 65 10000 2.1 340 11:23 31.05.2020
3129 Clear 28 1013 62 10000 3.6 360 10:56 31.05.2020
3130 Clear 28 1012 62 10000 4.1 360 10:38 31.05.2020
3131 Clear 29 1012 55 10000 4.1 350 10:18 31.05.2020
3132 Clear 30 1012 55 10000 4.1 340 09:42 31.05.2020
3133 Clear 30 1012 58 10000 4.6 350 09:22 31.05.2020
3134 Clear 30 1012 58 10000 4.6 350 08:57 31.05.2020
3135 Clear 31 1012 52 10000 4.1 350 08:37 31.05.2020
3136 Clouds 30 1012 58 10000 4.6 350 08:19 31.05.2020
3137 Clouds 31 1013 55 10000 4.6 320 07:42 31.05.2020
3138 Clouds 31 1013 55 10000 4.6 320 07:20 31.05.2020
3139 Clouds 31 1013 58 10000 4.1 320 06:53 31.05.2020
3140 Smoke 32 1014 55 10000 4.6 330 06:31 31.05.2020
3141 Smoke 32 1015 45 10000 3.6 100 05:43 31.05.2020
3142 Clouds 31 1016 55 10000 3.6 70 04:27 31.05.2020
3143 Clear 30 1016 54 10000 3.6 70 03:48 31.05.2020
3144 Clear 28 1016 58 10000 4.1 90 02:59 31.05.2020
3145 Clouds 26 1016 69 10000 2.6 90 01:48 31.05.2020
3146 Clouds 25 1016 69 10000 2.6 90 01:19 31.05.2020
3147 Clouds 22 1016 88 10000 1.5 130 00:30 31.05.2020
3148 Clouds 22 1016 88 10000 2.1 150 23:55 30.05.2020
3149 Clouds 22 1015 88 10000 0.5 140 23:36 30.05.2020
3150 Clouds 21 1015 94 10000 1 140 23:18 30.05.2020
3151 Clouds 21 1015 94 10000 1.5 160 22:41 30.05.2020
3152 Clouds 21 1015 94 10000 1.5 160 22:22 30.05.2020
3153 Clouds 22 1015 88 10000 1.5 160 21:56 30.05.2020
3154 Clouds 22 1015 88 10000 1.5 160 21:56 30.05.2020
3155 Clouds 22 1014 94 10000 1 140 21:37 30.05.2020
3156 Clouds 22 1014 94 10000 1 140 21:19 30.05.2020
3157 Clouds 22 1014 88 10000 2.6 150 20:56 30.05.2020
3158 Clouds 22 1014 88 10000 2.6 150 20:37 30.05.2020
3159 Clouds 22 1014 88 10000 2.6 150 20:19 30.05.2020
3160 Clouds 22 1014 88 10000 1.5 160 19:42 30.05.2020
3161 Clouds 22 1014 88 10000 1.5 160 19:21 30.05.2020
3162 Clouds 22 1015 88 10000 2.6 160 18:46 30.05.2020
3163 Clouds 22 1015 88 10000 2.6 160 18:24 30.05.2020
3164 Clouds 23 1014 88 10000 3.6 170 17:55 30.05.2020
3165 Clouds 23 1014 88 10000 3.1 170 17:37 30.05.2020
3166 Clouds 23 1015 83 10000 2.1 170 17:18 30.05.2020
3167 Clouds 23 1015 78 10000 1.5 160 16:42 30.05.2020
3168 Clouds 23 1015 78 10000 1.5 160 16:22 30.05.2020
3169 Clouds 23 1015 69 10000 1.5 160 15:49 30.05.2020
3170 Clouds 24 1015 69 10000 1.5 160 15:29 30.05.2020
3171 Clouds 24 1015 69 10000 1.5 180 14:59 30.05.2020
3172 Clouds 24 1015 73 10000 2.6 50 14:41 30.05.2020
3173 Clouds 24 1015 69 10000 2.1 40 14:18 30.05.2020
3174 Clouds 25 1014 65 10000 3.1 40 13:41 30.05.2020
3175 Clouds 25 1014 65 10000 2.6 50 13:18 30.05.2020
3176 Clouds 26 1014 61 10000 2.1 60 12:39 30.05.2020
3177 Clouds 26 1014 61 10000 2.1 60 12:20 30.05.2020
3178 Clouds 26 1014 57 10000 3.1 40 11:55 30.05.2020
3179 Clouds 27 1014 54 10000 3.1 40 11:37 30.05.2020
3180 Clouds 27 1013 54 10000 4.1 30 11:19 30.05.2020
3181 Clouds 28 1013 51 10000 4.1 30 10:39 30.05.2020
3182 Clouds 29 1013 51 10000 4.1 30 10:20 30.05.2020
3183 Clouds 30 1012 51 10000 4.6 10 09:46 30.05.2020
3184 Clouds 30 1012 51 10000 4.6 10 09:28 30.05.2020
3185 Clouds 31 1012 48 10000 4.6 360 08:46 30.05.2020
3186 Clouds 31 1012 48 10000 4.6 360 08:27 30.05.2020
3187 Clouds 32 1012 29 10000 2.6 160 07:44 30.05.2020
3188 Clouds 32 1012 29 10000 2.6 160 07:20 30.05.2020
3189 Clouds 32 1013 31 10000 4.1 80 06:33 30.05.2020
3190 Clouds 31 1014 38 10000 4.6 90 05:58 30.05.2020
3191 Clouds 31 1014 40 10000 3.6 60 05:34 30.05.2020
3192 Clouds 29 1016 58 10000 4.6 60 03:39 30.05.2020
3193 Clouds 26 1016 69 10000 5.1 80 02:30 30.05.2020
3194 Clouds 25 1016 73 10000 2.1 100 01:46 30.05.2020
3195 Clouds 22 1016 83 10000 2.1 120 00:38 30.05.2020
3196 Clouds 21 1016 94 10000 2.1 110 00:19 30.05.2020
3197 Clouds 20 1016 94 10000 2.1 110 23:55 29.05.2020
3198 Clouds 20 1015 94 10000 1 130 23:36 29.05.2020
3199 Clouds 21 1015 88 10000 2.1 170 23:18 29.05.2020
3200 Clouds 20 1015 94 10000 1 150 22:40 29.05.2020
3201 Clouds 20 1015 94 10000 1 150 22:19 29.05.2020
3202 Clouds 21 1015 88 10000 0.5 160 21:58 29.05.2020
3203 Clouds 21 1015 88 10000 2.75 118 21:37 29.05.2020
3204 Clouds 21 1015 88 10000 1 160 21:18 29.05.2020
3205 Clouds 21 1015 83 10000 1.5 140 20:44 29.05.2020
3206 Clouds 21 1015 83 10000 1.5 140 20:20 29.05.2020
3207 Clouds 21 1015 88 10000 1 150 19:59 29.05.2020
3208 Clouds 21 1015 88 10000 1 130 19:39 29.05.2020
3209 Clouds 21 1015 88 10000 1 130 19:21 29.05.2020
3210 Clouds 21 1015 88 10000 2.1 170 18:46 29.05.2020
3211 Clear 22 1015 88 10000 2.1 170 18:19 29.05.2020
3212 Clear 23 1015 83 10000 3.1 180 17:56 29.05.2020
3213 Clear 23 1015 83 10000 3.1 180 17:38 29.05.2020
3214 Clear 23 1015 83 10000 3.1 180 17:19 29.05.2020
3215 Clear 23 1015 83 10000 1.5 50 16:43 29.05.2020
3216 Clear 23 1015 83 10000 1.5 50 16:24 29.05.2020
3217 Clear 22 1015 88 10000 0.5 30 15:56 29.05.2020
3218 Clear 22 1015 83 10000 1 30 15:38 29.05.2020
3219 Clear 22 1015 83 10000 1 30 15:19 29.05.2020
3220 Clear 23 1015 83 10000 1.5 30 14:43 29.05.2020
3221 Clouds 23 1015 83 10000 1.5 30 14:23 29.05.2020
3222 Clouds 24 1015 73 10000 2.1 30 13:57 29.05.2020
3223 Clouds 23 1015 73 10000 2.1 30 13:38 29.05.2020
3224 Clouds 24 1014 65 10000 2.6 30 13:18 29.05.2020
3225 Clouds 25 1014 65 10000 3.1 40 12:42 29.05.2020
3226 Clouds 25 1014 65 10000 3.1 40 12:23 29.05.2020
3227 Clouds 25 1013 61 10000 3.6 40 11:45 29.05.2020
3228 Clouds 26 1013 61 10000 3.6 40 11:27 29.05.2020
3229 Clouds 27 1013 57 10000 3.6 30 10:58 29.05.2020
3230 Clouds 27 1013 54 10000 4.6 20 10:38 29.05.2020
3231 Clouds 28 1013 48 10000 5.1 30 10:19 29.05.2020
3232 Clouds 29 1012 51 10000 4.6 20 09:44 29.05.2020
3233 Clouds 29 1012 51 10000 4.6 20 09:20 29.05.2020
3234 Clouds 30 1012 42 10000 5.1 10 08:56 29.05.2020
3235 Clouds 30 1012 40 10000 5.1 20 08:37 29.05.2020
3236 Clouds 30 1012 40 10000 5.1 20 08:19 29.05.2020
3237 Clouds 32 1013 21 9000 4.6 90 07:40 29.05.2020
3238 Clouds 32 1013 21 9000 4.6 90 07:22 29.05.2020
3239 Clouds 32 1014 27 10000 5.7 80 06:48 29.05.2020
3240 Clouds 31 1014 27 10000 5.7 80 06:28 29.05.2020
3241 Clouds 31 1014 31 10000 4.6 80 05:52 29.05.2020
3242 Clouds 27 1016 42 10000 4.6 90 02:56 29.05.2020
3243 Clouds 25 1016 57 10000 3.6 100 01:46 29.05.2020
3244 Clouds 24 1016 57 10000 3.6 100 01:23 29.05.2020
3245 Clouds 23 1016 68 10000 3.1 100 00:47 29.05.2020
3246 Clouds 22 1016 68 10000 3.1 100 00:22 29.05.2020
3247 Clouds 20 1015 73 10000 2.1 130 23:40 28.05.2020
3248 Clouds 21 1015 73 10000 2.1 130 23:19 28.05.2020
3249 Clouds 21 1015 64 10000 2.6 140 22:45 28.05.2020
3250 Clouds 21 1015 64 10000 2.6 140 22:45 28.05.2020
3251 Clouds 21 1015 64 10000 2.6 140 22:45 28.05.2020
3252 Clouds 21 1015 64 10000 2.6 140 22:27 28.05.2020
3253 Clouds 21 1014 64 10000 2.6 150 21:59 28.05.2020
3254 Clouds 21 1014 64 10000 2.6 140 21:40 28.05.2020
3255 Clouds 21 1014 64 10000 2.6 140 21:20 28.05.2020
3256 Clouds 20 1014 82 10000 1.5 120 20:58 28.05.2020
3257 Clouds 20 1014 82 10000 1.5 150 20:39 28.05.2020
3258 Clouds 20 1014 82 10000 1.5 150 20:19 28.05.2020
3259 Clouds 21 1014 77 10000 2.1 170 19:57 28.05.2020
3260 Clouds 21 1014 77 10000 2.1 170 19:57 28.05.2020
3261 Clouds 21 1014 68 10000 1 140 19:39 28.05.2020
3262 Clouds 22 1014 68 10000 1 140 19:20 28.05.2020
3263 Clouds 21 1015 73 10000 1.5 150 18:43 28.05.2020
3264 Clouds 22 1015 73 10000 1.5 150 18:25 28.05.2020
3265 Clouds 22 1015 78 10000 2.6 150 17:57 28.05.2020
3266 Clouds 22 1015 83 10000 1.5 140 17:39 28.05.2020
3267 Clouds 22 1015 78 10000 2.1 160 17:19 28.05.2020
3268 Clouds 23 1015 78 10000 2.1 180 16:45 28.05.2020
3269 Clouds 23 1015 78 10000 2.1 180 16:21 28.05.2020
3270 Clouds 23 1015 73 10000 2.6 180 15:54 28.05.2020
3271 Clouds 21 1015 78 10000 1 70 15:36 28.05.2020
3272 Clouds 22 1015 78 10000 1.5 50 15:18 28.05.2020
3273 Clouds 23 1015 78 10000 1.5 50 14:41 28.05.2020
3274 Clouds 23 1015 69 10000 1.5 50 14:22 28.05.2020
3275 Clouds 23 1014 73 10000 2.1 50 13:46 28.05.2020
3276 Clouds 24 1014 73 10000 2.1 50 13:27 28.05.2020
3277 Clouds 25 1014 65 10000 3.1 20 12:43 28.05.2020
3278 Clouds 25 1014 65 10000 3.1 20 12:20 28.05.2020
3279 Clouds 26 1013 57 10000 3.6 30 11:57 28.05.2020
3280 Clouds 26 1013 57 10000 3.6 30 11:57 28.05.2020
3281 Clouds 26 1013 51 10000 3.1 10 11:39 28.05.2020
3282 Clouds 26 1013 51 10000 3.1 10 11:20 28.05.2020
3283 Clouds 28 1012 45 10000 4.1 10 10:43 28.05.2020
3284 Clear 28 1012 45 10000 4.1 10 10:25 28.05.2020
3285 Clear 31 1012 27 10000 2.6 60 09:56 28.05.2020
3286 Clear 31 1012 27 10000 3.6 120 09:38 28.05.2020
3287 Clear 31 1012 25 10000 4.6 150 09:18 28.05.2020
3288 Clear 31 1012 25 10000 4.1 100 08:43 28.05.2020
3289 Clear 32 1012 25 10000 4.1 100 08:22 28.05.2020
3290 Clear 31 1012 25 10000 5.1 70 07:41 28.05.2020
3291 Clear 31 1012 25 10000 5.1 70 07:23 28.05.2020
3292 Clear 31 1013 28 10000 3.1 90 06:45 28.05.2020
3293 Clear 31 1013 28 10000 3.1 90 06:27 28.05.2020
3294 Clear 30 1014 37 10000 5.1 70 05:39 28.05.2020
3295 Clear 29 1015 42 10000 5.1 80 04:38 28.05.2020
3296 Clouds 29 1016 45 10000 6.7 50 04:18 28.05.2020
3297 Clear 27 1016 51 10000 5.1 90 02:59 28.05.2020
3298 Clear 26 1016 54 10000 5.1 90 02:38 28.05.2020
3299 Clear 24 1016 69 10000 4.6 100 01:45 28.05.2020
3300 Clouds 23 1015 83 10000 3.1 120 00:49 28.05.2020
3301 Clouds 22 1015 88 10000 3.6 120 00:20 28.05.2020
3302 Clouds 21 1015 88 10000 3.6 120 23:56 27.05.2020
3303 Clear 21 1014 88 10000 2.6 140 23:38 27.05.2020
3304 Clear 21 1014 88 10000 2.6 140 23:19 27.05.2020
3305 Clear 21 1014 88 10000 1.5 170 22:42 27.05.2020
3306 Clear 21 1014 88 10000 1.5 170 22:23 27.05.2020
3307 Clear 21 1014 88 10000 2.6 170 21:57 27.05.2020
3308 Clear 21 1014 88 10000 2.6 170 21:57 27.05.2020
3309 Clear 21 1013 88 10000 2.1 150 21:39 27.05.2020
3310 Clear 21 1013 88 10000 2.1 150 21:39 27.05.2020
3311 Clear 22 1013 88 10000 2.1 150 21:20 27.05.2020
3312 Clear 21 1013 88 10000 2.1 160 20:58 27.05.2020
3313 Clear 22 1013 88 10000 2.1 160 20:39 27.05.2020
3314 Clear 21 1013 88 10000 2.1 160 20:19 27.05.2020
3315 Clear 22 1014 94 10000 1.5 20 19:46 27.05.2020
3316 Clear 22 1014 94 10000 1.5 20 19:21 27.05.2020
3317 Clear 22 1014 94 10000 2.46 106 18:54 27.05.2020
3318 Clear 22 1014 88 10000 2.46 106 18:36 27.05.2020
3319 Clear 23 1014 88 10000 1 20 18:18 27.05.2020
3320 Clear 23 1014 88 10000 1.5 30 17:42 27.05.2020
3321 Clear 23 1014 88 10000 1.5 30 17:23 27.05.2020
3322 Clear 23 1014 83 10000 1.5 40 16:56 27.05.2020
3323 Clear 23 1014 78 10000 1.5 30 16:38 27.05.2020
3324 Clear 23 1014 78 10000 1.5 30 16:19 27.05.2020
3325 Clear 23 1014 78 10000 2.1 30 15:49 27.05.2020
3326 Clear 24 1014 78 10000 2.1 30 15:23 27.05.2020
3327 Clear 24 1014 78 10000 2.1 50 14:55 27.05.2020
3328 Clear 24 1014 73 10000 3.1 40 14:37 27.05.2020
3329 Clouds 24 1014 73 10000 2.6 50 14:19 27.05.2020
3330 Clouds 24 1014 73 10000 3.1 40 14:19 27.05.2020
3331 Clouds 25 1014 73 10000 3.1 50 13:41 27.05.2020
3332 Clouds 25 1014 73 10000 3.1 50 13:23 27.05.2020
3333 Clouds 25 1013 61 10000 3.6 40 12:42 27.05.2020
3334 Clouds 26 1013 61 10000 3.6 40 12:24 27.05.2020
3335 Clouds 26 1013 57 10000 3.6 50 11:58 27.05.2020
3336 Clouds 26 1012 51 10000 3.6 30 11:37 27.05.2020
3337 Clouds 27 1012 48 10000 3.6 40 11:19 27.05.2020
3338 Clouds 28 1012 45 10000 5.1 30 10:44 27.05.2020
3339 Clouds 28 1012 45 10000 5.1 30 10:24 27.05.2020
3340 Clouds 29 1012 48 10000 4.6 30 09:58 27.05.2020
3341 Clouds 29 1012 37 10000 5.1 20 09:39 27.05.2020
3342 Clouds 30 1012 37 10000 5.1 20 09:20 27.05.2020
3343 Clouds 31 1012 37 10000 4.6 50 08:42 27.05.2020
3344 Clouds 31 1012 37 10000 4.6 50 08:24 27.05.2020
3345 Clouds 30 1012 35 10000 6.7 50 07:54 27.05.2020
3346 Clouds 30 1012 35 10000 6.7 50 07:35 27.05.2020
3347 Clouds 31 1013 33 10000 6.7 80 06:57 27.05.2020
3348 Clouds 31 1013 35 10000 7.2 40 06:33 27.05.2020
3349 Clouds 30 1013 37 10000 6.2 60 05:55 27.05.2020
3350 Clouds 29 1014 39 10000 6.2 40 05:35 27.05.2020
3351 Clouds 29 1015 45 10000 5.1 60 04:19 27.05.2020
3352 Clouds 25 1015 61 10000 5.1 80 02:30 27.05.2020
3353 Clouds 24 1015 69 10000 5.7 80 01:51 27.05.2020
3354 Clouds 23 1015 69 10000 6.7 70 01:20 27.05.2020
3355 Clouds 23 1015 78 10000 6.2 90 00:44 27.05.2020
3356 Clouds 22 1014 88 10000 3.1 100 00:19 27.05.2020
3357 Clouds 21 1014 94 10000 3.1 90 23:43 26.05.2020
3358 Clouds 21 1014 94 10000 3.1 90 23:25 26.05.2020
3359 Clouds 21 1014 94 10000 2.1 80 22:59 26.05.2020
3360 Clouds 21 1014 94 10000 1.5 100 22:38 26.05.2020
3361 Clouds 21 1014 94 10000 1.5 100 22:20 26.05.2020
3362 Clouds 21 1014 94 10000 2.6 100 21:57 26.05.2020
3363 Clouds 21 1014 88 10000 1.5 90 21:39 26.05.2020
3364 Clouds 21 1014 88 10000 1.5 90 21:20 26.05.2020
3365 Clouds 21 1014 83 10000 1.5 120 20:42 26.05.2020
3366 Clouds 22 1014 83 10000 1.5 120 20:21 26.05.2020
3367 Clouds 21 1014 88 10000 2.1 120 19:56 26.05.2020
3368 Clouds 21 1014 83 10000 1.5 140 19:37 26.05.2020
3369 Clouds 22 1014 88 10000 1.5 110 19:18 26.05.2020
3370 Clouds 22 1014 88 10000 1 40 18:42 26.05.2020
3371 Clouds 22 1014 88 10000 1 40 18:22 26.05.2020
3372 Clouds 22 1014 88 10000 0.5 40 17:55 26.05.2020
3373 Clouds 22 1014 88 10000 0.5 40 17:37 26.05.2020
3374 Clouds 22 1014 88 10000 1.5 60 17:19 26.05.2020
3375 Clouds 23 1014 83 10000 1.5 60 16:41 26.05.2020
3376 Clouds 23 1014 83 10000 1.5 60 16:19 26.05.2020
3377 Clouds 22 1014 83 10000 1.5 30 15:44 26.05.2020
3378 Clouds 22 1014 83 10000 1.5 30 15:21 26.05.2020
3379 Clouds 23 1015 78 10000 1.5 30 14:59 26.05.2020
3380 Clouds 23 1015 73 10000 2.1 30 14:41 26.05.2020
3381 Clouds 23 1015 73 10000 2.1 30 14:22 26.05.2020
3382 Clouds 23 1014 69 10000 1.5 40 13:42 26.05.2020
3383 Clouds 24 1014 69 10000 1.5 40 13:24 26.05.2020
3384 Clouds 24 1014 69 10000 2.6 40 12:59 26.05.2020
3385 Clouds 24 1014 61 10000 2.6 30 12:39 26.05.2020
3386 Clouds 25 1014 61 10000 2.6 30 12:19 26.05.2020
3387 Clouds 25 1013 61 10000 3.6 20 11:41 26.05.2020
3388 Clouds 26 1013 61 10000 3.6 20 11:21 26.05.2020
3389 Clouds 26 1013 57 10000 4.1 30 10:59 26.05.2020
3390 Clouds 26 1013 54 10000 5.1 10 10:39 26.05.2020
3391 Clouds 27 1012 51 10000 5.1 30 10:18 26.05.2020
3392 Clouds 27 1012 54 10000 5.7 10 09:39 26.05.2020
3393 Clouds 28 1012 54 10000 5.7 10 09:19 26.05.2020
3394 Clouds 29 1012 45 10000 4.1 40 08:43 26.05.2020
3395 Clouds 30 1012 45 10000 4.1 40 08:22 26.05.2020
3396 Clouds 30 1012 45 10000 4.1 40 08:22 26.05.2020
3397 Clouds 30 1012 45 10000 4.1 40 07:44 26.05.2020
3398 Clouds 30 1012 45 10000 4.1 40 07:25 26.05.2020
3399 Clouds 30 1013 45 10000 4.1 50 06:57 26.05.2020
3400 Clouds 30 1013 42 10000 4.1 40 06:39 26.05.2020
3401 Clouds 29 1014 42 10000 4.6 70 05:55 26.05.2020
3402 Clouds 28 1014 45 10000 4.6 50 05:33 26.05.2020
3403 Clouds 28 1015 51 10000 5.1 70 04:54 26.05.2020
3404 Clouds 27 1015 50 10000 4.6 70 04:33 26.05.2020
3405 Clouds 26 1016 50 10000 5.1 70 03:55 26.05.2020
3406 Clouds 24 1016 57 10000 6.2 80 02:45 26.05.2020
3407 Clear 23 1016 73 10000 5.1 90 01:49 26.05.2020
3408 Clear 22 1016 73 10000 5.1 90 01:27 26.05.2020
3409 Clear 21 1015 82 10000 2.1 110 00:39 26.05.2020
3410 Clouds 20 1015 88 10000 3.1 110 00:19 26.05.2020
3411 Clouds 19 1015 88 10000 3.1 110 23:55 25.05.2020
3412 Clouds 19 1015 82 10000 2.1 110 23:37 25.05.2020
3413 Clear 19 1015 82 10000 2.1 120 23:18 25.05.2020
3414 Clear 19 1015 82 10000 2.1 120 22:55 25.05.2020
3415 Clear 19 1015 82 10000 2.1 120 22:36 25.05.2020
3416 Clear 19 1014 82 10000 2.1 140 22:18 25.05.2020
3417 Clear 19 1014 82 10000 2.1 140 21:55 25.05.2020
3418 Clear 19 1014 82 10000 2.1 100 21:36 25.05.2020
3419 Clouds 19 1014 82 10000 1.5 70 21:18 25.05.2020
3420 Clouds 19 1014 82 10000 1.5 60 20:42 25.05.2020
3421 Clear 19 1014 82 10000 1.5 60 20:21 25.05.2020
3422 Clouds 19 1015 88 10000 2.1 60 19:59 25.05.2020
3423 Clouds 19 1015 82 10000 1.5 60 19:39 25.05.2020
3424 Clouds 19 1015 82 10000 2.1 60 19:18 25.05.2020
3425 Clouds 19 1015 82 10000 2.1 60 18:54 25.05.2020
3426 Clouds 20 1015 77 10000 2.1 60 18:36 25.05.2020
3427 Clouds 20 1015 68 10000 1.5 60 18:18 25.05.2020
3428 Clear 20 1015 72 10000 2.1 60 17:41 25.05.2020
3429 Clear 20 1015 72 10000 2.1 60 17:23 25.05.2020
3430 Clear 20 1015 68 10000 1.5 70 16:56 25.05.2020
3431 Clear 20 1015 68 10000 2.1 60 16:38 25.05.2020
3432 Clear 20 1015 68 10000 2.1 60 16:19 25.05.2020
3433 Clear 20 1015 72 10000 2.1 70 15:44 25.05.2020
3434 Clear 20 1015 64 10000 2.1 70 15:19 25.05.2020
3435 Clear 20 1015 64 10000 2.1 70 14:57 25.05.2020
3436 Clear 20 1015 64 10000 2.6 70 14:38 25.05.2020
3437 Clouds 21 1015 64 10000 2.6 60 14:19 25.05.2020
3438 Clouds 21 1015 64 10000 2.6 50 13:39 25.05.2020
3439 Clouds 21 1015 64 10000 2.6 50 13:21 25.05.2020
3440 Clouds 21 1015 60 10000 2.6 60 12:57 25.05.2020
3441 Clouds 23 1014 56 10000 2.6 50 12:38 25.05.2020
3442 Clouds 23 1014 56 10000 2.6 50 12:20 25.05.2020
3443 Clouds 25 1013 41 10000 4.6 40 11:39 25.05.2020
3444 Clouds 25 1013 41 10000 4.6 40 11:20 25.05.2020
3445 Clouds 25 1013 39 10000 5.1 40 10:56 25.05.2020
3446 Clouds 26 1013 32 10000 5.7 30 10:37 25.05.2020
3447 Clouds 27 1013 28 10000 6.2 20 10:19 25.05.2020
3448 Clouds 27 1013 28 10000 6.2 20 10:19 25.05.2020
3449 Clouds 28 1013 28 10000 6.2 20 09:54 25.05.2020
3450 Clouds 28 1013 30 10000 6.2 20 09:36 25.05.2020
3451 Clouds 28 1012 26 10000 6.2 30 09:18 25.05.2020
3452 Clouds 29 1012 24 10000 5.1 30 08:39 25.05.2020
3453 Clouds 29 1012 24 10000 5.1 30 08:20 25.05.2020
3454 Clouds 30 1013 23 10000 3.6 50 07:50 25.05.2020
3455 Clouds 30 1013 23 10000 2.6 60 07:32 25.05.2020
3456 Clouds 29 1013 23 10000 4.6 80 06:57 25.05.2020
3457 Clouds 29 1014 26 10000 3.6 80 06:36 25.05.2020
3458 Clear 28 1014 26 10000 4.6 100 05:25 25.05.2020
3459 Clear 25 1015 29 10000 6.7 100 03:28 25.05.2020
3460 Clear 23 1015 33 10000 6.7 90 02:47 25.05.2020
3461 Clouds 23 1015 33 10000 6.7 90 02:20 25.05.2020
3462 Clouds 21 1016 43 10000 6.7 100 01:42 25.05.2020
3463 Clear 20 1016 48 10000 5.7 100 00:47 25.05.2020
3464 Clear 19 1016 48 10000 5.7 100 00:26 25.05.2020
3465 Clear 19 1016 48 10000 6.2 100 23:58 24.05.2020
3466 Clear 19 1016 45 10000 5.1 100 23:39 24.05.2020
3467 Clear 19 1016 45 10000 5.1 100 23:39 24.05.2020
3468 Clear 19 1016 45 10000 5.1 100 23:39 24.05.2020
3469 Clear 20 1016 45 10000 5.1 100 23:20 24.05.2020
3470 Clear 20 1016 45 10000 5.1 100 23:20 24.05.2020
3471 Clear 20 1016 45 10000 5.7 110 22:55 24.05.2020
3472 Clear 20 1016 42 10000 5.1 110 22:37 24.05.2020
3473 Clouds 20 1016 40 10000 4.6 110 22:18 24.05.2020
3474 Clouds 20 1016 40 10000 4.6 110 22:18 24.05.2020
3475 Clouds 20 1016 40 10000 4.6 110 21:55 24.05.2020
3476 Clouds 19 1016 39 10000 4.6 120 21:36 24.05.2020
3477 Clouds 19 1016 34 10000 3.6 130 21:18 24.05.2020
3478 Clouds 20 1016 32 10000 4.6 130 20:43 24.05.2020
3479 Clouds 20 1016 32 10000 4.6 130 20:21 24.05.2020
3480 Clouds 20 1016 34 10000 4.1 130 19:56 24.05.2020
3481 Clouds 21 1016 35 10000 4.1 130 19:37 24.05.2020
3482 Clouds 21 1017 37 10000 3.1 130 19:18 24.05.2020
3483 Clouds 21 1017 40 10000 3.1 140 18:42 24.05.2020
3484 Clouds 21 1017 40 10000 3.1 140 18:23 24.05.2020
3485 Clouds 21 1017 40 10000 3.1 140 17:58 24.05.2020
3486 Clouds 21 1017 46 10000 2.6 130 17:40 24.05.2020
3487 Clouds 21 1017 46 10000 2.6 130 17:21 24.05.2020
3488 Clouds 22 1017 40 10000 2.1 150 16:56 24.05.2020
3489 Clouds 22 1017 37 10000 2.1 110 16:37 24.05.2020
3490 Clouds 21 1017 37 10000 2.1 110 16:19 24.05.2020
3491 Clouds 22 1017 37 10000 2.1 100 15:55 24.05.2020
3492 Clouds 22 1017 31 10000 2.1 110 15:37 24.05.2020
3493 Clouds 23 1017 31 10000 2.6 90 15:18 24.05.2020
3494 Clouds 23 1016 31 10000 2.1 80 14:44 24.05.2020
3495 Clouds 23 1016 31 10000 2.1 80 14:24 24.05.2020
3496 Clouds 21 1016 40 10000 1.5 80 13:57 24.05.2020
3497 Clouds 21 1016 40 10000 1.5 80 13:38 24.05.2020
3498 Clouds 21 1016 40 10000 1.5 80 13:20 24.05.2020
3499 Clouds 21 1015 40 10000 2.1 80 12:57 24.05.2020
3500 Clouds 22 1015 43 10000 1.5 70 12:38 24.05.2020
3501 Clouds 23 1015 35 10000 1.5 90 12:20 24.05.2020
3502 Clouds 23 1015 35 10000 1.5 90 11:56 24.05.2020
3503 Clouds 23 1015 35 10000 1.5 90 11:56 24.05.2020
3504 Clouds 24 1015 25 10000 2.1 80 11:38 24.05.2020
3505 Clouds 25 1014 21 10000 3.1 90 11:20 24.05.2020
3506 Clouds 25 1014 21 10000 3.1 90 10:55 24.05.2020
3507 Clouds 26 1014 19 10000 4.6 90 10:36 24.05.2020
3508 Clouds 26 1013 19 10000 5.1 90 10:18 24.05.2020
3509 Clouds 27 1013 18 10000 5.1 90 09:41 24.05.2020
3510 Clouds 27 1013 28 10000 4.6 100 09:18 24.05.2020
3511 Clouds 27 1013 28 10000 4.6 100 08:56 24.05.2020
3512 Clouds 27 1013 28 10000 4.6 90 08:37 24.05.2020
3513 Clouds 27 1014 16 10000 4.6 100 08:19 24.05.2020
3514 Clouds 26 1014 16 10000 5.1 90 07:42 24.05.2020
3515 Clouds 26 1014 16 10000 5.1 90 07:24 24.05.2020
3516 Clouds 26 1015 19 10000 5.7 90 06:48 24.05.2020
3517 Clouds 26 1015 19 10000 5.7 90 06:29 24.05.2020
3518 Clouds 24 1016 30 10000 6.7 110 04:54 24.05.2020
3519 Clouds 22 1017 24 10000 7.2 120 03:41 24.05.2020
3520 Clouds 21 1018 30 10000 6.2 120 02:42 24.05.2020
3521 Clouds 20 1017 37 10000 7.7 120 01:47 24.05.2020
3522 Clouds 19 1016 48 10000 5.1 140 00:41 24.05.2020
3523 Clouds 19 1016 48 10000 5.1 140 00:22 24.05.2020
3524 Clouds 19 1015 52 10000 5.7 120 23:44 23.05.2020
3525 Clouds 19 1015 52 10000 5.7 120 23:25 23.05.2020
3526 Clouds 19 1015 52 10000 6.2 130 22:59 23.05.2020
3527 Clouds 19 1015 52 10000 6.7 130 22:39 23.05.2020
3528 Clouds 19 1015 52 10000 6.7 130 22:20 23.05.2020
3529 Clouds 19 1015 55 10000 6.7 140 21:58 23.05.2020
3530 Clouds 20 1014 52 10000 6.7 140 21:40 23.05.2020
3531 Clouds 20 1014 52 10000 6.7 140 21:20 23.05.2020
3532 Clouds 20 1014 52 10000 6.7 140 21:20 23.05.2020
3533 Clouds 20 1014 52 10000 6.7 140 21:20 23.05.2020
3534 Clouds 20 1014 52 10000 6.7 140 21:20 23.05.2020
3535 Clouds 20 1014 52 10000 6.2 140 20:58 23.05.2020
3536 Clouds 20 1014 52 10000 5.7 140 20:38 23.05.2020
3537 Clouds 20 1014 52 10000 5.7 140 20:38 23.05.2020
3538 Clouds 20 1014 52 10000 5.7 140 20:19 23.05.2020
3539 Clouds 20 1014 52 10000 4.1 140 19:54 23.05.2020
3540 Clouds 20 1014 49 10000 7.7 120 19:36 23.05.2020
3541 Clouds 21 1015 46 10000 6.7 120 19:18 23.05.2020
3542 Clouds 21 1015 49 10000 7.2 120 18:40 23.05.2020
3543 Clouds 21 1015 49 10000 7.2 120 18:22 23.05.2020
3544 Clouds 21 1015 49 10000 6.7 130 17:56 23.05.2020
3545 Clouds 21 1015 49 10000 5.7 130 17:38 23.05.2020
3546 Clouds 21 1015 49 10000 5.7 130 17:19 23.05.2020
3547 Clouds 22 1015 46 10000 5.7 130 16:57 23.05.2020
3548 Clouds 22 1016 49 10000 5.1 130 16:39 23.05.2020
3549 Clouds 22 1016 49 10000 5.1 130 16:19 23.05.2020
3550 Clouds 22 1016 53 10000 5.1 150 15:43 23.05.2020
3551 Clouds 22 1016 53 10000 5.1 150 15:24 23.05.2020
3552 Clouds 22 1016 53 10000 5.1 150 15:24 23.05.2020
3553 Clouds 23 1016 49 10000 4.6 150 14:58 23.05.2020
3554 Clouds 23 1015 53 10000 4.6 150 14:39 23.05.2020
3555 Clouds 23 1015 53 10000 4.6 150 14:21 23.05.2020
3556 Clouds 23 1014 53 10000 3.6 120 13:41 23.05.2020
3557 Clouds 23 1014 53 10000 3.6 120 13:19 23.05.2020
3558 Clouds 23 1014 53 10000 3.6 120 13:19 23.05.2020
3559 Clouds 23 1014 53 10000 3.1 120 12:56 23.05.2020
3560 Clouds 23 1014 50 10000 3.6 120 12:38 23.05.2020
3561 Clouds 24 1013 50 10000 3.6 110 12:19 23.05.2020
3562 Clouds 24 1013 50 10000 3.1 110 11:43 23.05.2020
3563 Clouds 24 1013 50 10000 3.1 110 11:22 23.05.2020
3564 Clouds 24 1013 50 10000 4.1 120 10:57 23.05.2020
3565 Clouds 24 1013 50 10000 5.1 130 10:39 23.05.2020
3566 Clouds 24 1013 50 10000 5.1 130 10:20 23.05.2020
3567 Clouds 24 1012 47 10000 5.1 110 09:58 23.05.2020
3568 Clouds 25 1012 47 10000 5.7 120 09:40 23.05.2020
3569 Clouds 25 1012 47 10000 5.7 120 09:21 23.05.2020
3570 Clouds 25 1012 44 10000 6.2 130 08:44 23.05.2020
3571 Clouds 25 1012 44 10000 6.2 130 08:20 23.05.2020
3572 Clouds 25 1012 44 10000 5.7 130 07:57 23.05.2020
3573 Clouds 25 1013 47 10000 4.1 130 07:37 23.05.2020
3574 Clouds 25 1013 47 10000 5.7 120 07:19 23.05.2020
3575 Clouds 25 1013 50 10000 5.7 130 06:38 23.05.2020
3576 Clouds 24 1014 50 10000 6.2 140 05:34 23.05.2020
3577 Clouds 21 1016 60 10000 6.7 140 03:43 23.05.2020
3578 Clouds 21 1016 60 10000 6.2 160 02:59 23.05.2020
3579 Clouds 20 1016 56 10000 5.1 140 01:59 23.05.2020
3580 Clouds 20 1016 56 10000 5.1 140 01:59 23.05.2020
3581 Clouds 20 1016 60 10000 5.7 140 01:27 23.05.2020
3582 Clouds 20 1015 60 10000 5.7 140 00:47 23.05.2020
3583 Clouds 20 1015 60 10000 5.7 140 00:29 23.05.2020
3584 Clouds 20 1014 60 10000 4.6 150 23:58 22.05.2020
3585 Clouds 20 1014 60 10000 6.7 150 23:39 22.05.2020
3586 Clouds 20 1014 60 10000 6.7 150 23:19 22.05.2020
3587 Clouds 20 1014 60 10000 7.7 150 22:55 22.05.2020
3588 Clouds 20 1014 60 10000 7.7 150 22:55 22.05.2020
3589 Clouds 20 1014 64 10000 6.7 150 22:37 22.05.2020
3590 Clouds 20 1013 60 10000 6.7 150 22:18 22.05.2020
3591 Clouds 20 1013 60 10000 6.7 160 21:42 22.05.2020
3592 Clouds 21 1013 60 10000 6.7 160 21:21 22.05.2020
3593 Clouds 21 1013 64 10000 8.2 150 20:46 22.05.2020
3594 Clouds 21 1013 64 10000 8.2 150 20:22 22.05.2020
3595 Clouds 21 1013 64 10000 6.7 160 19:59 22.05.2020
3596 Clouds 21 1013 64 10000 6.7 150 19:41 22.05.2020
3597 Clouds 21 1013 64 10000 6.7 150 19:22 22.05.2020
3598 Clouds 22 1013 64 10000 8.7 150 18:40 22.05.2020
3599 Clouds 22 1013 64 10000 8.7 150 18:40 22.05.2020
3600 Clouds 22 1013 64 10000 8.7 150 18:21 22.05.2020
3601 Clouds 22 1017 71 0 6.9 158 17:59 22.05.2020
3602 Clouds 22 1013 68 10000 6.2 160 17:38 22.05.2020
3603 Clouds 22 1013 68 10000 7.7 150 17:18 22.05.2020
3604 Clouds 22 1013 64 10000 6.2 160 16:45 22.05.2020
3605 Clouds 23 1013 64 10000 6.2 160 16:21 22.05.2020
3606 Clouds 23 1013 64 10000 5.1 160 15:59 22.05.2020
3607 Clouds 22 1013 73 10000 4.1 140 15:41 22.05.2020
3608 Clouds 22 1013 73 10000 4.1 140 15:21 22.05.2020
3609 Clouds 22 1012 73 10000 4.1 130 14:44 22.05.2020
3610 Clouds 22 1012 73 10000 4.1 130 14:25 22.05.2020
3611 Clouds 22 1012 73 10000 4.6 130 13:49 22.05.2020
3612 Clouds 22 1011 73 10000 4.1 130 13:21 22.05.2020
3613 Clouds 22 1011 73 10000 4.1 130 12:59 22.05.2020
3614 Clouds 23 1011 69 10000 4.1 140 12:39 22.05.2020
3615 Clouds 23 1011 69 10000 4.1 140 12:19 22.05.2020
3616 Clouds 23 1011 69 10000 2.6 120 11:44 22.05.2020
3617 Clouds 23 1011 69 10000 2.6 120 11:21 22.05.2020
3618 Clouds 23 1011 69 10000 2.6 120 11:21 22.05.2020
3619 Clouds 23 1011 69 10000 3.6 130 10:55 22.05.2020
3620 Clouds 23 1011 69 10000 4.6 140 10:37 22.05.2020
3621 Clouds 23 1011 73 10000 4.6 140 10:18 22.05.2020
3622 Clouds 23 1011 73 10000 4.6 130 09:42 22.05.2020
3623 Clouds 23 1011 73 10000 4.6 130 09:20 22.05.2020
3624 Clouds 23 1011 73 10000 5.1 130 08:55 22.05.2020
3625 Clouds 23 1011 73 10000 4.6 130 08:37 22.05.2020
3626 Clouds 23 1011 73 10000 4.6 130 08:18 22.05.2020
3627 Rain 23 1011 78 10000 5.7 150 07:46 22.05.2020
3628 Rain 23 1011 78 10000 5.7 150 07:22 22.05.2020
3629 Clouds 24 1012 64 10000 5.1 120 06:43 22.05.2020
3630 Clouds 24 1012 64 10000 5.1 120 06:25 22.05.2020
3631 Clouds 24 1012 69 10000 5.7 150 05:35 22.05.2020
3632 Rain 24 1013 69 10000 5.1 160 04:47 22.05.2020
3633 Clouds 23 1013 69 10000 5.7 160 03:49 22.05.2020
3634 Clouds 23 1014 73 10000 6.7 150 03:29 22.05.2020
3635 Rain 21 1014 83 10000 5.7 160 01:58 22.05.2020
3636 Clouds 21 1013 83 10000 6.7 160 01:31 22.05.2020
3637 Rain 21 1013 83 10000 5.1 160 00:50 22.05.2020
3638 Rain 21 1013 83 10000 5.1 160 00:29 22.05.2020
3639 Rain 21 1014 83 10000 6.2 170 23:56 21.05.2020
3640 Clouds 21 1013 77 10000 6.2 160 23:37 21.05.2020
3641 Clouds 21 1014 83 10000 5.7 170 23:19 21.05.2020
3642 Clouds 21 1014 83 10000 5.7 170 22:57 21.05.2020
3643 Rain 20 1013 88 10000 4.6 150 22:37 21.05.2020
3644 Rain 20 1013 88 10000 4.6 150 22:18 21.05.2020
3645 Rain 20 1013 83 10000 5.7 150 21:46 21.05.2020
3646 Rain 21 1013 83 10000 5.7 150 21:26 21.05.2020
3647 Rain 20 1013 88 10000 5.7 150 20:55 21.05.2020
3648 Rain 20 1013 88 10000 5.7 140 20:37 21.05.2020
3649 Rain 20 1013 88 10000 5.7 140 20:19 21.05.2020
3650 Rain 21 1013 77 10000 6.2 140 19:39 21.05.2020
3651 Clouds 21 1014 68 10000 8.2 140 19:19 21.05.2020
3652 Clouds 22 1014 64 10000 7.7 150 18:40 21.05.2020
3653 Clouds 23 1014 64 10000 7.7 150 18:20 21.05.2020
3654 Rain 23 1014 60 10000 8.2 150 17:59 21.05.2020
3655 Rain 23 1014 60 10000 8.2 150 17:59 21.05.2020
3656 Rain 23 1014 60 10000 7.7 150 17:41 21.05.2020
3657 Rain 23 1014 60 10000 7.7 150 17:22 21.05.2020
3658 Clouds 24 1014 47 10000 6.7 160 16:47 21.05.2020
3659 Clouds 25 1014 47 10000 6.7 160 16:25 21.05.2020
3660 Clouds 26 1014 44 10000 6.2 150 15:56 21.05.2020
3661 Clouds 26 1014 44 10000 5.1 150 15:38 21.05.2020
3662 Clouds 26 1014 44 10000 5.1 150 15:19 21.05.2020
3663 Clouds 26 1013 41 10000 6.7 140 14:40 21.05.2020
3664 Clouds 26 1013 41 10000 6.7 140 14:19 21.05.2020
3665 Clouds 27 1013 44 10000 6.2 150 13:42 21.05.2020
3666 Clouds 27 1013 44 10000 6.2 150 13:22 21.05.2020
3667 Clouds 26 1012 50 10000 3.6 140 12:58 21.05.2020
3668 Clouds 26 1012 47 10000 3.1 130 12:38 21.05.2020
3669 Clouds 27 1011 44 10000 4.6 130 12:19 21.05.2020
3670 Clouds 27 1011 44 10000 4.6 120 11:42 21.05.2020
3671 Clouds 27 1011 44 10000 4.6 120 11:24 21.05.2020
3672 Rain 27 1011 44 10000 5.7 120 10:59 21.05.2020
3673 Clouds 27 1010 39 10000 7.2 130 10:39 21.05.2020
3674 Clouds 27 1010 39 10000 7.2 130 10:20 21.05.2020
3675 Clouds 28 1010 39 10000 7.2 120 09:55 21.05.2020
3676 Clouds 28 1010 39 10000 7.2 140 09:37 21.05.2020
3677 Clouds 28 1010 39 10000 7.2 140 09:19 21.05.2020
3678 Clouds 28 1010 39 10000 6.7 130 08:45 21.05.2020
3679 Clouds 28 1010 39 10000 6.7 130 08:26 21.05.2020
3680 Clouds 28 1010 39 10000 8.2 140 07:48 21.05.2020
3681 Clouds 28 1010 39 10000 8.2 140 07:27 21.05.2020
3682 Clouds 28 1011 42 10000 7.2 150 06:52 21.05.2020
3683 Clouds 28 1011 42 10000 7.7 150 06:22 21.05.2020
3684 Clouds 28 1012 37 10000 7.7 140 05:34 21.05.2020
3685 Clouds 27 1013 39 10000 6.2 150 03:22 21.05.2020
3686 Clouds 27 1013 39 10000 6.2 150 03:22 21.05.2020
3687 Clouds 27 1013 39 10000 6.2 150 03:22 21.05.2020
3688 Clouds 27 1013 42 10000 7.2 140 03:22 21.05.2020
3689 Clouds 27 1013 39 10000 4.6 150 02:45 21.05.2020
3690 Clouds 27 1013 39 10000 4.6 150 02:26 21.05.2020
3691 Clouds 27 1012 39 10000 6.7 150 01:45 21.05.2020
3692 Clouds 27 1012 39 10000 6.7 150 01:21 21.05.2020
3693 Clouds 27 1012 39 10000 4.6 150 00:52 21.05.2020
3694 Rain 27 1011 39 10000 3.6 130 00:23 21.05.2020
3695 Rain 27 1010 42 10000 6.7 150 23:44 20.05.2020
3696 Rain 27 1010 42 10000 6.7 150 23:21 20.05.2020
3697 Rain 28 1010 37 10000 6.7 160 22:58 20.05.2020
3698 Clouds 28 1010 42 10000 4.6 150 22:39 20.05.2020
3699 Clouds 28 1010 42 10000 4.6 150 22:21 20.05.2020
3700 Clouds 28 1010 42 10000 4.6 150 22:21 20.05.2020
3701 Clouds 28 1009 48 10000 4.1 150 21:41 20.05.2020
3702 Clouds 28 1009 48 10000 4.1 150 21:23 20.05.2020
3703 Clouds 28 1009 51 10000 4.6 150 20:45 20.05.2020
3704 Clouds 28 1009 51 10000 4.6 150 20:45 20.05.2020
3705 Clouds 28 1009 51 10000 4.6 150 20:26 20.05.2020
3706 Clouds 28 1009 54 10000 3.1 160 19:59 20.05.2020
3707 Clouds 28 1009 54 10000 2.6 150 19:38 20.05.2020
3708 Clouds 28 1009 54 10000 2.6 150 19:20 20.05.2020
3709 Clouds 28 1010 58 10000 3.1 160 18:50 20.05.2020
3710 Clouds 28 1010 58 10000 3.6 170 18:31 20.05.2020
3711 Clouds 28 1010 58 10000 3.6 180 17:58 20.05.2020
3712 Clouds 28 1010 65 10000 2.6 180 17:37 20.05.2020
3713 Clouds 28 1010 69 10000 3.1 190 17:19 20.05.2020
3714 Clouds 28 1010 74 10000 2.1 190 16:41 20.05.2020
3715 Clouds 28 1010 74 10000 2.1 190 16:22 20.05.2020
3716 Clouds 28 1011 66 10000 1.5 230 15:56 20.05.2020
3717 Clouds 28 1011 70 10000 2.1 240 15:38 20.05.2020
3718 Clouds 28 1011 70 10000 2.1 240 15:20 20.05.2020
3719 Clouds 28 1011 74 10000 1.5 260 14:42 20.05.2020
3720 Clouds 28 1011 74 10000 1.5 260 14:20 20.05.2020
3721 Clouds 28 1010 66 10000 2.1 270 13:41 20.05.2020
3722 Clouds 28 1010 66 10000 2.1 270 13:19 20.05.2020
3723 Clouds 28 1010 66 10000 2.6 260 12:56 20.05.2020
3724 Clouds 28 1009 74 10000 3.6 260 12:37 20.05.2020
3725 Clouds 28 1009 74 10000 2.6 300 12:18 20.05.2020
3726 Clouds 28 1009 66 10000 3.6 300 11:36 20.05.2020
3727 Clouds 28 1009 70 10000 3.6 310 11:18 20.05.2020
3728 Clouds 29 1008 74 10000 3.6 330 10:42 20.05.2020
3729 Clouds 29 1008 74 10000 3.6 330 10:20 20.05.2020
3730 Clouds 31 1008 43 10000 5.1 330 09:44 20.05.2020
3731 Clouds 32 1008 43 10000 5.1 330 09:21 20.05.2020
3732 Clouds 33 1008 43 10000 4.6 80 08:56 20.05.2020
3733 Clouds 33 1008 43 10000 5.1 330 08:38 20.05.2020
3734 Clouds 33 1008 38 10000 5.7 90 08:18 20.05.2020
3735 Clouds 33 1008 38 10000 6.2 90 07:45 20.05.2020
3736 Clouds 34 1008 38 10000 6.2 90 07:19 20.05.2020
3737 Clouds 33 1009 41 10000 7.7 120 06:36 20.05.2020
3738 Clouds 32 1010 43 10000 5.7 120 05:24 20.05.2020
3739 Clouds 30 1012 51 10000 5.7 130 04:27 20.05.2020
3740 Clouds 30 1012 66 10000 2.6 120 03:42 20.05.2020
3741 Clouds 27 1013 83 10000 2.6 150 02:25 20.05.2020
3742 Rain 25 1012 88 10000 1 160 01:28 20.05.2020
3743 Rain 24 1012 94 10000 2.1 50 00:44 20.05.2020
3744 Rain 24 1012 94 10000 2.1 50 00:23 20.05.2020
3745 Rain 25 1011 74 10000 4.1 100 23:42 19.05.2020
3746 Rain 25 1011 74 10000 4.1 100 23:19 19.05.2020
3747 Rain 25 1011 74 10000 4.1 100 23:19 19.05.2020
3748 Rain 26 1010 65 10000 5.7 110 22:56 19.05.2020
3749 Rain 26 1010 69 10000 3.6 130 22:38 19.05.2020
3750 Clouds 26 1010 69 10000 3.1 140 22:19 19.05.2020
3751 Clouds 26 1010 69 10000 3.1 140 21:57 19.05.2020
3752 Rain 26 1009 74 10000 2.6 140 21:37 19.05.2020
3753 Rain 26 1009 74 10000 2.6 140 21:19 19.05.2020
3754 Clouds 26 1009 69 10000 3.1 160 20:57 19.05.2020
3755 Clouds 27 1009 74 10000 2.6 160 20:38 19.05.2020
3756 Clouds 27 1009 74 10000 2.6 160 20:20 19.05.2020
3757 Clouds 27 1010 83 10000 2.6 190 19:40 19.05.2020
3758 Clouds 27 1010 83 10000 2.6 190 19:21 19.05.2020
3759 Clouds 27 1010 83 10000 2.1 180 18:58 19.05.2020
3760 Clouds 27 1011 83 10000 1.5 190 18:40 19.05.2020
3761 Clouds 27 1011 83 10000 1.5 190 18:20 19.05.2020
3762 Clouds 27 1011 78 10000 2.6 240 17:43 19.05.2020
3763 Clouds 27 1011 78 10000 2.6 240 17:21 19.05.2020
3764 Clouds 27 1011 78 10000 2.6 230 16:58 19.05.2020
3765 Rain 27 1011 69 10000 3.6 230 16:38 19.05.2020
3766 Clouds 28 1011 69 10000 3.6 230 16:19 19.05.2020
3767 Clouds 28 1012 74 10000 2.6 210 15:46 19.05.2020
3768 Clouds 28 1011 74 10000 2.6 230 15:21 19.05.2020
3769 Clouds 28 1011 74 10000 2.6 230 14:57 19.05.2020
3770 Clouds 27 1011 74 10000 2.6 240 14:38 19.05.2020
3771 Clouds 27 1011 74 10000 2.6 240 14:20 19.05.2020
3772 Clouds 27 1011 78 10000 2.6 230 13:57 19.05.2020
3773 Clouds 28 1011 78 10000 2.1 270 13:38 19.05.2020
3774 Clouds 28 1011 78 10000 2.1 270 13:20 19.05.2020
3775 Clouds 27 1010 78 10000 2.6 280 12:56 19.05.2020
3776 Clouds 28 1010 74 10000 2.1 320 12:37 19.05.2020
3777 Clouds 28 1009 74 10000 2.1 350 12:19 19.05.2020
3778 Clouds 28 1009 74 10000 3.1 340 11:43 19.05.2020
3779 Clouds 29 1009 74 10000 3.1 340 11:23 19.05.2020
3780 Clouds 29 1008 66 10000 3.1 330 10:58 19.05.2020
3781 Clouds 30 1008 58 10000 4.1 320 10:40 19.05.2020
3782 Clouds 30 1008 58 10000 4.1 320 10:21 19.05.2020
3783 Clouds 32 1007 52 10000 4.6 300 09:46 19.05.2020
3784 Clouds 32 1007 52 10000 4.6 300 09:25 19.05.2020
3785 Clear 34 1007 38 10000 3.6 110 08:48 19.05.2020
3786 Clouds 34 1007 38 10000 3.6 110 08:25 19.05.2020
3787 Clouds 34 1008 38 10000 3.6 330 07:57 19.05.2020
3788 Clouds 34 1008 38 10000 4.1 90 07:37 19.05.2020
3789 Clouds 33 1008 36 10000 5.7 110 07:19 19.05.2020
3790 Clouds 33 1009 38 10000 5.7 90 06:40 19.05.2020
3791 Clouds 33 1009 41 10000 5.1 100 06:18 19.05.2020
3792 Dust 33 1010 43 10000 5.7 80 05:39 19.05.2020
3793 Clouds 32 1010 48 10000 4.6 100 04:50 19.05.2020
3794 Clouds 29 1012 58 10000 5.7 90 02:59 19.05.2020
3795 Clouds 25 1011 73 10000 2.6 130 00:59 19.05.2020
3796 Clouds 25 1011 78 10000 2.1 130 00:36 19.05.2020
3797 Clouds 24 1011 73 10000 2.1 140 00:18 19.05.2020
3798 Clouds 24 1010 69 10000 2.1 130 23:40 18.05.2020
3799 Clouds 24 1010 69 10000 2.1 130 23:20 18.05.2020
3800 Clouds 24 1010 69 10000 1.5 120 22:57 18.05.2020
3801 Clouds 24 1010 69 10000 2.6 120 22:39 18.05.2020
3802 Clouds 25 1010 69 10000 2.6 120 22:20 18.05.2020
3803 Clouds 24 1010 83 10000 1 90 21:42 18.05.2020
3804 Clouds 24 1010 83 10000 1 90 21:22 18.05.2020
3805 Clouds 24 1010 83 10000 4.52 118 20:57 18.05.2020
3806 Clouds 24 1010 83 10000 4.52 118 20:38 18.05.2020
3807 Clouds 24 1010 83 10000 0.5 60 20:19 18.05.2020
3808 Clouds 24 1010 83 10000 0.5 60 19:55 18.05.2020
3809 Clouds 24 1010 83 10000 1 60 19:37 18.05.2020
3810 Clouds 25 1010 83 10000 2.6 170 19:18 18.05.2020
3811 Clouds 25 1010 83 10000 1.5 170 18:43 18.05.2020
3812 Clouds 25 1010 83 10000 1.5 170 18:21 18.05.2020
3813 Clouds 25 1010 78 10000 1.5 170 17:39 18.05.2020
3814 Clouds 25 1011 78 10000 3.98 119 17:18 18.05.2020
3815 Clouds 25 1011 78 10000 3.98 119 16:56 18.05.2020
3816 Clouds 25 1010 73 10000 3.98 119 16:37 18.05.2020
3817 Clouds 25 1010 73 10000 0.5 110 16:18 18.05.2020
3818 Clouds 25 1010 73 10000 0.5 110 15:54 18.05.2020
3819 Clouds 26 1010 74 10000 1 190 15:36 18.05.2020
3820 Clouds 26 1010 65 10000 0.5 40 15:18 18.05.2020
3821 Clouds 26 1010 65 10000 2.55 133 14:41 18.05.2020
3822 Clouds 26 1010 65 10000 2.12 93 14:23 18.05.2020
3823 Clouds 26 1010 65 10000 1 40 13:54 18.05.2020
3824 Clouds 27 1010 65 10000 1.5 50 13:36 18.05.2020
3825 Clouds 27 1010 61 10000 2.6 40 13:18 18.05.2020
3826 Clouds 28 1010 61 10000 2.6 40 12:55 18.05.2020
3827 Clouds 28 1009 61 10000 3.1 40 12:36 18.05.2020
3828 Clouds 28 1009 61 10000 3.1 40 12:18 18.05.2020
3829 Clouds 28 1009 58 10000 3.1 50 11:46 18.05.2020
3830 Clouds 29 1009 58 10000 3.1 50 11:26 18.05.2020
3831 Clouds 30 1008 43 10000 2.6 70 10:47 18.05.2020
3832 Clouds 30 1008 43 10000 2.6 70 10:27 18.05.2020
3833 Clouds 31 1008 38 10000 3.6 80 09:57 18.05.2020
3834 Clouds 31 1008 35 10000 3.6 80 09:39 18.05.2020
3835 Clouds 32 1008 35 10000 3.6 80 09:20 18.05.2020
3836 Clouds 32 1008 35 10000 5.7 100 08:42 18.05.2020
3837 Clouds 33 1008 35 10000 5.7 100 08:23 18.05.2020
3838 Clouds 33 1008 33 10000 4.6 80 07:50 18.05.2020
3839 Clouds 33 1009 31 10000 6.2 80 07:26 18.05.2020
3840 Clouds 32 1009 31 10000 6.7 90 06:48 18.05.2020
3841 Clouds 32 1009 31 10000 6.7 90 06:25 18.05.2020
3842 Clouds 32 1010 29 10000 7.2 80 05:46 18.05.2020
3843 Clouds 30 1011 33 10000 8.7 100 04:26 18.05.2020
3844 Clouds 28 1012 45 10000 6.7 100 03:30 18.05.2020
3845 Clouds 26 1012 44 10000 3.6 140 01:57 18.05.2020
3846 Clouds 24 1011 50 10000 4.6 110 00:50 18.05.2020
3847 Clouds 25 1011 50 10000 3.6 110 00:19 18.05.2020
3848 Clouds 25 1011 50 10000 4.6 110 23:56 17.05.2020
3849 Clouds 24 1011 50 10000 3.6 100 23:38 17.05.2020
3850 Clouds 25 1010 50 10000 5.1 100 23:19 17.05.2020
3851 Clouds 25 1010 50 10000 5.1 100 22:54 17.05.2020
3852 Clouds 25 1010 50 10000 5.1 100 22:36 17.05.2020
3853 Clouds 25 1010 47 10000 5.1 90 22:18 17.05.2020
3854 Clouds 25 1010 47 10000 5.1 100 21:41 17.05.2020
3855 Clouds 26 1010 47 10000 5.1 100 21:20 17.05.2020
3856 Clouds 26 1010 50 10000 4.6 100 20:57 17.05.2020
3857 Clouds 26 1010 54 10000 5.1 110 20:39 17.05.2020
3858 Clouds 26 1010 51 10000 5.1 90 20:19 17.05.2020
3859 Clouds 26 1010 54 10000 3.6 100 19:47 17.05.2020
3860 Clouds 26 1010 54 10000 3.6 100 19:28 17.05.2020
3861 Clouds 27 1010 54 10000 3.6 90 18:58 17.05.2020
3862 Clouds 27 1010 54 10000 4.6 90 18:38 17.05.2020
3863 Clouds 27 1011 51 10000 4.1 110 18:20 17.05.2020
3864 Clouds 27 1011 69 10000 2.6 140 17:41 17.05.2020
3865 Clouds 27 1011 69 10000 2.6 140 17:23 17.05.2020
3866 Clouds 27 1011 74 10000 2.1 150 16:57 17.05.2020
3867 Clouds 27 1011 74 10000 2.1 150 16:39 17.05.2020
3868 Clouds 27 1011 74 10000 2.1 150 16:20 17.05.2020
3869 Clouds 27 1011 74 10000 2.1 150 16:20 17.05.2020
3870 Clouds 27 1011 69 10000 1.5 140 15:47 17.05.2020
3871 Clouds 27 1011 69 10000 1.5 140 15:25 17.05.2020
3872 Clouds 28 1011 74 10000 1.5 160 14:58 17.05.2020
3873 Clouds 28 1011 74 10000 1.5 160 14:58 17.05.2020
3874 Clouds 27 1011 74 10000 1 110 14:40 17.05.2020
3875 Clouds 27 1011 74 10000 1 60 14:22 17.05.2020
3876 Clouds 28 1011 74 10000 2.1 30 13:43 17.05.2020
3877 Clouds 28 1010 74 10000 2.6 50 13:21 17.05.2020
3878 Clouds 30 1009 62 10000 4.1 30 10:50 17.05.2020
3879 Clear 31 1011 45 10000 7.7 80 04:19 17.05.2020
3880 Clouds 28 1011 54 10000 7.7 110 02:29 17.05.2020
3881 Clouds 27 1011 57 10000 7.7 110 01:55 17.05.2020
3882 Clouds 26 1011 69 10000 4.6 120 00:56 17.05.2020
3883 Clouds 26 1011 69 10000 4.6 120 00:38 17.05.2020
3884 Clouds 25 1011 78 10000 3.6 130 23:57 16.05.2020
3885 Clouds 25 1010 78 10000 2.6 130 23:39 16.05.2020
3886 Clouds 25 1010 74 10000 4.6 110 23:19 16.05.2020
3887 Clouds 25 1010 74 10000 4.6 110 22:57 16.05.2020
3888 Clouds 26 1010 74 10000 4.6 120 22:39 16.05.2020
3889 Clouds 26 1010 78 10000 3.1 130 22:19 16.05.2020
3890 Clouds 26 1010 78 10000 3.6 90 21:44 16.05.2020
3891 Clouds 26 1010 78 10000 3.6 90 21:25 16.05.2020
3892 Clouds 26 1009 78 10000 4.6 80 20:57 16.05.2020
3893 Clouds 26 1009 78 10000 4.6 90 20:39 16.05.2020
3894 Clouds 26 1009 78 10000 4.6 90 20:20 16.05.2020
3895 Clouds 27 1010 78 10000 4.1 80 19:56 16.05.2020
3896 Clouds 27 1010 78 10000 3.6 90 19:37 16.05.2020
3897 Clouds 27 1010 78 10000 3.6 90 19:19 16.05.2020
3898 Clouds 27 1011 78 10000 4.1 80 18:41 16.05.2020
3899 Clouds 27 1011 78 10000 4.1 80 18:22 16.05.2020
3900 Rain 27 1011 83 10000 4.6 80 17:55 16.05.2020
3901 Clouds 27 1011 83 10000 4.1 80 17:36 16.05.2020
3902 Clouds 27 1011 78 10000 3.1 50 17:18 16.05.2020
3903 Clouds 28 1011 74 10000 2.1 50 16:39 16.05.2020
3904 Rain 27 1011 78 10000 2.1 50 16:20 16.05.2020
3905 Rain 27 1011 78 10000 2.1 50 15:55 16.05.2020
3906 Clouds 27 1011 74 10000 2.1 50 15:37 16.05.2020
3907 Rain 28 1011 74 10000 2.6 50 15:18 16.05.2020
3908 Clouds 28 1011 78 10000 1.5 70 14:42 16.05.2020
3909 Clouds 28 1011 78 10000 1.5 70 14:20 16.05.2020
3910 Clouds 28 1011 74 10000 1.5 70 13:56 16.05.2020
3911 Clouds 28 1011 74 10000 2.1 50 13:37 16.05.2020
3912 Clouds 28 1011 74 10000 2.1 50 13:19 16.05.2020
3913 Rain 28 1010 70 10000 2.6 40 12:44 16.05.2020
3914 Rain 29 1010 70 10000 2.6 40 12:20 16.05.2020
3915 Rain 29 1009 70 10000 3.1 30 11:56 16.05.2020
3916 Clouds 29 1009 66 10000 4.1 40 11:38 16.05.2020
3917 Clouds 30 1009 66 10000 4.1 40 11:19 16.05.2020
3918 Clouds 30 1009 52 10000 4.6 80 10:55 16.05.2020
3919 Clouds 32 1009 52 10000 4.1 60 10:36 16.05.2020
3920 Clouds 32 1008 43 10000 4.1 90 10:18 16.05.2020
3921 Clouds 33 1009 41 10000 3.6 80 09:40 16.05.2020
3922 Clouds 33 1009 41 10000 3.6 80 09:19 16.05.2020
3923 Clouds 32 1009 46 10000 5.1 110 08:43 16.05.2020
3924 Clouds 33 1009 46 10000 3.6 130 08:21 16.05.2020
3925 Clouds 33 1009 41 10000 5.1 90 07:46 16.05.2020
3926 Clouds 33 1009 41 10000 5.1 90 07:26 16.05.2020
3927 Clouds 33 1009 41 10000 5.7 70 06:58 16.05.2020
3928 Clouds 32 1009 43 10000 6.2 100 06:39 16.05.2020
3929 Clouds 33 1010 38 10000 5.1 100 06:18 16.05.2020
3930 Clouds 32 1010 40 10000 4.6 120 05:33 16.05.2020
3931 Clear 30 1012 45 10000 7.7 100 03:37 16.05.2020
3932 Clear 30 1012 45 10000 5.7 110 02:59 16.05.2020
3933 Clouds 28 1011 51 10000 6.2 100 02:21 16.05.2020
3934 Clear 27 1012 51 10000 4.6 110 01:47 16.05.2020
3935 Clear 27 1012 51 10000 4.6 110 01:23 16.05.2020
3936 Clear 25 1011 57 10000 3.6 150 00:49 16.05.2020
3937 Clear 25 1011 57 10000 3.6 150 00:22 16.05.2020
3938 Clear 24 1010 50 10000 4.1 120 23:41 15.05.2020
3939 Clear 25 1010 50 10000 4.1 120 23:20 15.05.2020
3940 Clear 25 1010 53 10000 3.6 120 22:58 15.05.2020
3941 Clear 24 1010 57 10000 3.1 140 22:39 15.05.2020
3942 Clear 25 1010 53 10000 2.6 140 22:19 15.05.2020
3943 Clear 25 1010 47 10000 4.1 130 21:40 15.05.2020
3944 Clear 26 1010 47 10000 4.1 130 21:22 15.05.2020
3945 Clouds 26 1010 44 10000 5.1 120 20:59 15.05.2020
3946 Clouds 27 1010 42 10000 5.1 110 20:41 15.05.2020
3947 Clouds 27 1010 42 10000 5.1 110 20:22 15.05.2020
3948 Clouds 27 1010 44 10000 5.7 120 19:58 15.05.2020
3949 Clouds 26 1011 50 10000 3.6 120 19:40 15.05.2020
3950 Clouds 26 1011 50 10000 3.6 120 19:21 15.05.2020
3951 Clouds 27 1011 51 10000 3.6 140 18:45 15.05.2020
3952 Clouds 27 1011 51 10000 3.6 140 18:27 15.05.2020
3953 Clouds 27 1011 51 10000 3.6 140 17:40 15.05.2020
3954 Clouds 28 1011 51 10000 3.6 140 17:20 15.05.2020
3955 Clouds 28 1012 51 10000 2.6 140 16:58 15.05.2020
3956 Clouds 27 1012 54 10000 1.5 140 16:39 15.05.2020
3957 Clouds 27 1012 54 10000 1.5 140 16:19 15.05.2020
3958 Clouds 28 1012 58 10000 1 140 15:58 15.05.2020
3959 Clouds 28 1012 58 10000 1 130 15:39 15.05.2020
3960 Clouds 28 1012 58 10000 1 130 15:19 15.05.2020
3961 Clouds 28 1012 58 10000 1 140 14:54 15.05.2020
3962 Clouds 28 1011 58 10000 1 150 14:36 15.05.2020
3963 Clouds 27 1011 58 10000 1.5 100 14:18 15.05.2020
3964 Clouds 28 1011 61 10000 1.5 80 13:40 15.05.2020
3965 Clouds 28 1011 61 10000 1.5 80 13:20 15.05.2020
3966 Clouds 29 1010 54 10000 2.6 50 12:40 15.05.2020
3967 Clouds 29 1010 48 10000 3.1 50 12:19 15.05.2020
3968 Clouds 29 1010 48 10000 3.1 50 11:57 15.05.2020
3969 Clouds 30 1009 40 10000 2.6 90 11:39 15.05.2020
3970 Clouds 30 1009 40 10000 2.6 90 11:21 15.05.2020
3971 Clouds 31 1009 38 10000 3.6 90 10:59 15.05.2020
3972 Clouds 31 1009 35 10000 5.1 100 10:40 15.05.2020
3973 Clouds 32 1009 35 10000 5.1 100 10:21 15.05.2020
3974 Clouds 32 1008 35 10000 5.7 90 09:58 15.05.2020
3975 Clouds 33 1008 33 10000 5.1 90 09:37 15.05.2020
3976 Clouds 33 1008 33 10000 5.1 90 09:37 15.05.2020
3977 Clouds 33 1008 32 10000 5.1 90 09:18 15.05.2020
3978 Clouds 34 1008 32 10000 5.1 90 08:57 15.05.2020
3979 Clouds 33 1008 33 10000 5.7 100 08:37 15.05.2020
3980 Clouds 33 1008 33 10000 4.6 100 08:18 15.05.2020
3981 Clouds 33 1009 33 10000 4.6 130 07:43 15.05.2020
3982 Clouds 33 1009 33 10000 4.6 130 07:24 15.05.2020
3983 Clouds 33 1010 31 10000 6.7 80 06:41 15.05.2020
3984 Clouds 32 1011 33 10000 7.2 100 05:49 15.05.2020
3985 Clouds 31 1012 35 10000 8.2 100 04:27 15.05.2020
3986 Clouds 31 1013 37 10000 7.7 100 03:45 15.05.2020
3987 Clouds 28 1013 45 10000 6.7 100 02:30 15.05.2020
3988 Clouds 26 1013 54 10000 4.6 100 01:20 15.05.2020
3989 Clouds 25 1012 57 10000 3.6 100 00:48 15.05.2020
3990 Clouds 25 1012 57 10000 3.6 100 00:29 15.05.2020
3991 Clouds 25 1012 61 10000 3.6 100 23:44 14.05.2020
3992 Clouds 25 1012 61 10000 3.6 100 23:22 14.05.2020
3993 Clouds 25 1011 57 10000 3.6 100 22:59 14.05.2020
3994 Clouds 25 1011 61 10000 3.6 120 22:40 14.05.2020
3995 Clouds 25 1011 61 10000 4.6 110 22:19 14.05.2020
3996 Clouds 25 1011 61 10000 4.6 110 22:19 14.05.2020
3997 Clouds 25 1011 61 10000 4.6 110 21:56 14.05.2020
3998 Clouds 25 1012 61 10000 3.6 100 21:37 14.05.2020
3999 Clouds 25 1011 65 10000 3.6 120 21:19 14.05.2020
4000 Clouds 26 1011 69 10000 2.6 120 20:43 14.05.2020
4001 Clouds 26 1011 74 10000 2.6 110 20:21 14.05.2020
4002 Clouds 26 1011 74 10000 2.6 110 19:59 14.05.2020
4003 Clouds 26 1012 78 10000 2.6 130 19:40 14.05.2020
4004 Clouds 26 1012 78 10000 2.6 130 19:20 14.05.2020
4005 Clouds 26 1012 78 10000 2.1 140 18:58 14.05.2020
4006 Clouds 26 1012 78 10000 1.5 140 18:38 14.05.2020
4007 Clouds 26 1012 78 10000 1.5 140 18:20 14.05.2020
4008 Clouds 26 1012 78 10000 2.1 140 17:59 14.05.2020
4009 Clouds 26 1012 78 10000 1.5 140 17:37 14.05.2020
4010 Clouds 26 1012 78 10000 1 140 17:19 14.05.2020
4011 Clouds 26 1012 78 10000 1 140 16:57 14.05.2020
4012 Clouds 26 1012 78 10000 1.5 140 16:38 14.05.2020
4013 Clouds 26 1012 78 10000 1.5 140 16:19 14.05.2020
4014 Clouds 26 1012 74 10000 1 110 15:56 14.05.2020
4015 Clouds 26 1012 78 10000 1.5 80 15:37 14.05.2020
4016 Clouds 26 1012 78 10000 2.1 60 15:18 14.05.2020
4017 Clouds 26 1012 78 10000 1.5 60 14:40 14.05.2020
4018 Clouds 27 1012 74 10000 1.5 50 14:20 14.05.2020
4019 Clouds 27 1012 74 10000 1.5 50 13:57 14.05.2020
4020 Clouds 27 1012 69 10000 1 50 13:39 14.05.2020
4021 Clouds 27 1012 69 10000 1 50 13:20 14.05.2020
4022 Clouds 28 1012 65 10000 1.5 70 12:59 14.05.2020
4023 Clouds 28 1012 65 10000 2.6 40 12:39 14.05.2020
4024 Clouds 28 1012 65 10000 2.6 40 12:20 14.05.2020
4025 Clouds 29 1011 66 10000 2.6 40 11:58 14.05.2020
4026 Clouds 29 1011 58 10000 3.6 40 11:39 14.05.2020
4027 Clouds 30 1011 58 10000 3.6 40 11:20 14.05.2020
4028 Clouds 30 1011 45 10000 4.1 90 10:56 14.05.2020
4029 Clouds 31 1011 43 10000 3.6 80 10:37 14.05.2020
4030 Clouds 32 1010 43 10000 5.1 90 10:19 14.05.2020
4031 Clouds 33 1010 38 10000 4.6 80 09:42 14.05.2020
4032 Clouds 33 1010 38 10000 4.6 80 09:22 14.05.2020
4033 Clouds 33 1010 38 10000 5.7 110 08:41 14.05.2020
4034 Clouds 33 1010 38 10000 4.6 90 08:20 14.05.2020
4035 Clouds 33 1011 38 10000 5.1 110 07:46 14.05.2020
4036 Clouds 33 1011 38 10000 5.1 110 07:25 14.05.2020
4037 Clouds 33 1011 38 10000 5.7 110 06:54 14.05.2020
4038 Clouds 32 1012 38 10000 6.2 110 06:31 14.05.2020
4039 Clouds 32 1012 38 10000 5.7 90 05:55 14.05.2020
4040 Clouds 32 1012 40 10000 6.2 90 05:29 14.05.2020
4041 Clouds 31 1013 40 10000 8.2 100 04:25 14.05.2020
4042 Clouds 29 1014 48 10000 6.7 110 03:27 14.05.2020
4043 Clouds 28 1014 65 10000 5.7 120 02:41 14.05.2020
4044 Clouds 28 1014 69 10000 4.1 120 01:56 14.05.2020
4045 Clouds 27 1014 78 10000 4.6 120 01:24 14.05.2020
4046 Clouds 26 1013 88 10000 3.6 100 00:48 14.05.2020
4047 Clouds 25 1013 88 10000 3.6 100 00:24 14.05.2020
4048 Clouds 25 1012 88 10000 3.6 100 23:44 13.05.2020
4049 Clouds 25 1012 88 10000 3.6 100 23:22 13.05.2020
4050 Clouds 25 1012 88 10000 4.1 90 22:54 13.05.2020
4051 Clouds 25 1011 88 10000 3.1 100 22:36 13.05.2020
4052 Clouds 25 1011 94 10000 3.6 90 22:18 13.05.2020
4053 Clouds 25 1011 94 10000 3.6 90 21:55 13.05.2020
4054 Clear 25 1011 88 10000 2.6 100 21:37 13.05.2020
4055 Clear 25 1011 94 10000 2.1 70 21:18 13.05.2020
4056 Clear 25 1011 88 10000 2.1 70 20:41 13.05.2020
4057 Clear 25 1011 88 10000 2.1 70 20:41 13.05.2020
4058 Clouds 25 1011 88 10000 2.1 70 20:23 13.05.2020
4059 Clouds 25 1011 78 10000 2.6 60 19:43 13.05.2020
4060 Clouds 25 1011 78 10000 2.6 60 19:24 13.05.2020
4061 Clouds 25 1011 78 10000 1 70 18:56 13.05.2020
4062 Clouds 25 1012 74 10000 2.1 90 18:38 13.05.2020
4063 -273 0 0 0 0 0 18:20 13.05.2020
4064 Clouds 26 1012 74 10000 2.1 90 18:20 13.05.2020
4065 Clouds 26 1012 74 10000 2.1 90 18:20 13.05.2020
4066 Clouds 26 1012 74 10000 2.1 90 18:20 13.05.2020
4067 Clouds 26 1012 83 10000 1.5 70 17:39 13.05.2020
4068 Clouds 26 1012 83 10000 1.5 70 17:19 13.05.2020
4069 Clouds 26 1013 78 10000 2.6 50 16:56 13.05.2020
4070 Clouds 27 1013 83 10000 1.5 190 16:37 13.05.2020
4071 Clouds 27 1013 83 10000 2.1 210 16:18 13.05.2020
4072 Clouds 27 1013 83 10000 2.1 210 16:18 13.05.2020
4073 Clouds 27 1013 74 10000 1.5 200 15:42 13.05.2020
4074 Clouds 27 1013 74 10000 1.5 200 15:19 13.05.2020
4075 Clouds 28 1013 69 10000 2.1 200 14:57 13.05.2020
4076 Clouds 28 1013 69 10000 2.14 189 14:39 13.05.2020
4077 Clouds 28 1013 69 10000 1.48 231 14:21 13.05.2020
4078 Clouds 27 1013 69 10000 1.42 225 13:57 13.05.2020
4079 Clouds 27 1013 69 10000 1 350 13:38 13.05.2020
4080 Clouds 27 1013 69 10000 1 350 13:19 13.05.2020
4081 Clouds 28 1012 66 10000 2.1 340 12:43 13.05.2020
4082 Clouds 28 1012 66 10000 2.1 340 12:23 13.05.2020
4083 Clouds 29 1012 62 10000 2.6 340 11:57 13.05.2020
4084 Clouds 29 1011 58 10000 2.6 350 11:39 13.05.2020
4085 Clouds 29 1011 58 10000 2.6 350 11:20 13.05.2020
4086 Clouds 30 1011 52 10000 3.6 340 10:59 13.05.2020
4087 Clouds 30 1010 52 10000 3.6 340 10:39 13.05.2020
4088 Clouds 31 1010 52 10000 3.6 340 10:20 13.05.2020
4089 Clouds 31 1010 52 10000 3.6 340 10:20 13.05.2020
4090 Clouds 32 1010 31 10000 4.6 320 09:58 13.05.2020
4091 Clouds 33 1010 29 10000 2.6 100 09:39 13.05.2020
4092 Clouds 33 1010 27 10000 3.1 120 09:21 13.05.2020
4093 Clouds 33 1010 27 10000 3.1 120 09:21 13.05.2020
4094 Clouds 33 1010 29 10000 3.1 110 08:41 13.05.2020
4095 Clouds 33 1010 29 10000 3.1 110 08:22 13.05.2020
4096 Clouds 33 1010 29 10000 4.1 130 07:59 13.05.2020
4097 Clouds 33 1010 29 10000 4.1 130 07:59 13.05.2020
4098 Clouds 33 1010 29 10000 5.1 110 07:36 13.05.2020
4099 Clouds 33 1010 29 10000 5.1 110 07:36 13.05.2020
4100 Clouds 33 1010 29 10000 5.7 110 06:59 13.05.2020
4101 Clouds 33 1011 29 10000 5.7 90 06:41 13.05.2020
4102 Clouds 32 1011 29 10000 6.2 100 05:50 13.05.2020
4103 Clouds 31 1013 35 10000 6.7 100 04:22 13.05.2020
4104 Clouds 28 1014 39 10000 3.6 130 02:59 13.05.2020
4105 Clouds 27 1014 42 10000 3.1 140 02:22 13.05.2020
4106 Clouds 25 1014 50 10000 3.1 160 01:21 13.05.2020
4107 Clouds 24 1013 50 10000 2.6 140 00:41 13.05.2020
4108 Clouds 24 1013 44 10000 2.6 130 00:19 13.05.2020
4109 Clouds 25 1012 41 10000 4.1 110 23:40 12.05.2020
4110 Clouds 25 1012 41 10000 4.1 110 23:21 12.05.2020
4111 Clouds 25 1012 39 10000 3.6 100 22:57 12.05.2020
4112 Clouds 25 1012 39 10000 3.6 100 22:38 12.05.2020
4113 Clouds 25 1011 39 10000 4.1 100 22:20 12.05.2020
4114 Clouds 24 1011 39 10000 4.1 100 21:55 12.05.2020
4115 Clouds 24 1011 39 10000 3.6 100 21:36 12.05.2020
4116 Clouds 24 1011 50 10000 2.6 110 21:18 12.05.2020
4117 Clouds 24 1011 50 10000 2.6 110 20:56 12.05.2020
4118 Clouds 25 1012 53 10000 2.6 150 20:37 12.05.2020
4119 Clouds 25 1012 53 10000 2.6 150 20:19 12.05.2020
4120 Clouds 26 1012 57 10000 2.1 150 19:54 12.05.2020
4121 Clouds 26 1012 61 10000 2.1 150 19:36 12.05.2020
4122 Clouds 25 1012 69 10000 1.5 170 19:18 12.05.2020
4123 Clouds 25 1012 74 10000 2.1 150 18:41 12.05.2020
4124 Clouds 26 1012 74 10000 2.1 150 18:23 12.05.2020
4125 Clouds 27 1012 69 10000 2.1 150 17:54 12.05.2020
4126 Clouds 27 1012 69 10000 1.5 180 17:36 12.05.2020
4127 Clouds 26 1012 69 10000 2.1 180 17:18 12.05.2020
4128 Clouds 26 1012 69 10000 2.6 180 16:42 12.05.2020
4129 Clouds 26 1012 69 10000 2.6 180 16:20 12.05.2020
4130 Clouds 27 1013 65 10000 2.1 190 15:55 12.05.2020
4131 Clouds 27 1013 65 10000 2.1 190 15:55 12.05.2020
4132 Clouds 25 1013 74 10000 1 180 15:36 12.05.2020
4133 Clouds 26 1013 69 10000 1.5 170 15:18 12.05.2020
4134 Clouds 26 1013 69 10000 1.5 170 14:54 12.05.2020
4135 Clouds 26 1013 74 10000 1 60 14:36 12.05.2020
4136 Clouds 26 1013 69 10000 1.5 50 14:18 12.05.2020
4137 Clouds 26 1013 69 10000 1.5 50 13:54 12.05.2020
4138 Clouds 27 1012 65 10000 2.1 50 13:36 12.05.2020
4139 Clouds 27 1012 65 10000 2.6 50 13:18 12.05.2020
4140 Clouds 27 1012 65 10000 2.6 50 12:54 12.05.2020
4141 Clouds 28 1012 61 10000 3.1 40 12:36 12.05.2020
4142 Clouds 28 1011 54 10000 3.6 40 12:18 12.05.2020
4143 Clouds 28 1011 54 10000 3.6 40 11:55 12.05.2020
4144 Clouds 29 1011 35 10000 3.1 90 11:36 12.05.2020
4145 Clouds 30 1010 35 10000 4.6 100 11:18 12.05.2020
4146 Clouds 30 1010 35 10000 4.6 100 10:54 12.05.2020
4147 Clouds 31 1010 29 10000 4.1 120 10:36 12.05.2020
4148 Clouds 32 1010 31 10000 4.6 130 10:18 12.05.2020
4149 Clouds 32 1010 31 10000 4.6 130 10:18 12.05.2020
4150 Clouds 33 1010 31 10000 4.6 130 09:55 12.05.2020
4151 Clouds 33 1009 31 10000 3.1 90 09:36 12.05.2020
4152 Clear 33 1009 31 10000 5.1 100 09:18 12.05.2020
4153 Clear 33 1009 31 10000 4.6 90 08:39 12.05.2020
4154 Clear 33 1009 31 10000 5.1 90 08:20 12.05.2020
4155 Clear 33 1010 33 10000 4.6 90 07:44 12.05.2020
4156 Clear 32 1010 33 10000 4.6 90 07:26 12.05.2020
4157 Clear 32 1010 33 10000 5.1 80 06:55 12.05.2020
4158 Clear 32 1011 31 10000 6.2 110 06:36 12.05.2020
4159 Clear 32 1011 33 10000 5.7 110 06:18 12.05.2020
4160 Clear 31 1012 33 10000 6.7 100 05:44 12.05.2020
4161 Clear 30 1014 39 10000 6.7 120 03:48 12.05.2020
4162 Clear 28 1014 45 10000 5.7 130 02:58 12.05.2020
4163 Clouds 27 1014 47 10000 4.6 150 02:26 12.05.2020
4164 Clouds 26 1013 50 10000 4.6 130 01:33 12.05.2020
4165 Clouds 24 1013 49 10000 3.6 130 00:40 12.05.2020
4166 Clouds 23 1012 46 10000 4.1 130 00:18 12.05.2020
4167 Clouds 23 1012 46 10000 4.1 130 23:54 11.05.2020
4168 Clouds 23 1012 46 10000 4.6 130 23:36 11.05.2020
4169 Clouds 23 1012 46 10000 4.1 130 23:18 11.05.2020
4170 Clouds 23 1012 46 10000 4.1 130 22:54 11.05.2020
4171 Clouds 23 1012 46 10000 4.6 130 22:36 11.05.2020
4172 Clouds 24 1011 44 10000 4.6 140 22:18 11.05.2020
4173 Clouds 24 1011 44 10000 4.6 140 21:54 11.05.2020
4174 Clouds 24 1011 47 10000 4.1 130 21:36 11.05.2020
4175 Clouds 24 1011 44 10000 3.1 140 21:18 11.05.2020
4176 Clouds 25 1011 44 10000 3.6 140 20:42 11.05.2020
4177 Clouds 25 1011 44 10000 3.6 140 20:21 11.05.2020
4178 Clouds 25 1012 44 10000 3.6 140 19:58 11.05.2020
4179 Clouds 24 1012 47 10000 2.6 140 19:40 11.05.2020
4180 Clouds 24 1012 47 10000 2.6 140 19:21 11.05.2020
4181 Clouds 26 1012 44 10000 2.6 130 18:56 11.05.2020
4182 Clouds 26 1012 41 10000 4.1 140 18:38 11.05.2020
4183 Clouds 27 1013 44 10000 3.6 140 18:19 11.05.2020
4184 Clouds 27 1013 44 10000 3.6 140 17:57 11.05.2020
4185 Clouds 27 1013 44 10000 3.6 140 17:57 11.05.2020
4186 Clouds 27 1013 51 10000 2.6 150 17:38 11.05.2020
4187 Clouds 27 1013 51 10000 2.6 150 17:19 11.05.2020
4188 Clouds 27 1013 54 10000 2.6 160 16:56 11.05.2020
4189 Clouds 27 1013 54 10000 1.5 160 16:37 11.05.2020
4190 Clouds 26 1013 69 10000 1 180 16:18 11.05.2020
4191 Clouds 26 1013 69 10000 1.5 150 15:42 11.05.2020
4192 Clouds 26 1013 61 10000 2.1 170 15:20 11.05.2020
4193 Clouds 27 1013 61 10000 2.1 170 14:58 11.05.2020
4194 Clouds 25 1013 69 10000 1 80 14:40 11.05.2020
4195 Clouds 25 1013 69 10000 1 80 14:21 11.05.2020
4196 Clouds 26 1013 61 10000 1.5 80 13:42 11.05.2020
4197 Clouds 26 1013 61 10000 1.5 80 13:42 11.05.2020
4198 Clouds 26 1013 61 10000 1.5 80 13:23 11.05.2020
4199 Clouds 27 1013 57 10000 1 60 12:59 11.05.2020
4200 Clouds 27 1013 57 10000 1 70 12:41 11.05.2020
4201 Clouds 27 1013 57 10000 1 70 12:23 11.05.2020
4202 Clouds 28 1012 51 10000 2.1 50 11:58 11.05.2020
4203 Clouds 29 1012 40 10000 1.5 110 11:40 11.05.2020
4204 Clouds 29 1012 40 10000 1.5 110 11:21 11.05.2020
4205 Clouds 30 1011 33 10000 3.6 110 10:58 11.05.2020
4206 Clouds 31 1011 33 10000 5.1 100 10:40 11.05.2020
4207 Clouds 31 1011 31 10000 4.6 100 10:21 11.05.2020
4208 Clouds 31 1011 31 10000 4.6 100 09:58 11.05.2020
4209 Clouds 32 1011 31 10000 5.7 100 09:39 11.05.2020
4210 Clouds 32 1010 33 10000 5.1 80 09:19 11.05.2020
4211 Clouds 32 1010 33 10000 5.1 80 08:54 11.05.2020
4212 Clouds 32 1011 31 10000 5.1 80 08:36 11.05.2020
4213 Clouds 32 1011 31 10000 6.2 80 08:18 11.05.2020
4214 Clouds 32 1011 31 10000 6.2 80 07:41 11.05.2020
4215 Clouds 32 1011 31 10000 6.2 80 07:23 11.05.2020
4216 Clouds 32 1012 31 10000 5.1 110 06:39 11.05.2020
4217 Clouds 32 1012 29 10000 6.7 90 05:55 11.05.2020
4218 Clouds 32 1013 31 10000 6.7 100 05:23 11.05.2020
4219 Clear 30 1014 33 10000 5.7 130 04:19 11.05.2020
4220 Clear 28 1014 44 10000 5.1 130 02:37 11.05.2020
4221 Clouds 27 1014 47 10000 4.1 140 02:19 11.05.2020
4222 Clouds 26 1014 50 10000 3.1 130 01:31 11.05.2020
4223 Clouds 25 1013 61 10000 3.6 130 00:44 11.05.2020
4224 Clouds 25 1013 65 10000 3.1 150 00:19 11.05.2020
4225 Clouds 25 1013 65 10000 3.1 130 23:43 10.05.2020
4226 Clouds 25 1013 65 10000 3.1 130 23:20 10.05.2020
4227 Clouds 25 1012 65 10000 2.6 150 22:55 10.05.2020
4228 Clouds 25 1012 57 10000 2.1 130 22:37 10.05.2020
4229 Clouds 26 1012 54 10000 2.6 110 22:18 10.05.2020
4230 Clouds 26 1012 54 10000 3.1 110 21:43 10.05.2020
4231 Clouds 26 1012 57 10000 2.6 120 21:19 10.05.2020
4232 Clouds 26 1012 58 10000 3.1 120 20:43 10.05.2020
4233 Clouds 27 1012 58 10000 3.1 120 20:25 10.05.2020
4234 Clouds 28 1012 65 10000 2.6 100 19:59 10.05.2020
4235 Clouds 27 1012 78 10000 1.5 130 19:40 10.05.2020
4236 Clouds 27 1012 78 10000 1.5 130 19:22 10.05.2020
4237 Clouds 26 1012 78 10000 0.5 170 18:57 10.05.2020
4238 Clouds 27 1012 78 10000 5.18 92 18:37 10.05.2020
4239 Clouds 27 1012 78 10000 0.5 170 18:19 10.05.2020
4240 Clouds 27 1012 78 10000 0.5 170 17:58 10.05.2020
4241 Clouds 27 1013 74 10000 1.5 180 17:40 10.05.2020
4242 Clouds 27 1013 74 10000 1.5 180 17:40 10.05.2020
4243 Clouds 27 1013 74 10000 1.5 180 17:21 10.05.2020
4244 Clouds 27 1013 74 10000 1.5 170 16:56 10.05.2020
4245 Clouds 27 1013 74 10000 1 160 16:38 10.05.2020
4246 Clouds 28 1013 74 10000 2.6 190 16:19 10.05.2020
4247 Clouds 27 1013 69 10000 1 20 15:43 10.05.2020
4248 Clouds 28 1013 69 10000 1 20 15:24 10.05.2020
4249 Clouds 28 1013 69 10000 0.5 20 14:57 10.05.2020
4250 Clouds 28 1012 65 10000 2.15 175 14:38 10.05.2020
4251 Clouds 28 1012 65 10000 3.2 193 14:19 10.05.2020
4252 Clouds 28 1012 62 10000 3.2 193 13:58 10.05.2020
4253 Clouds 29 1012 62 10000 0.5 20 13:37 10.05.2020
4254 Clouds 28 1012 66 10000 1.1 237 13:19 10.05.2020
4255 Clouds 28 1012 66 10000 1.1 237 13:19 10.05.2020
4256 Clouds 29 1012 66 10000 1.1 237 12:56 10.05.2020
4257 Clouds 29 1011 58 10000 1.1 237 12:38 10.05.2020
4258 Clouds 29 1011 58 10000 1.75 326 12:20 10.05.2020
4259 Clouds 29 1011 55 10000 2.1 30 11:55 10.05.2020
4260 Clouds 29 1011 55 10000 2.1 30 11:55 10.05.2020
4261 Clouds 30 1011 55 10000 3.1 40 11:36 10.05.2020
4262 Clouds 30 1010 35 10000 3.6 40 11:18 10.05.2020
4263 Clouds 31 1010 33 10000 3.6 100 10:43 10.05.2020
4264 Clouds 32 1010 33 10000 3.6 100 10:25 10.05.2020
4265 Clouds 32 1010 33 10000 4.6 90 09:57 10.05.2020
4266 Clouds 34 1010 30 10000 3.6 140 09:39 10.05.2020
4267 Clouds 34 1010 30 10000 3.6 140 09:20 10.05.2020
4268 Clouds 34 1010 30 10000 4.1 90 08:47 10.05.2020
4269 Clear 34 1010 30 10000 4.1 90 08:23 10.05.2020
4270 Clear 34 1010 30 10000 4.6 110 07:44 10.05.2020
4271 Clear 34 1010 30 10000 4.6 110 07:20 10.05.2020
4272 Clear 34 1010 33 10000 5.1 100 06:52 10.05.2020
4273 Clear 33 1011 31 10000 5.7 70 06:30 10.05.2020
4274 Clear 33 1012 35 10000 4.6 60 05:48 10.05.2020
4275 Clear 31 1012 40 10000 5.1 70 04:50 10.05.2020
4276 Clear 31 1013 43 10000 5.7 90 04:31 10.05.2020
4277 Clear 31 1013 43 10000 4.6 90 03:54 10.05.2020
4278 Clear 30 1013 48 10000 4.6 110 03:35 10.05.2020
4279 Clear 29 1014 65 10000 5.1 100 02:41 10.05.2020
4280 Clouds 28 1014 65 10000 5.1 90 02:19 10.05.2020
4281 Clouds 27 1014 74 10000 3.6 90 01:41 10.05.2020
4282 Clouds 27 1014 74 10000 3.6 90 01:19 10.05.2020
4283 Clouds 26 1014 74 10000 2.6 100 00:54 10.05.2020
4284 Clouds 25 1013 74 10000 2.1 110 00:24 10.05.2020
4285 Clear 25 1013 83 10000 1.5 110 23:58 09.05.2020
4286 Clear 24 1012 88 10000 1.5 110 23:39 09.05.2020
4287 Clear 24 1012 88 10000 1.5 110 23:20 09.05.2020
4288 Clear 24 1012 78 10000 2.1 90 22:42 09.05.2020
4289 Clear 24 1012 78 10000 2.1 90 22:24 09.05.2020
4290 Clear 24 1012 83 10000 1.5 80 21:58 09.05.2020
4291 Clouds 24 1012 83 10000 2.1 90 21:40 09.05.2020
4292 Clouds 24 1012 83 10000 2.1 90 21:21 09.05.2020
4293 Clouds 24 1012 88 10000 1.5 100 20:58 09.05.2020
4294 Clouds 24 1012 83 10000 1.5 110 20:38 09.05.2020
4295 Clouds 24 1012 83 10000 1 160 20:20 09.05.2020
4296 Clouds 25 1012 83 10000 1 160 19:56 09.05.2020
4297 Clouds 25 1012 83 10000 1.5 160 19:38 09.05.2020
4298 Clouds 25 1012 83 10000 1 160 19:19 09.05.2020
4299 Clouds 25 1012 83 10000 1.5 140 18:44 09.05.2020
4300 Clouds 25 1012 83 10000 1.5 140 18:26 09.05.2020
4301 Clouds 25 1013 78 10000 2.1 170 17:46 09.05.2020
4302 Clouds 25 1013 78 10000 2.1 170 17:23 09.05.2020
4303 Clouds 24 1012 83 10000 1.26 188 16:58 09.05.2020
4304 Clouds 25 1012 78 10000 1.5 170 16:40 09.05.2020
4305 Clouds 25 1012 78 10000 1 180 16:19 09.05.2020
4306 Clouds 25 1012 78 10000 1 180 16:19 09.05.2020
4307 Clouds 25 1012 78 10000 1 210 15:45 09.05.2020
4308 Clear 25 1012 78 10000 1 210 15:26 09.05.2020
4309 Clear 25 1012 78 10000 0.6 177 14:57 09.05.2020
4310 Clear 26 1012 74 10000 0.5 210 14:39 09.05.2020
4311 Clouds 26 1012 69 10000 0.5 30 14:18 09.05.2020
4312 Clouds 25 1012 69 10000 0.5 30 13:56 09.05.2020
4313 Clouds 25 1012 74 10000 1 30 13:38 09.05.2020
4314 Clouds 26 1011 69 10000 1.5 30 13:19 09.05.2020
4315 Clouds 26 1011 69 10000 2.6 30 12:41 09.05.2020
4316 Clouds 27 1011 69 10000 2.6 30 12:22 09.05.2020
4317 Clouds 27 1011 61 10000 3.6 30 11:55 09.05.2020
4318 Clouds 28 1011 61 10000 4.1 30 11:37 09.05.2020
4319 Clouds 28 1010 58 10000 5.1 30 11:18 09.05.2020
4320 Clouds 28 1010 58 10000 5.1 30 11:18 09.05.2020
4321 Clouds 29 1010 55 10000 4.6 30 10:42 09.05.2020
4322 Clouds 30 1010 55 10000 4.6 30 10:23 09.05.2020
4323 Clouds 30 1010 38 10000 4.1 120 09:56 09.05.2020
4324 Clouds 32 1010 35 10000 3.6 80 09:37 09.05.2020
4325 Clouds 32 1010 31 10000 4.6 110 09:18 09.05.2020
4326 Clouds 33 1010 31 10000 4.6 110 08:51 09.05.2020
4327 Clouds 33 1010 35 10000 4.1 110 08:31 09.05.2020
4328 Clear 33 1010 31 10000 4.6 90 07:49 09.05.2020
4329 Clear 33 1010 31 10000 4.6 90 07:31 09.05.2020
4330 Clear 32 1011 35 10000 4.6 110 06:47 09.05.2020
4331 Clear 32 1011 35 10000 4.6 110 06:22 09.05.2020
4332 Clear 32 1012 38 10000 4.6 100 05:45 09.05.2020
4333 Clear 30 1013 48 10000 6.2 90 03:44 09.05.2020
4334 Clear 29 1013 48 10000 6.2 90 03:22 09.05.2020
4335 Clear 27 1014 61 10000 5.7 100 02:30 09.05.2020
4336 Clear 26 1013 69 10000 5.7 100 01:52 09.05.2020
4337 Clouds 26 1013 74 10000 4.6 100 01:23 09.05.2020
4338 Clouds 25 1013 78 10000 5.1 100 00:50 09.05.2020
4339 Clouds 25 1013 83 10000 4.6 100 00:31 09.05.2020
4340 Clouds 25 1012 78 10000 4.6 90 23:49 08.05.2020
4341 Clouds 25 1012 78 10000 4.6 90 23:29 08.05.2020
4342 Clouds 25 1012 78 10000 3.6 80 22:59 08.05.2020
4343 Clouds 25 1012 78 10000 2.6 120 22:40 08.05.2020
4344 Clouds 25 1012 78 10000 2.6 130 22:19 08.05.2020
4345 Clouds 24 1012 78 10000 2.6 130 21:59 08.05.2020
4346 Clouds 24 1011 83 10000 2.1 130 21:39 08.05.2020
4347 Clouds 24 1011 83 10000 2.6 130 21:19 08.05.2020
4348 Clouds 24 1011 83 10000 2.6 130 20:58 08.05.2020
4349 Clouds 24 1011 83 10000 2.1 170 20:39 08.05.2020
4350 Clouds 24 1011 83 10000 2.1 170 20:21 08.05.2020
4351 Clouds 24 1011 83 10000 1 130 19:44 08.05.2020
4352 Clouds 25 1011 83 10000 1 130 19:24 08.05.2020
4353 Clouds 24 1011 83 10000 1.5 140 18:56 08.05.2020
4354 Clouds 24 1012 78 10000 2.1 150 18:38 08.05.2020
4355 Clouds 24 1012 83 10000 2.1 160 18:18 08.05.2020
4356 Clouds 24 1012 83 10000 1 110 17:42 08.05.2020
4357 Clouds 24 1011 83 10000 1.5 30 17:18 08.05.2020
4358 Clouds 25 1011 83 10000 1 50 16:45 08.05.2020
4359 Clouds 25 1011 83 10000 1 50 16:26 08.05.2020
4360 Clouds 25 1012 83 10000 2.1 30 15:57 08.05.2020
4361 Clouds 25 1012 74 10000 2.6 40 15:39 08.05.2020
4362 Clouds 26 1012 74 10000 3.1 50 15:18 08.05.2020
4363 Clouds 26 1012 74 10000 3.1 50 14:54 08.05.2020
4364 Clouds 26 1012 74 10000 3.1 40 14:36 08.05.2020
4365 Clouds 26 1011 74 10000 3.6 40 14:18 08.05.2020
4366 Clouds 26 1011 74 10000 3.1 40 13:41 08.05.2020
4367 Clouds 26 1011 65 10000 2.6 30 13:20 08.05.2020
4368 Clouds 27 1011 65 10000 2.6 30 12:55 08.05.2020
4369 Clouds 27 1011 61 10000 2.1 30 12:36 08.05.2020
4370 Clouds 27 1010 54 10000 2.6 40 12:18 08.05.2020
4371 Clouds 28 1010 54 10000 3.6 30 11:43 08.05.2020
4372 Clouds 28 1010 54 10000 3.6 30 11:22 08.05.2020
4373 Clouds 29 1010 55 10000 4.1 10 10:58 08.05.2020
4374 Clouds 29 1010 58 10000 3.6 360 10:40 08.05.2020
4375 Clouds 30 1009 55 10000 4.1 330 10:19 08.05.2020
4376 Clouds 31 1009 55 10000 3.6 340 09:42 08.05.2020
4377 Clouds 31 1009 55 10000 3.6 340 09:20 08.05.2020
4378 Clouds 32 1009 49 10000 3.6 330 08:59 08.05.2020
4379 Clouds 32 1009 36 10000 3.6 10 08:40 08.05.2020
4380 Clouds 33 1009 36 10000 3.6 10 08:21 08.05.2020
4381 Clouds 33 1010 38 10000 3.6 10 07:43 08.05.2020
4382 Clear 33 1010 38 10000 3.6 10 07:23 08.05.2020
4383 Clear 32 1011 35 10000 3.6 10 06:50 08.05.2020
4384 Clear 32 1011 43 10000 3.6 10 06:21 08.05.2020
4385 Clouds 32 1012 43 10000 5.1 100 05:36 08.05.2020
4386 Clouds 31 1013 45 10000 5.1 90 04:30 08.05.2020
4387 Clouds 28 1014 58 10000 6.2 110 02:32 08.05.2020
4388 Clouds 27 1013 78 10000 4.1 100 01:45 08.05.2020
4389 Clouds 26 1013 78 10000 4.1 100 01:23 08.05.2020
4390 Clouds 25 1013 78 10000 3.1 110 00:51 08.05.2020
4391 Clouds 24 1013 83 10000 2.6 120 00:29 08.05.2020
4392 Clouds 23 1012 83 10000 2.6 120 23:58 07.05.2020
4393 Clouds 23 1012 78 10000 3.6 110 23:40 07.05.2020
4394 Clouds 24 1012 78 10000 3.6 110 23:21 07.05.2020
4395 Clouds 23 1012 78 10000 3.6 110 22:55 07.05.2020
4396 Clouds 23 1012 88 10000 1.5 150 22:37 07.05.2020
4397 Clear 23 1011 88 10000 1.5 150 22:18 07.05.2020
4398 Clear 23 1011 88 10000 1.5 150 21:55 07.05.2020
4399 Clear 24 1011 83 10000 2.1 180 21:36 07.05.2020
4400 Clear 24 1011 78 10000 3.1 170 21:18 07.05.2020
4401 Clouds 24 1011 83 10000 2.1 170 20:42 07.05.2020
4402 Clouds 24 1011 83 10000 2.1 170 20:21 07.05.2020
4403 Clouds 24 1011 83 10000 2.1 170 20:21 07.05.2020
4404 Clouds 24 1011 88 10000 1 60 19:54 07.05.2020
4405 Clouds 23 1012 88 10000 1.04 143 19:36 07.05.2020
4406 Clouds 23 1012 88 10000 1 60 19:18 07.05.2020
4407 Clouds 24 1012 83 10000 2.6 80 18:41 07.05.2020
4408 Clouds 25 1012 83 10000 2.6 80 18:23 07.05.2020
4409 Clouds 24 1012 83 10000 2.6 180 17:43 07.05.2020
4410 Clouds 24 1012 83 10000 2.6 180 17:21 07.05.2020
4411 Clouds 25 1012 88 10000 1.5 160 17:21 07.05.2020
4412 Clouds 24 1012 88 10000 1.5 160 16:56 07.05.2020
4413 Clouds 24 1012 83 10000 1.5 180 16:38 07.05.2020
4414 Clouds 24 1012 83 10000 1 30 16:18 07.05.2020
4415 Clouds 24 1012 83 10000 1 30 15:55 07.05.2020
4416 Clouds 25 1012 83 10000 1 20 15:36 07.05.2020
4417 Clouds 25 1012 78 10000 1 20 15:18 07.05.2020
4418 Clouds 25 1012 78 10000 1 20 14:41 07.05.2020
4419 Clouds 26 1012 78 10000 1 20 14:19 07.05.2020
4420 Clouds 26 1011 74 10000 2.6 10 13:44 07.05.2020
4421 Clouds 26 1011 74 10000 2.6 10 13:25 07.05.2020
4422 Clouds 27 1011 69 10000 2.1 350 12:45 07.05.2020
4423 Clouds 27 1011 69 10000 2.1 350 12:45 07.05.2020
4424 Clouds 27 1011 69 10000 2.1 350 12:20 07.05.2020
4425 Clouds 27 1010 65 10000 3.1 360 11:59 07.05.2020
4426 Clouds 28 1010 62 10000 4.1 360 11:39 07.05.2020
4427 Clouds 28 1010 62 10000 4.1 360 11:21 07.05.2020
4428 Clouds 30 1010 52 10000 3.1 340 10:43 07.05.2020
4429 Clouds 30 1010 52 10000 3.1 340 10:24 07.05.2020
4430 Clouds 32 1009 40 10000 3.6 30 09:41 07.05.2020
4431 Clouds 32 1009 40 10000 3.6 30 09:21 07.05.2020
4432 Clouds 32 1010 33 10000 2.6 100 08:59 07.05.2020
4433 Clouds 32 1010 35 10000 2.6 90 08:41 07.05.2020
4434 Clouds 32 1010 35 10000 2.6 90 08:21 07.05.2020
4435 Clouds 32 1011 33 10000 3.1 70 07:46 07.05.2020
4436 Clouds 32 1011 33 10000 3.1 70 07:28 07.05.2020
4437 Clouds 32 1011 35 10000 3.1 70 06:56 07.05.2020
4438 Clouds 32 1012 38 10000 4.1 70 06:35 07.05.2020
4439 Clouds 31 1013 38 10000 5.1 60 05:38 07.05.2020
4440 Clouds 31 1014 45 10000 5.1 90 04:25 07.05.2020
4441 Clear 29 1014 51 10000 6.2 70 03:26 07.05.2020
4442 Clear 28 1014 54 10000 5.1 80 02:53 07.05.2020
4443 Clouds 26 1014 61 10000 3.6 90 01:46 07.05.2020
4444 Clouds 25 1014 61 10000 3.6 90 01:24 07.05.2020
4445 Clouds 24 1014 60 10000 3.1 100 00:50 07.05.2020
4446 Clouds 22 1014 64 10000 3.1 100 00:29 07.05.2020
4447 Clouds 22 1013 60 10000 2.6 100 23:57 06.05.2020
4448 Clouds 22 1013 64 10000 2.6 140 23:38 06.05.2020
4449 Clouds 21 1013 83 10000 1.5 150 23:19 06.05.2020
4450 Clouds 21 1013 83 10000 1.5 150 22:54 06.05.2020
4451 Clouds 21 1013 83 10000 2.1 150 22:36 06.05.2020
4452 Clouds 22 1012 78 10000 1.5 110 22:18 06.05.2020
4453 Clouds 22 1012 78 10000 4.71 113 21:42 06.05.2020
4454 Clouds 22 1012 78 10000 4.62 126 21:22 06.05.2020
4455 Clouds 22 1012 69 10000 2.1 120 20:56 06.05.2020
4456 Clouds 22 1012 73 10000 2.6 90 20:37 06.05.2020
4457 Clouds 23 1012 78 10000 2.1 130 20:19 06.05.2020
4458 Clouds 23 1012 78 10000 2.1 130 19:56 06.05.2020
4459 Clouds 23 1012 83 10000 1.5 150 19:37 06.05.2020
4460 Clouds 23 1012 83 10000 1.5 160 19:18 06.05.2020
4461 Clouds 23 1012 83 10000 1.5 160 19:18 06.05.2020
4462 Clouds 23 1012 83 10000 1.5 160 18:55 06.05.2020
4463 Clouds 23 1012 78 10000 2.1 180 18:37 06.05.2020
4464 Clouds 24 1013 78 10000 2.1 180 18:18 06.05.2020
4465 Clouds 23 1013 78 10000 2.1 180 17:54 06.05.2020
4466 Clouds 23 1013 73 10000 2.1 170 17:36 06.05.2020
4467 Clouds 23 1013 78 10000 1 210 17:18 06.05.2020
4468 Clouds 23 1013 78 10000 1 210 16:56 06.05.2020
4469 Clouds 23 1013 73 10000 1 110 16:38 06.05.2020
4470 Clouds 24 1013 73 10000 1 110 16:19 06.05.2020
4471 Clouds 24 1013 73 10000 1.5 70 15:45 06.05.2020
4472 Clouds 24 1013 73 10000 1.5 70 15:22 06.05.2020
4473 Clouds 24 1013 73 10000 1 70 14:56 06.05.2020
4474 Clouds 25 1012 73 10000 1.5 60 14:38 06.05.2020
4475 Clear 25 1012 69 10000 1.5 60 14:19 06.05.2020
4476 Clear 25 1012 69 10000 1.5 60 13:57 06.05.2020
4477 Clear 26 1012 65 10000 1.5 30 13:37 06.05.2020
4478 Clear 26 1012 61 10000 2.1 20 13:19 06.05.2020
4479 Clear 26 1011 57 10000 2.1 30 12:42 06.05.2020
4480 Clear 27 1011 57 10000 2.1 30 12:24 06.05.2020
4481 Clear 29 1011 45 10000 2.1 60 11:42 06.05.2020
4482 Clear 29 1011 45 10000 2.1 60 11:42 06.05.2020
4483 Clear 29 1011 45 10000 2.1 60 11:42 06.05.2020
4484 Clear 29 1011 45 10000 2.1 60 11:22 06.05.2020
4485 Clear 30 1011 38 10000 3.1 80 10:58 06.05.2020
4486 Clear 30 1010 35 10000 3.1 80 10:39 06.05.2020
4487 Clear 31 1010 35 10000 3.1 80 10:19 06.05.2020
4488 Clear 32 1010 33 10000 4.1 70 09:59 06.05.2020
4489 Clear 32 1010 35 10000 2.6 80 09:38 06.05.2020
4490 Clouds 32 1010 35 10000 2.6 80 09:20 06.05.2020
4491 Clouds 33 1010 35 10000 4.1 70 08:43 06.05.2020
4492 Clouds 32 1010 35 10000 4.1 70 08:20 06.05.2020
4493 Clouds 32 1010 33 10000 3.6 90 07:56 06.05.2020
4494 Clouds 32 1011 33 10000 5.1 50 07:38 06.05.2020
4495 Clouds 32 1011 35 10000 5.1 50 07:18 06.05.2020
4496 Clouds 32 1011 35 10000 4.6 70 06:46 06.05.2020
4497 Clouds 32 1012 35 10000 5.1 60 06:20 06.05.2020
4498 Clouds 32 1012 38 10000 5.1 60 05:49 06.05.2020
4499 Clouds 32 1012 38 10000 5.1 60 05:31 06.05.2020
4500 Clouds 30 1013 48 10000 6.2 100 03:53 06.05.2020
4501 Clouds 28 1014 51 10000 5.7 100 03:28 06.05.2020
4502 Clouds 28 1014 51 10000 6.2 100 02:54 06.05.2020
4503 Clouds 27 1014 54 10000 6.7 100 02:26 06.05.2020
4504 Clouds 26 1014 57 10000 4.6 110 01:43 06.05.2020
4505 Clouds 25 1014 57 10000 4.6 110 01:21 06.05.2020
4506 Clouds 24 1013 60 10000 4.6 100 00:44 06.05.2020
4507 Clouds 24 1013 57 10000 4.1 100 00:19 06.05.2020
4508 Clouds 24 1013 57 10000 4.1 100 00:19 06.05.2020
4509 Clouds 24 1013 57 10000 3.6 100 23:41 05.05.2020
4510 Clouds 24 1012 50 10000 4.1 100 23:20 05.05.2020
4511 Clouds 25 1012 50 10000 4.1 100 22:55 05.05.2020
4512 Rain 25 1012 50 10000 4.6 100 22:37 05.05.2020
4513 Clouds 25 1012 50 10000 4.6 110 22:18 05.05.2020
4514 Clouds 24 1011 47 10000 4.1 100 21:41 05.05.2020
4515 Clouds 24 1011 47 10000 4.1 100 21:41 05.05.2020
4516 Clouds 24 1011 47 10000 4.1 100 21:22 05.05.2020
4517 Clouds 24 1012 53 10000 3.1 110 20:59 05.05.2020
4518 Clouds 24 1012 57 10000 3.1 130 20:40 05.05.2020
4519 Clouds 24 1012 50 10000 3.6 130 20:20 05.05.2020
4520 Clouds 24 1012 50 10000 3.6 130 19:59 05.05.2020
4521 Clouds 25 1012 61 10000 2.6 130 19:39 05.05.2020
4522 Clouds 24 1012 61 10000 2.6 130 19:21 05.05.2020
4523 Clouds 24 1012 69 10000 2.1 160 18:57 05.05.2020
4524 Clouds 24 1012 65 10000 2.1 150 18:38 05.05.2020
4525 Clouds 24 1013 65 10000 3.1 150 18:19 05.05.2020
4526 Clouds 25 1013 65 10000 3.1 150 17:54 05.05.2020
4527 Clouds 25 1013 65 10000 2.6 140 17:36 05.05.2020
4528 Clouds 24 1013 73 10000 1 60 17:18 05.05.2020
4529 Clouds 26 1013 65 10000 1.5 180 16:38 05.05.2020
4530 Clouds 25 1013 65 10000 1.5 180 16:20 05.05.2020
4531 Clouds 26 1013 61 10000 1 160 15:58 05.05.2020
4532 Clouds 25 1013 61 10000 1.5 100 15:39 05.05.2020
4533 Clouds 25 1013 61 10000 1.5 100 15:20 05.05.2020
4534 Clouds 26 1013 65 10000 1.5 80 14:55 05.05.2020
4535 Clouds 26 1013 65 10000 1.5 70 14:37 05.05.2020
4536 Clouds 26 1013 65 10000 1.5 70 14:37 05.05.2020
4537 Clear 26 1012 61 10000 2.1 70 14:18 05.05.2020
4538 Clouds 26 1012 61 10000 2.1 70 13:55 05.05.2020
4539 Clouds 27 1012 61 10000 2.6 60 13:36 05.05.2020
4540 Clouds 27 1012 58 10000 2.6 40 13:18 05.05.2020
4541 Clouds 27 1012 58 10000 2.6 40 13:18 05.05.2020
4542 Clouds 28 1012 58 10000 2.6 40 12:54 05.05.2020
4543 Clouds 28 1011 58 10000 3.1 40 12:36 05.05.2020
4544 Clouds 28 1011 54 10000 3.1 30 12:18 05.05.2020
4545 Clouds 29 1011 51 10000 2.6 20 11:40 05.05.2020
4546 Clouds 29 1011 51 10000 2.6 20 11:19 05.05.2020
4547 Clouds 30 1011 48 10000 3.6 30 10:55 05.05.2020
4548 Clouds 31 1010 46 10000 3.6 10 10:37 05.05.2020
4549 Clouds 31 1010 49 10000 2.6 320 10:18 05.05.2020
4550 Clouds 32 1010 46 10000 6.2 250 09:44 05.05.2020
4551 Rain 33 1010 46 10000 6.2 250 09:26 05.05.2020
4552 Rain 33 1010 38 10000 4.1 20 08:59 05.05.2020
4553 Rain 33 1010 38 10000 4.1 20 08:39 05.05.2020
4554 Clouds 34 1010 36 10000 4.1 20 08:18 05.05.2020
4555 Clouds 34 1011 36 10000 4.1 20 07:44 05.05.2020
4556 Clouds 34 1011 36 10000 4.1 20 07:22 05.05.2020
4557 Clouds 34 1011 33 10000 4.1 20 06:58 05.05.2020
4558 Clouds 34 1012 33 10000 4.6 100 06:39 05.05.2020
4559 Clouds 32 1012 35 10000 5.1 90 05:56 05.05.2020
4560 Clouds 32 1012 33 10000 5.1 90 05:25 05.05.2020
4561 Clouds 28 1014 30 10000 6.7 100 02:41 05.05.2020
4562 Clouds 25 1013 31 10000 4.6 120 00:57 05.05.2020
4563 Clouds 25 1013 29 10000 4.6 130 00:37 05.05.2020
4564 Clouds 24 1013 31 10000 4.6 130 23:55 04.05.2020
4565 Clouds 25 1012 29 10000 4.6 130 23:36 04.05.2020
4566 Clouds 25 1012 31 10000 4.6 130 23:18 04.05.2020
4567 Clouds 25 1012 31 10000 4.6 130 23:18 04.05.2020
4568 Clouds 24 1011 33 10000 5.1 130 22:54 04.05.2020
4569 Clouds 24 1011 33 10000 5.1 130 22:36 04.05.2020
4570 Clouds 25 1011 31 10000 4.6 140 22:18 04.05.2020
4571 Clouds 25 1011 31 10000 4.6 140 22:18 04.05.2020
4572 Clouds 25 1011 31 10000 5.1 140 21:43 04.05.2020
4573 Clouds 25 1011 31 10000 5.1 140 21:43 04.05.2020
4574 Clouds 25 1011 31 10000 5.1 140 21:22 04.05.2020
4575 Clouds 25 1011 31 10000 5.1 140 21:22 04.05.2020
4576 Clouds 25 1011 31 10000 5.1 140 21:22 04.05.2020
4577 Clouds 25 1011 31 10000 5.1 130 20:42 04.05.2020
4578 Clouds 25 1011 31 10000 5.1 130 20:42 04.05.2020
4579 Clouds 25 1011 31 10000 5.1 130 20:21 04.05.2020
4580 Clouds 25 1011 31 10000 5.1 130 20:21 04.05.2020
4581 Clouds 25 1011 31 10000 6.2 140 19:58 04.05.2020
4582 Clouds 25 1012 31 10000 6.7 140 19:40 04.05.2020
4583 Clouds 25 1012 31 10000 6.7 140 19:40 04.05.2020
4584 Clouds 25 1012 33 10000 5.1 140 19:18 04.05.2020
4585 Clouds 25 1012 38 10000 4.6 150 18:39 04.05.2020
4586 Clouds 25 1012 38 10000 4.6 150 18:21 04.05.2020
4587 Clouds 25 1013 41 10000 4.1 150 17:58 04.05.2020
4588 Clouds 25 1013 41 10000 4.1 150 17:40 04.05.2020
4589 Clouds 25 1013 41 10000 4.1 150 17:21 04.05.2020
4590 Clouds 26 1013 39 10000 4.1 140 16:59 04.05.2020
4591 Clouds 26 1013 41 10000 4.1 140 16:41 04.05.2020
4592 Clouds 26 1013 39 10000 3.6 150 16:19 04.05.2020
4593 Clouds 26 1013 41 10000 4.1 140 16:19 04.05.2020
4594 Clouds 26 1014 36 10000 3.6 140 15:43 04.05.2020
4595 Clouds 27 1014 36 10000 3.6 140 15:24 04.05.2020
4596 Clouds 27 1014 34 10000 3.6 140 14:54 04.05.2020
4597 Clouds 27 1014 34 10000 3.6 140 14:54 04.05.2020
4598 Clouds 27 1014 34 10000 3.6 140 14:54 04.05.2020
4599 Clouds 27 1014 34 10000 3.6 140 14:54 04.05.2020
4600 Clouds 27 1014 34 10000 3.6 140 14:31 04.05.2020
4601 Clouds 27 1014 34 10000 3.6 140 14:31 04.05.2020
4602 Clouds 27 1014 34 10000 3.6 140 14:31 04.05.2020
4603 Clouds 27 1014 34 10000 3.6 140 14:31 04.05.2020
4604 Clouds 27 1014 34 10000 3.6 140 14:31 04.05.2020
4605 Clouds 27 1013 42 10000 2.6 130 13:40 04.05.2020
4606 Clouds 27 1013 42 10000 2.6 130 13:40 04.05.2020
4607 Clouds 27 1013 42 10000 2.6 130 13:40 04.05.2020
4608 Clouds 27 1013 42 10000 2.6 130 13:40 04.05.2020
4609 Clouds 27 1013 42 10000 2.6 130 13:40 04.05.2020
4610 Clouds 27 1012 44 10000 2.1 80 12:45 04.05.2020
4611 Clouds 27 1012 44 10000 2.1 80 12:44 04.05.2020
4612 Clouds 27 1012 44 10000 2.1 80 12:44 04.05.2020
4613 Clouds 27 1012 44 10000 2.1 80 12:44 04.05.2020
4614 Clouds 29 1011 35 10000 2.6 130 11:29 04.05.2020
4615 Clouds 29 1011 35 10000 2.6 130 11:29 04.05.2020
4616 Clouds 32 1011 25 10000 4.1 130 09:32 04.05.2020
4617 Clouds 32 1011 25 10000 4.1 130 09:32 04.05.2020
4618 Clouds 32 1011 25 10000 4.1 130 09:32 04.05.2020
4619 Clouds 32 1011 25 10000 3.6 140 07:59 04.05.2020
4620 Clouds 32 1011 25 10000 5.1 140 07:40 04.05.2020
4621 Clouds 32 1012 25 10000 5.7 120 06:31 04.05.2020
4622 Clouds 32 1012 25 10000 5.7 120 06:31 04.05.2020
4623 Clouds 32 1012 25 10000 5.7 120 06:31 04.05.2020
4624 Clouds 32 1012 25 10000 5.7 120 06:31 04.05.2020
4625 Clouds 32 1012 25 10000 5.7 120 06:31 04.05.2020
4626 Clouds 31 1013 23 10000 6.7 120 04:53 04.05.2020
4627 Clouds 28 1014 26 10000 6.2 130 03:18 04.05.2020
4628 Clouds 27 1014 30 10000 7.2 130 02:30 04.05.2020
4629 Clouds 23 1013 33 10000 4.6 140 00:36 04.05.2020
4630 Clouds 23 1013 33 10000 4.6 140 00:36 04.05.2020
4631 Clouds 22 1012 37 10000 4.6 150 23:45 03.05.2020
4632 Clouds 22 1012 37 10000 4.6 150 23:24 03.05.2020
4633 Clouds 23 1011 35 10000 4.6 140 22:45 03.05.2020
4634 Clouds 23 1011 35 10000 4.6 140 22:25 03.05.2020
4635 Clouds 24 1011 35 10000 4.6 140 21:58 03.05.2020
4636 Clouds 24 1011 33 10000 4.1 130 21:40 03.05.2020
4637 Clouds 24 1011 33 10000 4.1 130 21:20 03.05.2020
4638 Clouds 24 1011 33 10000 5.1 130 20:46 03.05.2020
4639 Clouds 25 1011 33 10000 5.1 130 20:22 03.05.2020
4640 Clouds 25 1011 33 10000 3.6 130 19:51 03.05.2020
4641 Clouds 25 1011 33 10000 3.6 130 19:51 03.05.2020
4642 Clouds 25 1011 31 10000 3.6 130 19:32 03.05.2020
4643 Clouds 25 1012 33 10000 4.6 130 19:00 03.05.2020
4644 Clouds 25 1012 33 10000 4.6 130 19:00 03.05.2020
4645 Clouds 25 1012 38 10000 3.6 130 18:38 03.05.2020
4646 Clouds 25 1012 38 10000 3.6 130 18:19 03.05.2020
4647 Clouds 25 1012 44 10000 3.1 150 18:19 03.05.2020
4648 Clouds 25 1012 41 10000 3.6 140 17:42 03.05.2020
4649 Clouds 25 1012 41 10000 3.6 140 17:22 03.05.2020
4650 Clouds 25 1012 41 10000 3.6 140 17:22 03.05.2020
4651 Clouds 25 1012 44 10000 3.1 150 16:54 03.05.2020
4652 Clouds 25 1012 41 10000 2.6 150 16:36 03.05.2020
4653 Clouds 25 1012 44 10000 3.1 140 16:18 03.05.2020
4654 Clouds 25 1012 44 10000 3.1 140 15:54 03.05.2020
4655 Clouds 25 1012 47 10000 3.1 150 15:36 03.05.2020
4656 Clouds 25 1012 47 10000 3.1 150 15:36 03.05.2020
4657 Clouds 26 1012 44 10000 2.6 150 15:18 03.05.2020
4658 Clouds 26 1012 47 10000 2.6 150 14:41 03.05.2020
4659 Clouds 26 1012 47 10000 2.6 150 14:22 03.05.2020
4660 Clouds 26 1012 47 10000 3.1 150 14:22 03.05.2020
4661 Clouds 26 1012 47 10000 3.1 150 13:56 03.05.2020
4662 Clouds 26 1012 47 10000 3.1 150 13:56 03.05.2020
4663 Clouds 27 1012 44 10000 2.6 150 13:33 03.05.2020
4664 Clouds 27 1012 44 10000 2.6 150 13:33 03.05.2020
4665 Clouds 27 1012 44 10000 2.6 150 13:33 03.05.2020
4666 Clouds 27 1012 44 10000 2.6 150 13:33 03.05.2020
4667 Clouds 27 1012 44 10000 2.6 150 13:32 03.05.2020
4668 Clouds 27 1011 39 10000 2.1 160 12:47 03.05.2020
4669 Clouds 27 1010 34 10000 1.5 120 12:20 03.05.2020
4670 Clouds 28 1010 34 10000 1.5 120 11:57 03.05.2020
4671 Clouds 28 1010 34 10000 1.5 120 11:57 03.05.2020
4672 Clouds 28 1010 34 10000 1.5 120 11:57 03.05.2020
4673 Clouds 28 1010 34 10000 1.5 120 11:57 03.05.2020
4674 Clouds 28 1010 37 10000 2.6 80 11:39 03.05.2020
4675 Clouds 28 1010 37 10000 2.6 80 11:39 03.05.2020
4676 Clouds 29 1010 27 10000 2.6 80 11:19 03.05.2020
4677 Clouds 30 1010 25 10000 3.1 80 10:49 03.05.2020
4678 Clouds 30 1010 25 10000 3.1 80 10:49 03.05.2020
4679 Clouds 30 1010 25 10000 3.1 80 10:49 03.05.2020
4680 Clouds 31 1009 24 10000 3.6 80 10:01 03.05.2020
4681 Clouds 31 1009 24 10000 3.6 80 10:01 03.05.2020
4682 Clouds 31 1009 24 10000 3.6 80 10:01 03.05.2020
4683 Clouds 31 1009 24 10000 3.6 80 10:01 03.05.2020
4684 Clouds 31 1009 24 10000 3.6 80 10:01 03.05.2020
4685 Clouds 32 1009 22 10000 4.1 140 09:39 03.05.2020
4686 Clouds 32 1009 21 10000 3.6 150 08:57 03.05.2020
4687 Clouds 32 1009 21 10000 3.6 150 08:57 03.05.2020
4688 Clouds 32 1009 21 10000 3.6 150 08:57 03.05.2020
4689 Clouds 32 1009 21 10000 4.1 130 08:27 03.05.2020
4690 Clouds 31 1010 20 10000 5.1 120 07:40 03.05.2020
4691 Clouds 31 1010 19 10000 5.1 150 06:30 03.05.2020
4692 Clouds 31 1010 19 10000 5.1 150 06:30 03.05.2020
4693 Clouds 30 1011 19 10000 6.2 150 05:49 03.05.2020
4694 Clouds 30 1011 19 10000 6.2 150 05:28 03.05.2020
4695 Clouds 28 1012 21 10000 6.7 150 04:27 03.05.2020
4696 Clouds 28 1012 21 10000 6.7 150 04:27 03.05.2020
4697 Clouds 27 1013 19 10000 7.2 130 03:29 03.05.2020
4698 Clouds 26 1013 23 10000 7.2 130 02:30 03.05.2020
4699 Clouds 24 1012 31 10000 6.2 140 01:47 03.05.2020
4700 Clouds 23 1012 31 10000 6.2 140 01:27 03.05.2020
4701 Clouds 23 1012 35 10000 5.7 140 00:57 03.05.2020
4702 Clouds 23 1012 35 10000 5.7 140 00:57 03.05.2020
4703 Clouds 22 1012 37 10000 5.1 140 00:38 03.05.2020
4704 Clouds 22 1012 37 10000 5.1 140 00:19 03.05.2020
4705 Clouds 22 1011 37 10000 5.1 140 23:44 02.05.2020
4706 Clouds 22 1011 37 10000 5.1 140 23:25 02.05.2020
4707 Clouds 22 1011 40 10000 4.1 130 22:56 02.05.2020
4708 Clouds 22 1011 43 10000 3.6 140 22:37 02.05.2020
4709 Clouds 22 1010 40 10000 3.6 150 22:18 02.05.2020
4710 Clouds 23 1010 43 10000 4.1 160 21:40 02.05.2020
4711 Clouds 23 1010 40 10000 3.6 150 21:19 02.05.2020
4712 Clouds 23 1010 40 10000 3.6 150 20:57 02.05.2020
4713 Clouds 23 1010 40 10000 4.1 140 20:38 02.05.2020
4714 Clouds 23 1010 40 10000 4.1 140 20:19 02.05.2020
4715 Clouds 23 1010 40 10000 4.6 150 19:57 02.05.2020
4716 Clouds 23 1010 46 10000 4.1 140 19:39 02.05.2020
4717 Clouds 23 1011 46 10000 4.1 140 19:20 02.05.2020
4718 Clouds 23 1011 46 10000 4.1 140 18:56 02.05.2020
4719 Clouds 23 1011 49 10000 3.6 140 18:37 02.05.2020
4720 Clouds 24 1011 47 10000 3.6 140 18:19 02.05.2020
4721 Clouds 24 1011 47 10000 3.6 140 17:55 02.05.2020
4722 Clouds 25 1011 47 10000 3.6 140 17:37 02.05.2020
4723 Clouds 25 1011 47 10000 3.1 140 17:19 02.05.2020
4724 Clouds 25 1011 50 10000 2.6 140 16:43 02.05.2020
4725 Clouds 25 1011 50 10000 2.6 140 16:43 02.05.2020
4726 Clouds 25 1011 50 10000 2.6 140 16:25 02.05.2020
4727 Clouds 25 1012 50 10000 2.6 150 15:55 02.05.2020
4728 Clouds 25 1012 47 10000 2.6 150 15:36 02.05.2020
4729 Clouds 26 1012 47 10000 2.6 150 15:18 02.05.2020
4730 Smoke 27 1012 42 10000 6.2 140 14:41 02.05.2020
4731 Smoke 26 1012 42 10000 6.2 140 14:22 02.05.2020
4732 Smoke 26 1012 42 10000 6.2 140 13:55 02.05.2020
4733 Smoke 25 1011 50 10000 6.2 140 13:37 02.05.2020
4734 Smoke 26 1011 42 10000 6.2 140 13:18 02.05.2020
4735 Smoke 26 1011 42 10000 6.2 140 13:18 02.05.2020
4736 Clouds 27 1010 37 10000 2.1 120 12:40 02.05.2020
4737 Clouds 27 1010 34 10000 2.1 130 12:20 02.05.2020
4738 Clouds 28 1010 34 10000 2.1 130 11:55 02.05.2020
4739 Clouds 29 1009 32 10000 3.6 140 11:37 02.05.2020
4740 Clouds 29 1009 27 9000 3.1 90 11:18 02.05.2020
4741 Clouds 30 1008 25 10000 3.6 110 10:40 02.05.2020
4742 Clouds 31 1008 22 10000 4.6 100 10:21 02.05.2020
4743 Clouds 31 1008 22 10000 4.6 100 09:58 02.05.2020
4744 Clouds 31 1008 23 10000 4.6 90 09:39 02.05.2020
4745 Clear 31 1008 23 10000 4.6 90 09:21 02.05.2020
4746 Clear 32 1008 24 10000 5.1 80 08:51 02.05.2020
4747 Clear 32 1008 24 10000 4.1 140 08:31 02.05.2020
4748 Clouds 32 1008 22 10000 4.6 150 07:49 02.05.2020
4749 Clear 32 1009 21 10000 4.6 140 07:30 02.05.2020
4750 Clear 31 1009 22 10000 4.6 130 06:54 02.05.2020
4751 Clear 31 1010 23 10000 5.1 140 06:23 02.05.2020
4752 Clear 30 1011 23 10000 5.7 130 05:27 02.05.2020
4753 Clear 29 1011 24 10000 6.7 120 04:26 02.05.2020
4754 Clear 28 1012 22 10000 7.7 120 03:36 02.05.2020
4755 Clear 25 1012 27 10000 7.2 140 02:40 02.05.2020
4756 Clouds 24 1012 31 10000 7.2 130 01:52 02.05.2020
4757 Clouds 23 1012 38 10000 4.6 130 01:18 02.05.2020
4758 Clouds 22 1012 40 10000 5.1 140 00:42 02.05.2020
4759 Clouds 22 1012 40 10000 5.1 140 00:20 02.05.2020
4760 Clouds 22 1011 43 10000 5.1 140 23:40 01.05.2020
4761 Clouds 22 1011 40 10000 5.7 140 23:20 01.05.2020
4762 Clouds 23 1011 40 10000 5.7 140 22:58 01.05.2020
4763 Clouds 22 1010 46 10000 5.1 150 22:38 01.05.2020
4764 Clouds 23 1010 46 10000 5.1 140 22:19 01.05.2020
4765 Clouds 23 1010 46 10000 5.1 140 21:57 01.05.2020
4766 Clouds 23 1010 46 10000 4.6 150 21:39 01.05.2020
4767 Clouds 23 1010 43 10000 4.6 140 21:19 01.05.2020
4768 Clouds 23 1010 43 10000 4.6 140 20:57 01.05.2020
4769 Clouds 23 1010 43 10000 4.6 130 20:38 01.05.2020
4770 Clear 23 1010 46 10000 4.1 130 20:19 01.05.2020
4771 Clear 23 1010 46 10000 4.1 130 19:55 01.05.2020
4772 Clear 23 1010 46 10000 4.1 150 19:36 01.05.2020
4773 Clear 23 1010 49 10000 4.6 140 19:18 01.05.2020
4774 Clear 23 1010 49 10000 4.6 140 18:54 01.05.2020
4775 Clear 24 1010 47 10000 5.1 130 18:36 01.05.2020
4776 Clear 24 1011 50 10000 4.1 140 18:18 01.05.2020
4777 Clear 25 1011 50 10000 3.6 140 17:40 01.05.2020
4778 Clear 25 1011 50 10000 3.6 140 17:21 01.05.2020
4779 Clear 25 1011 50 10000 3.1 130 16:57 01.05.2020
4780 Clear 25 1011 50 10000 2.6 150 16:39 01.05.2020
4781 Clear 25 1011 50 10000 2.6 150 16:20 01.05.2020
4782 Clear 25 1011 53 10000 2.6 150 15:57 01.05.2020
4783 Clear 26 1011 47 10000 3.1 150 15:39 01.05.2020
4784 Clear 26 1011 47 10000 2.6 160 15:19 01.05.2020
4785 Clear 27 1011 45 10000 3.1 120 14:43 01.05.2020
4786 Clouds 27 1011 45 10000 2.6 110 14:24 01.05.2020
4787 Clouds 27 1011 45 10000 2.6 110 13:55 01.05.2020
4788 Clouds 27 1011 48 10000 3.1 100 13:36 01.05.2020
4789 Clouds 28 1010 45 10000 3.1 110 13:18 01.05.2020
4790 Clouds 28 1010 45 10000 3.1 110 12:54 01.05.2020
4791 Clouds 28 1010 39 10000 3.1 100 12:36 01.05.2020
4792 Clouds 29 1009 40 10000 3.1 130 12:18 01.05.2020
4793 Clouds 30 1009 35 10000 3.6 130 11:41 01.05.2020
4794 Clouds 31 1009 35 10000 3.6 130 11:21 01.05.2020
4795 Clouds 31 1009 33 10000 4.1 150 11:21 01.05.2020
4796 Clouds 31 1009 33 10000 4.1 150 10:56 01.05.2020
4797 Clouds 32 1008 33 10000 5.1 130 10:37 01.05.2020
4798 Clouds 32 1008 29 10000 5.1 120 10:19 01.05.2020
4799 Clouds 33 1008 31 10000 5.7 100 09:43 01.05.2020
4800 Clouds 33 1008 31 10000 5.7 100 09:19 01.05.2020
4801 Clouds 33 1008 29 10000 5.7 90 08:54 01.05.2020
4802 Clouds 33 1008 31 10000 5.7 130 08:36 01.05.2020
4803 Clouds 33 1008 31 10000 5.7 130 08:18 01.05.2020
4804 Clouds 34 1009 31 10000 6.7 100 07:41 01.05.2020
4805 Clouds 33 1009 31 10000 6.7 100 07:21 01.05.2020
4806 Clouds 33 1009 31 10000 6.7 100 07:21 01.05.2020
4807 Clouds 33 1009 36 10000 5.1 120 06:39 01.05.2020
4808 Clouds 32 1010 45 10000 4.6 120 05:26 01.05.2020
4809 Clouds 32 1012 48 10000 6.7 100 04:20 01.05.2020
4810 Clouds 30 1012 45 10000 5.7 120 02:59 01.05.2020
4811 Clouds 30 1012 48 10000 4.1 130 02:40 01.05.2020
4812 Clouds 29 1012 62 10000 4.1 120 01:58 01.05.2020
4813 Clouds 27 1012 78 10000 4.1 140 01:28 01.05.2020
4814 Clouds 26 1011 88 10000 3.1 150 00:41 01.05.2020
4815 Clouds 26 1011 88 10000 3.1 150 00:22 01.05.2020
4816 Clouds 25 1011 88 10000 3.1 150 23:58 30.04.2020
4817 Clouds 25 1010 94 10000 1.5 150 23:39 30.04.2020
4818 Clouds 25 1010 94 10000 1.5 150 23:21 30.04.2020
4819 Clouds 25 1010 94 10000 2.1 160 22:59 30.04.2020
4820 Clouds 25 1010 94 10000 1.5 140 22:40 30.04.2020
4821 Clear 26 1010 94 10000 1 120 22:19 30.04.2020
4822 Clear 26 1010 94 10000 1 120 21:55 30.04.2020
4823 Clear 26 1009 88 10000 2.6 120 21:37 30.04.2020
4824 Clear 27 1010 88 10000 2.6 120 21:18 30.04.2020
4825 Clear 26 1010 88 10000 1.5 120 20:41 30.04.2020
4826 Clouds 26 1009 94 10000 2.1 100 20:19 30.04.2020
4827 Clouds 26 1009 94 10000 2.1 100 19:58 30.04.2020
4828 Clouds 26 1010 94 10000 1.5 90 19:38 30.04.2020
4829 Clouds 26 1010 88 10000 1 100 19:18 30.04.2020
4830 Clouds 27 1010 88 10000 1 190 18:40 30.04.2020
4831 Clouds 27 1010 83 10000 2.1 190 18:21 30.04.2020
4832 Clouds 27 1010 83 10000 2.1 190 17:59 30.04.2020
4833 Clouds 27 1010 83 10000 2.1 190 17:40 30.04.2020
4834 Clouds 27 1010 83 10000 2.1 190 17:22 30.04.2020
4835 Clouds 27 1010 88 10000 1 200 16:58 30.04.2020
4836 Clouds 27 1010 83 10000 0.5 240 16:40 30.04.2020
4837 Clouds 28 1010 79 10000 2.1 250 16:19 30.04.2020
4838 Clouds 28 1010 79 10000 2.1 250 15:48 30.04.2020
4839 Clouds 28 1010 79 10000 2.1 250 15:25 30.04.2020
4840 Clouds 28 1011 79 10000 2.1 250 14:59 30.04.2020
4841 Clouds 29 1011 79 10000 2.6 260 14:39 30.04.2020
4842 Clouds 29 1011 79 10000 2.6 270 14:19 30.04.2020
4843 Clouds 29 1011 79 10000 2.6 270 13:56 30.04.2020
4844 Clouds 29 1010 79 10000 2.6 280 13:38 30.04.2020
4845 Clouds 29 1010 79 10000 2.6 280 13:19 30.04.2020
4846 Clouds 29 1010 74 10000 2.1 290 12:41 30.04.2020
4847 Clouds 29 1010 74 10000 2.1 290 12:21 30.04.2020
4848 Clouds 30 1009 74 10000 3.1 290 11:58 30.04.2020
4849 Clouds 30 1009 74 10000 4.1 290 11:37 30.04.2020
4850 Clouds 30 1008 70 10000 4.6 290 11:18 30.04.2020
4851 Clouds 31 1008 66 10000 5.1 290 10:41 30.04.2020
4852 Clouds 32 1008 66 10000 5.1 290 10:22 30.04.2020
4853 Clouds 32 1008 66 10000 5.1 290 10:22 30.04.2020
4854 Clouds 32 1008 62 10000 5.1 300 09:58 30.04.2020
4855 Clouds 32 1008 62 10000 6.2 300 09:39 30.04.2020
4856 Clouds 32 1008 66 10000 5.1 310 09:21 30.04.2020
4857 Clouds 32 1008 62 10000 5.7 290 08:49 30.04.2020
4858 Clouds 33 1008 62 10000 5.7 290 08:27 30.04.2020
4859 Clouds 34 1008 52 10000 4.6 320 07:58 30.04.2020
4860 Clouds 34 1008 52 10000 4.1 340 07:39 30.04.2020
4861 Clouds 34 1008 52 10000 4.1 340 07:20 30.04.2020
4862 Clouds 33 1009 55 10000 3.6 320 06:33 30.04.2020
4863 Clouds 33 1010 62 10000 3.6 350 05:47 30.04.2020
4864 Clouds 33 1011 52 10000 1.5 330 04:48 30.04.2020
4865 Clouds 33 1011 52 10000 1.5 330 04:24 30.04.2020
4866 Clouds 31 1012 59 10000 1.5 200 02:55 30.04.2020
4867 Clouds 31 1012 66 10000 1 200 02:28 30.04.2020
4868 Clouds 30 1011 79 10000 1 170 01:38 30.04.2020
4869 Clouds 28 1011 83 10000 1.5 130 00:53 30.04.2020
4870 Clouds 26 1011 94 10000 1 120 00:25 30.04.2020
4871 Clouds 25 1011 88 10000 1 110 23:59 29.04.2020
4872 Clouds 25 1011 88 10000 1 110 23:59 29.04.2020
4873 Clouds 25 1011 88 10000 1 110 23:59 29.04.2020
4874 Clouds 25 1011 88 10000 1.5 100 23:41 29.04.2020
4875 Clouds 25 1011 88 10000 1.5 100 23:23 29.04.2020
4876 Clouds 25 1010 94 10000 1.5 90 22:58 29.04.2020
4877 Clouds 26 1010 88 10000 2.1 130 22:39 29.04.2020
4878 Clouds 26 1010 94 10000 1.5 170 22:19 29.04.2020
4879 Clouds 26 1010 94 10000 1 190 21:39 29.04.2020
4880 Clouds 26 1010 94 10000 1 190 21:20 29.04.2020
4881 Clouds 27 1010 88 10000 1 190 20:58 29.04.2020
4882 Clouds 27 1010 83 10000 2.1 190 20:39 29.04.2020
4883 Clouds 27 1010 88 10000 1 210 20:19 29.04.2020
4884 Clouds 27 1010 88 10000 1 210 19:57 29.04.2020
4885 Clouds 26 1010 88 10000 1.5 250 19:39 29.04.2020
4886 Clear 26 1010 94 10000 2.1 280 19:18 29.04.2020
4887 Clear 27 1010 88 10000 1.5 280 18:42 29.04.2020
4888 Clear 27 1010 88 10000 1.5 280 18:20 29.04.2020
4889 Clear 27 1011 88 10000 1 260 17:55 29.04.2020
4890 Clear 28 1011 74 10000 1.5 260 17:37 29.04.2020
4891 Clouds 29 1011 74 10000 1.5 250 17:18 29.04.2020
4892 Clouds 29 1011 74 10000 1.5 250 17:18 29.04.2020
4893 Clouds 29 1011 74 10000 1.5 250 16:37 29.04.2020
4894 Clouds 29 1011 74 10000 1.5 260 16:19 29.04.2020
4895 Clouds 29 1011 74 10000 1.5 260 16:19 29.04.2020
4896 Clouds 29 1011 74 10000 1.5 260 15:57 29.04.2020
4897 Clouds 29 1011 74 10000 1.5 250 15:38 29.04.2020
4898 Clouds 29 1011 74 10000 1.5 250 15:20 29.04.2020
4899 Clouds 29 1011 74 10000 2.1 260 14:45 29.04.2020
4900 Clouds 29 1011 74 10000 2.1 260 14:26 29.04.2020
4901 Clouds 29 1011 74 10000 1.5 280 13:58 29.04.2020
4902 Clouds 29 1011 74 10000 2.1 270 13:40 29.04.2020
4903 Clouds 29 1011 74 10000 2.1 270 13:20 29.04.2020
4904 Clouds 30 1010 70 10000 2.1 300 12:56 29.04.2020
4905 Clouds 29 1010 70 10000 2.6 290 12:38 29.04.2020
4906 Clouds 29 1009 70 10000 3.1 300 12:18 29.04.2020
4907 Clouds 30 1009 70 10000 3.6 300 11:39 29.04.2020
4908 Clouds 30 1009 66 10000 4.6 310 11:20 29.04.2020
4909 Clouds 30 1009 66 10000 4.6 310 10:55 29.04.2020
4910 Clouds 31 1008 62 10000 5.1 310 10:37 29.04.2020
4911 Clouds 32 1008 59 10000 5.7 300 10:18 29.04.2020
4912 Clouds 32 1008 55 10000 5.7 300 09:41 29.04.2020
4913 Clouds 32 1008 55 10000 5.7 300 09:22 29.04.2020
4914 Clouds 33 1008 49 10000 5.1 300 08:45 29.04.2020
4915 Clouds 34 1008 49 10000 5.1 300 08:27 29.04.2020
4916 Clouds 34 1008 49 10000 5.7 300 07:57 29.04.2020
4917 Clouds 34 1008 49 10000 5.1 300 07:38 29.04.2020
4918 Clouds 34 1008 41 10000 5.7 310 07:18 29.04.2020
4919 Clouds 33 1009 43 10000 2.1 210 06:48 29.04.2020
4920 Clouds 33 1009 43 10000 2.1 210 06:29 29.04.2020
4921 Clouds 33 1009 43 10000 2.1 210 06:29 29.04.2020
4922 Clouds 33 1010 41 10000 4.1 320 05:21 29.04.2020
4923 Clouds 33 1010 41 10000 4.1 320 05:21 29.04.2020
4924 Clouds 32 1011 62 10000 2.6 210 04:21 29.04.2020
4925 Clouds 32 1011 62 10000 2.6 210 03:59 29.04.2020
4926 Clouds 30 1011 74 10000 2.1 160 02:39 29.04.2020
4927 Clouds 27 1011 78 10000 2.6 150 01:44 29.04.2020
4928 Clouds 27 1011 78 10000 2.6 150 01:20 29.04.2020
4929 Clouds 26 1011 83 10000 2.1 140 00:39 29.04.2020
4930 Clouds 25 1011 94 10000 1.5 140 00:19 29.04.2020
4931 Clouds 25 1010 83 10000 1.5 120 23:48 28.04.2020
4932 Clouds 25 1010 83 10000 1.5 120 23:23 28.04.2020
4933 Clouds 24 1010 94 10000 2.1 90 22:55 28.04.2020
4934 Clouds 25 1009 94 10000 1 160 22:37 28.04.2020
4935 Clouds 25 1009 88 10000 1 130 22:18 28.04.2020
4936 Clouds 26 1009 88 10000 1 130 21:54 28.04.2020
4937 Clouds 26 1009 88 10000 1 230 21:36 28.04.2020
4938 Clouds 26 1009 88 10000 2.39 145 21:18 28.04.2020
4939 Clouds 25 1009 88 10000 2.39 145 20:40 28.04.2020
4940 Clouds 25 1009 88 10000 2.01 148 20:21 28.04.2020
4941 Clouds 26 1009 88 10000 1 230 19:58 28.04.2020
4942 Clouds 27 1009 78 10000 1 290 19:40 28.04.2020
4943 Clouds 27 1009 74 10000 1.5 260 19:21 28.04.2020
4944 Clouds 28 1009 74 10000 1.5 260 18:58 28.04.2020
4945 Clouds 28 1010 74 10000 1.5 250 18:38 28.04.2020
4946 Clouds 28 1010 74 10000 2.6 230 18:19 28.04.2020
4947 Clouds 28 1010 74 10000 2.1 250 17:38 28.04.2020
4948 Clouds 28 1010 74 10000 2.1 250 17:20 28.04.2020
4949 Clouds 28 1010 74 10000 2.1 250 16:59 28.04.2020
4950 Clouds 28 1010 74 10000 2.6 250 16:40 28.04.2020
4951 Clouds 28 1010 69 10000 2.1 250 16:22 28.04.2020
4952 Clouds 28 1010 69 10000 2.1 250 15:57 28.04.2020
4953 Clouds 28 1011 69 10000 2.6 260 15:39 28.04.2020
4954 Clouds 28 1010 74 10000 2.1 260 15:20 28.04.2020
4955 Clouds 28 1010 74 10000 2.1 260 14:56 28.04.2020
4956 Clouds 28 1010 74 10000 2.1 270 14:38 28.04.2020
4957 Clouds 28 1010 70 10000 2.6 270 14:19 28.04.2020
4958 Clouds 29 1010 70 10000 2.6 270 13:56 28.04.2020
4959 Clouds 29 1010 70 10000 2.1 270 13:37 28.04.2020
4960 Clouds 29 1009 70 10000 2.1 280 13:19 28.04.2020
4961 Clouds 29 1009 70 10000 2.1 290 12:43 28.04.2020
4962 Clouds 28 1009 70 10000 2.1 290 12:24 28.04.2020
4963 Clouds 30 1009 58 10000 3.6 290 11:44 28.04.2020
4964 Clouds 30 1009 58 10000 3.6 290 11:24 28.04.2020
4965 Clouds 30 1008 55 10000 3.1 350 10:59 28.04.2020
4966 Clouds 31 1008 52 10000 2.6 340 10:39 28.04.2020
4967 Clouds 32 1008 41 10000 2.6 340 10:19 28.04.2020
4968 Clouds 33 1008 41 10000 2.6 340 09:56 28.04.2020
4969 Clouds 33 1008 34 10000 2.1 260 09:38 28.04.2020
4970 Clouds 33 1008 38 10000 2.6 310 09:20 28.04.2020
4971 Clouds 34 1008 44 10000 2.6 300 08:45 28.04.2020
4972 Clouds 34 1008 44 10000 2.6 300 08:26 28.04.2020
4973 Clouds 33 1009 36 10000 1.5 140 07:45 28.04.2020
4974 Clouds 34 1009 36 10000 1.5 140 07:20 28.04.2020
4975 Clouds 33 1009 38 10000 2.6 120 06:50 28.04.2020
4976 Clouds 33 1009 41 10000 5.1 70 06:22 28.04.2020
4977 Clouds 32 1010 49 10000 2.6 140 05:41 28.04.2020
4978 Clouds 32 1011 49 10000 3.1 130 04:56 28.04.2020
4979 Clouds 31 1012 55 10000 2.6 120 02:59 28.04.2020
4980 Clouds 30 1012 66 10000 2.1 130 02:33 28.04.2020
4981 Clouds 28 1012 74 10000 2.6 160 01:23 28.04.2020
4982 Clouds 27 1011 78 10000 2.6 150 00:55 28.04.2020
4983 Clouds 26 1011 78 10000 2.1 150 00:22 28.04.2020
4984 Clouds 25 1011 83 10000 2.1 150 23:47 27.04.2020
4985 Clouds 25 1011 83 10000 2.1 150 23:24 27.04.2020
4986 Clouds 25 1010 83 10000 1.5 200 22:55 27.04.2020
4987 Clouds 25 1010 78 10000 1.5 140 22:37 27.04.2020
4988 Clouds 25 1010 78 10000 2.1 140 22:19 27.04.2020
4989 Clouds 25 1010 78 10000 2.1 140 21:56 27.04.2020
4990 Clouds 25 1010 83 10000 0.99 176 21:37 27.04.2020
4991 Clouds 25 1010 88 10000 1 170 21:18 27.04.2020
4992 Clouds 25 1010 78 10000 1 200 20:43 27.04.2020
4993 Clouds 26 1010 78 10000 1 200 20:22 27.04.2020
4994 Clouds 26 1010 83 10000 0.5 80 19:58 27.04.2020
4995 Clouds 25 1010 83 10000 0.5 80 19:39 27.04.2020
4996 Clouds 25 1010 83 10000 1 150 19:20 27.04.2020
4997 Clouds 25 1010 83 10000 1 150 18:57 27.04.2020
4998 Clouds 25 1011 78 10000 1.5 130 18:39 27.04.2020
4999 Clouds 26 1011 83 10000 1.75 7 18:19 27.04.2020
5000 Clouds 26 1011 78 10000 1.75 7 17:43 27.04.2020
5001 Clouds 26 1011 78 10000 1.38 17 17:21 27.04.2020
5002 Clouds 26 1011 78 10000 1 170 16:58 27.04.2020
5003 Clouds 27 1011 74 10000 2.1 170 16:39 27.04.2020
5004 Clouds 27 1011 74 10000 2.1 170 16:39 27.04.2020
5005 Clouds 27 1011 78 10000 1.5 70 16:20 27.04.2020
5006 Clouds 25 1011 78 10000 1.5 70 15:56 27.04.2020
5007 Clouds 27 1011 74 10000 1 40 15:38 27.04.2020
5008 Clouds 27 1011 74 10000 2.1 50 15:18 27.04.2020
5009 Clouds 27 1011 74 10000 1.5 50 14:42 27.04.2020
5010 Clouds 27 1011 74 10000 1.5 50 14:23 27.04.2020
5011 Clouds 27 1010 69 10000 2.1 50 13:59 27.04.2020
5012 Clouds 28 1010 69 10000 2.1 50 13:59 27.04.2020
5013 Clouds 28 1010 65 10000 2.6 40 13:41 27.04.2020
5014 Clouds 28 1010 62 10000 3.1 30 13:20 27.04.2020
5015 Clouds 29 1010 62 10000 3.1 30 12:56 27.04.2020
5016 Clouds 29 1009 66 10000 3.1 30 12:38 27.04.2020
5017 Clouds 29 1009 58 10000 3.6 30 12:19 27.04.2020
5018 Clouds 30 1009 52 10000 3.6 30 11:41 27.04.2020
5019 Clouds 31 1008 36 10000 3.1 80 11:19 27.04.2020
5020 Clouds 32 1008 36 10000 3.1 80 10:57 27.04.2020
5021 Clouds 33 1008 32 10000 4.1 90 10:38 27.04.2020
5022 Clouds 33 1008 32 10000 4.6 90 10:19 27.04.2020
5023 Clouds 34 1008 28 10000 4.6 100 09:43 27.04.2020
5024 Clouds 34 1008 28 10000 4.6 100 09:43 27.04.2020
5025 Clouds 34 1008 28 10000 4.1 110 09:19 27.04.2020
5026 Clouds 34 1008 28 10000 4.1 110 08:57 27.04.2020
5027 Clouds 35 1008 28 10000 6.7 60 08:38 27.04.2020
5028 Clouds 34 1008 30 10000 6.7 140 08:19 27.04.2020
5029 Clouds 35 1008 26 10000 6.2 100 07:44 27.04.2020
5030 Clouds 34 1009 28 10000 6.2 80 07:20 27.04.2020
5031 Clouds 34 1009 28 10000 5.1 80 06:47 27.04.2020
5032 Clouds 34 1009 28 10000 5.1 80 06:25 27.04.2020
5033 Clouds 34 1010 31 10000 5.7 80 05:49 27.04.2020
5034 Clouds 34 1011 31 10000 5.7 70 04:41 27.04.2020
5035 Clouds 33 1012 31 10000 4.1 80 03:49 27.04.2020
5036 Clouds 30 1012 66 10000 2.6 110 02:48 27.04.2020
5037 Clouds 29 1012 74 10000 1.5 80 01:34 27.04.2020
5038 Clouds 28 1011 78 10000 1.5 60 00:57 27.04.2020
5039 Clouds 25 1011 88 10000 1.5 70 00:20 27.04.2020
5040 Clouds 25 1011 94 10000 1 70 23:56 26.04.2020
5041 Clouds 24 1011 94 10000 1.5 80 23:37 26.04.2020
5042 Clouds 25 1010 88 10000 1.5 80 23:19 26.04.2020
5043 Clouds 25 1010 88 10000 1.5 80 22:58 26.04.2020
5044 Clouds 25 1010 88 10000 1 90 22:39 26.04.2020
5045 Clouds 26 1010 88 10000 1 90 22:19 26.04.2020
5046 Clouds 26 1010 83 10000 0.5 90 21:57 26.04.2020
5047 Clouds 26 1010 88 10000 1 50 21:37 26.04.2020
5048 Clouds 25 1010 88 10000 2.18 86 21:18 26.04.2020
5049 Clouds 25 1010 88 10000 0.5 50 20:42 26.04.2020
5050 Clouds 26 1010 88 10000 0.5 50 20:23 26.04.2020
5051 Clouds 26 1010 88 10000 2.18 86 19:59 26.04.2020
5052 Clouds 25 1010 88 10000 0.5 50 19:38 26.04.2020
5053 Clouds 25 1010 88 10000 0.5 50 19:38 26.04.2020
5054 Clouds 26 1011 83 10000 1 50 19:20 26.04.2020
5055 Clouds 26 1011 83 10000 1 40 18:57 26.04.2020
5056 Clouds 26 1011 83 10000 1 40 18:39 26.04.2020
5057 Clouds 26 1011 83 10000 1 40 18:21 26.04.2020
5058 Clouds 27 1011 88 10000 1 300 17:42 26.04.2020
5059 Clouds 27 1011 78 10000 1.5 240 17:22 26.04.2020
5060 Clouds 27 1011 78 10000 1.5 240 16:55 26.04.2020
5061 Clouds 27 1011 78 10000 1.5 240 16:37 26.04.2020
5062 Clouds 27 1011 74 10000 1 250 16:18 26.04.2020
5063 Clouds 28 1011 74 10000 1 250 15:55 26.04.2020
5064 Clouds 28 1011 70 10000 2.1 230 15:36 26.04.2020
5065 Clear 28 1011 70 10000 2.1 240 15:18 26.04.2020
5066 Clear 28 1011 70 10000 2.1 260 14:40 26.04.2020
5067 Clear 28 1010 70 10000 1 270 14:19 26.04.2020
5068 Clear 28 1010 70 10000 1 270 13:58 26.04.2020
5069 Clear 28 1010 74 10000 1 320 13:39 26.04.2020
5070 Clear 28 1010 74 10000 1 320 13:21 26.04.2020
5071 Clear 28 1009 66 10000 1.5 330 12:55 26.04.2020
5072 Clear 28 1009 66 10000 1.5 330 12:37 26.04.2020
5073 Clouds 29 1009 66 10000 2.1 340 12:18 26.04.2020
5074 Clouds 29 1009 66 10000 3.1 350 11:44 26.04.2020
5075 Clouds 30 1009 66 10000 3.1 350 11:23 26.04.2020
5076 Clouds 31 1008 58 10000 2.6 340 10:59 26.04.2020
5077 Clouds 31 1008 55 10000 3.1 340 10:41 26.04.2020
5078 Clouds 32 1008 55 10000 3.1 340 10:23 26.04.2020
5079 Clouds 32 1008 55 10000 3.6 350 09:57 26.04.2020
5080 Clouds 32 1008 55 10000 3.6 350 09:37 26.04.2020
5081 Clouds 32 1008 55 10000 3.6 340 09:19 26.04.2020
5082 Clouds 33 1008 55 10000 4.1 330 08:41 26.04.2020
5083 Clouds 33 1008 55 10000 4.1 330 08:41 26.04.2020
5084 Clouds 33 1008 55 10000 4.1 330 08:22 26.04.2020
5085 Clouds 34 1008 52 10000 5.1 290 07:48 26.04.2020
5086 Clouds 35 1008 52 10000 5.1 290 07:24 26.04.2020
5087 Clouds 34 1009 41 10000 3.1 20 06:47 26.04.2020
5088 Clouds 34 1009 41 10000 3.1 20 06:23 26.04.2020
5089 Clouds 33 1010 43 10000 2.6 70 05:49 26.04.2020
5090 Clouds 34 1010 43 10000 2.6 70 05:30 26.04.2020
5091 Clouds 33 1011 43 10000 3.1 90 04:39 26.04.2020
5092 Clouds 33 1012 52 10000 3.1 90 03:40 26.04.2020
5093 Clouds 31 1012 58 10000 2.1 100 02:37 26.04.2020
5094 Clouds 30 1012 70 10000 2.6 80 02:19 26.04.2020
5095 Clouds 30 1012 70 10000 1.5 100 01:36 26.04.2020
5096 Clouds 26 1011 88 10000 2.93 94 00:41 26.04.2020
5097 Clouds 25 1011 94 10000 0.5 110 00:21 26.04.2020
5098 Clouds 25 1011 94 10000 0.5 110 23:56 25.04.2020
5099 Fog 25 1011 94 10000 1 110 23:37 25.04.2020
5100 Clouds 25 1010 88 10000 1.45 93 23:18 25.04.2020
5101 Clouds 25 1010 88 10000 0.5 110 22:42 25.04.2020
5102 Rain 25 1011 88 10000 1 110 22:20 25.04.2020
5103 Rain 26 1011 88 10000 1 110 21:58 25.04.2020
5104 Rain 26 1011 88 10000 2.1 70 21:39 25.04.2020
5105 Clouds 25 1011 88 10000 1.5 60 21:19 25.04.2020
5106 Rain 26 1011 88 10000 1 50 20:43 25.04.2020
5107 Rain 26 1011 83 10000 1 20 20:23 25.04.2020
5108 Rain 26 1011 83 10000 1 20 19:59 25.04.2020
5109 Clouds 26 1011 83 10000 1 10 19:39 25.04.2020
5110 Clouds 27 1011 83 10000 1 10 19:21 25.04.2020
5111 Clouds 27 1011 83 10000 1.46 87 18:56 25.04.2020
5112 Rain 26 1011 83 10000 1.46 87 18:37 25.04.2020
5113 Clouds 26 1011 83 10000 1.09 227 18:18 25.04.2020
5114 Clouds 26 1011 83 10000 1.09 227 17:55 25.04.2020
5115 Clouds 27 1011 83 10000 1.09 227 17:36 25.04.2020
5116 Clouds 27 1011 83 10000 1.09 227 17:18 25.04.2020
5117 Clouds 26 1011 83 10000 0.5 270 16:43 25.04.2020
5118 Clouds 26 1011 83 10000 0.5 270 16:25 25.04.2020
5119 Clouds 27 1011 83 10000 1 270 15:58 25.04.2020
5120 Clouds 27 1011 78 10000 1.5 280 15:38 25.04.2020
5121 Clouds 27 1011 74 10000 1.5 260 15:19 25.04.2020
5122 Clouds 27 1011 74 10000 1.5 260 15:19 25.04.2020
5123 Clouds 28 1011 74 10000 1.5 260 14:56 25.04.2020
5124 Clouds 27 1011 70 10000 2.1 250 14:37 25.04.2020
5125 Clouds 29 1011 70 10000 2.1 250 14:18 25.04.2020
5126 Clouds 29 1010 62 10000 1.5 250 13:41 25.04.2020
5127 Clouds 28 1010 66 10000 1 310 13:19 25.04.2020
5128 Clouds 28 1010 66 10000 1 310 12:57 25.04.2020
5129 Clouds 28 1009 66 10000 1.5 330 12:38 25.04.2020
5130 Clear 30 1009 62 10000 1.5 330 12:19 25.04.2020
5131 Clear 30 1009 58 10000 2.6 330 11:43 25.04.2020
5132 Clear 30 1009 58 10000 2.6 330 11:25 25.04.2020
5133 Clear 31 1009 58 10000 3.6 10 10:59 25.04.2020
5134 -273 0 0 0 0 0 10:59 25.04.2020
5135 Clear 31 1009 55 10000 4.1 10 10:41 25.04.2020
5136 Clear 31 1009 55 10000 4.1 10 10:21 25.04.2020
5137 Clear 32 1008 52 10000 5.7 340 09:45 25.04.2020
5138 Clear 33 1008 52 10000 5.7 340 09:26 25.04.2020
5139 Clear 34 1008 44 10000 5.7 330 08:57 25.04.2020
5140 Clear 34 1008 38 10000 5.1 50 08:38 25.04.2020
5141 Clear 35 1008 38 10000 5.1 50 08:20 25.04.2020
5142 Clear 35 1009 36 10000 4.1 90 07:45 25.04.2020
5143 Clear 35 1009 36 10000 4.1 90 07:24 25.04.2020
5144 Clouds 34 1009 36 10000 3.6 100 06:44 25.04.2020
5145 Clouds 34 1010 41 10000 5.7 90 05:56 25.04.2020
5146 Clouds 34 1010 38 10000 6.2 90 05:31 25.04.2020
5147 Clouds 33 1011 43 10000 4.6 100 04:42 25.04.2020
5148 Clouds 31 1012 55 10000 5.1 100 02:59 25.04.2020
5149 Clouds 30 1012 66 10000 4.1 90 02:20 25.04.2020
5150 Clouds 29 1012 66 10000 4.1 90 01:51 25.04.2020
5151 Clouds 29 1012 70 10000 3.1 90 01:27 25.04.2020
5152 Clouds 27 1011 78 10000 2.1 110 00:50 25.04.2020
5153 Clouds 26 1011 88 10000 2.1 150 00:31 25.04.2020
5154 Clouds 25 1011 88 10000 2.6 110 23:44 24.04.2020
5155 Clouds 26 1011 88 10000 2.6 110 23:23 24.04.2020
5156 Clouds 26 1011 88 10000 2.6 100 22:56 24.04.2020
5157 Clouds 26 1011 88 10000 2.6 100 22:56 24.04.2020
5158 Clouds 26 1011 88 10000 2.1 110 22:38 24.04.2020
5159 Clouds 26 1011 88 10000 2.1 130 22:19 24.04.2020
5160 Clouds 26 1011 88 10000 2.1 130 21:55 24.04.2020
5161 Clouds 26 1011 88 10000 1.5 130 21:36 24.04.2020
5162 Rain 26 1011 83 10000 2.1 100 21:18 24.04.2020
5163 Rain 26 1011 83 10000 2.1 100 20:54 24.04.2020
5164 Rain 26 1011 83 10000 1 50 20:36 24.04.2020
5165 Rain 26 1011 83 10000 2.1 50 20:18 24.04.2020
5166 Rain 26 1011 83 10000 2.1 50 19:39 24.04.2020
5167 Rain 26 1011 83 10000 2.1 50 19:20 24.04.2020
5168 Rain 26 1012 83 10000 3.1 50 18:44 24.04.2020
5169 Rain 27 1012 83 10000 3.1 50 18:25 24.04.2020
5170 Rain 27 1012 83 10000 2.6 50 17:55 24.04.2020
5171 Rain 27 1012 78 10000 2.6 50 17:37 24.04.2020
5172 Clouds 28 1012 78 10000 2.6 50 17:18 24.04.2020
5173 Clouds 28 1012 78 10000 2.6 50 16:56 24.04.2020
5174 Rain 28 1012 78 10000 3.1 50 16:38 24.04.2020
5175 Rain 28 1012 78 10000 2.1 50 16:20 24.04.2020
5176 Rain 28 1011 78 10000 2.1 40 15:41 24.04.2020
5177 Clouds 28 1011 78 10000 2.1 40 15:20 24.04.2020
5178 Clouds 28 1011 78 10000 1.5 40 14:41 24.04.2020
5179 Clouds 28 1011 78 10000 1.5 40 14:22 24.04.2020
5180 Clouds 28 1011 78 10000 2.6 40 13:59 24.04.2020
5181 Clouds 28 1010 70 10000 2.6 30 13:41 24.04.2020
5182 Clouds 28 1010 70 10000 2.6 30 13:21 24.04.2020
5183 Clouds 29 1010 70 10000 2.6 30 12:58 24.04.2020
5184 Clouds 29 1010 70 10000 3.1 30 12:39 24.04.2020
5185 Clouds 29 1009 66 10000 3.6 30 12:19 24.04.2020
5186 Clouds 30 1009 66 10000 4.6 30 11:43 24.04.2020
5187 Clouds 30 1009 66 10000 4.6 30 11:22 24.04.2020
5188 Clouds 31 1009 59 10000 4.6 30 10:57 24.04.2020
5189 Clouds 32 1008 52 10000 4.6 50 10:38 24.04.2020
5190 Clouds 32 1008 52 10000 4.6 50 10:20 24.04.2020
5191 Clouds 34 1008 44 10000 4.1 70 09:55 24.04.2020
5192 Clouds 34 1008 41 10000 5.7 80 09:36 24.04.2020
5193 Clouds 34 1008 44 10000 5.1 80 09:18 24.04.2020
5194 Clouds 34 1009 41 10000 5.1 80 08:42 24.04.2020
5195 Clouds 34 1009 41 10000 5.1 80 08:20 24.04.2020
5196 Clouds 34 1009 41 10000 5.1 110 07:56 24.04.2020
5197 Clouds 34 1009 41 10000 5.1 110 07:56 24.04.2020
5198 Clouds 34 1009 44 10000 6.2 80 07:38 24.04.2020
5199 Clouds 34 1010 43 10000 4.6 90 07:19 24.04.2020
5200 Clouds 34 1010 46 10000 5.1 90 06:42 24.04.2020
5201 Clouds 33 1010 43 10000 4.6 90 05:51 24.04.2020
5202 Clouds 32 1011 49 10000 5.7 80 05:20 24.04.2020
5203 Clouds 32 1012 48 10000 5.7 90 03:34 24.04.2020
5204 Clouds 30 1012 58 10000 6.7 90 02:50 24.04.2020
5205 Clouds 30 1012 58 10000 6.7 90 02:30 24.04.2020
5206 Clouds 29 1012 74 10000 4.1 90 01:46 24.04.2020
5207 Clouds 26 1012 78 10000 2.6 110 00:50 24.04.2020
5208 Clouds 25 1011 94 10000 2.1 100 00:19 24.04.2020
5209 Clouds 24 1011 88 10000 1.5 100 23:46 23.04.2020
5210 Clouds 24 1011 88 10000 1.5 100 23:27 23.04.2020
5211 Clouds 25 1010 88 10000 1.5 110 22:58 23.04.2020
5212 Clouds 25 1010 88 10000 1.5 130 22:39 23.04.2020
5213 Clouds 25 1010 88 10000 1.5 130 22:39 23.04.2020
5214 Clouds 25 1010 88 10000 1.5 130 22:20 23.04.2020
5215 Clouds 25 1010 88 10000 2.1 140 21:57 23.04.2020
5216 Clouds 25 1010 88 10000 2.1 140 21:57 23.04.2020
5217 Clouds 25 1010 78 10000 2.6 130 21:39 23.04.2020
5218 Clouds 25 1010 78 10000 2.6 130 21:20 23.04.2020
5219 Clouds 25 1010 78 10000 2.6 130 21:20 23.04.2020
5220 Clouds 25 1010 83 10000 2.6 130 20:57 23.04.2020
5221 Clouds 26 1010 83 10000 2.1 130 20:39 23.04.2020
5222 Clouds 25 1010 83 10000 2.1 140 20:19 23.04.2020
5223 Clouds 26 1010 83 10000 2.1 140 19:56 23.04.2020
5224 Clouds 26 1011 83 10000 2.1 140 19:38 23.04.2020
5225 Clouds 26 1011 78 10000 1.5 110 19:19 23.04.2020
5226 Clouds 26 1011 78 10000 1.5 110 19:19 23.04.2020
5227 Clouds 26 1011 78 10000 1.5 80 18:41 23.04.2020
5228 Clouds 27 1011 78 10000 1.5 80 18:23 23.04.2020
5229 Clouds 27 1011 78 10000 2.1 80 17:58 23.04.2020
5230 Clouds 26 1011 78 10000 2.1 70 17:39 23.04.2020
5231 Clouds 26 1011 78 10000 2.1 70 17:21 23.04.2020
5232 Clouds 27 1011 83 10000 1.5 70 16:56 23.04.2020
5233 Clouds 27 1011 78 10000 1.5 70 16:38 23.04.2020
5234 Clouds 26 1011 83 10000 1.5 40 16:18 23.04.2020
5235 Clouds 27 1011 78 10000 1.5 40 15:42 23.04.2020
5236 Clouds 27 1011 78 10000 1.5 40 15:22 23.04.2020
5237 Clouds 28 1011 74 10000 1.5 40 14:56 23.04.2020
5238 Clouds 28 1011 74 10000 3.1 40 14:37 23.04.2020
5239 Clouds 28 1011 74 10000 3.1 40 14:19 23.04.2020
5240 Clouds 29 1011 66 10000 3.1 40 13:41 23.04.2020
5241 Clouds 29 1011 66 10000 3.1 40 13:22 23.04.2020
5242 Clouds 29 1010 66 10000 3.1 40 12:59 23.04.2020
5243 Clouds 29 1010 66 10000 4.1 40 12:41 23.04.2020
5244 Clouds 29 1010 66 10000 4.1 40 12:23 23.04.2020
5245 Clouds 29 1010 66 10000 5.1 40 11:47 23.04.2020
5246 Clouds 30 1010 66 10000 5.1 40 11:28 23.04.2020
5247 Clouds 30 1009 62 10000 5.7 20 10:59 23.04.2020
5248 Clouds 31 1009 59 10000 4.6 20 10:41 23.04.2020
5249 Clouds 31 1009 59 10000 4.6 20 10:20 23.04.2020
5250 Clouds 34 1009 34 10000 6.7 90 09:41 23.04.2020
5251 Clouds 34 1009 34 10000 6.7 90 09:20 23.04.2020
5252 Clouds 35 1009 32 10000 7.2 90 08:54 23.04.2020
5253 Clouds 35 1009 32 10000 7.2 90 08:36 23.04.2020
5254 Clouds 35 1009 34 10000 6.7 120 08:18 23.04.2020
5255 Clouds 35 1009 32 10000 7.7 130 07:41 23.04.2020
5256 Clouds 35 1009 32 10000 7.7 130 07:22 23.04.2020
5257 Clouds 34 1010 34 10000 7.7 90 06:46 23.04.2020
5258 Clear 34 1011 34 10000 7.2 120 05:56 23.04.2020
5259 Clear 34 1012 38 10000 5.1 90 05:22 23.04.2020
5260 Clear 34 1012 43 10000 5.1 90 04:50 23.04.2020
5261 Clouds 31 1013 62 10000 1.5 180 02:24 23.04.2020
5262 Clouds 29 1013 70 10000 2.6 180 01:41 23.04.2020
5263 Clouds 29 1012 74 10000 2.1 190 01:18 23.04.2020
5264 Clouds 28 1012 83 10000 2.1 180 00:36 23.04.2020
5265 Clouds 28 1012 88 10000 2.1 190 00:18 23.04.2020
5266 Clouds 27 1012 78 10000 1.5 200 23:42 22.04.2020
5267 Clouds 27 1012 78 10000 1.5 200 23:22 22.04.2020
5268 Clouds 27 1012 88 10000 1 180 22:54 22.04.2020
5269 Clouds 27 1012 83 10000 1 170 22:36 22.04.2020
5270 Clouds 27 1012 88 10000 1 170 22:18 22.04.2020
5271 Clouds 27 1012 88 10000 1 170 21:54 22.04.2020
5272 Clouds 26 1012 83 10000 0.5 130 21:36 22.04.2020
5273 Clouds 26 1012 88 10000 2.53 116 21:18 22.04.2020
5274 Clouds 26 1011 88 10000 2.53 116 20:43 22.04.2020
5275 Clouds 26 1012 88 10000 1 120 20:19 22.04.2020
5276 Clouds 25 1012 88 10000 1 120 19:57 22.04.2020
5277 Clouds 25 1012 88 10000 1.5 120 19:38 22.04.2020
5278 Clouds 25 1012 88 10000 1.5 120 19:38 22.04.2020
5279 Clouds 25 1012 88 10000 1.5 80 19:18 22.04.2020
5280 Clouds 25 1012 88 10000 1.5 80 18:58 22.04.2020
5281 Clouds 25 1012 94 10000 1.5 140 18:40 22.04.2020
5282 Clouds 26 1012 94 10000 1.5 140 18:21 22.04.2020
5283 Clouds 26 1012 88 10000 1 90 17:44 22.04.2020
5284 Clouds 26 1012 88 10000 1 110 17:26 22.04.2020
5285 Clouds 25 1012 88 10000 1 110 16:58 22.04.2020
5286 Clouds 25 1012 88 10000 1 110 16:58 22.04.2020
5287 Clouds 26 1012 88 10000 0.5 350 16:40 22.04.2020
5288 Clouds 25 1012 88 10000 0.94 138 16:21 22.04.2020
5289 Clouds 26 1012 88 10000 0.94 138 15:41 22.04.2020
5290 Clouds 26 1012 88 10000 0.13 124 15:22 22.04.2020
5291 Clouds 27 1012 83 10000 0.13 124 14:58 22.04.2020
5292 Clouds 28 1012 78 10000 0.13 124 14:38 22.04.2020
5293 Clouds 27 1012 78 10000 0.45 234 14:20 22.04.2020
5294 Clouds 28 1012 74 10000 1 340 13:55 22.04.2020
5295 Clouds 29 1011 74 10000 1.5 350 13:37 22.04.2020
5296 Clouds 29 1011 70 10000 1 310 13:19 22.04.2020
5297 Clouds 28 1010 66 10000 1.5 310 12:40 22.04.2020
5298 Clouds 29 1010 66 10000 1.5 310 12:22 22.04.2020
5299 Clouds 30 1010 62 10000 2.6 330 11:41 22.04.2020
5300 Clouds 30 1010 62 10000 2.6 330 11:22 22.04.2020
5301 Clouds 31 1009 66 10000 3.1 340 10:59 22.04.2020
5302 Clouds 31 1009 62 10000 3.6 340 10:39 22.04.2020
5303 Clouds 31 1009 62 10000 3.6 340 10:20 22.04.2020
5304 Clouds 32 1009 55 10000 4.1 330 09:39 22.04.2020
5305 Clouds 33 1009 55 10000 4.1 330 09:21 22.04.2020
5306 Clouds 33 1009 59 10000 5.1 350 08:58 22.04.2020
5307 Clouds 33 1009 62 10000 4.6 340 08:40 22.04.2020
5308 Clouds 33 1009 62 10000 4.6 340 08:21 22.04.2020
5309 Clouds 34 1009 55 10000 4.1 350 07:53 22.04.2020
5310 Rain 34 1009 44 10000 3.6 50 07:28 22.04.2020
5311 Clouds 34 1010 44 10000 2.6 100 06:53 22.04.2020
5312 Clouds 34 1010 44 10000 2.6 100 06:53 22.04.2020
5313 Clouds 34 1010 44 10000 2.6 90 06:21 22.04.2020
5314 Clouds 34 1011 46 10000 2.1 60 05:37 22.04.2020
5315 Clouds 33 1012 49 10000 1 100 04:30 22.04.2020
5316 Clouds 31 1013 66 10000 2.6 90 02:51 22.04.2020
5317 Clouds 30 1013 79 10000 2.1 110 01:53 22.04.2020
5318 Clouds 29 1013 83 10000 2.1 140 01:27 22.04.2020
5319 Clouds 27 1013 88 10000 2.1 130 00:57 22.04.2020
5320 Clouds 26 1012 94 10000 2.37 94 00:37 22.04.2020
5321 Clouds 26 1012 94 10000 2.37 94 00:37 22.04.2020
5322 Clouds 26 1012 94 10000 0.5 200 00:19 22.04.2020
5323 Clouds 25 1011 94 10000 1 200 23:41 21.04.2020
5324 Clouds 26 1011 94 10000 1 200 23:19 21.04.2020
5325 Clouds 26 1011 94 10000 1.5 200 22:41 21.04.2020
5326 Clouds 26 1011 94 10000 1.5 200 22:22 21.04.2020
5327 Clouds 26 1011 94 10000 1.31 60 21:59 21.04.2020
5328 Clouds 26 1011 94 10000 1.31 60 21:59 21.04.2020
5329 Clouds 26 1011 94 10000 1.31 60 21:59 21.04.2020
5330 Clouds 25 1010 94 10000 1.31 60 21:41 21.04.2020
5331 Clear 26 1010 100 10000 1.08 110 21:23 21.04.2020
5332 Clear 26 1010 100 10000 1.13 120 20:57 21.04.2020
5333 Clear 26 1011 94 10000 0.5 200 20:39 21.04.2020
5334 Clear 26 1011 94 10000 0.5 200 20:21 21.04.2020
5335 Clear 27 1011 88 10000 2.1 190 19:41 21.04.2020
5336 Clear 27 1011 88 10000 2.1 190 19:20 21.04.2020
5337 Clouds 28 1012 88 10000 1.5 190 18:58 21.04.2020
5338 Clouds 28 1012 88 10000 1.5 190 18:39 21.04.2020
5339 Clear 28 1012 88 10000 1.5 200 18:19 21.04.2020
5340 Clear 28 1012 88 10000 1.5 200 17:57 21.04.2020
5341 Clear 27 1012 88 10000 1 240 17:38 21.04.2020
5342 Clouds 28 1012 88 10000 1.5 230 17:19 21.04.2020
5343 Clouds 29 1012 83 10000 1.5 230 16:39 21.04.2020
5344 Clouds 29 1012 79 10000 2.1 240 16:19 21.04.2020
5345 Clouds 29 1012 79 10000 2.1 240 16:19 21.04.2020
5346 Clouds 29 1012 79 10000 2.1 240 15:58 21.04.2020
5347 Clear 29 1012 83 10000 2.1 230 15:40 21.04.2020
5348 Clear 29 1012 83 10000 2.1 230 15:22 21.04.2020
5349 Clouds 29 1012 79 10000 2.6 240 14:58 21.04.2020
5350 Clouds 29 1012 79 10000 0.81 20 14:39 21.04.2020
5351 Clouds 29 1012 79 10000 0.81 20 14:21 21.04.2020
5352 Clouds 30 1011 74 10000 1.5 310 13:42 21.04.2020
5353 Clouds 30 1011 74 10000 1.5 310 13:23 21.04.2020
5354 Clouds 30 1011 74 10000 1.5 360 12:58 21.04.2020
5355 Clouds 30 1010 74 10000 2.1 360 12:37 21.04.2020
5356 Clouds 30 1010 70 10000 2.6 360 12:19 21.04.2020
5357 Clouds 30 1010 70 10000 2.6 360 11:56 21.04.2020
5358 Clouds 30 1010 70 10000 2.6 340 11:37 21.04.2020
5359 Clouds 31 1009 66 10000 3.6 350 11:18 21.04.2020
5360 Clouds 31 1009 66 10000 3.6 350 10:56 21.04.2020
5361 Clouds 32 1009 66 10000 4.1 350 10:38 21.04.2020
5362 Clouds 32 1009 63 10000 4.6 350 10:20 21.04.2020
5363 Clouds 32 1009 66 10000 4.6 340 09:38 21.04.2020
5364 Clouds 33 1009 66 10000 4.6 340 09:20 21.04.2020
5365 Clouds 34 1009 63 10000 4.1 330 08:58 21.04.2020
5366 Clouds 34 1009 63 10000 4.1 330 08:58 21.04.2020
5367 Clouds 34 1009 66 10000 4.1 340 08:39 21.04.2020
5368 Clouds 33 1009 66 10000 4.6 340 08:19 21.04.2020
5369 Clouds 34 1009 59 10000 4.1 350 07:45 21.04.2020
5370 Clouds 33 1010 70 10000 4.1 320 07:23 21.04.2020
5371 Clouds 34 1010 63 10000 4.6 330 06:49 21.04.2020
5372 Clouds 33 1011 63 10000 5.1 10 06:20 21.04.2020
5373 Clouds 33 1011 55 10000 3.1 90 05:49 21.04.2020
5374 Clouds 33 1013 59 10000 3.1 40 04:21 21.04.2020
5375 Clouds 32 1013 66 10000 2.6 70 03:44 21.04.2020
5376 Clouds 29 1013 83 10000 1.5 90 01:46 21.04.2020
5377 Clouds 29 1013 83 10000 1.5 90 01:25 21.04.2020
5378 Rain 27 1012 88 10000 2.6 130 00:37 21.04.2020
5379 Clouds 27 1012 88 10000 2.6 140 23:45 20.04.2020
5380 Clouds 27 1012 88 10000 2.6 140 23:25 20.04.2020
5381 Clouds 27 1012 88 10000 2.1 130 22:58 20.04.2020
5382 Clouds 27 1012 88 10000 2.1 140 22:39 20.04.2020
5383 Clouds 27 1011 94 10000 0.5 350 22:20 20.04.2020
5384 Clouds 27 1012 88 10000 2.1 140 22:20 20.04.2020
5385 Clouds 27 1011 94 10000 0.5 350 21:57 20.04.2020
5386 Clouds 27 1012 88 10000 2.16 102 21:39 20.04.2020
5387 Clouds 27 1012 94 10000 2.01 71 21:19 20.04.2020
5388 Clouds 27 1012 94 10000 2.01 71 20:58 20.04.2020
5389 Rain 27 1012 94 10000 1 350 20:38 20.04.2020
5390 Rain 27 1012 94 10000 1 350 20:18 20.04.2020
5391 Rain 27 1012 94 10000 1 350 20:18 20.04.2020
5392 Rain 27 1012 94 10000 1 350 19:58 20.04.2020
5393 Clouds 27 1012 94 10000 2.1 330 19:39 20.04.2020
5394 Rain 27 1012 94 10000 1.5 360 19:19 20.04.2020
5395 Clouds 27 1012 88 10000 1.5 360 18:43 20.04.2020
5396 Clouds 27 1012 88 10000 1.5 360 18:23 20.04.2020
5397 Clouds 27 1012 83 10000 1 190 17:56 20.04.2020
5398 Rain 27 1012 83 10000 2.08 40 17:38 20.04.2020
5399 Rain 27 1012 83 10000 1 360 17:19 20.04.2020
5400 Rain 27 1012 83 10000 1 360 16:59 20.04.2020
5401 Rain 29 1012 79 10000 2.1 10 16:39 20.04.2020
5402 Rain 29 1012 79 10000 2.1 20 16:19 20.04.2020
5403 Rain 29 1012 79 10000 3.1 30 15:45 20.04.2020
5404 Rain 29 1012 79 10000 3.1 30 15:24 20.04.2020
5405 Rain 28 1012 79 10000 3.1 30 14:58 20.04.2020
5406 Rain 29 1012 79 10000 2.6 30 14:40 20.04.2020
5407 Rain 29 1012 79 10000 2.6 30 14:19 20.04.2020
5408 Rain 29 1012 79 10000 2.6 30 13:56 20.04.2020
5409 Rain 29 1012 74 10000 3.1 40 13:37 20.04.2020
5410 Rain 29 1011 70 10000 3.1 30 13:19 20.04.2020
5411 Clouds 30 1011 70 10000 3.1 30 12:42 20.04.2020
5412 Clouds 30 1011 70 10000 3.1 30 12:21 20.04.2020
5413 Clouds 30 1010 66 10000 4.1 20 11:42 20.04.2020
5414 Clouds 30 1010 66 10000 4.1 20 11:22 20.04.2020
5415 Clouds 31 1009 66 10000 4.6 30 10:57 20.04.2020
5416 Clouds 32 1009 62 10000 5.1 20 10:39 20.04.2020
5417 Clouds 32 1009 62 10000 4.6 40 10:20 20.04.2020
5418 Clouds 32 1009 62 10000 4.6 40 09:59 20.04.2020
5419 Clouds 32 1009 62 10000 4.6 30 09:40 20.04.2020
5420 Clouds 32 1009 62 10000 4.6 30 09:21 20.04.2020
5421 Clouds 33 1009 55 10000 5.7 350 08:42 20.04.2020
5422 Clouds 33 1009 55 10000 5.7 350 08:23 20.04.2020
5423 Clouds 33 1009 55 10000 5.1 360 07:56 20.04.2020
5424 Clouds 33 1009 59 10000 5.1 350 07:37 20.04.2020
5425 Clouds 34 1010 49 10000 4.6 350 07:19 20.04.2020
5426 Clouds 34 1010 49 10000 4.6 350 07:19 20.04.2020
5427 Clouds 34 1010 46 10000 3.6 60 06:37 20.04.2020
5428 Clouds 33 1011 52 10000 4.1 320 05:48 20.04.2020
5429 Clouds 34 1013 52 10000 4.1 320 04:46 20.04.2020
5430 Clouds 30 1013 70 10000 2.1 90 02:48 20.04.2020
5431 Clouds 30 1013 70 10000 2.1 90 02:26 20.04.2020
5432 Clouds 29 1013 74 10000 2.1 110 01:29 20.04.2020
5433 Clouds 27 1012 88 10000 1.5 110 00:44 20.04.2020
5434 Clouds 26 1012 88 10000 1.5 110 00:20 20.04.2020
5435 Clouds 25 1011 94 10000 2.1 150 23:39 19.04.2020
5436 Clouds 25 1011 94 10000 2.1 150 23:21 19.04.2020
5437 Clouds 25 1011 94 10000 2.1 130 22:55 19.04.2020
5438 Clouds 25 1011 94 10000 2.1 130 22:55 19.04.2020
5439 Clouds 25 1010 94 10000 1.5 120 22:37 19.04.2020
5440 Clouds 26 1010 94 10000 2.1 140 22:19 19.04.2020
5441 Clear 26 1010 88 10000 1.5 140 21:42 19.04.2020
5442 Rain 26 1010 88 10000 1.5 140 21:23 19.04.2020
5443 Rain 26 1011 88 10000 1.5 120 20:57 19.04.2020
5444 Rain 26 1011 88 10000 2.1 140 20:39 19.04.2020
5445 Rain 26 1011 88 10000 2.1 140 20:20 19.04.2020
5446 Rain 26 1011 88 10000 2.6 150 19:56 19.04.2020
5447 Rain 26 1011 88 10000 1.5 180 19:38 19.04.2020
5448 Rain 26 1011 88 10000 1 70 19:19 19.04.2020
5449 Rain 26 1011 88 10000 1 70 18:55 19.04.2020
5450 Rain 26 1011 88 10000 1 70 18:36 19.04.2020
5451 Clouds 26 1012 88 10000 1 60 18:18 19.04.2020
5452 Clouds 26 1012 88 10000 1 60 17:55 19.04.2020
5453 Clouds 27 1012 88 10000 0.5 60 17:37 19.04.2020
5454 Clouds 27 1012 88 10000 1 60 17:19 19.04.2020
5455 Clouds 27 1012 88 10000 1 40 16:40 19.04.2020
5456 Clouds 27 1012 88 10000 1 40 16:21 19.04.2020
5457 Clouds 27 1012 88 10000 0.81 75 15:58 19.04.2020
5458 Clouds 27 1012 88 10000 0.81 75 15:58 19.04.2020
5459 Clouds 27 1012 94 10000 0.5 280 15:39 19.04.2020
5460 Clouds 28 1012 88 10000 1 280 15:18 19.04.2020
5461 Clouds 29 1012 79 10000 1 260 14:39 19.04.2020
5462 Clouds 29 1012 79 10000 1 260 14:21 19.04.2020
5463 Clouds 29 1012 79 10000 1 260 14:21 19.04.2020
5464 Clouds 29 1012 83 10000 1 320 13:57 19.04.2020
5465 Clouds 29 1011 79 10000 1.5 300 13:36 19.04.2020
5466 Clouds 29 1011 74 10000 2.1 300 13:18 19.04.2020
5467 Clouds 30 1010 70 10000 2.6 310 12:44 19.04.2020
5468 Clouds 30 1010 70 10000 2.6 310 12:24 19.04.2020
5469 Clouds 30 1010 70 10000 2.6 330 11:54 19.04.2020
5470 Clouds 30 1009 70 10000 2.6 330 11:36 19.04.2020
5471 Clouds 30 1009 70 10000 2.6 330 11:36 19.04.2020
5472 Clouds 30 1009 66 10000 3.6 350 11:18 19.04.2020
5473 Clouds 31 1009 66 10000 3.6 350 10:41 19.04.2020
5474 Clouds 31 1009 66 10000 3.6 350 10:41 19.04.2020
5475 Clouds 31 1009 66 10000 3.6 350 10:21 19.04.2020
5476 Clouds 32 1008 62 10000 3.1 340 09:57 19.04.2020
5477 Clouds 32 1008 62 10000 3.1 320 09:39 19.04.2020
5478 Clouds 32 1008 74 10000 3.6 350 09:18 19.04.2020
5479 Rain 33 1009 66 8000 5.1 330 08:40 19.04.2020
5480 Rain 32 1009 66 8000 5.1 330 08:21 19.04.2020
5481 Clouds 33 1009 66 10000 4.6 290 07:48 19.04.2020
5482 Clouds 33 1009 66 10000 4.6 290 07:25 19.04.2020
5483 Clouds 33 1009 62 10000 3.1 300 06:57 19.04.2020
5484 Clouds 34 1010 63 10000 2.6 300 06:23 19.04.2020
5485 Clouds 33 1011 63 10000 2.6 320 05:35 19.04.2020
5486 Clouds 32 1012 66 10000 2.6 190 03:54 19.04.2020
5487 Clouds 30 1012 74 10000 1 120 02:49 19.04.2020
5488 Clouds 30 1012 79 10000 1 70 02:18 19.04.2020
5489 Clouds 28 1012 88 10000 1.5 70 01:22 19.04.2020
5490 Rain 26 1011 94 10000 1.5 70 00:41 19.04.2020
5491 Rain 26 1011 94 10000 1.5 70 00:41 19.04.2020
5492 Clouds 26 1011 94 10000 1.5 70 00:20 19.04.2020
5493 Clouds 25 1010 100 10000 1.5 40 23:43 18.04.2020
5494 Clouds 25 1010 94 10000 0.5 350 23:20 18.04.2020
5495 Clouds 25 1010 94 10000 0.5 350 22:55 18.04.2020
5496 Clouds 26 1010 94 10000 1.78 117 22:37 18.04.2020
5497 Clouds 26 1010 94 10000 1.78 117 22:19 18.04.2020
5498 Clouds 25 1010 94 10000 1.78 117 21:43 18.04.2020
5499 Rain 25 1010 94 10000 0.83 7 21:22 18.04.2020
5500 Rain 25 1010 94 10000 0.83 7 20:59 18.04.2020
5501 Clouds 26 1010 94 10000 0.5 350 20:40 18.04.2020
5502 Rain 26 1010 94 10000 0.5 350 20:21 18.04.2020
5503 Clouds 26 1010 94 10000 1 350 19:43 18.04.2020
5504 Clouds 26 1010 94 10000 1 350 19:25 18.04.2020
5505 Clouds 26 1010 88 10000 0.83 7 18:58 18.04.2020
5506 Clouds 26 1010 88 10000 1.5 240 18:36 18.04.2020
5507 Clouds 27 1011 83 10000 2.1 240 18:18 18.04.2020
5508 Clouds 27 1011 83 10000 2.1 240 17:41 18.04.2020
5509 Clouds 27 1011 83 10000 2.1 240 17:21 18.04.2020
5510 Clouds 27 1011 83 10000 3.1 230 16:56 18.04.2020
5511 Clouds 27 1011 83 10000 3.1 220 16:36 18.04.2020
5512 Clouds 27 1011 88 10000 2.6 230 16:18 18.04.2020
5513 Clouds 26 1010 83 10000 2.6 230 15:38 18.04.2020
5514 Clouds 26 1010 83 10000 2.6 230 15:38 18.04.2020
5515 Rain 27 1010 83 10000 2.6 230 15:20 18.04.2020
5516 Rain 26 1010 88 10000 0.5 60 14:44 18.04.2020
5517 Rain 26 1010 88 10000 0.5 60 14:25 18.04.2020
5518 Clouds 26 1010 88 10000 0.5 60 13:54 18.04.2020
5519 Clouds 26 1010 88 10000 1 30 13:36 18.04.2020
5520 Rain 26 1009 83 10000 2.6 190 13:18 18.04.2020
5521 Rain 25 1010 78 4000 7.2 90 12:41 18.04.2020
5522 Rain 25 1010 78 4000 7.2 90 12:22 18.04.2020
5523 Clouds 30 1009 74 10000 2.6 270 11:43 18.04.2020
5524 Clouds 30 1009 74 10000 2.6 270 11:24 18.04.2020
5525 Clouds 31 1008 70 10000 3.6 300 10:58 18.04.2020
5526 Rain 31 1008 66 10000 3.6 300 10:37 18.04.2020
5527 Clouds 32 1008 62 10000 3.6 320 10:18 18.04.2020
5528 Clouds 32 1008 62 10000 4.6 350 09:42 18.04.2020
5529 Clouds 33 1008 62 10000 4.6 350 09:23 18.04.2020
5530 Rain 34 1008 59 10000 3.1 350 08:56 18.04.2020
5531 Clouds 33 1008 62 10000 3.6 350 08:38 18.04.2020
5532 Rain 33 1008 62 10000 3.6 340 08:18 18.04.2020
5533 Clouds 33 1009 59 10000 4.1 320 07:37 18.04.2020
5534 Clouds 33 1009 59 10000 4.1 320 07:37 18.04.2020
5535 Clouds 32 1009 62 10000 3.1 290 07:19 18.04.2020
5536 Clouds 33 1010 59 10000 3.6 290 06:29 18.04.2020
5537 Clouds 31 1011 70 10000 3.6 320 05:42 18.04.2020
5538 Clouds 34 1012 66 10000 1.5 340 04:47 18.04.2020
5539 Clouds 33 1012 66 10000 1.5 340 04:27 18.04.2020
5540 Clouds 30 1013 74 10000 1.5 180 02:49 18.04.2020
5541 Clouds 31 1013 74 10000 1.5 180 02:23 18.04.2020
5542 Clouds 30 1013 79 10000 1.5 130 01:58 18.04.2020
5543 Clouds 29 1013 74 10000 2.1 140 01:35 18.04.2020
5544 Clouds 29 1013 74 10000 2.1 140 01:35 18.04.2020
5545 Clouds 27 1012 88 10000 1 130 00:47 18.04.2020
5546 Clouds 26 1012 88 10000 1 130 00:23 18.04.2020
5547 Clouds 26 1012 94 10000 1 130 23:56 17.04.2020
5548 Clouds 26 1012 94 10000 1 120 23:38 17.04.2020
5549 Clouds 26 1012 94 10000 1 120 23:18 17.04.2020
5550 Clouds 26 1012 94 10000 1 120 22:56 17.04.2020
5551 Clouds 26 1012 94 10000 1.5 120 22:37 17.04.2020
5552 Clouds 26 1012 88 10000 2.1 150 22:19 17.04.2020
5553 Clouds 26 1012 88 10000 2.1 150 21:43 17.04.2020
5554 Clouds 26 1012 88 10000 2.1 150 21:21 17.04.2020
5555 Clouds 26 1012 88 10000 2.1 150 20:58 17.04.2020
5556 Clouds 26 1011 88 10000 1 140 20:38 17.04.2020
5557 Rain 26 1011 88 10000 1 10 20:19 17.04.2020
5558 Rain 26 1011 88 10000 1 10 19:58 17.04.2020
5559 Rain 26 1011 94 10000 1.01 129 19:40 17.04.2020
5560 Rain 26 1011 94 10000 1.01 129 19:22 17.04.2020
5561 Rain 26 1012 88 10000 1.01 129 18:44 17.04.2020
5562 Rain 26 1012 88 10000 1.44 119 18:24 17.04.2020
5563 Rain 26 1012 88 10000 1.44 119 18:24 17.04.2020
5564 Rain 26 1012 83 10000 1 10 17:55 17.04.2020
5565 Rain 26 1012 83 10000 1 10 17:37 17.04.2020
5566 Rain 27 1012 83 10000 1.44 119 17:18 17.04.2020
5567 Rain 27 1013 83 10000 0.5 10 16:42 17.04.2020
5568 Rain 27 1013 83 10000 0.5 10 16:23 17.04.2020
5569 Rain 27 1013 83 10000 1.5 20 15:44 17.04.2020
5570 Clouds 27 1013 83 10000 1.5 20 15:24 17.04.2020
5571 Clouds 27 1012 83 10000 1 50 14:57 17.04.2020
5572 Clear 27 1012 78 10000 1.5 40 14:39 17.04.2020
5573 Clear 27 1012 78 10000 1.5 40 14:20 17.04.2020
5574 Clear 28 1012 78 10000 2.1 40 13:55 17.04.2020
5575 Clear 28 1012 74 10000 2.6 30 13:36 17.04.2020
5576 Clear 28 1012 66 10000 2.6 30 13:18 17.04.2020
5577 Clouds 29 1011 66 10000 2.1 40 12:44 17.04.2020
5578 Clouds 29 1011 66 10000 2.1 40 12:23 17.04.2020
5579 Clouds 30 1011 58 10000 3.6 30 11:42 17.04.2020
5580 Clouds 30 1010 62 10000 4.6 20 11:19 17.04.2020
5581 Clouds 31 1010 62 10000 4.6 20 10:56 17.04.2020
5582 Clouds 31 1010 62 10000 4.6 20 10:56 17.04.2020
5583 Clouds 31 1010 59 10000 4.6 10 10:38 17.04.2020
5584 Clouds 32 1010 62 10000 4.6 10 10:18 17.04.2020
5585 Clouds 32 1010 62 10000 5.1 10 09:41 17.04.2020
5586 Clouds 33 1010 62 10000 5.1 10 09:20 17.04.2020
5587 Clouds 33 1010 59 10000 5.7 10 08:57 17.04.2020
5588 Clouds 33 1010 59 10000 5.7 10 08:39 17.04.2020
5589 Clouds 33 1010 59 10000 5.7 10 08:19 17.04.2020
5590 Clouds 33 1010 59 10000 5.7 10 07:44 17.04.2020
5591 Clouds 33 1010 55 10000 4.1 20 07:22 17.04.2020
5592 Clouds 34 1011 59 10000 4.6 360 06:45 17.04.2020
5593 Clouds 34 1011 59 10000 2.6 50 06:22 17.04.2020
5594 Clouds 34 1012 52 10000 3.6 90 05:25 17.04.2020
5595 Clouds 31 1013 66 10000 3.1 90 03:19 17.04.2020
5596 Clouds 30 1014 79 10000 2.6 90 02:19 17.04.2020
5597 Clouds 29 1014 79 10000 3.1 90 01:29 17.04.2020
5598 Clouds 27 1013 88 10000 2.1 130 00:51 17.04.2020
5599 Clouds 26 1013 88 10000 1.5 120 00:19 17.04.2020
5600 Clouds 25 1012 88 10000 1 150 23:42 16.04.2020
5601 Clouds 25 1012 88 10000 1 150 23:42 16.04.2020
5602 Clouds 25 1012 88 10000 1 150 23:22 16.04.2020
5603 Clouds 26 1012 94 10000 1 160 22:57 16.04.2020
5604 Clouds 26 1012 88 10000 1 120 22:37 16.04.2020
5605 Clouds 26 1012 88 10000 2.6 110 22:19 16.04.2020
5606 Clouds 26 1012 88 10000 1 30 21:43 16.04.2020
5607 Clouds 26 1012 94 10000 1 30 21:20 16.04.2020
5608 Clouds 26 1012 94 10000 1 30 20:59 16.04.2020
5609 Clouds 26 1012 88 10000 1 30 20:40 16.04.2020
5610 Clouds 26 1012 88 10000 2.92 70 20:20 16.04.2020
5611 Clouds 26 1012 88 10000 2.92 70 19:55 16.04.2020
5612 Rain 26 1012 88 10000 2.92 70 19:37 16.04.2020
5613 Rain 26 1012 88 10000 2.92 70 19:18 16.04.2020
5614 Rain 26 1012 88 10000 2.92 70 18:42 16.04.2020
5615 Rain 26 1012 88 10000 3.84 43 18:24 16.04.2020
5616 Rain 27 1012 88 10000 3.84 43 17:57 16.04.2020
5617 Rain 27 1013 88 10000 0.5 30 17:39 16.04.2020
5618 Rain 27 1013 83 10000 1.5 30 17:18 16.04.2020
5619 Rain 28 1013 78 10000 2.1 40 16:42 16.04.2020
5620 Rain 28 1013 78 10000 2.1 40 16:24 16.04.2020
5621 Rain 28 1013 78 10000 2.6 30 15:46 16.04.2020
5622 Rain 28 1013 78 10000 2.6 30 15:46 16.04.2020
5623 Clouds 28 1013 74 10000 3.1 40 15:20 16.04.2020
5624 Clouds 28 1013 74 10000 3.1 40 15:20 16.04.2020
5625 Clouds 29 1013 74 10000 3.1 40 14:59 16.04.2020
5626 Clouds 29 1013 74 10000 3.1 40 14:40 16.04.2020
5627 Clouds 29 1013 74 10000 3.1 40 14:22 16.04.2020
5628 Clouds 29 1013 74 10000 3.1 40 13:58 16.04.2020
5629 Clouds 29 1013 74 10000 4.1 40 13:40 16.04.2020
5630 Clouds 29 1012 70 10000 5.1 40 13:21 16.04.2020
5631 Clouds 29 1012 70 10000 5.1 40 12:57 16.04.2020
5632 Clouds 29 1012 74 10000 5.1 40 12:38 16.04.2020
5633 Clouds 29 1012 70 10000 5.1 40 12:19 16.04.2020
5634 Clouds 29 1012 70 10000 5.1 40 11:56 16.04.2020
5635 Clouds 30 1011 66 10000 5.1 30 11:38 16.04.2020
5636 Clouds 30 1010 62 10000 5.1 30 11:19 16.04.2020
5637 Clouds 30 1010 62 10000 5.1 30 10:55 16.04.2020
5638 Clouds 31 1010 59 10000 4.6 40 10:36 16.04.2020
5639 Clouds 32 1010 55 10000 4.6 20 10:18 16.04.2020
5640 Clouds 34 1009 46 10000 2.6 50 09:39 16.04.2020
5641 Clouds 34 1009 46 10000 2.6 50 09:20 16.04.2020
5642 Clouds 34 1009 46 10000 4.6 80 08:56 16.04.2020
5643 Clouds 34 1009 46 10000 3.6 80 08:36 16.04.2020
5644 Clouds 34 1010 46 10000 4.1 70 08:18 16.04.2020
5645 Clouds 34 1010 49 10000 3.6 100 07:42 16.04.2020
5646 Clouds 34 1010 52 10000 4.6 80 07:20 16.04.2020
5647 Clouds 33 1011 52 10000 3.6 70 06:41 16.04.2020
5648 Clouds 33 1011 52 10000 3.6 70 06:41 16.04.2020
5649 Clouds 34 1011 55 10000 5.1 60 06:22 16.04.2020
5650 Clouds 33 1013 55 10000 3.6 90 04:53 16.04.2020
5651 Clouds 32 1013 59 10000 4.1 80 03:28 16.04.2020
5652 Clouds 31 1013 62 10000 4.1 110 02:59 16.04.2020
5653 Clouds 30 1013 66 10000 3.6 120 02:36 16.04.2020
5654 Clouds 29 1013 78 10000 2.6 130 01:29 16.04.2020
5655 Clouds 28 1013 78 10000 3.1 130 00:54 16.04.2020
5656 Clouds 26 1012 88 10000 2.6 130 00:21 16.04.2020
5657 Clouds 26 1012 88 10000 2.6 130 23:55 15.04.2020
5658 Clouds 26 1012 88 10000 2.6 130 23:36 15.04.2020
5659 Clouds 26 1012 88 10000 2.6 140 23:18 15.04.2020
5660 Clouds 26 1011 88 10000 2.1 130 22:39 15.04.2020
5661 Clouds 26 1011 88 10000 2.6 130 22:20 15.04.2020
5662 Clouds 26 1011 88 10000 2.1 150 21:56 15.04.2020
5663 Clouds 26 1011 88 10000 2.1 150 21:37 15.04.2020
5664 Clouds 26 1011 88 10000 2.1 150 21:37 15.04.2020
5665 Clouds 26 1011 88 10000 2.1 150 21:19 15.04.2020
5666 Clouds 26 1011 88 10000 1.5 120 20:54 15.04.2020
5667 Clouds 26 1011 88 10000 1.5 120 20:54 15.04.2020
5668 Rain 26 1011 88 10000 1.5 130 20:36 15.04.2020
5669 Rain 26 1012 83 10000 1.5 150 20:18 15.04.2020
5670 Rain 27 1012 83 10000 1.5 130 19:41 15.04.2020
5671 Rain 27 1012 83 10000 1.5 130 19:41 15.04.2020
5672 Rain 27 1012 83 10000 2.1 50 19:20 15.04.2020
5673 Rain 27 1012 83 10000 2.1 20 18:42 15.04.2020
5674 Rain 27 1012 83 10000 2.1 10 18:23 15.04.2020
5675 Rain 27 1012 83 10000 2.1 10 17:58 15.04.2020
5676 Rain 27 1013 78 10000 2.1 10 17:39 15.04.2020
5677 Rain 27 1013 78 10000 2.1 10 17:20 15.04.2020
5678 Rain 28 1013 74 10000 3.1 20 16:57 15.04.2020
5679 Clouds 28 1013 78 10000 3.6 20 16:38 15.04.2020
5680 Clouds 28 1013 78 10000 3.6 20 16:19 15.04.2020
5681 Rain 29 1013 79 10000 4.6 10 15:57 15.04.2020
5682 Clouds 28 1013 83 10000 3.6 30 15:38 15.04.2020
5683 Clouds 28 1013 83 10000 3.6 30 15:19 15.04.2020
5684 Clouds 28 1013 74 10000 2.6 30 14:57 15.04.2020
5685 Rain 28 1013 74 10000 2.6 30 14:39 15.04.2020
5686 Rain 28 1013 74 10000 2.6 30 14:21 15.04.2020
5687 Rain 28 1013 74 10000 2.6 30 13:57 15.04.2020
5688 Rain 29 1013 70 10000 3.1 30 13:38 15.04.2020
5689 Rain 28 1012 70 10000 3.6 30 13:19 15.04.2020
5690 Rain 29 1012 66 10000 3.6 40 12:43 15.04.2020
5691 Clouds 30 1012 62 10000 3.1 30 12:23 15.04.2020
5692 Clouds 29 1012 62 10000 3.1 30 11:59 15.04.2020
5693 Clouds 30 1011 62 10000 4.6 40 11:41 15.04.2020
5694 Clouds 30 1011 62 10000 4.6 40 11:23 15.04.2020
5695 Clouds 31 1011 52 10000 5.1 30 10:56 15.04.2020
5696 Clouds 31 1011 52 10000 5.1 40 10:36 15.04.2020
5697 Clouds 32 1010 49 10000 6.2 40 10:18 15.04.2020
5698 Clouds 33 1010 49 10000 6.2 40 09:54 15.04.2020
5699 Clouds 33 1010 46 10000 3.6 70 09:36 15.04.2020
5700 Clouds 33 1010 44 10000 5.1 70 09:18 15.04.2020
5701 Clouds 34 1010 44 10000 4.6 80 08:40 15.04.2020
5702 Clouds 34 1010 41 10000 4.1 70 08:19 15.04.2020
5703 Clouds 33 1011 46 10000 4.6 110 07:54 15.04.2020
5704 Clouds 33 1011 46 10000 4.6 110 07:32 15.04.2020
5705 Clouds 34 1011 46 10000 5.7 100 06:34 15.04.2020
5706 Clouds 34 1011 46 10000 5.7 100 06:34 15.04.2020
5707 Clouds 33 1012 46 10000 5.1 70 05:51 15.04.2020
5708 Clouds 33 1012 46 10000 6.7 60 05:20 15.04.2020
5709 Clouds 33 1013 52 10000 7.2 70 04:44 15.04.2020
5710 Clouds 32 1013 58 10000 4.1 90 03:40 15.04.2020
5711 Clouds 31 1013 62 10000 4.1 100 03:18 15.04.2020
5712 Clouds 30 1013 70 10000 4.1 100 02:30 15.04.2020
5713 Clouds 29 1013 74 10000 3.1 110 01:44 15.04.2020
5714 Clouds 28 1013 83 10000 2.6 120 01:19 15.04.2020
5715 Clouds 27 1013 88 10000 2.6 130 00:37 15.04.2020
5716 Clouds 26 1012 88 10000 2.6 150 00:18 15.04.2020
5717 Clouds 26 1012 88 10000 2.6 150 23:55 14.04.2020
5718 Clouds 26 1012 88 10000 2.6 150 23:36 14.04.2020
5719 Clouds 26 1012 88 10000 2.6 150 23:36 14.04.2020
5720 Clouds 26 1012 88 10000 3.1 150 23:18 14.04.2020
5721 Clouds 26 1012 88 10000 3.1 150 22:55 14.04.2020
5722 Clouds 26 1012 88 10000 2.6 160 22:36 14.04.2020
5723 Clouds 26 1011 88 10000 2.6 160 22:18 14.04.2020
5724 Clouds 26 1011 88 10000 2.6 160 21:55 14.04.2020
5725 Clouds 26 1011 83 10000 2.6 140 21:36 14.04.2020
5726 Clouds 26 1011 83 10000 2.6 150 21:18 14.04.2020
5727 Clouds 27 1011 83 10000 2.1 150 20:40 14.04.2020
5728 Clouds 27 1011 83 10000 2.1 150 20:40 14.04.2020
5729 Clouds 27 1011 83 10000 2.1 150 20:22 14.04.2020
5730 Clouds 27 1011 83 10000 2.6 150 19:58 14.04.2020
5731 Clouds 27 1011 88 10000 2.6 150 19:39 14.04.2020
5732 Clouds 27 1011 88 10000 2.1 160 19:20 14.04.2020
5733 Rain 27 1011 83 10000 1 110 18:56 14.04.2020
5734 Rain 26 1011 83 10000 1 110 18:37 14.04.2020
5735 Rain 27 1012 88 10000 1.5 60 18:18 14.04.2020
5736 Rain 27 1012 88 10000 1.5 60 17:55 14.04.2020
5737 Rain 27 1012 88 10000 2.6 50 17:37 14.04.2020
5738 Rain 27 1012 88 10000 2.6 50 17:18 14.04.2020
5739 Rain 28 1012 83 10000 2.6 50 16:41 14.04.2020
5740 Rain 28 1012 83 10000 2.6 50 16:23 14.04.2020
5741 Rain 27 1013 83 10000 2.6 50 15:58 14.04.2020
5742 Rain 27 1013 83 10000 2.6 50 15:38 14.04.2020
5743 Clouds 28 1013 83 10000 2.6 50 15:19 14.04.2020
5744 Clouds 28 1013 83 10000 3.1 40 14:57 14.04.2020
5745 Clouds 28 1012 83 10000 2.6 40 14:39 14.04.2020
5746 Clouds 28 1012 83 10000 2.6 40 14:21 14.04.2020
5747 Clouds 29 1012 74 10000 2.6 30 13:45 14.04.2020
5748 Clouds 29 1012 74 10000 2.6 30 13:24 14.04.2020
5749 Clouds 29 1011 74 10000 3.1 30 12:59 14.04.2020
5750 Clouds 29 1011 70 10000 3.1 40 12:40 14.04.2020
5751 Clouds 29 1011 70 10000 3.1 30 12:20 14.04.2020
5752 Clouds 29 1011 70 10000 3.1 30 11:54 14.04.2020
5753 Clouds 30 1010 62 10000 3.6 30 11:36 14.04.2020
5754 Clouds 31 1010 62 10000 4.1 30 11:18 14.04.2020
5755 Clouds 32 1010 59 10000 5.1 30 10:41 14.04.2020
5756 Clouds 32 1010 59 10000 5.1 30 10:23 14.04.2020
5757 Clouds 34 1009 41 10000 5.1 70 09:42 14.04.2020
5758 Clouds 34 1009 41 10000 5.1 70 09:24 14.04.2020
5759 Clouds 34 1009 38 10000 5.1 80 08:59 14.04.2020
5760 Clouds 34 1009 36 10000 5.1 110 08:40 14.04.2020
5761 Clouds 34 1009 36 10000 5.1 110 08:21 14.04.2020
5762 Clouds 32 1009 49 0 4.12 97 07:53 14.04.2020
5763 Clouds 34 1010 36 10000 4.1 80 07:29 14.04.2020
5764 Clouds 33 1011 46 10000 4.1 70 06:47 14.04.2020
5765 Clouds 31 1012 54 0 4.07 101 05:55 14.04.2020
5766 Clouds 32 1013 62 10000 4.6 90 03:52 14.04.2020
5767 Clouds 30 1013 74 10000 5.1 90 02:44 14.04.2020
5768 Clouds 28 1013 83 10000 3.6 90 01:39 14.04.2020
5769 Clouds 28 1013 83 10000 2.6 110 01:18 14.04.2020
5770 Clouds 26 1012 83 10000 2.6 110 00:33 14.04.2020
5771 Rain 26 1011 88 10000 2.6 100 23:59 13.04.2020
5772 Rain 26 1011 88 10000 2.6 100 23:39 13.04.2020
5773 Clouds 26 1011 88 10000 2.6 100 23:21 13.04.2020
5774 Clouds 25 1011 88 10000 3.1 100 22:56 13.04.2020
5775 Clouds 26 1011 94 10000 2.1 90 22:37 13.04.2020
5776 Clouds 26 1011 94 10000 2.1 90 22:19 13.04.2020
5777 Rain 25 1011 94 10000 2.1 110 21:54 13.04.2020
5778 Rain 25 1011 94 10000 1.5 130 21:36 13.04.2020
5779 Rain 25 1011 94 10000 2.1 130 21:18 13.04.2020
5780 Rain 26 1011 94 10000 1.5 120 20:41 13.04.2020
5781 Rain 26 1011 94 10000 1.5 120 20:20 13.04.2020
5782 Rain 26 1011 94 10000 1.5 120 20:20 13.04.2020
5783 Rain 26 1011 94 10000 1.5 120 19:59 13.04.2020
5784 Rain 26 1011 88 10000 2.1 130 19:37 13.04.2020
5785 Rain 26 1011 88 10000 2.1 130 19:37 13.04.2020
5786 Rain 26 1011 88 10000 2.1 130 19:37 13.04.2020
5787 Rain 26 1011 83 10000 2.1 120 19:19 13.04.2020
5788 Rain 26 1011 83 10000 2.1 120 19:19 13.04.2020
5789 Rain 26 1011 83 10000 2.1 120 18:58 13.04.2020
5790 Rain 26 1011 94 10000 1.5 100 18:38 13.04.2020
5791 Rain 26 1011 94 10000 1 120 18:19 13.04.2020
5792 Rain 26 1011 94 10000 1 120 17:58 13.04.2020
5793 Rain 26 1012 88 10000 1 120 17:37 13.04.2020
5794 Rain 26 1012 88 10000 1 120 17:19 13.04.2020
5795 Rain 26 1012 88 10000 1.5 150 16:58 13.04.2020
5796 Rain 26 1012 88 10000 1.5 140 16:39 13.04.2020
5797 Rain 26 1012 88 10000 1.5 140 16:20 13.04.2020
5798 Rain 26 1012 94 10000 1.5 140 15:57 13.04.2020
5799 Rain 27 1012 88 10000 1.5 170 15:38 13.04.2020
5800 Clouds 27 1012 88 10000 1.5 170 15:20 13.04.2020
5801 Clouds 27 1012 83 10000 1 50 14:42 13.04.2020
5802 Clouds 27 1012 83 10000 1 50 14:24 13.04.2020
5803 Clouds 28 1011 88 10000 1.5 50 13:57 13.04.2020
5804 Clouds 28 1011 88 10000 2.6 40 13:38 13.04.2020
5805 Clouds 28 1011 88 10000 3.1 40 13:20 13.04.2020
5806 Clouds 28 1011 88 10000 3.1 40 12:59 13.04.2020
5807 Clouds 28 1011 88 10000 2.6 30 12:40 13.04.2020
5808 Clouds 28 1010 88 10000 2.1 10 12:20 13.04.2020
5809 Clouds 28 1010 88 10000 2.1 10 11:58 13.04.2020
5810 Clouds 28 1010 83 10000 1.5 10 11:40 13.04.2020
5811 Clouds 28 1010 78 10000 0.5 290 11:18 13.04.2020
5812 Clouds 28 1010 78 10000 0.5 290 11:18 13.04.2020
5813 Rain 28 1010 78 10000 0.5 290 10:55 13.04.2020
5814 Rain 28 1010 74 10000 6.2 140 10:37 13.04.2020
5815 Rain 32 1009 59 10000 3.1 350 10:18 13.04.2020
5816 Clouds 33 1008 59 10000 1 290 09:44 13.04.2020
5817 Clouds 33 1008 59 10000 1 290 09:25 13.04.2020
5818 Rain 33 1008 52 10000 2.6 150 08:47 13.04.2020
5819 Rain 33 1008 52 10000 2.6 150 08:28 13.04.2020
5820 Clouds 34 1008 46 10000 4.1 70 07:58 13.04.2020
5821 Clouds 34 1009 49 10000 3.6 60 07:38 13.04.2020
5822 Clouds 34 1009 52 10000 4.1 80 07:19 13.04.2020
5823 Clouds 33 1009 52 10000 4.6 90 06:46 13.04.2020
5824 Clouds 32 1010 55 10000 5.1 110 05:53 13.04.2020
5825 Clouds 33 1010 55 10000 5.7 80 05:27 13.04.2020
5826 Clouds 31 1010 66 10000 5.1 120 04:50 13.04.2020
5827 Clouds 31 1011 70 10000 4.6 90 04:20 13.04.2020
5828 Clouds 30 1012 70 10000 4.6 70 03:44 13.04.2020
5829 Clouds 29 1012 74 10000 3.6 80 02:49 13.04.2020
5830 Clouds 27 1012 83 10000 2.6 60 01:49 13.04.2020
5831 Clouds 27 1012 83 10000 2.6 60 01:30 13.04.2020
5832 Clouds 25 1012 88 10000 1.5 90 00:55 13.04.2020
5833 Clouds 25 1011 94 10000 1.5 120 00:36 13.04.2020
5834 Rain 25 1011 88 10000 1.5 160 00:18 13.04.2020
5835 Clouds 24 1011 88 10000 1.5 130 23:42 12.04.2020
5836 Clouds 24 1011 88 10000 1.5 130 23:22 12.04.2020
5837 Rain 24 1011 94 10000 1.5 130 22:55 12.04.2020
5838 Rain 24 1011 94 10000 1 180 22:36 12.04.2020
5839 Rain 24 1011 94 10000 1 180 22:18 12.04.2020
5840 Rain 24 1011 94 10000 2.6 170 21:39 12.04.2020
5841 Rain 24 1016 99 0 2.54 69 21:20 12.04.2020
5842 Rain 24 1011 94 10000 2.6 180 20:56 12.04.2020
5843 Drizzle 24 1011 94 10000 1 130 20:37 12.04.2020
5844 Drizzle 24 1011 94 10000 1 130 20:37 12.04.2020
5845 Rain 24 1011 94 10000 3.1 150 20:19 12.04.2020
5846 Rain 24 1012 94 10000 4.1 130 19:41 12.04.2020
5847 Rain 24 1012 94 10000 5.7 130 19:20 12.04.2020
5848 Rain 24 1012 94 3300 7.7 90 18:59 12.04.2020
5849 Rain 24 1012 94 3300 7.7 90 18:40 12.04.2020
5850 Rain 25 1012 88 3100 7.7 60 18:20 12.04.2020
5851 Rain 27 1012 83 10000 2.1 350 17:55 12.04.2020
5852 Clouds 28 1012 83 10000 2.1 350 17:37 12.04.2020
5853 Clouds 28 1012 83 10000 2.1 350 17:37 12.04.2020
5854 Clouds 28 1012 83 10000 1.5 360 17:18 12.04.2020
5855 Clouds 28 1012 83 10000 1.5 360 16:54 12.04.2020
5856 Clouds 28 1012 83 10000 1.5 360 16:54 12.04.2020
5857 Clouds 28 1012 83 10000 1.5 360 16:36 12.04.2020
5858 Clouds 28 1012 83 10000 1 350 16:18 12.04.2020
5859 Clouds 28 1012 83 10000 1.5 360 15:41 12.04.2020
5860 Clouds 28 1012 78 10000 2.1 40 15:21 12.04.2020
5861 Clouds 28 1012 74 10000 2.1 40 14:39 12.04.2020
5862 Clouds 28 1012 74 10000 2.1 40 14:21 12.04.2020
5863 Rain 28 1011 78 10000 2.6 50 13:58 12.04.2020
5864 Clouds 28 1011 74 10000 2.6 50 13:37 12.04.2020
5865 Clouds 28 1011 74 10000 2.1 60 13:19 12.04.2020
5866 Clouds 28 1010 74 10000 2.6 50 12:46 12.04.2020
5867 Clouds 28 1010 74 10000 2.6 60 12:22 12.04.2020
5868 Clouds 29 1010 74 10000 2.6 60 11:59 12.04.2020
5869 Clouds 29 1009 74 10000 3.6 40 11:38 12.04.2020
5870 Clouds 29 1009 70 10000 3.6 30 11:19 12.04.2020
5871 Clouds 30 1009 70 10000 3.6 30 10:56 12.04.2020
5872 Clouds 31 1009 66 10000 4.1 40 10:38 12.04.2020
5873 Clouds 31 1008 55 10000 3.1 30 10:20 12.04.2020
5874 Clouds 31 1008 55 10000 3.1 30 09:58 12.04.2020
5875 Clouds 32 1008 59 10000 3.1 60 09:37 12.04.2020
5876 Clouds 32 1014 59 0 2.68 60 09:19 12.04.2020
5877 Clouds 32 1009 62 10000 3.1 40 08:50 12.04.2020
5878 Clouds 32 1009 62 10000 3.1 40 08:30 12.04.2020
5879 Clouds 33 1009 55 10000 2.6 100 07:47 12.04.2020
5880 Clouds 32 1009 59 10000 3.6 60 07:19 12.04.2020
5881 Clouds 33 1009 59 10000 3.6 60 06:54 12.04.2020
5882 Clouds 32 1010 59 10000 2.6 30 06:28 12.04.2020
5883 Clouds 31 1010 62 10000 2.6 70 05:48 12.04.2020
5884 Clouds 30 1011 62 10000 3.6 50 04:32 12.04.2020
5885 Clouds 29 1011 70 10000 4.6 70 03:30 12.04.2020
5886 Clouds 27 1011 78 10000 5.1 70 02:49 12.04.2020
5887 Clouds 27 1011 78 10000 4.6 50 02:29 12.04.2020
5888 Clouds 26 1012 83 10000 4.6 60 01:23 12.04.2020
5889 Clouds 26 1011 78 10000 4.6 80 00:44 12.04.2020
5890 Clouds 26 1011 78 10000 3.6 80 00:21 12.04.2020
5891 Clouds 25 1011 78 10000 3.6 80 23:59 11.04.2020
5892 Clouds 25 1011 78 10000 3.6 90 23:40 11.04.2020
5893 Clouds 25 1011 78 10000 3.6 90 23:22 11.04.2020
5894 Clouds 25 1011 78 10000 3.6 90 23:22 11.04.2020
5895 Clouds 25 1011 88 10000 3.6 130 22:39 11.04.2020
5896 Clouds 25 1011 88 10000 3.6 130 22:20 11.04.2020
5897 Clouds 25 1010 88 10000 4.1 140 21:56 11.04.2020
5898 Clouds 25 1010 83 10000 4.1 160 21:37 11.04.2020
5899 Clouds 25 1010 88 10000 3.1 150 21:18 11.04.2020
5900 Clouds 25 1010 88 10000 3.1 150 20:56 11.04.2020
5901 Clouds 26 1011 83 10000 2.6 150 20:38 11.04.2020
5902 Clouds 26 1011 83 10000 3.1 150 20:19 11.04.2020
5903 Clouds 26 1011 83 10000 3.1 150 19:57 11.04.2020
5904 Clouds 26 1011 83 10000 2.6 150 19:38 11.04.2020
5905 Clouds 26 1011 83 10000 3.1 140 19:18 11.04.2020
5906 Clouds 26 1011 83 10000 3.1 140 19:18 11.04.2020
5907 Clouds 26 1011 83 10000 3.1 140 19:18 11.04.2020
5908 Clouds 26 1011 83 10000 3.1 140 18:55 11.04.2020
5909 Clouds 26 1012 83 10000 3.1 130 18:37 11.04.2020
5910 Clouds 26 1012 83 10000 3.1 130 18:18 11.04.2020
5911 Clouds 26 1012 83 10000 3.1 130 17:58 11.04.2020
5912 Rain 26 1012 83 10000 2.6 110 17:38 11.04.2020
5913 Rain 26 1012 83 10000 2.6 110 17:19 11.04.2020
5914 Rain 26 1012 83 10000 1.5 90 16:43 11.04.2020
5915 Rain 26 1012 83 10000 1.5 90 16:22 11.04.2020
5916 Rain 26 1012 83 10000 1.5 90 16:22 11.04.2020
5917 Rain 26 1012 83 10000 2.1 90 15:54 11.04.2020
5918 Rain 26 1012 83 10000 2.6 80 15:36 11.04.2020
5919 Rain 26 1012 83 10000 2.1 100 15:18 11.04.2020
5920 Rain 26 1012 83 10000 2.1 100 14:42 11.04.2020
5921 Rain 26 1012 83 10000 2.1 100 14:42 11.04.2020
5922 Rain 26 1012 83 10000 2.1 100 14:23 11.04.2020
5923 Rain 26 1011 83 10000 2.6 90 13:58 11.04.2020
5924 Rain 26 1011 78 10000 2.1 110 13:38 11.04.2020
5925 Clouds 26 1011 78 10000 2.1 120 13:18 11.04.2020
5926 Clouds 26 1010 83 10000 2.6 100 12:41 11.04.2020
5927 Clouds 27 1010 83 10000 2.1 100 12:18 11.04.2020
5928 Clouds 27 1010 83 10000 2.1 100 11:56 11.04.2020
5929 Clouds 27 1010 78 10000 2.6 100 11:38 11.04.2020
5930 Clouds 27 1010 74 10000 4.1 80 11:18 11.04.2020
5931 Clouds 28 1009 74 10000 4.1 80 10:43 11.04.2020
5932 Clouds 28 1009 74 10000 4.1 80 10:22 11.04.2020
5933 Clouds 28 1009 74 10000 4.6 90 09:59 11.04.2020
5934 Clouds 29 1009 70 10000 5.1 80 09:39 11.04.2020
5935 Clouds 28 1009 74 10000 5.7 90 09:21 11.04.2020
5936 Rain 29 1009 74 10000 5.1 90 08:47 11.04.2020
5937 Rain 28 1009 74 10000 5.1 90 08:28 11.04.2020
5938 Rain 29 1010 74 10000 6.7 80 07:52 11.04.2020
5939 Clouds 29 1010 70 10000 6.2 90 07:34 11.04.2020
5940 Clouds 29 1011 74 10000 6.7 100 06:49 11.04.2020
5941 Rain 28 1011 74 10000 6.7 100 06:19 11.04.2020
5942 Rain 28 1011 74 10000 6.7 100 05:52 11.04.2020
5943 Clouds 26 1013 78 10000 4.6 130 03:41 11.04.2020
5944 Clouds 25 1013 83 10000 5.1 150 02:24 11.04.2020
5945 Clouds 23 1012 88 10000 4.6 160 01:24 11.04.2020
5946 Clouds 23 1012 94 10000 3.6 140 00:44 11.04.2020
5947 Clouds 22 1011 88 10000 5.1 140 00:20 11.04.2020
5948 Clouds 22 1011 88 10000 5.1 140 23:58 10.04.2020
5949 Clouds 22 1011 88 10000 4.1 150 23:40 10.04.2020
5950 Clouds 22 1011 88 10000 5.7 150 23:19 10.04.2020
5951 Clouds 22 1011 88 10000 5.7 150 22:55 10.04.2020
5952 Clouds 22 1011 88 10000 5.1 170 22:36 10.04.2020
5953 Clouds 21 1011 94 10000 5.1 170 22:18 10.04.2020
5954 Clouds 21 1011 94 10000 5.7 170 21:41 10.04.2020
5955 Clouds 21 1011 94 10000 5.7 170 21:20 10.04.2020
5956 Clouds 21 1011 94 10000 5.7 170 21:20 10.04.2020
5957 Clouds 21 1011 94 10000 6.2 170 20:56 10.04.2020
5958 Clouds 21 1011 94 10000 5.7 170 20:37 10.04.2020
5959 Clouds 21 1011 94 10000 5.7 170 20:19 10.04.2020
5960 Clouds 21 1011 94 10000 5.7 170 19:54 10.04.2020
5961 Drizzle 21 1012 94 10000 5.7 170 19:36 10.04.2020
5962 Rain 21 1013 94 9000 6.7 170 19:18 10.04.2020
5963 Rain 21 1013 94 9000 6.7 170 18:55 10.04.2020
5964 Rain 21 1013 94 10000 6.7 170 18:36 10.04.2020
5965 Rain 21 1013 94 10000 6.2 170 18:18 10.04.2020
5966 Rain 21 1013 94 10000 6.2 170 17:55 10.04.2020
5967 Rain 21 1013 94 10000 6.2 170 17:37 10.04.2020
5968 Clouds 21 1013 94 10000 6.2 170 17:18 10.04.2020
5969 Clouds 21 1013 94 10000 6.2 170 17:18 10.04.2020
5970 Clouds 21 1014 94 10000 6.7 170 16:41 10.04.2020
5971 Clouds 21 1014 94 10000 6.7 170 16:22 10.04.2020
5972 Rain 21 1014 94 10000 7.2 180 15:58 10.04.2020
5973 Rain 21 1014 94 10000 6.7 180 15:38 10.04.2020
5974 Rain 21 1014 88 8000 5.1 160 15:20 10.04.2020
5975 Rain 21 1014 88 8000 5.1 160 14:58 10.04.2020
5976 Rain 22 1019 96 0 7.06 163 14:39 10.04.2020
5977 Rain 22 1019 96 0 7.06 163 14:39 10.04.2020
5978 Rain 22 1014 94 9000 5.7 160 14:20 10.04.2020
5979 Rain 22 1013 94 10000 5.7 150 13:45 10.04.2020
5980 Rain 22 1013 94 10000 5.7 150 13:22 10.04.2020
5981 Rain 23 1012 94 10000 3.6 170 12:55 10.04.2020
5982 Rain 23 1012 94 9000 4.6 160 12:36 10.04.2020
5983 Rain 24 1012 94 9000 4.1 140 12:18 10.04.2020
5984 Rain 25 1012 88 10000 3.1 110 11:42 10.04.2020
5985 Rain 25 1012 88 10000 3.1 110 11:23 10.04.2020
5986 Rain 25 1011 88 10000 4.1 130 10:56 10.04.2020
5987 Rain 25 1010 94 10000 4.1 130 10:37 10.04.2020
5988 Rain 25 1010 94 10000 5.1 40 10:19 10.04.2020
5989 Rain 25 1010 94 10000 3.6 100 09:43 10.04.2020
5990 Rain 25 1010 94 10000 3.6 100 09:43 10.04.2020
5991 Rain 24 1010 94 5000 6.7 100 09:21 10.04.2020
5992 Rain 24 1010 94 5000 6.7 100 09:21 10.04.2020
5993 Rain 25 1010 94 7000 4.6 80 08:47 10.04.2020
5994 Rain 25 1010 94 7000 4.6 80 08:27 10.04.2020
5995 Rain 29 1010 78 10000 5.1 50 07:54 10.04.2020
5996 Rain 29 1010 78 10000 5.1 50 07:36 10.04.2020
5997 Rain 29 1010 70 6000 5.7 40 07:18 10.04.2020
5998 Rain 31 1010 55 10000 4.1 110 06:31 10.04.2020
5999 Rain 31 1010 55 10000 4.1 110 06:31 10.04.2020
6000 Rain 31 1011 52 10000 4.1 50 05:59 10.04.2020
6001 Rain 31 1011 52 10000 4.1 50 05:59 10.04.2020
6002 Rain 31 1011 55 10000 3.1 120 05:29 10.04.2020
6003 Clouds 31 1012 55 10000 3.6 90 04:54 10.04.2020
6004 Clouds 30 1013 58 10000 4.6 100 03:35 10.04.2020
6005 Clouds 29 1013 62 10000 4.6 100 02:51 10.04.2020
6006 Clouds 29 1013 62 10000 5.1 110 02:32 10.04.2020
6007 Clouds 28 1013 69 10000 4.6 110 01:46 10.04.2020
6008 Clouds 27 1013 69 10000 4.6 110 01:25 10.04.2020
6009 Clouds 26 1012 78 10000 3.1 110 00:46 10.04.2020
6010 Clouds 24 1012 78 10000 3.6 100 00:20 10.04.2020
6011 Clouds 24 1012 78 10000 3.1 110 23:42 09.04.2020
6012 Clouds 24 1012 78 10000 3.1 110 23:24 09.04.2020
6013 Clouds 24 1011 78 10000 2.6 120 22:57 09.04.2020
6014 Clouds 24 1011 78 10000 2.6 110 22:39 09.04.2020
6015 Clouds 24 1011 78 10000 2.6 110 22:21 09.04.2020
6016 Clouds 24 1011 78 10000 2.6 100 21:38 09.04.2020
6017 Rain 24 1011 78 10000 2.6 100 21:20 09.04.2020
6018 Rain 24 1011 83 10000 3.1 100 20:47 09.04.2020
6019 Rain 24 1011 83 10000 3.1 100 20:23 09.04.2020
6020 Rain 24 1011 83 10000 3.1 110 20:00 09.04.2020
6021 Rain 24 1011 83 10000 2.6 100 19:39 09.04.2020
6022 Rain 24 1011 83 10000 3.1 90 19:21 09.04.2020
6023 Rain 25 1012 83 10000 3.1 90 18:42 09.04.2020
6024 Clouds 24 1012 83 10000 2.6 100 18:21 09.04.2020
6025 Clouds 25 1012 83 10000 2.6 100 17:58 09.04.2020
6026 Clouds 25 1012 88 10000 1.5 90 17:39 09.04.2020
6027 Clouds 25 1012 88 10000 1.5 70 17:19 09.04.2020
6028 Clouds 25 1012 88 10000 1.5 90 17:19 09.04.2020
6029 Clouds 25 1012 83 10000 2.1 70 16:40 09.04.2020
6030 Clouds 25 1013 83 10000 2.6 60 16:20 09.04.2020
6031 Clouds 25 1013 83 10000 2.6 60 15:57 09.04.2020
6032 Clouds 25 1013 83 10000 2.6 70 15:37 09.04.2020
6033 Rain 25 1013 83 10000 2.6 70 15:19 09.04.2020
6034 Rain 26 1013 83 10000 2.6 70 14:56 09.04.2020
6035 Clouds 26 1013 83 10000 2.6 80 14:36 09.04.2020
6036 Clouds 26 1012 78 10000 2.6 90 14:18 09.04.2020
6037 Clouds 26 1012 78 10000 2.1 90 13:42 09.04.2020
6038 Clouds 26 1012 78 10000 3.1 100 13:23 09.04.2020
6039 Clouds 26 1012 78 10000 3.1 100 12:55 09.04.2020
6040 Clouds 26 1012 78 10000 2.6 110 12:36 09.04.2020
6041 Clouds 27 1011 74 10000 3.1 80 12:18 09.04.2020
6042 Clouds 27 1011 74 10000 3.6 70 11:43 09.04.2020
6043 Clouds 28 1011 74 10000 3.6 70 11:20 09.04.2020
6044 Clouds 28 1011 74 10000 3.6 70 11:20 09.04.2020
6045 Clouds 28 1011 66 10000 4.6 70 10:59 09.04.2020
6046 Clouds 29 1011 62 10000 4.6 70 10:41 09.04.2020
6047 Clouds 29 1011 62 10000 4.6 70 10:21 09.04.2020
6048 Clouds 29 1011 58 10000 4.6 70 09:57 09.04.2020
6049 Clouds 29 1011 58 10000 4.6 70 09:57 09.04.2020
6050 Clouds 30 1011 62 10000 5.7 30 09:38 09.04.2020
6051 Clouds 30 1011 62 10000 5.7 30 09:20 09.04.2020
6052 Clouds 31 1010 55 10000 4.1 60 08:44 09.04.2020
6053 Clouds 31 1010 55 10000 4.1 60 08:23 09.04.2020
6054 Clouds 30 1010 58 10000 4.6 70 07:57 09.04.2020
6055 Clouds 30 1011 55 10000 5.7 50 07:28 09.04.2020
6056 Clouds 30 1011 55 10000 6.2 80 06:57 09.04.2020
6057 Clouds 30 1011 58 10000 4.1 70 06:26 09.04.2020
6058 Clouds 31 1011 62 10000 5.7 70 05:46 09.04.2020
6059 Clouds 30 1012 70 10000 5.1 100 04:26 09.04.2020
6060 Clouds 26 1013 83 10000 5.1 90 02:33 09.04.2020
6061 Clouds 24 1012 94 10000 6.2 90 01:44 09.04.2020
6062 Clouds 24 1012 94 10000 5.7 100 01:24 09.04.2020
6063 Rain 24 1012 94 9000 4.6 90 00:43 09.04.2020
6064 Rain 24 1012 94 6000 6.7 100 00:20 09.04.2020
6065 Rain 24 1012 94 6000 6.7 100 23:59 08.04.2020
6066 Thunderstorm 24 1011 94 4500 6.2 120 23:41 08.04.2020
6067 Thunderstorm 24 1011 94 4500 6.2 120 23:22 08.04.2020
6068 Thunderstorm 26 1010 88 7000 4.1 130 22:44 08.04.2020
6069 Rain 25 1010 88 10000 2.1 350 22:24 08.04.2020
6070 Rain 25 1010 88 10000 2.6 360 21:57 08.04.2020
6071 Rain 26 1010 88 10000 2.6 360 21:39 08.04.2020
6072 Rain 26 1010 88 10000 2.6 350 21:21 08.04.2020
6073 Rain 27 1010 88 10000 2.6 350 20:59 08.04.2020
6074 Clouds 27 1010 83 10000 2.1 170 20:40 08.04.2020
6075 Clouds 27 1010 83 10000 2.1 170 20:20 08.04.2020
6076 Clouds 27 1010 78 10000 1.5 190 19:58 08.04.2020
6077 Rain 27 1010 88 10000 1 120 19:37 08.04.2020
6078 Clouds 27 1010 83 10000 1 150 19:19 08.04.2020
6079 Clouds 27 1011 83 10000 1 130 18:44 08.04.2020
6080 Clouds 27 1011 78 10000 0.5 360 18:25 08.04.2020
6081 Clouds 27 1011 83 10000 1 360 17:56 08.04.2020
6082 Clouds 27 1011 83 10000 1 360 17:38 08.04.2020
6083 Rain 27 1011 83 10000 1 360 17:19 08.04.2020
6084 Clouds 27 1012 83 10000 0.5 360 16:43 08.04.2020
6085 Clouds 27 1012 83 10000 1.5 360 16:23 08.04.2020
6086 Clouds 27 1012 83 10000 1.5 10 15:59 08.04.2020
6087 Clouds 27 1012 83 10000 1.5 10 15:38 08.04.2020
6088 Clouds 28 1012 83 10000 1.5 10 15:20 08.04.2020
6089 Clouds 28 1011 79 10000 1.5 360 14:45 08.04.2020
6090 Clouds 28 1011 79 10000 1.5 360 14:25 08.04.2020
6091 Clouds 28 1011 79 10000 1.5 360 13:57 08.04.2020
6092 Clouds 28 1011 74 10000 1 10 13:39 08.04.2020
6093 Clouds 28 1010 74 10000 1.5 10 13:20 08.04.2020
6094 Clouds 29 1010 74 10000 2.1 20 12:42 08.04.2020
6095 Clouds 29 1009 74 10000 3.1 30 12:19 08.04.2020
6096 Clouds 29 1009 74 10000 3.1 30 12:19 08.04.2020
6097 Clouds 29 1009 74 10000 3.1 30 11:59 08.04.2020
6098 Clouds 29 1009 70 10000 2.6 20 11:40 08.04.2020
6099 Clouds 29 1009 70 10000 2.6 20 11:22 08.04.2020
6100 Clouds 30 1008 66 10000 3.6 20 10:56 08.04.2020
6101 Clouds 31 1008 66 10000 3.6 20 10:37 08.04.2020
6102 Clouds 31 1008 66 10000 4.1 360 10:19 08.04.2020
6103 Clouds 31 1008 66 10000 4.1 360 09:55 08.04.2020
6104 Clouds 32 1008 59 10000 4.6 350 09:37 08.04.2020
6105 Clouds 32 1008 59 10000 3.1 350 09:18 08.04.2020
6106 Clouds 32 1008 59 10000 3.6 340 08:42 08.04.2020
6107 Clouds 32 1008 59 10000 3.6 340 08:23 08.04.2020
6108 Clouds 32 1008 59 10000 3.6 340 08:23 08.04.2020
6109 Rain 32 1008 46 10000 5.7 310 07:47 08.04.2020
6110 Rain 33 1008 46 10000 5.7 310 07:28 08.04.2020
6111 Rain 33 1008 49 10000 3.1 110 06:59 08.04.2020
6112 Clouds 33 1009 49 10000 3.6 90 06:21 08.04.2020
6113 Clouds 32 1011 55 10000 4.6 100 04:20 08.04.2020
6114 Clouds 30 1011 70 10000 5.1 80 02:49 08.04.2020
6115 Clouds 29 1011 70 10000 5.1 80 02:20 08.04.2020
6116 Clouds 29 1011 70 10000 4.6 100 01:51 08.04.2020
6117 Clouds 28 1011 69 10000 4.1 120 01:27 08.04.2020
6118 Clouds 26 1010 74 10000 3.6 140 00:41 08.04.2020
6119 Clouds 26 1009 74 10000 3.1 150 00:22 08.04.2020
6120 Clouds 26 1009 74 10000 3.1 160 23:40 07.04.2020
6121 Clouds 26 1009 74 10000 3.1 160 23:40 07.04.2020
6122 Clouds 25 1009 83 10000 3.1 170 23:21 07.04.2020
6123 Clouds 25 1009 83 10000 3.1 170 22:57 07.04.2020
6124 Clouds 25 1008 83 10000 3.1 150 22:39 07.04.2020
6125 Clouds 25 1008 83 10000 3.1 150 22:19 07.04.2020
6126 Clouds 25 1008 83 10000 2.1 160 21:57 07.04.2020
6127 Clouds 26 1008 74 10000 2.1 160 21:39 07.04.2020
6128 Clouds 26 1008 74 10000 2.1 160 21:20 07.04.2020
6129 Clouds 26 1008 78 10000 2.1 170 20:57 07.04.2020
6130 Clouds 26 1008 78 10000 2.1 170 20:38 07.04.2020
6131 Clouds 26 1008 78 10000 2.1 170 20:20 07.04.2020
6132 Clouds 26 1008 83 10000 1.5 170 19:57 07.04.2020
6133 Clouds 26 1008 83 10000 1 180 19:37 07.04.2020
6134 Clouds 26 1008 83 10000 1 180 19:18 07.04.2020
6135 Clouds 26 1009 78 10000 1.5 200 18:56 07.04.2020
6136 Clouds 27 1009 83 10000 1 260 18:38 07.04.2020
6137 Clouds 27 1009 83 10000 1 260 18:19 07.04.2020
6138 Clouds 27 1010 83 10000 2.6 200 17:44 07.04.2020
6139 Clouds 28 1010 79 10000 1.5 240 17:21 07.04.2020
6140 Clouds 28 1010 79 10000 2.1 240 16:47 07.04.2020
6141 Clouds 28 1010 79 10000 2.1 240 16:28 07.04.2020
6142 Clouds 28 1010 79 10000 2.1 270 15:57 07.04.2020
6143 Clouds 28 1010 79 10000 2.1 250 15:38 07.04.2020
6144 Clouds 28 1010 79 10000 2.1 250 15:20 07.04.2020
6145 Clouds 28 1010 79 10000 2.6 240 14:41 07.04.2020
6146 Clouds 28 1010 79 10000 2.6 240 14:22 07.04.2020
6147 Clouds 29 1010 70 10000 2.1 270 13:57 07.04.2020
6148 Clouds 29 1009 70 10000 1.5 320 13:37 07.04.2020
6149 Clouds 28 1009 70 10000 1 310 13:18 07.04.2020
6150 Clouds 29 1009 70 10000 1 310 12:55 07.04.2020
6151 Clouds 29 1008 70 10000 1.5 300 12:36 07.04.2020
6152 Clouds 29 1008 66 10000 2.1 330 12:18 07.04.2020
6153 Clouds 30 1007 62 10000 2.6 330 11:42 07.04.2020
6154 Clouds 30 1007 62 10000 2.6 330 11:24 07.04.2020
6155 Clouds 32 1007 59 10000 2.6 340 10:58 07.04.2020
6156 Clouds 32 1007 59 10000 3.1 340 10:37 07.04.2020
6157 Clouds 32 1007 55 10000 2.6 340 10:19 07.04.2020
6158 Clouds 33 1007 55 10000 4.1 290 09:45 07.04.2020
6159 Clouds 33 1007 55 10000 4.1 290 09:18 07.04.2020
6160 Clouds 33 1007 59 10000 4.6 290 08:55 07.04.2020
6161 Clouds 33 1007 41 10000 4.1 310 08:36 07.04.2020
6162 Clouds 33 1007 46 10000 2.6 100 08:18 07.04.2020
6163 Clouds 34 1008 46 10000 4.1 80 07:40 07.04.2020
6164 Clouds 34 1008 41 10000 3.1 100 07:21 07.04.2020
6165 Clouds 34 1008 49 10000 4.1 50 06:51 07.04.2020
6166 Clouds 33 1009 49 10000 3.6 70 06:21 07.04.2020
6167 Clouds 33 1010 46 10000 3.1 70 05:38 07.04.2020
6168 Clouds 33 1010 55 10000 4.1 90 04:56 07.04.2020
6169 Clouds 32 1012 59 10000 3.1 90 03:31 07.04.2020
6170 Rain 31 1012 62 10000 2.1 120 02:59 07.04.2020
6171 Rain 29 1011 70 10000 3.1 120 01:50 07.04.2020
6172 Rain 28 1011 74 10000 2.1 110 01:26 07.04.2020
6173 Clouds 25 1011 94 10000 2.6 170 00:29 07.04.2020
6174 Clouds 25 1010 94 10000 3.1 180 23:56 06.04.2020
6175 Clouds 25 1010 94 10000 2.6 180 23:36 06.04.2020
6176 Clouds 25 1009 88 10000 2.1 150 23:18 06.04.2020
6177 Clouds 25 1009 88 10000 2.1 170 22:40 06.04.2020
6178 Clouds 25 1009 88 10000 2.1 170 22:40 06.04.2020
6179 Clouds 25 1009 88 10000 2.1 170 22:21 06.04.2020
6180 Clouds 25 1009 88 10000 1.5 140 21:57 06.04.2020
6181 Clouds 25 1009 88 10000 3.6 190 21:39 06.04.2020
6182 Clouds 25 1009 83 10000 2.6 150 21:19 06.04.2020
6183 Clouds 25 1009 83 10000 2.6 150 20:55 06.04.2020
6184 Clouds 25 1010 83 10000 1.5 150 20:37 06.04.2020
6185 Clouds 25 1010 88 10000 3.1 160 20:18 06.04.2020
6186 Clouds 25 1009 88 10000 3.6 170 19:41 06.04.2020
6187 Clouds 25 1010 88 10000 2.1 150 19:23 06.04.2020
6188 Clouds 25 1010 88 10000 2.1 150 18:58 06.04.2020
6189 Clouds 26 1010 83 10000 2.6 140 18:39 06.04.2020
6190 Clouds 26 1011 83 10000 5.7 120 18:21 06.04.2020
6191 Clouds 26 1011 78 10000 5.1 90 17:42 06.04.2020
6192 Rain 26 1010 83 10000 5.7 40 17:20 06.04.2020
6193 Rain 26 1010 83 10000 7.7 50 16:50 06.04.2020
6194 Rain 26 1010 83 10000 7.7 50 16:32 06.04.2020
6195 Clouds 29 1010 74 10000 3.6 30 16:00 06.04.2020
6196 Clouds 28 1010 74 10000 3.6 30 16:00 06.04.2020
6197 Clouds 28 1009 79 10000 2.6 20 14:42 06.04.2020
6198 Clouds 28 1009 79 10000 2.6 20 14:42 06.04.2020
6199 Clouds 28 1009 79 10000 2.6 20 14:42 06.04.2020
6200 Clouds 28 1009 79 10000 2.6 20 14:38 06.04.2020
6201 Clouds 28 1009 79 10000 2.6 20 14:38 06.04.2020
6202 Clouds 29 1009 79 10000 2.6 20 13:43 06.04.2020
6203 Clouds 29 1009 79 10000 2.6 20 13:43 06.04.2020
6204 Clouds 29 1009 79 10000 3.1 20 13:20 06.04.2020
6205 Clouds 29 1009 79 10000 3.1 20 13:20 06.04.2020
6206 Clouds 29 1009 79 10000 3.1 20 13:20 06.04.2020
6207 Clouds 30 1009 74 10000 3.6 10 12:25 06.04.2020
6208 Clouds 30 1009 74 10000 3.6 10 12:25 06.04.2020
6209 Clouds 30 1008 74 10000 3.6 20 11:55 06.04.2020
6210 Clouds 30 1008 74 10000 3.6 20 11:55 06.04.2020
6211 Clouds 30 1008 70 10000 3.6 10 11:33 06.04.2020
6212 Clouds 30 1008 70 10000 3.6 10 11:33 06.04.2020
6213 Clouds 30 1008 70 10000 3.6 10 11:33 06.04.2020
6214 Clouds 30 1008 70 10000 3.6 10 11:33 06.04.2020
6215 Clouds 30 1008 70 10000 3.6 10 11:33 06.04.2020
6216 Clouds 31 1008 70 10000 3.6 10 10:52 06.04.2020
6217 Clouds 31 1008 70 10000 3.6 10 10:52 06.04.2020
6218 Clouds 31 1008 70 10000 3.6 10 10:52 06.04.2020
6219 Clouds 31 1008 70 10000 3.6 10 10:52 06.04.2020
6220 Clouds 32 1007 62 10000 3.6 20 10:22 06.04.2020
6221 Clouds 32 1007 62 10000 4.1 40 09:50 06.04.2020
6222 Clouds 33 1007 62 10000 4.1 30 09:23 06.04.2020
6223 Clouds 33 1007 62 10000 3.1 40 08:55 06.04.2020
6224 Clouds 33 1008 52 10000 4.6 80 08:33 06.04.2020
6225 Clouds 33 1008 49 10000 4.6 110 07:54 06.04.2020
6226 Clouds 34 1009 52 10000 5.1 10 06:57 06.04.2020
6227 Clouds 34 1009 52 10000 4.6 70 06:25 06.04.2020
6228 Clouds 33 1011 59 10000 5.1 10 04:48 06.04.2020
6229 Clouds 33 1011 59 10000 5.1 10 04:47 06.04.2020
6230 Clouds 32 1012 66 10000 3.6 110 03:27 06.04.2020
6231 Clouds 30 1012 74 10000 3.6 140 02:48 06.04.2020
6232 Clouds 29 1012 83 10000 3.6 140 01:48 06.04.2020
6233 Clouds 26 1012 94 10000 3.1 150 00:46 06.04.2020
6234 Clouds 26 1011 94 10000 2.6 160 00:25 06.04.2020
6235 Clouds 26 1011 94 10000 2.1 140 23:47 05.04.2020
6236 Clouds 25 1010 94 10000 2.6 140 23:28 05.04.2020
6237 Clouds 25 1010 94 10000 2.6 140 23:28 05.04.2020
6238 Clouds 26 1010 94 10000 2.6 140 23:28 05.04.2020
6239 Clouds 26 1010 94 10000 2.6 140 23:28 05.04.2020
6240 Clouds 25 1010 94 10000 2.6 140 23:28 05.04.2020
6241 Clouds 25 1010 94 10000 1 160 22:56 05.04.2020
6242 Clouds 25 1010 94 10000 1.5 180 22:38 05.04.2020
6243 Clouds 25 1010 94 10000 1.5 180 22:18 05.04.2020
6244 Clouds 25 1010 94 10000 1.5 140 21:55 05.04.2020
6245 Clouds 26 1010 94 10000 1.5 130 21:37 05.04.2020
6246 Clouds 26 1010 94 10000 1.5 130 21:18 05.04.2020
6247 Rain 25 1009 94 10000 1 140 20:20 05.04.2020
6248 Rain 25 1009 94 10000 1 140 20:20 05.04.2020
6249 Rain 25 1009 94 10000 1 140 20:20 05.04.2020
6250 Rain 26 1009 94 10000 0.5 60 19:39 05.04.2020
6251 Rain 25 1009 94 10000 0.5 60 19:21 05.04.2020
6252 Rain 25 1010 94 10000 1 60 18:44 05.04.2020
6253 Rain 25 1010 94 10000 1 60 18:44 05.04.2020
6254 Rain 25 1010 94 10000 1 60 18:44 05.04.2020
6255 Rain 25 1010 94 10000 1 60 18:44 05.04.2020
6256 Rain 25 1010 94 10000 1 60 18:44 05.04.2020
6257 Rain 25 1010 94 10000 0.78 164 17:57 05.04.2020
6258 Rain 25 1010 94 10000 1.5 50 17:39 05.04.2020
6259 Rain 25 1010 94 10000 1.5 50 17:39 05.04.2020
6260 Rain 25 1010 94 10000 1.5 50 17:39 05.04.2020
6261 Rain 26 1010 94 10000 1.5 50 17:20 05.04.2020
6262 Rain 26 1010 94 10000 1.5 50 17:20 05.04.2020
6263 Rain 26 1010 94 10000 1.5 50 17:20 05.04.2020
6264 Rain 26 1010 94 10000 1.5 50 17:20 05.04.2020
6265 Rain 26 1010 94 10000 1.5 50 17:20 05.04.2020
6266 Rain 26 1011 94 10000 1 110 16:21 05.04.2020
6267 Rain 26 1011 88 10000 0.78 164 15:53 05.04.2020
6268 Clouds 26 1011 88 10000 0.5 110 15:33 05.04.2020
6269 Rain 26 1011 88 10000 1 120 14:59 05.04.2020
6270 Rain 26 1011 94 10000 1.5 60 14:38 05.04.2020
6271 Rain 26 1011 94 10000 1.5 60 14:38 05.04.2020
6272 Rain 26 1011 94 10000 1.5 60 14:38 05.04.2020
6273 Rain 26 1011 94 10000 1.5 60 14:37 05.04.2020
6274 Rain 26 1011 94 10000 1.5 60 14:36 05.04.2020
6275 Rain 26 1010 94 10000 0.5 160 13:44 05.04.2020
6276 Rain 26 1010 94 10000 0.5 160 13:44 05.04.2020
6277 Clouds 26 1010 94 10000 0.5 160 12:54 05.04.2020
6278 Clouds 26 1010 94 10000 0.5 160 12:54 05.04.2020
6279 Clouds 26 1010 94 10000 0.5 160 12:54 05.04.2020
6280 Clouds 26 1010 94 10000 0.5 160 12:54 05.04.2020
6281 Clouds 27 1010 94 10000 0.5 160 12:54 05.04.2020
6282 Clouds 27 1009 88 10000 0.5 160 11:43 05.04.2020
6283 Clouds 28 1009 83 10000 1 160 11:21 05.04.2020
6284 Clouds 28 1009 83 10000 1 160 11:21 05.04.2020
6285 Clouds 28 1009 83 10000 1 170 10:59 05.04.2020
6286 Clouds 28 1009 83 10000 1 170 10:41 05.04.2020
6287 Clouds 29 1008 79 10000 0.5 180 10:18 05.04.2020
6288 Clouds 30 1008 79 10000 1 250 09:43 05.04.2020
6289 Clouds 30 1008 79 10000 2.6 280 09:24 05.04.2020
6290 Clouds 30 1008 79 10000 2.6 280 09:24 05.04.2020
6291 Clouds 30 1008 79 10000 2.6 280 09:24 05.04.2020
6292 Clouds 30 1008 79 10000 2.6 280 09:24 05.04.2020
6293 Clouds 30 1008 79 10000 2.6 280 09:24 05.04.2020
6294 Clouds 29 1008 79 10000 1 300 07:42 05.04.2020
6295 Clouds 26 1011 94 10000 0.5 280 04:36 05.04.2020
6296 Clouds 26 1012 94 10000 2.6 140 03:33 05.04.2020
6297 Clouds 25 1011 94 10000 1 360 02:52 05.04.2020
6298 Rain 25 1010 94 10000 2.6 310 01:48 05.04.2020
6299 Thunderstorm 25 1010 94 10000 4.1 10 01:28 05.04.2020
6300 Rain 27 1010 94 10000 4.1 130 00:46 05.04.2020
6301 Rain 27 1010 94 10000 4.1 130 00:22 05.04.2020
6302 Clouds 27 1009 94 10000 4.07 9 23:56 04.04.2020
6303 Clouds 27 1009 94 10000 2.6 100 23:37 04.04.2020
6304 Clouds 27 1009 94 10000 2.6 100 23:19 04.04.2020
6305 Clouds 28 1009 88 10000 1 310 22:41 04.04.2020
6306 Clouds 28 1009 88 10000 0.5 290 22:22 04.04.2020
6307 Rain 28 1009 83 10000 2.1 290 21:59 04.04.2020
6308 Rain 28 1009 83 10000 2.1 270 21:40 04.04.2020
6309 Rain 28 1009 83 10000 2.1 270 21:20 04.04.2020
6310 Rain 28 1009 83 10000 2.1 270 21:20 04.04.2020
6311 Clouds 28 1009 79 10000 3.1 270 20:59 04.04.2020
6312 Clouds 28 1009 79 10000 3.1 270 20:41 04.04.2020
6313 Clouds 28 1009 88 0 2.1 280 20:22 04.04.2020
6314 Clouds 28 1009 88 10000 0.5 90 19:57 04.04.2020
6315 Rain 27 1009 88 10000 0.5 50 19:37 04.04.2020
6316 Rain 27 1009 88 10000 0.5 50 19:19 04.04.2020
6317 Clouds 27 1009 83 10000 0.5 190 18:56 04.04.2020
6318 Rain 28 1009 83 10000 0.5 290 18:38 04.04.2020
6319 Rain 28 1009 83 10000 0.5 290 18:19 04.04.2020
6320 Clouds 28 1009 79 10000 1 330 17:56 04.04.2020
6321 Rain 29 1009 79 10000 2.1 280 17:38 04.04.2020
6322 Rain 29 1009 79 10000 2.1 280 17:38 04.04.2020
6323 Rain 29 1009 79 10000 2.1 280 17:38 04.04.2020
6324 Clouds 29 1009 79 10000 2.1 280 17:18 04.04.2020
6325 Rain 29 1010 79 10000 2.1 290 16:42 04.04.2020
6326 Clouds 29 1010 74 10000 2.1 260 16:22 04.04.2020
6327 Clouds 29 1011 74 10000 1.5 260 15:55 04.04.2020
6328 Clouds 29 1010 70 10000 3.1 250 15:37 04.04.2020
6329 Clouds 29 1010 70 10000 3.1 250 15:18 04.04.2020
6330 Clouds 29 1010 74 10000 2.6 280 14:43 04.04.2020
6331 Clouds 29 1010 74 10000 2.6 280 14:23 04.04.2020
6332 Clouds 29 1010 70 10000 2.1 270 13:56 04.04.2020
6333 Clouds 29 1010 70 10000 3.6 290 13:38 04.04.2020
6334 Clouds 29 1010 70 10000 3.6 290 13:19 04.04.2020
6335 Clouds 29 1010 70 10000 3.6 290 13:19 04.04.2020
6336 Clouds 30 1008 70 10000 3.1 280 12:45 04.04.2020
6337 Clouds 30 1008 70 10000 3.1 280 12:26 04.04.2020
6338 Clouds 30 1008 66 10000 4.6 270 11:59 04.04.2020
6339 Clouds 30 1008 62 10000 4.1 260 11:39 04.04.2020
6340 Clouds 30 1008 62 10000 4.1 260 11:20 04.04.2020
6341 Clouds 30 1008 62 10000 6.2 280 10:56 04.04.2020
6342 Clouds 31 1008 62 10000 6.2 290 10:38 04.04.2020
6343 Clouds 31 1008 62 10000 6.2 290 10:19 04.04.2020
6344 Clouds 31 1007 62 10000 7.7 290 09:55 04.04.2020
6345 Thunderstorm 31 1007 62 10000 7.7 300 09:37 04.04.2020
6346 Thunderstorm 31 1007 62 10000 7.7 300 09:37 04.04.2020
6347 Thunderstorm 32 1007 62 10000 7.7 300 09:18 04.04.2020
6348 Clouds 33 1007 59 10000 7.7 300 08:42 04.04.2020
6349 Rain 33 1007 59 10000 6.7 290 08:21 04.04.2020
6350 Clouds 33 1007 59 10000 6.2 290 07:47 04.04.2020
6351 Clouds 31 1007 55 10000 6.2 290 07:27 04.04.2020
6352 Rain 33 1008 55 10000 5.7 290 06:57 04.04.2020
6353 Clouds 33 1008 62 10000 4.6 270 06:20 04.04.2020
6354 Rain 32 1009 66 10000 3.6 270 05:43 04.04.2020
6355 Rain 33 1009 74 10000 5.7 300 05:24 04.04.2020
6356 Rain 32 1010 74 10000 3.6 300 04:33 04.04.2020
6357 Rain 32 1010 74 10000 3.6 320 03:55 04.04.2020
6358 Clouds 31 1011 70 10000 3.1 250 03:27 04.04.2020
6359 Clouds 31 1011 70 10000 2.6 240 02:40 04.04.2020
6360 Clouds 31 1011 74 10000 1.5 210 02:22 04.04.2020
6361 Clouds 30 1010 83 10000 1.5 160 01:26 04.04.2020
6362 Clouds 29 1010 89 10000 1 200 00:52 04.04.2020
6363 Clouds 28 1009 94 10000 0.5 210 00:30 04.04.2020
6364 Clouds 27 1008 94 10000 0.5 210 23:55 03.04.2020
6365 Clouds 27 1008 88 10000 1.5 220 23:36 03.04.2020
6366 Clouds 27 1008 88 10000 1.5 220 23:18 03.04.2020
6367 Clouds 28 1008 88 10000 2.1 230 22:40 03.04.2020
6368 Clouds 27 1008 88 10000 1.5 230 22:19 03.04.2020
6369 Rain 27 1008 88 10000 1.5 230 21:56 03.04.2020
6370 Clouds 27 1008 88 10000 1.5 240 21:37 03.04.2020
6371 Clouds 27 1008 88 10000 1.5 240 21:19 03.04.2020
6372 Clear 27 1007 88 10000 1.5 270 20:54 03.04.2020
6373 Clear 28 1008 88 10000 1.5 240 20:36 03.04.2020
6374 Clear 27 1008 88 10000 1.5 240 20:18 03.04.2020
6375 Clear 27 1008 94 10000 1 230 19:54 03.04.2020
6376 Clear 27 1008 94 10000 1.5 230 19:36 03.04.2020
6377 Clear 27 1008 94 10000 1.5 230 19:36 03.04.2020
6378 Clear 26 1008 94 10000 1 280 19:18 03.04.2020
6379 Clear 26 1009 94 10000 1 280 18:42 03.04.2020
6380 Clear 26 1009 94 10000 1 280 18:23 03.04.2020
6381 Clear 26 1009 88 10000 2.35 251 17:58 03.04.2020
6382 Clear 26 1009 94 10000 1 280 17:40 03.04.2020
6383 Clear 26 1009 94 10000 1 280 17:40 03.04.2020
6384 Clear 26 1009 94 10000 1 280 17:19 03.04.2020
6385 Clear 26 1009 94 10000 1 280 17:19 03.04.2020
6386 Clear 26 1009 88 10000 2.35 251 16:54 03.04.2020
6387 Clear 26 1009 88 10000 2.35 251 16:54 03.04.2020
6388 Clear 27 1010 83 10000 1 280 16:36 03.04.2020
6389 Clear 27 1010 83 10000 1 280 16:18 03.04.2020
6390 Clear 27 1010 83 10000 1 280 16:18 03.04.2020
6391 Clear 27 1010 78 10000 1.5 240 15:41 03.04.2020
6392 Clear 27 1010 78 10000 1.5 240 15:22 03.04.2020
6393 Rain 27 1015 86 0 2.81 279 14:57 03.04.2020
6394 Rain 27 1015 85 0 2.81 279 14:39 03.04.2020
6395 Rain 27 1009 74 10000 1.5 220 14:21 03.04.2020
6396 Rain 27 1009 74 10000 1.5 220 13:46 03.04.2020
6397 Rain 27 1009 74 10000 1.5 220 13:26 03.04.2020
6398 Rain 27 1009 69 10000 2.1 240 12:57 03.04.2020
6399 Rain 27 1009 74 10000 2.6 200 12:39 03.04.2020
6400 Rain 27 1009 74 10000 2.6 200 12:18 03.04.2020
6401 Clouds 28 1009 69 10000 2.1 190 11:55 03.04.2020
6402 Clouds 28 1008 69 10000 2.1 210 11:37 03.04.2020
6403 Clouds 28 1008 69 10000 2.1 210 11:18 03.04.2020
6404 Clouds 28 1008 74 10000 4.1 220 10:56 03.04.2020
6405 Rain 28 1008 79 10000 1 260 10:37 03.04.2020
6406 Rain 29 1008 79 10000 1 260 10:19 03.04.2020
6407 Rain 29 1007 78 10000 3.1 160 09:55 03.04.2020
6408 Thunderstorm 29 1007 66 10000 3.6 290 09:37 03.04.2020
6409 Thunderstorm 32 1007 66 10000 3.6 290 09:19 03.04.2020
6410 Rain 32 1007 62 10000 5.7 290 08:44 03.04.2020
6411 Rain 32 1007 62 10000 5.1 310 08:24 03.04.2020
6412 Rain 33 1007 62 10000 5.1 310 07:51 03.04.2020
6413 Rain 33 1008 59 10000 4.6 290 07:33 03.04.2020
6414 Clouds 33 1008 59 10000 3.6 310 06:58 03.04.2020
6415 Clouds 33 1008 59 10000 2.1 290 06:28 03.04.2020
6416 Clouds 33 1009 59 10000 3.1 310 05:42 03.04.2020
6417 Clouds 33 1011 66 10000 2.6 320 04:18 03.04.2020
6418 Clouds 32 1011 66 10000 2.6 330 03:32 03.04.2020
6419 Clouds 31 1011 79 10000 1 250 02:31 03.04.2020
6420 Clouds 29 1010 83 10000 1.5 130 01:25 03.04.2020
6421 Rain 28 1010 83 10000 1.5 190 00:47 03.04.2020
6422 Clouds 27 1010 94 10000 1.95 341 00:29 03.04.2020
6423 Rain 26 1009 88 10000 1 280 23:54 02.04.2020
6424 Rain 26 1009 94 10000 1.8 332 23:36 02.04.2020
6425 Rain 26 1009 94 10000 1.8 332 23:18 02.04.2020
6426 Rain 26 1009 88 10000 3.1 300 22:41 02.04.2020
6427 Rain 26 1009 94 10000 1 270 22:22 02.04.2020
6428 Clouds 26 1008 94 10000 1.5 330 21:58 02.04.2020
6429 Rain 26 1008 94 10000 1.5 300 21:37 02.04.2020
6430 Rain 26 1008 94 10000 1.5 300 21:18 02.04.2020
6431 Clouds 26 1008 88 10000 0.5 310 20:44 02.04.2020
6432 Clouds 25 1008 88 10000 0.5 310 20:24 02.04.2020
6433 Clouds 25 1008 88 10000 2.6 260 19:57 02.04.2020
6434 Clouds 26 1008 100 10000 3.1 30 19:39 02.04.2020
6435 Rain 26 1008 100 10000 3.1 30 19:20 02.04.2020
6436 Rain 26 1008 100 10000 3.1 30 18:55 02.04.2020
6437 Rain 27 1009 94 4700 3.1 350 18:36 02.04.2020
6438 Rain 27 1009 79 10000 3.1 320 18:18 02.04.2020
6439 Clouds 28 1009 83 10000 2.1 300 17:42 02.04.2020
6440 Clouds 28 1009 83 10000 2.1 300 17:24 02.04.2020
6441 Rain 28 1010 83 10000 2.1 290 16:58 02.04.2020
6442 Rain 28 1010 83 10000 2.6 310 16:40 02.04.2020
6443 Rain 29 1010 83 10000 2.6 310 16:21 02.04.2020
6444 Rain 29 1010 74 5000 3.6 290 15:56 02.04.2020
6445 Clouds 29 1010 74 10000 2.6 280 15:38 02.04.2020
6446 Clouds 29 1010 74 10000 2.6 280 15:18 02.04.2020
6447 Clouds 29 1010 74 10000 2.1 290 14:57 02.04.2020
6448 Clouds 29 1010 74 10000 1.5 300 14:38 02.04.2020
6449 Clouds 29 1009 74 10000 2.1 280 14:18 02.04.2020
6450 Clouds 29 1009 74 10000 2.1 280 13:54 02.04.2020
6451 Clouds 29 1009 70 10000 2.1 270 13:36 02.04.2020
6452 Clouds 29 1009 70 10000 2.1 270 13:18 02.04.2020
6453 Clouds 29 1008 70 10000 2.6 300 12:44 02.04.2020
6454 Clouds 29 1008 70 10000 2.6 300 12:19 02.04.2020
6455 Clouds 30 1008 66 10000 2.6 300 11:57 02.04.2020
6456 Clouds 30 1007 66 10000 2.6 290 11:39 02.04.2020
6457 Clouds 31 1007 66 10000 2.6 290 11:20 02.04.2020
6458 Rain 31 1007 66 10000 3.1 310 10:56 02.04.2020
6459 Clouds 31 1007 66 10000 3.6 310 10:38 02.04.2020
6460 Clouds 32 1007 66 10000 3.6 310 10:20 02.04.2020
6461 Clouds 32 1007 66 10000 3.6 320 09:58 02.04.2020
6462 Clouds 32 1007 66 10000 3.6 320 09:58 02.04.2020
6463 Clouds 32 1007 66 10000 3.6 320 09:39 02.04.2020
6464 Rain 32 1007 70 10000 5.1 340 09:20 02.04.2020
6465 Rain 32 1007 62 10000 5.1 340 08:47 02.04.2020
6466 Rain 33 1007 63 10000 4.1 340 08:27 02.04.2020
6467 Rain 34 1007 59 10000 4.1 340 07:47 02.04.2020
6468 Rain 33 1008 70 10000 2.6 350 07:22 02.04.2020
6469 Rain 33 1008 66 10000 3.1 350 06:59 02.04.2020
6470 Rain 33 1008 62 10000 5.1 340 06:23 02.04.2020
6471 Rain 34 1009 59 10000 2.6 290 05:45 02.04.2020
6472 Clouds 32 1010 70 10000 5.1 340 04:47 02.04.2020
6473 Clouds 31 1012 66 10000 2.1 80 02:19 02.04.2020
6474 Clouds 29 1011 83 10000 1 100 00:58 02.04.2020
6475 Clouds 28 1010 88 10000 1 80 00:38 02.04.2020
6476 Clouds 28 1010 88 10000 1 80 00:19 02.04.2020
6477 Clouds 27 1010 88 10000 1.5 60 23:38 01.04.2020
6478 Clouds 27 1010 88 10000 1.5 60 23:19 01.04.2020
6479 Rain 27 1009 94 10000 3.1 50 22:56 01.04.2020
6480 Rain 27 1009 88 10000 0.5 20 22:37 01.04.2020
6481 Rain 27 1009 88 10000 0.5 20 22:19 01.04.2020
6482 Rain 27 1009 88 10000 0.5 20 21:39 01.04.2020
6483 Rain 27 1009 88 10000 1 360 21:19 01.04.2020
6484 Rain 27 1009 83 10000 2.1 360 20:56 01.04.2020
6485 Rain 27 1009 83 10000 2.1 360 20:38 01.04.2020
6486 Rain 27 1009 83 10000 2.1 360 20:19 01.04.2020
6487 Rain 27 1009 78 10000 2.6 360 19:57 01.04.2020
6488 Clouds 27 1009 88 10000 2.6 10 19:37 01.04.2020
6489 Clouds 27 1009 88 10000 2.6 10 19:37 01.04.2020
6490 Clouds 27 1009 88 10000 2.6 10 19:19 01.04.2020
6491 Clouds 27 1009 83 10000 1 320 18:42 01.04.2020
6492 Clouds 27 1009 83 10000 1 320 18:22 01.04.2020
6493 Clouds 28 1009 79 10000 1.5 310 17:57 01.04.2020
6494 Clear 28 1010 79 10000 2.1 290 17:37 01.04.2020
6495 Clear 28 1010 79 10000 2.1 290 17:19 01.04.2020
6496 Clouds 28 1010 79 10000 2.6 310 16:57 01.04.2020
6497 Clouds 28 1010 79 10000 2.6 320 16:39 01.04.2020
6498 Clouds 28 1010 79 10000 2.6 320 16:20 01.04.2020
6499 Clouds 28 1010 79 10000 3.1 330 15:56 01.04.2020
6500 Clouds 29 1010 79 10000 3.6 330 15:37 01.04.2020
6501 Clouds 29 1010 79 10000 3.6 330 15:18 01.04.2020
6502 Clouds 29 1010 74 10000 3.6 330 14:40 01.04.2020
6503 Clouds 29 1010 74 10000 3.6 340 14:22 01.04.2020
6504 Clouds 30 1009 70 10000 3.6 360 13:59 01.04.2020
6505 Clouds 30 1009 70 10000 3.1 360 13:39 01.04.2020
6506 Clouds 30 1009 70 10000 3.1 360 13:20 01.04.2020
6507 Clouds 30 1009 70 10000 3.1 10 12:58 01.04.2020
6508 Clouds 30 1008 66 10000 3.1 10 12:40 01.04.2020
6509 Clouds 29 1008 66 10000 3.1 10 12:21 01.04.2020
6510 Clouds 30 1008 62 10000 3.6 20 11:56 01.04.2020
6511 Clouds 31 1008 55 10000 4.1 10 11:37 01.04.2020
6512 Clouds 31 1008 55 10000 4.1 10 11:18 01.04.2020
6513 Rain 32 1008 59 0 4.92 30 10:39 01.04.2020
6514 Rain 33 1008 55 10000 5.1 360 10:21 01.04.2020
6515 Rain 33 1008 55 10000 4.6 360 09:59 01.04.2020
6516 Rain 33 1008 55 10000 4.6 360 09:40 01.04.2020
6517 Rain 33 1008 55 10000 4.6 360 09:40 01.04.2020
6518 Clouds 34 1007 59 10000 4.1 350 09:20 01.04.2020
6519 Rain 34 1007 59 10000 5.1 320 08:54 01.04.2020
6520 Clouds 34 1007 55 10000 3.6 340 08:36 01.04.2020
6521 Clouds 34 1007 55 10000 3.6 340 08:18 01.04.2020
6522 Clouds 34 1008 55 10000 3.1 330 07:40 01.04.2020
6523 Clouds 34 1008 55 10000 3.1 330 07:19 01.04.2020
6524 Clouds 33 1009 59 10000 3.1 310 06:42 01.04.2020
6525 Clouds 33 1009 59 10000 3.1 310 06:20 01.04.2020
6526 Clouds 33 1009 59 10000 4.1 320 05:28 01.04.2020
6527 Clouds 33 1011 52 10000 5.1 320 03:40 01.04.2020
6528 Clouds 32 1011 55 10000 5.1 320 03:19 01.04.2020
6529 Clouds 32 1011 62 10000 2.1 110 02:36 01.04.2020
6530 Clouds 30 1010 70 10000 2.1 130 01:53 01.04.2020
6531 Clouds 28 1010 74 10000 2.6 130 01:25 01.04.2020
6532 Clouds 27 1010 78 10000 2.6 150 00:47 01.04.2020
6533 Rain 26 1010 88 10000 2.1 130 00:23 01.04.2020
6534 Rain 26 1009 88 10000 2.1 140 23:59 31.03.2020
6535 Rain 25 1009 88 10000 1 110 23:40 31.03.2020
6536 Rain 25 1009 88 10000 1 110 23:21 31.03.2020
6537 Rain 26 1008 88 10000 2.05 102 22:41 31.03.2020
6538 Rain 26 1008 88 10000 2.05 102 22:21 31.03.2020
6539 Rain 25 1008 94 10000 2.05 102 21:58 31.03.2020
6540 Rain 25 1008 94 10000 2.05 102 21:58 31.03.2020
6541 Rain 26 1008 94 10000 2.05 102 21:40 31.03.2020
6542 Rain 26 1008 94 10000 2.05 102 21:40 31.03.2020
6543 Rain 26 1008 94 10000 1.74 58 21:21 31.03.2020
6544 Clouds 25 1009 94 10000 1.5 80 20:57 31.03.2020
6545 Clouds 26 1009 94 10000 1.5 80 20:37 31.03.2020
6546 Clouds 26 1009 94 10000 1.5 70 20:19 31.03.2020
6547 Clouds 26 1009 94 10000 1.5 70 19:56 31.03.2020
6548 Rain 26 1009 88 10000 2.6 60 19:38 31.03.2020
6549 Clouds 27 1009 88 10000 3.6 100 19:19 31.03.2020
6550 Clouds 27 1009 88 10000 3.1 90 18:44 31.03.2020
6551 Clouds 28 1010 83 10000 3.1 110 18:21 31.03.2020
6552 Clouds 28 1010 83 10000 3.1 110 17:57 31.03.2020
6553 Clouds 28 1010 83 10000 3.1 110 17:57 31.03.2020
6554 Clouds 28 1010 88 10000 1 130 17:39 31.03.2020
6555 Clouds 27 1010 88 10000 1 130 17:21 31.03.2020
6556 Clouds 27 1010 88 10000 0.65 199 16:56 31.03.2020
6557 Clouds 28 1010 79 10000 1 250 16:37 31.03.2020
6558 Clouds 28 1010 79 10000 1 250 16:18 31.03.2020
6559 Clouds 28 1010 83 10000 1.5 250 15:56 31.03.2020
6560 Clouds 28 1010 79 10000 1 250 15:37 31.03.2020
6561 Clouds 28 1010 79 10000 1 250 15:37 31.03.2020
6562 Clouds 28 1010 79 10000 1 250 15:18 31.03.2020
6563 Clouds 28 1010 74 10000 2.1 280 14:42 31.03.2020
6564 Clouds 29 1010 74 10000 1.5 290 14:23 31.03.2020
6565 Clouds 29 1010 70 10000 2.6 300 13:59 31.03.2020
6566 Clouds 29 1009 70 10000 2.6 310 13:41 31.03.2020
6567 Clouds 29 1009 70 10000 2.6 310 13:19 31.03.2020
6568 Clouds 29 1009 70 10000 2.6 310 13:19 31.03.2020
6569 Clouds 29 1009 74 10000 2.1 300 12:46 31.03.2020
6570 Clouds 29 1009 74 10000 2.1 300 12:21 31.03.2020
6571 Rain 30 1009 66 9000 4.1 300 11:59 31.03.2020
6572 Rain 30 1008 66 10000 4.1 300 11:38 31.03.2020
6573 Rain 30 1008 66 10000 4.1 300 11:19 31.03.2020
6574 Rain 31 1008 66 10000 4.1 300 10:56 31.03.2020
6575 Clouds 31 1007 66 10000 4.6 320 10:38 31.03.2020
6576 Clouds 32 1007 66 10000 4.6 320 10:20 31.03.2020
6577 Clouds 33 1007 62 10000 4.1 350 09:55 31.03.2020
6578 Clouds 33 1007 62 10000 3.6 340 09:37 31.03.2020
6579 Clouds 33 1007 62 10000 3.6 340 09:19 31.03.2020
6580 Clouds 33 1007 59 10000 3.6 350 08:54 31.03.2020
6581 Clouds 33 1007 62 10000 3.6 350 08:36 31.03.2020
6582 Clouds 34 1007 62 10000 3.6 350 08:18 31.03.2020
6583 Clouds 32 1008 70 10000 0.5 330 07:43 31.03.2020
6584 Clouds 32 1008 70 10000 0.5 330 07:23 31.03.2020
6585 Rain 32 1008 70 10000 5.1 360 06:58 31.03.2020
6586 Rain 32 1008 70 10000 4.6 300 06:39 31.03.2020
6587 Clouds 33 1009 62 10000 3.6 340 05:42 31.03.2020
6588 Clouds 34 1009 62 10000 3.6 340 05:23 31.03.2020
6589 Clouds 32 1010 62 10000 1.5 20 02:53 31.03.2020
6590 Clouds 31 1010 62 10000 2.1 50 01:47 31.03.2020
6591 Clouds 29 1010 70 10000 2.6 50 01:19 31.03.2020
6592 Clouds 27 1010 83 10000 1.5 40 00:43 31.03.2020
6593 Clouds 26 1010 83 10000 1.5 40 00:20 31.03.2020
6594 Clouds 25 1009 83 10000 3.1 40 23:40 30.03.2020
6595 Clouds 26 1009 83 10000 3.1 40 23:20 30.03.2020
6596 Clouds 26 1009 83 10000 3.1 30 22:57 30.03.2020
6597 Clouds 26 1009 83 10000 4.1 40 22:38 30.03.2020
6598 Clouds 26 1009 83 10000 4.1 40 22:19 30.03.2020
6599 Rain 27 1009 88 10000 2.1 30 21:57 30.03.2020
6600 Rain 27 1008 88 10000 1 360 21:38 30.03.2020
6601 Rain 27 1008 88 10000 1 360 21:20 30.03.2020
6602 Clouds 27 1008 88 10000 1 360 20:58 30.03.2020
6603 Clouds 27 1009 88 10000 1.53 21 20:38 30.03.2020
6604 Clouds 27 1009 88 10000 1.53 21 20:19 30.03.2020
6605 Clouds 27 1008 83 10000 1.53 21 19:54 30.03.2020
6606 Clouds 27 1009 83 10000 1 360 19:36 30.03.2020
6607 Clouds 27 1009 83 10000 0.5 10 19:18 30.03.2020
6608 Clouds 27 1009 83 10000 1 20 18:41 30.03.2020
6609 Clouds 27 1009 83 10000 1 20 18:23 30.03.2020
6610 Clear 27 1009 83 10000 1 340 17:57 30.03.2020
6611 Clear 27 1009 83 10000 1 310 17:39 30.03.2020
6612 Clear 27 1009 83 10000 1 310 17:19 30.03.2020
6613 Clouds 27 1010 83 10000 1 300 16:57 30.03.2020
6614 Clouds 28 1010 70 10000 1.5 290 16:39 30.03.2020
6615 Clouds 28 1010 70 10000 1.5 290 16:20 30.03.2020
6616 Clouds 28 1010 70 10000 2.1 300 15:55 30.03.2020
6617 Clear 28 1009 70 10000 2.1 310 15:37 30.03.2020
6618 Clouds 29 1009 70 10000 2.1 310 15:19 30.03.2020
6619 Clouds 29 1009 70 10000 2.6 310 14:55 30.03.2020
6620 Clouds 29 1009 74 10000 2.6 300 14:36 30.03.2020
6621 Clouds 29 1009 74 10000 2.6 300 14:18 30.03.2020
6622 Clouds 29 1009 74 10000 2.1 300 13:54 30.03.2020
6623 Clouds 29 1008 74 10000 2.6 300 13:36 30.03.2020
6624 Rain 29 1008 74 10000 2.6 300 13:18 30.03.2020
6625 Rain 30 1008 70 10000 2.6 300 12:41 30.03.2020
6626 Clouds 30 1008 70 10000 2.6 300 12:20 30.03.2020
6627 Clouds 30 1007 66 10000 3.1 300 11:57 30.03.2020
6628 Clouds 30 1007 66 10000 4.1 300 11:39 30.03.2020
6629 Clouds 30 1007 66 10000 4.1 300 11:21 30.03.2020
6630 Clouds 32 1006 62 10000 4.1 300 10:41 30.03.2020
6631 Clouds 32 1006 62 10000 4.1 310 10:22 30.03.2020
6632 Clouds 33 1006 59 10000 3.6 320 09:58 30.03.2020
6633 Clouds 34 1006 59 10000 3.6 320 09:39 30.03.2020
6634 Clouds 34 1006 59 10000 3.1 340 09:19 30.03.2020
6635 Clouds 34 1006 59 10000 3.6 350 08:43 30.03.2020
6636 Clouds 34 1006 59 10000 5.1 350 08:23 30.03.2020
6637 Clouds 34 1007 63 10000 4.6 340 07:53 30.03.2020
6638 Clouds 35 1007 37 10000 3.6 340 07:34 30.03.2020
6639 Clouds 35 1007 36 10000 2.6 320 06:59 30.03.2020
6640 Clouds 35 1008 36 10000 2.1 280 06:34 30.03.2020
6641 Clouds 34 1008 56 10000 2.6 300 05:59 30.03.2020
6642 Clouds 34 1009 59 10000 3.6 330 05:34 30.03.2020
6643 Clouds 33 1009 59 10000 5.1 310 04:26 30.03.2020
6644 Clouds 33 1010 59 10000 2.6 200 03:45 30.03.2020
6645 Clouds 32 1010 66 10000 1 190 02:42 30.03.2020
6646 Clouds 31 1010 70 10000 1 110 01:52 30.03.2020
6647 Rain 28 1010 83 10000 0.5 80 00:56 30.03.2020
6648 Rain 27 1010 94 10000 1.5 80 00:25 30.03.2020
6649 Clouds 26 1009 94 10000 1 130 23:43 29.03.2020
6650 Clouds 26 1009 94 10000 2.1 130 23:24 29.03.2020
6651 Clouds 26 1009 100 10000 1.5 70 22:59 29.03.2020
6652 Clouds 25 1009 100 10000 1.5 70 22:39 29.03.2020
6653 Clouds 26 1008 94 10000 1.5 130 22:20 29.03.2020
6654 Rain 26 1008 94 10000 1.88 97 21:58 29.03.2020
6655 Rain 26 1008 94 10000 1.5 130 21:37 29.03.2020
6656 Rain 26 1008 94 10000 1.5 130 21:18 29.03.2020
6657 Rain 26 1008 88 10000 1.5 150 20:55 29.03.2020
6658 Rain 26 1008 94 10000 1 90 20:37 29.03.2020
6659 Rain 26 1008 94 10000 1 90 20:37 29.03.2020
6660 Rain 26 1008 94 10000 1 50 20:18 29.03.2020
6661 Rain 26 1008 94 10000 1 50 19:55 29.03.2020
6662 Rain 26 1008 94 10000 1 50 19:55 29.03.2020
6663 Rain 26 1008 88 10000 1.5 80 19:37 29.03.2020
6664 Clouds 26 1009 94 10000 0.5 200 19:18 29.03.2020
6665 Rain 27 1009 83 10000 1 250 18:55 29.03.2020
6666 Rain 27 1009 83 10000 1 250 18:36 29.03.2020
6667 Rain 27 1009 83 10000 1.5 270 18:18 29.03.2020
6668 Clouds 28 1009 79 10000 1.5 260 17:42 29.03.2020
6669 Clouds 28